<?xml version="1.0" encoding="utf-8"?>
<gpx xmlns:xsi="http://www.w3.org/2001/XMLSchema-instance" xmlns:xsd="http://www.w3.org/2001/XMLSchema" version="1.1" creator="Shapelink.com" xmlns="http://www.topografix.com/GPX/1/1" xmlns:gpxtpx="http://www.garmin.com/xmlschemas/TrackPointExtension/v1">
  <metadata>
    <name>Cykling 38.18 km, 2012-10-25</name>
    <desc></desc>
    <author><name>Alexander Engvall</name></author> 
    <time>2012-10-25T18:10:57Z</time>
  </metadata>
  <trk>
    <name>Cykling 38.18 km, 2012-10-25</name>
    <trkseg>
      <trkpt lat="59.3332225773" lon="18.0638230508">
        <ele>158.6</ele>
        <time>2012-10-25T18:10:57Z</time>
      </trkpt>
      <trkpt lat="59.3332492318" lon="18.0639184368">
        <ele>160</ele>
        <time>2012-10-25T18:10:58Z</time>
      </trkpt>
      <trkpt lat="59.3332895487" lon="18.0639969752">
        <ele>160</ele>
        <time>2012-10-25T18:10:59Z</time>
      </trkpt>
      <trkpt lat="59.3333781454" lon="18.064298556">
        <ele>160</ele>
        <time>2012-10-25T18:11:02Z</time>
      </trkpt>
      <trkpt lat="59.3334097452" lon="18.0644316606">
        <ele>160.4</ele>
        <time>2012-10-25T18:11:03Z</time>
      </trkpt>
      <trkpt lat="59.3334324601" lon="18.064551857">
        <ele>160.8</ele>
        <time>2012-10-25T18:11:04Z</time>
      </trkpt>
      <trkpt lat="59.3334461226" lon="18.0646863027">
        <ele>161.2</ele>
        <time>2012-10-25T18:11:05Z</time>
      </trkpt>
      <trkpt lat="59.3334572705" lon="18.0648158869">
        <ele>161.6</ele>
        <time>2012-10-25T18:11:06Z</time>
      </trkpt>
      <trkpt lat="59.3334708492" lon="18.0649272823">
        <ele>162</ele>
        <time>2012-10-25T18:11:07Z</time>
      </trkpt>
      <trkpt lat="59.3335189613" lon="18.0652591217">
        <ele>162</ele>
        <time>2012-10-25T18:11:09Z</time>
      </trkpt>
      <trkpt lat="59.3335163629" lon="18.0653711039">
        <ele>162</ele>
        <time>2012-10-25T18:11:11Z</time>
      </trkpt>
      <trkpt lat="59.3335835019" lon="18.0656182862">
        <ele>162</ele>
        <time>2012-10-25T18:11:14Z</time>
      </trkpt>
      <trkpt lat="59.3336156046" lon="18.0657044521">
        <ele>162</ele>
        <time>2012-10-25T18:11:15Z</time>
      </trkpt>
      <trkpt lat="59.3337032793" lon="18.0660773628">
        <ele>162</ele>
        <time>2012-10-25T18:11:19Z</time>
      </trkpt>
      <trkpt lat="59.3338072987" lon="18.0666114575">
        <ele>162</ele>
        <time>2012-10-25T18:11:24Z</time>
      </trkpt>
      <trkpt lat="59.3339014274" lon="18.0673135254">
        <ele>162</ele>
        <time>2012-10-25T18:11:29Z</time>
      </trkpt>
      <trkpt lat="59.3339657166" lon="18.0678742745">
        <ele>161.6</ele>
        <time>2012-10-25T18:11:33Z</time>
      </trkpt>
      <trkpt lat="59.3339777027" lon="18.0680058704">
        <ele>161</ele>
        <time>2012-10-25T18:11:34Z</time>
      </trkpt>
      <trkpt lat="59.3339906947" lon="18.0681359575">
        <ele>160.4</ele>
        <time>2012-10-25T18:11:35Z</time>
      </trkpt>
      <trkpt lat="59.3340048601" lon="18.068269984">
        <ele>159.8</ele>
        <time>2012-10-25T18:11:36Z</time>
      </trkpt>
      <trkpt lat="59.3340212048" lon="18.0684108">
        <ele>159.4</ele>
        <time>2012-10-25T18:11:37Z</time>
      </trkpt>
      <trkpt lat="59.3340410699" lon="18.068702993">
        <ele>159.4</ele>
        <time>2012-10-25T18:11:39Z</time>
      </trkpt>
      <trkpt lat="59.3340692331" lon="18.0690139615">
        <ele>158.8</ele>
        <time>2012-10-25T18:11:41Z</time>
      </trkpt>
      <trkpt lat="59.3340756871" lon="18.0691763189">
        <ele>158.2</ele>
        <time>2012-10-25T18:11:42Z</time>
      </trkpt>
      <trkpt lat="59.3340827279" lon="18.069338341">
        <ele>157.8</ele>
        <time>2012-10-25T18:11:43Z</time>
      </trkpt>
      <trkpt lat="59.3340878409" lon="18.0694985191">
        <ele>157.2</ele>
        <time>2012-10-25T18:11:44Z</time>
      </trkpt>
      <trkpt lat="59.3340941273" lon="18.0696554283">
        <ele>156.6</ele>
        <time>2012-10-25T18:11:45Z</time>
      </trkpt>
      <trkpt lat="59.3341068678" lon="18.0702340308">
        <ele>156.2</ele>
        <time>2012-10-25T18:11:49Z</time>
      </trkpt>
      <trkpt lat="59.3341113102" lon="18.0703662972">
        <ele>155.8</ele>
        <time>2012-10-25T18:11:50Z</time>
      </trkpt>
      <trkpt lat="59.3341166746" lon="18.0704911875">
        <ele>155.2</ele>
        <time>2012-10-25T18:11:51Z</time>
      </trkpt>
      <trkpt lat="59.3341206979" lon="18.0706058519">
        <ele>154.8</ele>
        <time>2012-10-25T18:11:52Z</time>
      </trkpt>
      <trkpt lat="59.3341202788" lon="18.0707170797">
        <ele>154.4</ele>
        <time>2012-10-25T18:11:53Z</time>
      </trkpt>
      <trkpt lat="59.3341214523" lon="18.0708194227">
        <ele>153.8</ele>
        <time>2012-10-25T18:11:54Z</time>
      </trkpt>
      <trkpt lat="59.3341290798" lon="18.0708959495">
        <ele>153.4</ele>
        <time>2012-10-25T18:11:55Z</time>
      </trkpt>
      <trkpt lat="59.3341343604" lon="18.0709489231">
        <ele>152.8</ele>
        <time>2012-10-25T18:11:56Z</time>
      </trkpt>
      <trkpt lat="59.3341408983" lon="18.0709850491">
        <ele>152.4</ele>
        <time>2012-10-25T18:11:57Z</time>
      </trkpt>
      <trkpt lat="59.3341474362" lon="18.071023522">
        <ele>151.8</ele>
        <time>2012-10-25T18:11:58Z</time>
      </trkpt>
      <trkpt lat="59.3341529682" lon="18.0710459017">
        <ele>151.4</ele>
        <time>2012-10-25T18:11:59Z</time>
      </trkpt>
      <trkpt lat="59.3341557343" lon="18.0710505955">
        <ele>151</ele>
        <time>2012-10-25T18:12:00Z</time>
      </trkpt>
      <trkpt lat="59.3341533035" lon="18.0710524396">
        <ele>150.6</ele>
        <time>2012-10-25T18:12:01Z</time>
      </trkpt>
      <trkpt lat="59.3342268128" lon="18.0711332411">
        <ele>149.8</ele>
        <time>2012-10-25T18:12:13Z</time>
      </trkpt>
      <trkpt lat="59.3341871664" lon="18.0712422896">
        <ele>149.8</ele>
        <time>2012-10-25T18:12:17Z</time>
      </trkpt>
      <trkpt lat="59.3341612663" lon="18.0712759848">
        <ele>149.8</ele>
        <time>2012-10-25T18:12:18Z</time>
      </trkpt>
      <trkpt lat="59.3340672214" lon="18.071363911">
        <ele>149.8</ele>
        <time>2012-10-25T18:12:20Z</time>
      </trkpt>
      <trkpt lat="59.3339395651" lon="18.0714499931">
        <ele>149.8</ele>
        <time>2012-10-25T18:12:22Z</time>
      </trkpt>
      <trkpt lat="59.3337803928" lon="18.0714702773">
        <ele>149.8</ele>
        <time>2012-10-25T18:12:24Z</time>
      </trkpt>
      <trkpt lat="59.3333212323" lon="18.0715072415">
        <ele>149.8</ele>
        <time>2012-10-25T18:12:30Z</time>
      </trkpt>
      <trkpt lat="59.3331724536" lon="18.0714872087">
        <ele>149.8</ele>
        <time>2012-10-25T18:12:34Z</time>
      </trkpt>
      <trkpt lat="59.3331367467" lon="18.0714738815">
        <ele>149.2</ele>
        <time>2012-10-25T18:12:36Z</time>
      </trkpt>
      <trkpt lat="59.3329869621" lon="18.0723622791">
        <ele>147.2</ele>
        <time>2012-10-25T18:13:11Z</time>
      </trkpt>
      <trkpt lat="59.3329983615" lon="18.0724287475">
        <ele>147.2</ele>
        <time>2012-10-25T18:13:12Z</time>
      </trkpt>
      <trkpt lat="59.3331031353" lon="18.073035178">
        <ele>147.2</ele>
        <time>2012-10-25T18:13:19Z</time>
      </trkpt>
      <trkpt lat="59.3331188932" lon="18.0731003054">
        <ele>147.2</ele>
        <time>2012-10-25T18:13:20Z</time>
      </trkpt>
      <trkpt lat="59.3331831824" lon="18.0732445579">
        <ele>147.2</ele>
        <time>2012-10-25T18:13:24Z</time>
      </trkpt>
      <trkpt lat="59.3331878763" lon="18.0733811828">
        <ele>147.2</ele>
        <time>2012-10-25T18:13:28Z</time>
      </trkpt>
      <trkpt lat="59.3331887983" lon="18.0734932488">
        <ele>147.2</ele>
        <time>2012-10-25T18:13:31Z</time>
      </trkpt>
      <trkpt lat="59.3331676759" lon="18.0735841086">
        <ele>147.2</ele>
        <time>2012-10-25T18:13:33Z</time>
      </trkpt>
      <trkpt lat="59.3331355732" lon="18.0737670855">
        <ele>147.2</ele>
        <time>2012-10-25T18:13:36Z</time>
      </trkpt>
      <trkpt lat="59.3331325557" lon="18.0738514913">
        <ele>147.2</ele>
        <time>2012-10-25T18:13:37Z</time>
      </trkpt>
      <trkpt lat="59.3331219107" lon="18.0740180396">
        <ele>147.2</ele>
        <time>2012-10-25T18:13:39Z</time>
      </trkpt>
      <trkpt lat="59.3331165463" lon="18.0743356298">
        <ele>147.2</ele>
        <time>2012-10-25T18:13:42Z</time>
      </trkpt>
      <trkpt lat="59.3331098408" lon="18.0745476919">
        <ele>147.2</ele>
        <time>2012-10-25T18:13:44Z</time>
      </trkpt>
      <trkpt lat="59.3331064042" lon="18.074719437">
        <ele>147.2</ele>
        <time>2012-10-25T18:13:46Z</time>
      </trkpt>
      <trkpt lat="59.3331123553" lon="18.0748097939">
        <ele>147.2</ele>
        <time>2012-10-25T18:13:47Z</time>
      </trkpt>
      <trkpt lat="59.333104644" lon="18.0752409588">
        <ele>147.2</ele>
        <time>2012-10-25T18:13:52Z</time>
      </trkpt>
      <trkpt lat="59.3330115211" lon="18.0755121971">
        <ele>147.2</ele>
        <time>2012-10-25T18:13:56Z</time>
      </trkpt>
      <trkpt lat="59.3329500818" lon="18.0757354071">
        <ele>147.2</ele>
        <time>2012-10-25T18:13:59Z</time>
      </trkpt>
      <trkpt lat="59.3328884748" lon="18.0759139416">
        <ele>147.2</ele>
        <time>2012-10-25T18:14:01Z</time>
      </trkpt>
      <trkpt lat="59.3328156361" lon="18.0761358105">
        <ele>147.2</ele>
        <time>2012-10-25T18:14:04Z</time>
      </trkpt>
      <trkpt lat="59.3327910771" lon="18.0761983394">
        <ele>147.2</ele>
        <time>2012-10-25T18:14:05Z</time>
      </trkpt>
      <trkpt lat="59.3327440547" lon="18.0763192902">
        <ele>147.2</ele>
        <time>2012-10-25T18:14:07Z</time>
      </trkpt>
      <trkpt lat="59.3327043245" lon="18.076404618">
        <ele>147.2</ele>
        <time>2012-10-25T18:14:09Z</time>
      </trkpt>
      <trkpt lat="59.3326556256" lon="18.0765144209">
        <ele>147.2</ele>
        <time>2012-10-25T18:14:12Z</time>
      </trkpt>
      <trkpt lat="59.3326565476" lon="18.0765134151">
        <ele>147.2</ele>
        <time>2012-10-25T18:14:14Z</time>
      </trkpt>
      <trkpt lat="59.3324938549" lon="18.0771456618">
        <ele>146.6</ele>
        <time>2012-10-25T18:15:06Z</time>
      </trkpt>
      <trkpt lat="59.3324843834" lon="18.0772372759">
        <ele>145.8</ele>
        <time>2012-10-25T18:15:07Z</time>
      </trkpt>
      <trkpt lat="59.3324743251" lon="18.077349761">
        <ele>145.2</ele>
        <time>2012-10-25T18:15:08Z</time>
      </trkpt>
      <trkpt lat="59.3324564717" lon="18.077478507">
        <ele>145.6</ele>
        <time>2012-10-25T18:15:09Z</time>
      </trkpt>
      <trkpt lat="59.3324179149" lon="18.0776215022">
        <ele>146</ele>
        <time>2012-10-25T18:15:10Z</time>
      </trkpt>
      <trkpt lat="59.3323806993" lon="18.0777504997">
        <ele>146.4</ele>
        <time>2012-10-25T18:15:11Z</time>
      </trkpt>
      <trkpt lat="59.3323367781" lon="18.0778820117">
        <ele>146.8</ele>
        <time>2012-10-25T18:15:12Z</time>
      </trkpt>
      <trkpt lat="59.332292857" lon="18.0780210674">
        <ele>147.2</ele>
        <time>2012-10-25T18:15:13Z</time>
      </trkpt>
      <trkpt lat="59.332213648" lon="18.0782956584">
        <ele>147.2</ele>
        <time>2012-10-25T18:15:15Z</time>
      </trkpt>
      <trkpt lat="59.3319978141" lon="18.079034942">
        <ele>147.2</ele>
        <time>2012-10-25T18:15:20Z</time>
      </trkpt>
      <trkpt lat="59.3317764481" lon="18.0798354973">
        <ele>147.2</ele>
        <time>2012-10-25T18:15:26Z</time>
      </trkpt>
      <trkpt lat="59.3315398271" lon="18.0806619526">
        <ele>147.2</ele>
        <time>2012-10-25T18:15:32Z</time>
      </trkpt>
      <trkpt lat="59.3313582751" lon="18.0813795271">
        <ele>147.2</ele>
        <time>2012-10-25T18:15:37Z</time>
      </trkpt>
      <trkpt lat="59.3313411761" lon="18.08152269">
        <ele>147.2</ele>
        <time>2012-10-25T18:15:38Z</time>
      </trkpt>
      <trkpt lat="59.3313331294" lon="18.0821300424">
        <ele>147.2</ele>
        <time>2012-10-25T18:15:42Z</time>
      </trkpt>
      <trkpt lat="59.3313498932" lon="18.0830699887">
        <ele>147.2</ele>
        <time>2012-10-25T18:15:48Z</time>
      </trkpt>
      <trkpt lat="59.3313585266" lon="18.0841524273">
        <ele>147.2</ele>
        <time>2012-10-25T18:15:55Z</time>
      </trkpt>
      <trkpt lat="59.3313698422" lon="18.0847778846">
        <ele>147.2</ele>
        <time>2012-10-25T18:15:59Z</time>
      </trkpt>
      <trkpt lat="59.3313865221" lon="18.0850954748">
        <ele>147.2</ele>
        <time>2012-10-25T18:16:01Z</time>
      </trkpt>
      <trkpt lat="59.3314299404" lon="18.0860831979">
        <ele>147.2</ele>
        <time>2012-10-25T18:16:07Z</time>
      </trkpt>
      <trkpt lat="59.3314532421" lon="18.0872292551">
        <ele>147.2</ele>
        <time>2012-10-25T18:16:14Z</time>
      </trkpt>
      <trkpt lat="59.3314789745" lon="18.0883780783">
        <ele>147.2</ele>
        <time>2012-10-25T18:16:21Z</time>
      </trkpt>
      <trkpt lat="59.3314798965" lon="18.0885433694">
        <ele>147.2</ele>
        <time>2012-10-25T18:16:22Z</time>
      </trkpt>
      <trkpt lat="59.3315114124" lon="18.0896919411">
        <ele>147.2</ele>
        <time>2012-10-25T18:16:29Z</time>
      </trkpt>
      <trkpt lat="59.3315368934" lon="18.0908023753">
        <ele>147.2</ele>
        <time>2012-10-25T18:16:36Z</time>
      </trkpt>
      <trkpt lat="59.3315460297" lon="18.0910979211">
        <ele>146.8</ele>
        <time>2012-10-25T18:16:38Z</time>
      </trkpt>
      <trkpt lat="59.3315488795" lon="18.0912351328">
        <ele>146.2</ele>
        <time>2012-10-25T18:16:39Z</time>
      </trkpt>
      <trkpt lat="59.3315525676" lon="18.0913704166">
        <ele>145.8</ele>
        <time>2012-10-25T18:16:40Z</time>
      </trkpt>
      <trkpt lat="59.3315570938" lon="18.0915020125">
        <ele>145.4</ele>
        <time>2012-10-25T18:16:41Z</time>
      </trkpt>
      <trkpt lat="59.331562542" lon="18.0916357038">
        <ele>145</ele>
        <time>2012-10-25T18:16:42Z</time>
      </trkpt>
      <trkpt lat="59.3315647213" lon="18.0917748433">
        <ele>145</ele>
        <time>2012-10-25T18:16:43Z</time>
      </trkpt>
      <trkpt lat="59.3315890288" lon="18.0926412803">
        <ele>145</ele>
        <time>2012-10-25T18:16:49Z</time>
      </trkpt>
      <trkpt lat="59.3315992548" lon="18.0932418434">
        <ele>145</ele>
        <time>2012-10-25T18:16:54Z</time>
      </trkpt>
      <trkpt lat="59.3315961535" lon="18.0933643868">
        <ele>145</ele>
        <time>2012-10-25T18:16:57Z</time>
      </trkpt>
      <trkpt lat="59.3315874363" lon="18.0934012672">
        <ele>145</ele>
        <time>2012-10-25T18:17:00Z</time>
      </trkpt>
      <trkpt lat="59.3315871848" lon="18.0934011834">
        <ele>145</ele>
        <time>2012-10-25T18:17:02Z</time>
      </trkpt>
      <trkpt lat="59.3315902861" lon="18.0934436796">
        <ele>145</ele>
        <time>2012-10-25T18:17:06Z</time>
      </trkpt>
      <trkpt lat="59.3315938903" lon="18.0935011794">
        <ele>145</ele>
        <time>2012-10-25T18:17:07Z</time>
      </trkpt>
      <trkpt lat="59.3315912081" lon="18.0936327753">
        <ele>145</ele>
        <time>2012-10-25T18:17:10Z</time>
      </trkpt>
      <trkpt lat="59.3315822395" lon="18.0936678954">
        <ele>145</ele>
        <time>2012-10-25T18:17:11Z</time>
      </trkpt>
      <trkpt lat="59.3315782162" lon="18.0937086314">
        <ele>145</ele>
        <time>2012-10-25T18:17:12Z</time>
      </trkpt>
      <trkpt lat="59.331588945" lon="18.0938642833">
        <ele>145</ele>
        <time>2012-10-25T18:17:15Z</time>
      </trkpt>
      <trkpt lat="59.3316124982" lon="18.0941696359">
        <ele>145</ele>
        <time>2012-10-25T18:17:18Z</time>
      </trkpt>
      <trkpt lat="59.3316356322" lon="18.0948698599">
        <ele>145</ele>
        <time>2012-10-25T18:17:23Z</time>
      </trkpt>
      <trkpt lat="59.331680643" lon="18.0955096503">
        <ele>145</ele>
        <time>2012-10-25T18:17:27Z</time>
      </trkpt>
      <trkpt lat="59.3317059563" lon="18.0956589319">
        <ele>145</ele>
        <time>2012-10-25T18:17:28Z</time>
      </trkpt>
      <trkpt lat="59.3318252308" lon="18.0960523783">
        <ele>145</ele>
        <time>2012-10-25T18:17:31Z</time>
      </trkpt>
      <trkpt lat="59.3318691519" lon="18.096169222">
        <ele>145</ele>
        <time>2012-10-25T18:17:32Z</time>
      </trkpt>
      <trkpt lat="59.332115496" lon="18.0968187354">
        <ele>145</ele>
        <time>2012-10-25T18:17:38Z</time>
      </trkpt>
      <trkpt lat="59.3321644463" lon="18.0969106011">
        <ele>145</ele>
        <time>2012-10-25T18:17:39Z</time>
      </trkpt>
      <trkpt lat="59.3324998061" lon="18.0974591126">
        <ele>145</ele>
        <time>2012-10-25T18:17:46Z</time>
      </trkpt>
      <trkpt lat="59.3326863034" lon="18.097733536">
        <ele>145</ele>
        <time>2012-10-25T18:17:50Z</time>
      </trkpt>
      <trkpt lat="59.3327228485" lon="18.0978250664">
        <ele>145.4</ele>
        <time>2012-10-25T18:17:51Z</time>
      </trkpt>
      <trkpt lat="59.3327489162" lon="18.0979318518">
        <ele>145.8</ele>
        <time>2012-10-25T18:17:52Z</time>
      </trkpt>
      <trkpt lat="59.3327678593" lon="18.0980415708">
        <ele>146.2</ele>
        <time>2012-10-25T18:17:53Z</time>
      </trkpt>
      <trkpt lat="59.3327842878" lon="18.0981533854">
        <ele>146.6</ele>
        <time>2012-10-25T18:17:54Z</time>
      </trkpt>
      <trkpt lat="59.3328007163" lon="18.0982563989">
        <ele>147</ele>
        <time>2012-10-25T18:17:55Z</time>
      </trkpt>
      <trkpt lat="59.332849499" lon="18.0986679502">
        <ele>147</ele>
        <time>2012-10-25T18:18:00Z</time>
      </trkpt>
      <trkpt lat="59.332878668" lon="18.0989717941">
        <ele>147</ele>
        <time>2012-10-25T18:18:05Z</time>
      </trkpt>
      <trkpt lat="59.3329816815" lon="18.0992183896">
        <ele>147</ele>
        <time>2012-10-25T18:18:10Z</time>
      </trkpt>
      <trkpt lat="59.3330220823" lon="18.0992903901">
        <ele>147</ele>
        <time>2012-10-25T18:18:11Z</time>
      </trkpt>
      <trkpt lat="59.333202377" lon="18.0994670806">
        <ele>147</ele>
        <time>2012-10-25T18:18:14Z</time>
      </trkpt>
      <trkpt lat="59.3332752995" lon="18.0995146059">
        <ele>147.4</ele>
        <time>2012-10-25T18:18:15Z</time>
      </trkpt>
      <trkpt lat="59.3333477191" lon="18.0995573536">
        <ele>148</ele>
        <time>2012-10-25T18:18:16Z</time>
      </trkpt>
      <trkpt lat="59.3334199711" lon="18.0996022806">
        <ele>148.4</ele>
        <time>2012-10-25T18:18:17Z</time>
      </trkpt>
      <trkpt lat="59.3334887027" lon="18.0996481296">
        <ele>149</ele>
        <time>2012-10-25T18:18:18Z</time>
      </trkpt>
      <trkpt lat="59.3335602841" lon="18.0997083116">
        <ele>149.6</ele>
        <time>2012-10-25T18:18:19Z</time>
      </trkpt>
      <trkpt lat="59.3336331228" lon="18.0997716788">
        <ele>150.2</ele>
        <time>2012-10-25T18:18:20Z</time>
      </trkpt>
      <trkpt lat="59.333704788" lon="18.0998372253">
        <ele>150.6</ele>
        <time>2012-10-25T18:18:21Z</time>
      </trkpt>
      <trkpt lat="59.3337803928" lon="18.0998910371">
        <ele>151.2</ele>
        <time>2012-10-25T18:18:22Z</time>
      </trkpt>
      <trkpt lat="59.3338557461" lon="18.0999442621">
        <ele>151.8</ele>
        <time>2012-10-25T18:18:23Z</time>
      </trkpt>
      <trkpt lat="59.3339255673" lon="18.0999997503">
        <ele>152.4</ele>
        <time>2012-10-25T18:18:24Z</time>
      </trkpt>
      <trkpt lat="59.3339974002" lon="18.1000542327">
        <ele>152.8</ele>
        <time>2012-10-25T18:18:25Z</time>
      </trkpt>
      <trkpt lat="59.3340653774" lon="18.1000997464">
        <ele>153.4</ele>
        <time>2012-10-25T18:18:26Z</time>
      </trkpt>
      <trkpt lat="59.3341369588" lon="18.1001588388">
        <ele>154</ele>
        <time>2012-10-25T18:18:27Z</time>
      </trkpt>
      <trkpt lat="59.3344312473" lon="18.1003738345">
        <ele>154.4</ele>
        <time>2012-10-25T18:18:31Z</time>
      </trkpt>
      <trkpt lat="59.3345077741" lon="18.1004297418">
        <ele>154.8</ele>
        <time>2012-10-25T18:18:32Z</time>
      </trkpt>
      <trkpt lat="59.3345775953" lon="18.1004796979">
        <ele>155.6</ele>
        <time>2012-10-25T18:18:33Z</time>
      </trkpt>
      <trkpt lat="59.3346518589" lon="18.100524122">
        <ele>156</ele>
        <time>2012-10-25T18:18:34Z</time>
      </trkpt>
      <trkpt lat="59.3351432059" lon="18.1008583083">
        <ele>156</ele>
        <time>2012-10-25T18:18:41Z</time>
      </trkpt>
      <trkpt lat="59.3352184754" lon="18.1008954401">
        <ele>156</ele>
        <time>2012-10-25T18:18:42Z</time>
      </trkpt>
      <trkpt lat="59.3356871912" lon="18.101201631">
        <ele>156</ele>
        <time>2012-10-25T18:18:49Z</time>
      </trkpt>
      <trkpt lat="59.3358142608" lon="18.1013173012">
        <ele>156</ele>
        <time>2012-10-25T18:18:51Z</time>
      </trkpt>
      <trkpt lat="59.3358813998" lon="18.1013743819">
        <ele>155.6</ele>
        <time>2012-10-25T18:18:52Z</time>
      </trkpt>
      <trkpt lat="59.3359496285" lon="18.1014271879">
        <ele>155.2</ele>
        <time>2012-10-25T18:18:53Z</time>
      </trkpt>
      <trkpt lat="59.3360193659" lon="18.1014785689">
        <ele>154.8</ele>
        <time>2012-10-25T18:18:54Z</time>
      </trkpt>
      <trkpt lat="59.3360977367" lon="18.10153456">
        <ele>154.4</ele>
        <time>2012-10-25T18:18:55Z</time>
      </trkpt>
      <trkpt lat="59.3361668035" lon="18.1015966699">
        <ele>154</ele>
        <time>2012-10-25T18:18:56Z</time>
      </trkpt>
      <trkpt lat="59.3362346969" lon="18.1016600371">
        <ele>154</ele>
        <time>2012-10-25T18:18:57Z</time>
      </trkpt>
      <trkpt lat="59.3363033447" lon="18.1017177884">
        <ele>153</ele>
        <time>2012-10-25T18:18:58Z</time>
      </trkpt>
      <trkpt lat="59.336376351" lon="18.1017817423">
        <ele>152.6</ele>
        <time>2012-10-25T18:18:59Z</time>
      </trkpt>
      <trkpt lat="59.3364474295" lon="18.1018350511">
        <ele>152.2</ele>
        <time>2012-10-25T18:19:00Z</time>
      </trkpt>
      <trkpt lat="59.3365145686" lon="18.1018898688">
        <ele>151.6</ele>
        <time>2012-10-25T18:19:01Z</time>
      </trkpt>
      <trkpt lat="59.3366580667" lon="18.1019811477">
        <ele>151.6</ele>
        <time>2012-10-25T18:19:03Z</time>
      </trkpt>
      <trkpt lat="59.3368652673" lon="18.1021160962">
        <ele>151.2</ele>
        <time>2012-10-25T18:19:06Z</time>
      </trkpt>
      <trkpt lat="59.3369360105" lon="18.10216161">
        <ele>150.8</ele>
        <time>2012-10-25T18:19:07Z</time>
      </trkpt>
      <trkpt lat="59.337000132" lon="18.1022117337">
        <ele>150.4</ele>
        <time>2012-10-25T18:19:08Z</time>
      </trkpt>
      <trkpt lat="59.3370644212" lon="18.1022726701">
        <ele>150</ele>
        <time>2012-10-25T18:19:09Z</time>
      </trkpt>
      <trkpt lat="59.3371378466" lon="18.1023290803">
        <ele>149.6</ele>
        <time>2012-10-25T18:19:10Z</time>
      </trkpt>
      <trkpt lat="59.3375873679" lon="18.102622363">
        <ele>149.6</ele>
        <time>2012-10-25T18:19:16Z</time>
      </trkpt>
      <trkpt lat="59.3376592846" lon="18.1026651107">
        <ele>149.6</ele>
        <time>2012-10-25T18:19:17Z</time>
      </trkpt>
      <trkpt lat="59.3377810736" lon="18.1027726505">
        <ele>149.2</ele>
        <time>2012-10-25T18:19:19Z</time>
      </trkpt>
      <trkpt lat="59.3378408366" lon="18.1028338383">
        <ele>148.8</ele>
        <time>2012-10-25T18:19:20Z</time>
      </trkpt>
      <trkpt lat="59.3378937264" lon="18.1029085211">
        <ele>148</ele>
        <time>2012-10-25T18:19:21Z</time>
      </trkpt>
      <trkpt lat="59.3379311935" lon="18.1030078466">
        <ele>147.4</ele>
        <time>2012-10-25T18:19:22Z</time>
      </trkpt>
      <trkpt lat="59.3380370569" lon="18.103145645">
        <ele>147.4</ele>
        <time>2012-10-25T18:19:24Z</time>
      </trkpt>
      <trkpt lat="59.3380962331" lon="18.1031793403">
        <ele>147.4</ele>
        <time>2012-10-25T18:19:25Z</time>
      </trkpt>
      <trkpt lat="59.3382773659" lon="18.1032120297">
        <ele>147.4</ele>
        <time>2012-10-25T18:19:28Z</time>
      </trkpt>
      <trkpt lat="59.3383398949" lon="18.1032510055">
        <ele>147.4</ele>
        <time>2012-10-25T18:19:29Z</time>
      </trkpt>
      <trkpt lat="59.3384656234" lon="18.1033516721">
        <ele>147.4</ele>
        <time>2012-10-25T18:19:31Z</time>
      </trkpt>
      <trkpt lat="59.3388479219" lon="18.1036716931">
        <ele>147.4</ele>
        <time>2012-10-25T18:19:37Z</time>
      </trkpt>
      <trkpt lat="59.3391258657" lon="18.1039962402">
        <ele>147.4</ele>
        <time>2012-10-25T18:19:42Z</time>
      </trkpt>
      <trkpt lat="59.339166015" lon="18.1040857589">
        <ele>147.4</ele>
        <time>2012-10-25T18:19:43Z</time>
      </trkpt>
      <trkpt lat="59.3392800088" lon="18.1044684765">
        <ele>147.4</ele>
        <time>2012-10-25T18:19:47Z</time>
      </trkpt>
      <trkpt lat="59.3393006283" lon="18.104557157">
        <ele>147.4</ele>
        <time>2012-10-25T18:19:48Z</time>
      </trkpt>
      <trkpt lat="59.3393272827" lon="18.1046372879">
        <ele>147.4</ele>
        <time>2012-10-25T18:19:49Z</time>
      </trkpt>
      <trkpt lat="59.3394116047" lon="18.104665032">
        <ele>147.4</ele>
        <time>2012-10-25T18:19:51Z</time>
      </trkpt>
      <trkpt lat="59.3395343995" lon="18.1045144931">
        <ele>147.4</ele>
        <time>2012-10-25T18:19:54Z</time>
      </trkpt>
      <trkpt lat="59.339587876" lon="18.1043672231">
        <ele>147.4</ele>
        <time>2012-10-25T18:19:56Z</time>
      </trkpt>
      <trkpt lat="59.3396400953" lon="18.1041969867">
        <ele>147.4</ele>
        <time>2012-10-25T18:19:58Z</time>
      </trkpt>
      <trkpt lat="59.339758783" lon="18.1036685918">
        <ele>147.4</ele>
        <time>2012-10-25T18:20:03Z</time>
      </trkpt>
      <trkpt lat="59.3398752914" lon="18.1030454813">
        <ele>147.4</ele>
        <time>2012-10-25T18:20:08Z</time>
      </trkpt>
      <trkpt lat="59.339957434" lon="18.1025050164">
        <ele>147.4</ele>
        <time>2012-10-25T18:20:13Z</time>
      </trkpt>
      <trkpt lat="59.3400540773" lon="18.1019746098">
        <ele>147.4</ele>
        <time>2012-10-25T18:20:19Z</time>
      </trkpt>
      <trkpt lat="59.3401100684" lon="18.1017892021">
        <ele>147.4</ele>
        <time>2012-10-25T18:20:22Z</time>
      </trkpt>
      <trkpt lat="59.3401285086" lon="18.1017466221">
        <ele>147.4</ele>
        <time>2012-10-25T18:20:23Z</time>
      </trkpt>
      <trkpt lat="59.3401385668" lon="18.1016427703">
        <ele>147.4</ele>
        <time>2012-10-25T18:20:27Z</time>
      </trkpt>
      <trkpt lat="59.3401233956" lon="18.1016534992">
        <ele>147.4</ele>
        <time>2012-10-25T18:20:28Z</time>
      </trkpt>
      <trkpt lat="59.3401091464" lon="18.1016825006">
        <ele>147.4</ele>
        <time>2012-10-25T18:20:29Z</time>
      </trkpt>
      <trkpt lat="59.3400678236" lon="18.1017851788">
        <ele>147.4</ele>
        <time>2012-10-25T18:20:31Z</time>
      </trkpt>
      <trkpt lat="59.339985681" lon="18.1020430061">
        <ele>147.4</ele>
        <time>2012-10-25T18:20:34Z</time>
      </trkpt>
      <trkpt lat="59.3399581045" lon="18.102151384">
        <ele>147.4</ele>
        <time>2012-10-25T18:20:35Z</time>
      </trkpt>
      <trkpt lat="59.3398224854" lon="18.1028708863">
        <ele>147.4</ele>
        <time>2012-10-25T18:20:41Z</time>
      </trkpt>
      <trkpt lat="59.3396737905" lon="18.1036895465">
        <ele>147.4</ele>
        <time>2012-10-25T18:20:47Z</time>
      </trkpt>
      <trkpt lat="59.3396493992" lon="18.1038109164">
        <ele>147</ele>
        <time>2012-10-25T18:20:48Z</time>
      </trkpt>
      <trkpt lat="59.3396293664" lon="18.1039322025">
        <ele>146.6</ele>
        <time>2012-10-25T18:20:49Z</time>
      </trkpt>
      <trkpt lat="59.3396185538" lon="18.1040459449">
        <ele>146.2</ele>
        <time>2012-10-25T18:20:50Z</time>
      </trkpt>
      <trkpt lat="59.3396005327" lon="18.1041562507">
        <ele>145.8</ele>
        <time>2012-10-25T18:20:51Z</time>
      </trkpt>
      <trkpt lat="59.3395841042" lon="18.1042475296">
        <ele>145.4</ele>
        <time>2012-10-25T18:20:52Z</time>
      </trkpt>
      <trkpt lat="59.339573543" lon="18.1044258126">
        <ele>145.4</ele>
        <time>2012-10-25T18:20:54Z</time>
      </trkpt>
      <trkpt lat="59.339581841" lon="18.1044962206">
        <ele>145.4</ele>
        <time>2012-10-25T18:20:55Z</time>
      </trkpt>
      <trkpt lat="59.3396128541" lon="18.1048877391">
        <ele>145.4</ele>
        <time>2012-10-25T18:20:59Z</time>
      </trkpt>
      <trkpt lat="59.3395794941" lon="18.1052862146">
        <ele>145.4</ele>
        <time>2012-10-25T18:21:02Z</time>
      </trkpt>
      <trkpt lat="59.3395502413" lon="18.1055539325">
        <ele>145.4</ele>
        <time>2012-10-25T18:21:04Z</time>
      </trkpt>
      <trkpt lat="59.3395651611" lon="18.1060439384">
        <ele>145</ele>
        <time>2012-10-25T18:21:08Z</time>
      </trkpt>
      <trkpt lat="59.3395643229" lon="18.1061480416">
        <ele>144.6</ele>
        <time>2012-10-25T18:21:09Z</time>
      </trkpt>
      <trkpt lat="59.3395713637" lon="18.106220545">
        <ele>144.2</ele>
        <time>2012-10-25T18:21:10Z</time>
      </trkpt>
      <trkpt lat="59.3395909773" lon="18.1062673999">
        <ele>143.8</ele>
        <time>2012-10-25T18:21:11Z</time>
      </trkpt>
      <trkpt lat="59.3396209007" lon="18.1062679028">
        <ele>143.4</ele>
        <time>2012-10-25T18:21:12Z</time>
      </trkpt>
      <trkpt lat="59.3396613015" lon="18.1062354648">
        <ele>143.4</ele>
        <time>2012-10-25T18:21:14Z</time>
      </trkpt>
      <trkpt lat="59.3396914763" lon="18.1062276696">
        <ele>143.4</ele>
        <time>2012-10-25T18:21:16Z</time>
      </trkpt>
      <trkpt lat="59.3397038815" lon="18.1062097324">
        <ele>143.4</ele>
        <time>2012-10-25T18:21:17Z</time>
      </trkpt>
      <trkpt lat="59.3397086592" lon="18.1061808986">
        <ele>143.4</ele>
        <time>2012-10-25T18:21:18Z</time>
      </trkpt>
      <trkpt lat="59.3396746287" lon="18.1061757019">
        <ele>143.4</ele>
        <time>2012-10-25T18:21:21Z</time>
      </trkpt>
      <trkpt lat="59.3396600442" lon="18.1061910407">
        <ele>143.4</ele>
        <time>2012-10-25T18:21:22Z</time>
      </trkpt>
      <trkpt lat="59.3395696035" lon="18.106337724">
        <ele>143.4</ele>
        <time>2012-10-25T18:21:26Z</time>
      </trkpt>
      <trkpt lat="59.3395569468" lon="18.1064259854">
        <ele>143.4</ele>
        <time>2012-10-25T18:21:27Z</time>
      </trkpt>
      <trkpt lat="59.3395514147" lon="18.1066630255">
        <ele>143.4</ele>
        <time>2012-10-25T18:21:29Z</time>
      </trkpt>
      <trkpt lat="59.3395549351" lon="18.1069164942">
        <ele>143.4</ele>
        <time>2012-10-25T18:21:31Z</time>
      </trkpt>
      <trkpt lat="59.3395426138" lon="18.1074533549">
        <ele>143.4</ele>
        <time>2012-10-25T18:21:35Z</time>
      </trkpt>
      <trkpt lat="59.3395200664" lon="18.1084030242">
        <ele>143.4</ele>
        <time>2012-10-25T18:21:42Z</time>
      </trkpt>
      <trkpt lat="59.3395310467" lon="18.109364009">
        <ele>143.4</ele>
        <time>2012-10-25T18:21:49Z</time>
      </trkpt>
      <trkpt lat="59.3395476429" lon="18.1100778954">
        <ele>143</ele>
        <time>2012-10-25T18:21:54Z</time>
      </trkpt>
      <trkpt lat="59.3395502413" lon="18.1102153586">
        <ele>142.4</ele>
        <time>2012-10-25T18:21:55Z</time>
      </trkpt>
      <trkpt lat="59.3395520015" lon="18.1103488822">
        <ele>142</ele>
        <time>2012-10-25T18:21:56Z</time>
      </trkpt>
      <trkpt lat="59.3395538455" lon="18.1104842499">
        <ele>141.6</ele>
        <time>2012-10-25T18:21:57Z</time>
      </trkpt>
      <trkpt lat="59.3395548513" lon="18.1106124092">
        <ele>141.2</ele>
        <time>2012-10-25T18:21:58Z</time>
      </trkpt>
      <trkpt lat="59.3395816734" lon="18.1114635911">
        <ele>141.2</ele>
        <time>2012-10-25T18:22:05Z</time>
      </trkpt>
      <trkpt lat="59.3395984372" lon="18.1116442211">
        <ele>141.2</ele>
        <time>2012-10-25T18:22:07Z</time>
      </trkpt>
      <trkpt lat="59.3396640675" lon="18.1117668483">
        <ele>141.2</ele>
        <time>2012-10-25T18:22:09Z</time>
      </trkpt>
      <trkpt lat="59.3397132692" lon="18.1117828577">
        <ele>140.8</ele>
        <time>2012-10-25T18:22:10Z</time>
      </trkpt>
      <trkpt lat="59.3397655723" lon="18.1117856237">
        <ele>140.4</ele>
        <time>2012-10-25T18:22:11Z</time>
      </trkpt>
      <trkpt lat="59.3398220663" lon="18.1117763198">
        <ele>140</ele>
        <time>2012-10-25T18:22:12Z</time>
      </trkpt>
      <trkpt lat="59.3398862717" lon="18.111747067">
        <ele>139.6</ele>
        <time>2012-10-25T18:22:13Z</time>
      </trkpt>
      <trkpt lat="59.3399481301" lon="18.1117230109">
        <ele>139.2</ele>
        <time>2012-10-25T18:22:14Z</time>
      </trkpt>
      <trkpt lat="59.3401228927" lon="18.1116461489">
        <ele>139.2</ele>
        <time>2012-10-25T18:22:17Z</time>
      </trkpt>
      <trkpt lat="59.3403769481" lon="18.1115306463">
        <ele>139.6</ele>
        <time>2012-10-25T18:22:21Z</time>
      </trkpt>
      <trkpt lat="59.3404434165" lon="18.1115092725">
        <ele>140</ele>
        <time>2012-10-25T18:22:22Z</time>
      </trkpt>
      <trkpt lat="59.3405079572" lon="18.11147893">
        <ele>140.4</ele>
        <time>2012-10-25T18:22:23Z</time>
      </trkpt>
      <trkpt lat="59.3405728331" lon="18.1114463244">
        <ele>140.8</ele>
        <time>2012-10-25T18:22:24Z</time>
      </trkpt>
      <trkpt lat="59.3406350268" lon="18.1114151437">
        <ele>141.4</ele>
        <time>2012-10-25T18:22:25Z</time>
      </trkpt>
      <trkpt lat="59.3408793592" lon="18.111275166">
        <ele>141.4</ele>
        <time>2012-10-25T18:22:29Z</time>
      </trkpt>
      <trkpt lat="59.3412928383" lon="18.1110700609">
        <ele>141.4</ele>
        <time>2012-10-25T18:22:36Z</time>
      </trkpt>
      <trkpt lat="59.3414033117" lon="18.1110461725">
        <ele>141.4</ele>
        <time>2012-10-25T18:22:38Z</time>
      </trkpt>
      <trkpt lat="59.3415549403" lon="18.1109895109">
        <ele>141.4</ele>
        <time>2012-10-25T18:22:41Z</time>
      </trkpt>
      <trkpt lat="59.3416731251" lon="18.1109427399">
        <ele>141.4</ele>
        <time>2012-10-25T18:22:44Z</time>
      </trkpt>
      <trkpt lat="59.341693996" lon="18.1109260599">
        <ele>141.4</ele>
        <time>2012-10-25T18:22:45Z</time>
      </trkpt>
      <trkpt lat="59.3417415214" lon="18.110899154">
        <ele>141.4</ele>
        <time>2012-10-25T18:22:49Z</time>
      </trkpt>
      <trkpt lat="59.3417858617" lon="18.1108901015">
        <ele>141.4</ele>
        <time>2012-10-25T18:22:53Z</time>
      </trkpt>
      <trkpt lat="59.3418984306" lon="18.1108002476">
        <ele>141.4</ele>
        <time>2012-10-25T18:22:57Z</time>
      </trkpt>
      <trkpt lat="59.3420385759" lon="18.110685667">
        <ele>141.4</ele>
        <time>2012-10-25T18:23:01Z</time>
      </trkpt>
      <trkpt lat="59.3422800585" lon="18.1105349604">
        <ele>141.4</ele>
        <time>2012-10-25T18:23:06Z</time>
      </trkpt>
      <trkpt lat="59.3425228821" lon="18.1103709266">
        <ele>141.4</ele>
        <time>2012-10-25T18:23:11Z</time>
      </trkpt>
      <trkpt lat="59.3425757719" lon="18.1103723516">
        <ele>141.4</ele>
        <time>2012-10-25T18:23:12Z</time>
      </trkpt>
      <trkpt lat="59.3426995726" lon="18.1104097348">
        <ele>141.4</ele>
        <time>2012-10-25T18:23:14Z</time>
      </trkpt>
      <trkpt lat="59.3428043463" lon="18.1105007623">
        <ele>141.8</ele>
        <time>2012-10-25T18:23:16Z</time>
      </trkpt>
      <trkpt lat="59.3428477646" lon="18.1105519757">
        <ele>142.2</ele>
        <time>2012-10-25T18:23:17Z</time>
      </trkpt>
      <trkpt lat="59.3428871595" lon="18.1105953101">
        <ele>142.6</ele>
        <time>2012-10-25T18:23:18Z</time>
      </trkpt>
      <trkpt lat="59.3429237046" lon="18.1106396504">
        <ele>143</ele>
        <time>2012-10-25T18:23:19Z</time>
      </trkpt>
      <trkpt lat="59.3429613393" lon="18.1106879301">
        <ele>143.4</ele>
        <time>2012-10-25T18:23:20Z</time>
      </trkpt>
      <trkpt lat="59.3429957051" lon="18.1107445917">
        <ele>143.4</ele>
        <time>2012-10-25T18:23:21Z</time>
      </trkpt>
      <trkpt lat="59.3430283107" lon="18.110813491">
        <ele>143.4</ele>
        <time>2012-10-25T18:23:22Z</time>
      </trkpt>
      <trkpt lat="59.3430920131" lon="18.111071402">
        <ele>143.4</ele>
        <time>2012-10-25T18:23:25Z</time>
      </trkpt>
      <trkpt lat="59.343109196" lon="18.1111683806">
        <ele>143.4</ele>
        <time>2012-10-25T18:23:26Z</time>
      </trkpt>
      <trkpt lat="59.3431326653" lon="18.1113788501">
        <ele>143.4</ele>
        <time>2012-10-25T18:23:28Z</time>
      </trkpt>
      <trkpt lat="59.3432013131" lon="18.1116859629">
        <ele>143.4</ele>
        <time>2012-10-25T18:23:31Z</time>
      </trkpt>
      <trkpt lat="59.3432444799" lon="18.1117826062">
        <ele>143.4</ele>
        <time>2012-10-25T18:23:32Z</time>
      </trkpt>
      <trkpt lat="59.3433664365" lon="18.1120551018">
        <ele>143.4</ele>
        <time>2012-10-25T18:23:35Z</time>
      </trkpt>
      <trkpt lat="59.3434064182" lon="18.1121447043">
        <ele>143.4</ele>
        <time>2012-10-25T18:23:36Z</time>
      </trkpt>
      <trkpt lat="59.3436012136" lon="18.1125860952">
        <ele>143.4</ele>
        <time>2012-10-25T18:23:41Z</time>
      </trkpt>
      <trkpt lat="59.3436338191" lon="18.1126870971">
        <ele>143.4</ele>
        <time>2012-10-25T18:23:42Z</time>
      </trkpt>
      <trkpt lat="59.3437645768" lon="18.1129582515">
        <ele>143.4</ele>
        <time>2012-10-25T18:23:45Z</time>
      </trkpt>
      <trkpt lat="59.3438470547" lon="18.1131398873">
        <ele>143.4</ele>
        <time>2012-10-25T18:23:47Z</time>
      </trkpt>
      <trkpt lat="59.343920061" lon="18.1133019932">
        <ele>143.4</ele>
        <time>2012-10-25T18:23:49Z</time>
      </trkpt>
      <trkpt lat="59.3441304467" lon="18.1137143827">
        <ele>143.4</ele>
        <time>2012-10-25T18:23:55Z</time>
      </trkpt>
      <trkpt lat="59.3441945683" lon="18.1138391054">
        <ele>143.4</ele>
        <time>2012-10-25T18:23:57Z</time>
      </trkpt>
      <trkpt lat="59.34426506" lon="18.1138528517">
        <ele>143.4</ele>
        <time>2012-10-25T18:23:59Z</time>
      </trkpt>
      <trkpt lat="59.3444149284" lon="18.1135941025">
        <ele>143.4</ele>
        <time>2012-10-25T18:24:02Z</time>
      </trkpt>
      <trkpt lat="59.3445937143" lon="18.11326922">
        <ele>144</ele>
        <time>2012-10-25T18:24:06Z</time>
      </trkpt>
      <trkpt lat="59.3446424132" lon="18.1131897596">
        <ele>144.4</ele>
        <time>2012-10-25T18:24:07Z</time>
      </trkpt>
      <trkpt lat="59.3446898547" lon="18.113112227">
        <ele>145</ele>
        <time>2012-10-25T18:24:08Z</time>
      </trkpt>
      <trkpt lat="59.3447358714" lon="18.1130393883">
        <ele>145.4</ele>
        <time>2012-10-25T18:24:09Z</time>
      </trkpt>
      <trkpt lat="59.3447853246" lon="18.1129636159">
        <ele>145.8</ele>
        <time>2012-10-25T18:24:10Z</time>
      </trkpt>
      <trkpt lat="59.3448857397" lon="18.112815424">
        <ele>146.4</ele>
        <time>2012-10-25T18:24:12Z</time>
      </trkpt>
      <trkpt lat="59.3449330136" lon="18.1127346224">
        <ele>146.8</ele>
        <time>2012-10-25T18:24:13Z</time>
      </trkpt>
      <trkpt lat="59.3449785274" lon="18.1126393202">
        <ele>147.4</ele>
        <time>2012-10-25T18:24:14Z</time>
      </trkpt>
      <trkpt lat="59.3450273938" lon="18.1125462811">
        <ele>147.8</ele>
        <time>2012-10-25T18:24:15Z</time>
      </trkpt>
      <trkpt lat="59.3450779367" lon="18.1124484644">
        <ele>148.2</ele>
        <time>2012-10-25T18:24:16Z</time>
      </trkpt>
      <trkpt lat="59.3451300721" lon="18.1123521563">
        <ele>148.6</ele>
        <time>2012-10-25T18:24:17Z</time>
      </trkpt>
      <trkpt lat="59.3451712272" lon="18.1122600393">
        <ele>149.4</ele>
        <time>2012-10-25T18:24:18Z</time>
      </trkpt>
      <trkpt lat="59.3451853927" lon="18.1121524157">
        <ele>149.8</ele>
        <time>2012-10-25T18:24:19Z</time>
      </trkpt>
      <trkpt lat="59.3452085267" lon="18.1120540122">
        <ele>150.2</ele>
        <time>2012-10-25T18:24:20Z</time>
      </trkpt>
      <trkpt lat="59.3453563834" lon="18.1117216698">
        <ele>150.2</ele>
        <time>2012-10-25T18:24:24Z</time>
      </trkpt>
      <trkpt lat="59.3454512665" lon="18.1115727235">
        <ele>150.2</ele>
        <time>2012-10-25T18:24:26Z</time>
      </trkpt>
      <trkpt lat="59.34565897" lon="18.1112164927">
        <ele>150.2</ele>
        <time>2012-10-25T18:24:31Z</time>
      </trkpt>
      <trkpt lat="59.3457598043" lon="18.1110410595">
        <ele>150.2</ele>
        <time>2012-10-25T18:24:33Z</time>
      </trkpt>
      <trkpt lat="59.3458681822" lon="18.1108353677">
        <ele>150.2</ele>
        <time>2012-10-25T18:24:35Z</time>
      </trkpt>
      <trkpt lat="59.3460892967" lon="18.1103237365">
        <ele>149.8</ele>
        <time>2012-10-25T18:24:39Z</time>
      </trkpt>
      <trkpt lat="59.3461486406" lon="18.1101999359">
        <ele>149.4</ele>
        <time>2012-10-25T18:24:40Z</time>
      </trkpt>
      <trkpt lat="59.3462127621" lon="18.1100943239">
        <ele>149</ele>
        <time>2012-10-25T18:24:41Z</time>
      </trkpt>
      <trkpt lat="59.3462743691" lon="18.1099769773">
        <ele>148.6</ele>
        <time>2012-10-25T18:24:42Z</time>
      </trkpt>
      <trkpt lat="59.3463375686" lon="18.1098548531">
        <ele>147.6</ele>
        <time>2012-10-25T18:24:43Z</time>
      </trkpt>
      <trkpt lat="59.346402696" lon="18.1097274482">
        <ele>147</ele>
        <time>2012-10-25T18:24:44Z</time>
      </trkpt>
      <trkpt lat="59.3464722658" lon="18.1095900688">
        <ele>146.6</ele>
        <time>2012-10-25T18:24:45Z</time>
      </trkpt>
      <trkpt lat="59.3465358844" lon="18.109467274">
        <ele>146</ele>
        <time>2012-10-25T18:24:46Z</time>
      </trkpt>
      <trkpt lat="59.3465943062" lon="18.1093504303">
        <ele>145.4</ele>
        <time>2012-10-25T18:24:47Z</time>
      </trkpt>
      <trkpt lat="59.346653231" lon="18.1092370232">
        <ele>145</ele>
        <time>2012-10-25T18:24:48Z</time>
      </trkpt>
      <trkpt lat="59.3467048635" lon="18.1091287291">
        <ele>144.2</ele>
        <time>2012-10-25T18:24:49Z</time>
      </trkpt>
      <trkpt lat="59.346756496" lon="18.109025967">
        <ele>143.6</ele>
        <time>2012-10-25T18:24:50Z</time>
      </trkpt>
      <trkpt lat="59.346805111" lon="18.1089265576">
        <ele>142.8</ele>
        <time>2012-10-25T18:24:51Z</time>
      </trkpt>
      <trkpt lat="59.3468552348" lon="18.1088393859">
        <ele>142.2</ele>
        <time>2012-10-25T18:24:52Z</time>
      </trkpt>
      <trkpt lat="59.3468984854" lon="18.1087823889">
        <ele>141.6</ele>
        <time>2012-10-25T18:24:53Z</time>
      </trkpt>
      <trkpt lat="59.3469424903" lon="18.1087424911">
        <ele>141</ele>
        <time>2012-10-25T18:24:54Z</time>
      </trkpt>
      <trkpt lat="59.3469829749" lon="18.1087530523">
        <ele>140.4</ele>
        <time>2012-10-25T18:24:55Z</time>
      </trkpt>
      <trkpt lat="59.3470254712" lon="18.1087904356">
        <ele>139.6</ele>
        <time>2012-10-25T18:24:56Z</time>
      </trkpt>
      <trkpt lat="59.3470601722" lon="18.1088097139">
        <ele>139</ele>
        <time>2012-10-25T18:24:57Z</time>
      </trkpt>
      <trkpt lat="59.3470832225" lon="18.1088151622">
        <ele>138.4</ele>
        <time>2012-10-25T18:24:58Z</time>
      </trkpt>
      <trkpt lat="59.3471020817" lon="18.1088268968">
        <ele>137.6</ele>
        <time>2012-10-25T18:24:59Z</time>
      </trkpt>
      <trkpt lat="59.3471176721" lon="18.1088221192">
        <ele>137</ele>
        <time>2012-10-25T18:25:00Z</time>
      </trkpt>
      <trkpt lat="59.3471289038" lon="18.1088153298">
        <ele>137</ele>
        <time>2012-10-25T18:25:01Z</time>
      </trkpt>
      <trkpt lat="59.3472157403" lon="18.1088481869">
        <ele>137</ele>
        <time>2012-10-25T18:25:05Z</time>
      </trkpt>
      <trkpt lat="59.3473164907" lon="18.1086382203">
        <ele>137</ele>
        <time>2012-10-25T18:25:08Z</time>
      </trkpt>
      <trkpt lat="59.3473762537" lon="18.1084829875">
        <ele>137</ele>
        <time>2012-10-25T18:25:10Z</time>
      </trkpt>
      <trkpt lat="59.3474266289" lon="18.1083301854">
        <ele>137</ele>
        <time>2012-10-25T18:25:12Z</time>
      </trkpt>
      <trkpt lat="59.3474425545" lon="18.1082585202">
        <ele>137</ele>
        <time>2012-10-25T18:25:13Z</time>
      </trkpt>
      <trkpt lat="59.3474770879" lon="18.1081171175">
        <ele>137</ele>
        <time>2012-10-25T18:25:16Z</time>
      </trkpt>
      <trkpt lat="59.3474956957" lon="18.1079625553">
        <ele>137</ele>
        <time>2012-10-25T18:25:20Z</time>
      </trkpt>
      <trkpt lat="59.3475741503" lon="18.1076859526">
        <ele>137.4</ele>
        <time>2012-10-25T18:25:23Z</time>
      </trkpt>
      <trkpt lat="59.3476037384" lon="18.1075875491">
        <ele>137.8</ele>
        <time>2012-10-25T18:25:24Z</time>
      </trkpt>
      <trkpt lat="59.3476293032" lon="18.1074839488">
        <ele>138.2</ele>
        <time>2012-10-25T18:25:25Z</time>
      </trkpt>
      <trkpt lat="59.3476541975" lon="18.1073803485">
        <ele>138.8</ele>
        <time>2012-10-25T18:25:26Z</time>
      </trkpt>
      <trkpt lat="59.3476774992" lon="18.1072713838">
        <ele>139.2</ele>
        <time>2012-10-25T18:25:27Z</time>
      </trkpt>
      <trkpt lat="59.3477019743" lon="18.1071616648">
        <ele>139.6</ele>
        <time>2012-10-25T18:25:28Z</time>
      </trkpt>
      <trkpt lat="59.3477309757" lon="18.1070575616">
        <ele>140.2</ele>
        <time>2012-10-25T18:25:29Z</time>
      </trkpt>
      <trkpt lat="59.3477609829" lon="18.1069434839">
        <ele>140.6</ele>
        <time>2012-10-25T18:25:30Z</time>
      </trkpt>
      <trkpt lat="59.3477886432" lon="18.1068284004">
        <ele>141.2</ele>
        <time>2012-10-25T18:25:31Z</time>
      </trkpt>
      <trkpt lat="59.3478870467" lon="18.1063435913">
        <ele>141.2</ele>
        <time>2012-10-25T18:25:35Z</time>
      </trkpt>
      <trkpt lat="59.348110089" lon="18.1053834447">
        <ele>141.2</ele>
        <time>2012-10-25T18:25:43Z</time>
      </trkpt>
      <trkpt lat="59.3483141045" lon="18.1045169239">
        <ele>141.2</ele>
        <time>2012-10-25T18:25:50Z</time>
      </trkpt>
      <trkpt lat="59.3485235681" lon="18.1036390037">
        <ele>141.2</ele>
        <time>2012-10-25T18:25:57Z</time>
      </trkpt>
      <trkpt lat="59.3485451096" lon="18.1035177176">
        <ele>141.2</ele>
        <time>2012-10-25T18:25:58Z</time>
      </trkpt>
      <trkpt lat="59.3485757036" lon="18.1031718804">
        <ele>141.2</ele>
        <time>2012-10-25T18:26:01Z</time>
      </trkpt>
      <trkpt lat="59.348683411" lon="18.1026827965">
        <ele>141.2</ele>
        <time>2012-10-25T18:26:06Z</time>
      </trkpt>
      <trkpt lat="59.3486779627" lon="18.1025855665">
        <ele>141.2</ele>
        <time>2012-10-25T18:26:07Z</time>
      </trkpt>
      <trkpt lat="59.3486293477" lon="18.1024568205">
        <ele>141.2</ele>
        <time>2012-10-25T18:26:09Z</time>
      </trkpt>
      <trkpt lat="59.3484760428" lon="18.1023522982">
        <ele>141.2</ele>
        <time>2012-10-25T18:26:12Z</time>
      </trkpt>
      <trkpt lat="59.3483381605" lon="18.1023346962">
        <ele>141.2</ele>
        <time>2012-10-25T18:26:14Z</time>
      </trkpt>
      <trkpt lat="59.3482004459" lon="18.1023160046">
        <ele>141.2</ele>
        <time>2012-10-25T18:26:16Z</time>
      </trkpt>
      <trkpt lat="59.3478504178" lon="18.102260684">
        <ele>142</ele>
        <time>2012-10-25T18:26:21Z</time>
      </trkpt>
      <trkpt lat="59.3477860448" lon="18.1022399807">
        <ele>142.4</ele>
        <time>2012-10-25T18:26:22Z</time>
      </trkpt>
      <trkpt lat="59.3477163912" lon="18.1022155056">
        <ele>142.8</ele>
        <time>2012-10-25T18:26:23Z</time>
      </trkpt>
      <trkpt lat="59.3476407026" lon="18.1021988256">
        <ele>143.2</ele>
        <time>2012-10-25T18:26:24Z</time>
      </trkpt>
      <trkpt lat="59.3475715519" lon="18.1021794634">
        <ele>143.6</ele>
        <time>2012-10-25T18:26:25Z</time>
      </trkpt>
      <trkpt lat="59.3475028204" lon="18.1021585925">
        <ele>144.2</ele>
        <time>2012-10-25T18:26:26Z</time>
      </trkpt>
      <trkpt lat="59.3474361004" lon="18.1021330277">
        <ele>144.6</ele>
        <time>2012-10-25T18:26:27Z</time>
      </trkpt>
      <trkpt lat="59.3473762537" lon="18.1021047807">
        <ele>145</ele>
        <time>2012-10-25T18:26:28Z</time>
      </trkpt>
      <trkpt lat="59.3473159878" lon="18.1020780424">
        <ele>145.6</ele>
        <time>2012-10-25T18:26:29Z</time>
      </trkpt>
      <trkpt lat="59.3472579012" lon="18.1020703311">
        <ele>146</ele>
        <time>2012-10-25T18:26:30Z</time>
      </trkpt>
      <trkpt lat="59.34718808" lon="18.1020627874">
        <ele>146.6</ele>
        <time>2012-10-25T18:26:31Z</time>
      </trkpt>
      <trkpt lat="59.3471216954" lon="18.1020606919">
        <ele>147.2</ele>
        <time>2012-10-25T18:26:32Z</time>
      </trkpt>
      <trkpt lat="59.3470584958" lon="18.1020597699">
        <ele>147.6</ele>
        <time>2012-10-25T18:26:33Z</time>
      </trkpt>
      <trkpt lat="59.3468719986" lon="18.1020271643">
        <ele>148.2</ele>
        <time>2012-10-25T18:26:36Z</time>
      </trkpt>
      <trkpt lat="59.3468130738" lon="18.1020170222">
        <ele>148.6</ele>
        <time>2012-10-25T18:26:37Z</time>
      </trkpt>
      <trkpt lat="59.3467554063" lon="18.1020078859">
        <ele>149</ele>
        <time>2012-10-25T18:26:38Z</time>
      </trkpt>
      <trkpt lat="59.3466969007" lon="18.1020029406">
        <ele>149.4</ele>
        <time>2012-10-25T18:26:39Z</time>
      </trkpt>
      <trkpt lat="59.3466466931" lon="18.1020021862">
        <ele>149.8</ele>
        <time>2012-10-25T18:26:40Z</time>
      </trkpt>
      <trkpt lat="59.3465528996" lon="18.1019743583">
        <ele>150.2</ele>
        <time>2012-10-25T18:26:42Z</time>
      </trkpt>
      <trkpt lat="59.3465092299" lon="18.1019655573">
        <ele>150.8</ele>
        <time>2012-10-25T18:26:43Z</time>
      </trkpt>
      <trkpt lat="59.3464594415" lon="18.1019570916">
        <ele>151.2</ele>
        <time>2012-10-25T18:26:44Z</time>
      </trkpt>
      <trkpt lat="59.3464084795" lon="18.1019445187">
        <ele>152</ele>
        <time>2012-10-25T18:26:45Z</time>
      </trkpt>
      <trkpt lat="59.3463143508" lon="18.1019234802">
        <ele>152</ele>
        <time>2012-10-25T18:26:47Z</time>
      </trkpt>
      <trkpt lat="59.3462597008" lon="18.1019155174">
        <ele>152.4</ele>
        <time>2012-10-25T18:26:48Z</time>
      </trkpt>
      <trkpt lat="59.3462036259" lon="18.1019254918">
        <ele>152.8</ele>
        <time>2012-10-25T18:26:49Z</time>
      </trkpt>
      <trkpt lat="59.3461483053" lon="18.101928677">
        <ele>153.2</ele>
        <time>2012-10-25T18:26:50Z</time>
      </trkpt>
      <trkpt lat="59.3461022887" lon="18.1019302695">
        <ele>153.6</ele>
        <time>2012-10-25T18:26:51Z</time>
      </trkpt>
      <trkpt lat="59.3460538413" lon="18.1019276711">
        <ele>154.2</ele>
        <time>2012-10-25T18:26:52Z</time>
      </trkpt>
      <trkpt lat="59.3460130215" lon="18.1019441835">
        <ele>154.6</ele>
        <time>2012-10-25T18:26:53Z</time>
      </trkpt>
      <trkpt lat="59.3459685136" lon="18.1019130866">
        <ele>155.2</ele>
        <time>2012-10-25T18:26:54Z</time>
      </trkpt>
      <trkpt lat="59.3459223293" lon="18.1018798943">
        <ele>155.6</ele>
        <time>2012-10-25T18:26:55Z</time>
      </trkpt>
      <trkpt lat="59.3458801683" lon="18.1018451932">
        <ele>156.2</ele>
        <time>2012-10-25T18:26:56Z</time>
      </trkpt>
      <trkpt lat="59.3457918231" lon="18.1018228136">
        <ele>156.6</ele>
        <time>2012-10-25T18:26:58Z</time>
      </trkpt>
      <trkpt lat="59.345747902" lon="18.1018093187">
        <ele>157</ele>
        <time>2012-10-25T18:26:59Z</time>
      </trkpt>
      <trkpt lat="59.3457054057" lon="18.1017922196">
        <ele>157.4</ele>
        <time>2012-10-25T18:27:00Z</time>
      </trkpt>
      <trkpt lat="59.3456614846" lon="18.1017783895">
        <ele>157.8</ele>
        <time>2012-10-25T18:27:01Z</time>
      </trkpt>
      <trkpt lat="59.3456170605" lon="18.1017650623">
        <ele>158.2</ele>
        <time>2012-10-25T18:27:02Z</time>
      </trkpt>
      <trkpt lat="59.3454112849" lon="18.1017223146">
        <ele>158.2</ele>
        <time>2012-10-25T18:27:06Z</time>
      </trkpt>
      <trkpt lat="59.3453541203" lon="18.1017195486">
        <ele>158.2</ele>
        <time>2012-10-25T18:27:07Z</time>
      </trkpt>
      <trkpt lat="59.3450260527" lon="18.1016619649">
        <ele>158.2</ele>
        <time>2012-10-25T18:27:12Z</time>
      </trkpt>
      <trkpt lat="59.3448035133" lon="18.1015681714">
        <ele>158.2</ele>
        <time>2012-10-25T18:27:15Z</time>
      </trkpt>
      <trkpt lat="59.3447301717" lon="18.1015096658">
        <ele>157.8</ele>
        <time>2012-10-25T18:27:16Z</time>
      </trkpt>
      <trkpt lat="59.3446580035" lon="18.1014436164">
        <ele>157.4</ele>
        <time>2012-10-25T18:27:17Z</time>
      </trkpt>
      <trkpt lat="59.3445901939" lon="18.1013576181">
        <ele>156.8</ele>
        <time>2012-10-25T18:27:18Z</time>
      </trkpt>
      <trkpt lat="59.3445300119" lon="18.1012633217">
        <ele>156.4</ele>
        <time>2012-10-25T18:27:19Z</time>
      </trkpt>
      <trkpt lat="59.3444705842" lon="18.1011685224">
        <ele>156</ele>
        <time>2012-10-25T18:27:20Z</time>
      </trkpt>
      <trkpt lat="59.3444142579" lon="18.101065928">
        <ele>155.6</ele>
        <time>2012-10-25T18:27:21Z</time>
      </trkpt>
      <trkpt lat="59.3443525671" lon="18.1009738109">
        <ele>155</ele>
        <time>2012-10-25T18:27:22Z</time>
      </trkpt>
      <trkpt lat="59.3442954863" lon="18.1008791793">
        <ele>154.4</ele>
        <time>2012-10-25T18:27:23Z</time>
      </trkpt>
      <trkpt lat="59.3442356396" lon="18.1007883195">
        <ele>154</ele>
        <time>2012-10-25T18:27:24Z</time>
      </trkpt>
      <trkpt lat="59.3441752899" lon="18.10069637">
        <ele>153.4</ele>
        <time>2012-10-25T18:27:25Z</time>
      </trkpt>
      <trkpt lat="59.3439931512" lon="18.1004483496">
        <ele>153.4</ele>
        <time>2012-10-25T18:27:28Z</time>
      </trkpt>
      <trkpt lat="59.3438289498" lon="18.1001951324">
        <ele>153</ele>
        <time>2012-10-25T18:27:31Z</time>
      </trkpt>
      <trkpt lat="59.3437771496" lon="18.1001103914">
        <ele>152.6</ele>
        <time>2012-10-25T18:27:32Z</time>
      </trkpt>
      <trkpt lat="59.3437365812" lon="18.1000034383">
        <ele>151.4</ele>
        <time>2012-10-25T18:27:33Z</time>
      </trkpt>
      <trkpt lat="59.3437295404" lon="18.0998772908">
        <ele>150.8</ele>
        <time>2012-10-25T18:27:34Z</time>
      </trkpt>
      <trkpt lat="59.3437426162" lon="18.099745192">
        <ele>150.2</ele>
        <time>2012-10-25T18:27:35Z</time>
      </trkpt>
      <trkpt lat="59.3437649121" lon="18.0996289351">
        <ele>149.6</ele>
        <time>2012-10-25T18:27:36Z</time>
      </trkpt>
      <trkpt lat="59.3437841066" lon="18.099507649">
        <ele>148.8</ele>
        <time>2012-10-25T18:27:37Z</time>
      </trkpt>
      <trkpt lat="59.3438360744" lon="18.0992699383">
        <ele>148.8</ele>
        <time>2012-10-25T18:27:39Z</time>
      </trkpt>
      <trkpt lat="59.3439216536" lon="18.0989117797">
        <ele>148.8</ele>
        <time>2012-10-25T18:27:42Z</time>
      </trkpt>
      <trkpt lat="59.3441380742" lon="18.097984071">
        <ele>148.8</ele>
        <time>2012-10-25T18:27:50Z</time>
      </trkpt>
      <trkpt lat="59.3441827498" lon="18.0977398224">
        <ele>148.8</ele>
        <time>2012-10-25T18:27:52Z</time>
      </trkpt>
      <trkpt lat="59.3442695024" lon="18.0973913868">
        <ele>148.8</ele>
        <time>2012-10-25T18:27:55Z</time>
      </trkpt>
      <trkpt lat="59.344480391" lon="18.0965868921">
        <ele>148.8</ele>
        <time>2012-10-25T18:28:02Z</time>
      </trkpt>
      <trkpt lat="59.3446717498" lon="18.0959301702">
        <ele>148.8</ele>
        <time>2012-10-25T18:28:08Z</time>
      </trkpt>
      <trkpt lat="59.3448956304" lon="18.0953195488">
        <ele>148.8</ele>
        <time>2012-10-25T18:28:14Z</time>
      </trkpt>
      <trkpt lat="59.3451769269" lon="18.0946004656">
        <ele>148.8</ele>
        <time>2012-10-25T18:28:21Z</time>
      </trkpt>
      <trkpt lat="59.3453656873" lon="18.0942841327">
        <ele>148.8</ele>
        <time>2012-10-25T18:28:25Z</time>
      </trkpt>
      <trkpt lat="59.3454115363" lon="18.0942249565">
        <ele>148.8</ele>
        <time>2012-10-25T18:28:26Z</time>
      </trkpt>
      <trkpt lat="59.3455330739" lon="18.0940380401">
        <ele>148.8</ele>
        <time>2012-10-25T18:28:29Z</time>
      </trkpt>
      <trkpt lat="59.3455497538" lon="18.0939542211">
        <ele>148.8</ele>
        <time>2012-10-25T18:28:30Z</time>
      </trkpt>
      <trkpt lat="59.3455730555" lon="18.0937198632">
        <ele>148.8</ele>
        <time>2012-10-25T18:28:34Z</time>
      </trkpt>
      <trkpt lat="59.3456111932" lon="18.09362037">
        <ele>148.8</ele>
        <time>2012-10-25T18:28:36Z</time>
      </trkpt>
      <trkpt lat="59.3456497499" lon="18.0935986609">
        <ele>148.8</ele>
        <time>2012-10-25T18:28:37Z</time>
      </trkpt>
      <trkpt lat="59.3458059885" lon="18.0935961463">
        <ele>148.8</ele>
        <time>2012-10-25T18:28:40Z</time>
      </trkpt>
      <trkpt lat="59.3462710163" lon="18.0935483695">
        <ele>148.8</ele>
        <time>2012-10-25T18:28:47Z</time>
      </trkpt>
      <trkpt lat="59.346677287" lon="18.0935125788">
        <ele>148.8</ele>
        <time>2012-10-25T18:28:53Z</time>
      </trkpt>
      <trkpt lat="59.3468028479" lon="18.0934984972">
        <ele>148.4</ele>
        <time>2012-10-25T18:28:55Z</time>
      </trkpt>
      <trkpt lat="59.3468628623" lon="18.0934906182">
        <ele>148</ele>
        <time>2012-10-25T18:28:56Z</time>
      </trkpt>
      <trkpt lat="59.3469240502" lon="18.0934762852">
        <ele>147.6</ele>
        <time>2012-10-25T18:28:57Z</time>
      </trkpt>
      <trkpt lat="59.3469833102" lon="18.0934700826">
        <ele>147.2</ele>
        <time>2012-10-25T18:28:58Z</time>
      </trkpt>
      <trkpt lat="59.3470409777" lon="18.0934637123">
        <ele>146.8</ele>
        <time>2012-10-25T18:28:59Z</time>
      </trkpt>
      <trkpt lat="59.3472713123" lon="18.0934461942">
        <ele>146.8</ele>
        <time>2012-10-25T18:29:03Z</time>
      </trkpt>
      <trkpt lat="59.347392766" lon="18.0934069669">
        <ele>146.8</ele>
        <time>2012-10-25T18:29:05Z</time>
      </trkpt>
      <trkpt lat="59.3476653454" lon="18.0933342958">
        <ele>146.4</ele>
        <time>2012-10-25T18:29:09Z</time>
      </trkpt>
      <trkpt lat="59.347735921" lon="18.0933270874">
        <ele>145.8</ele>
        <time>2012-10-25T18:29:10Z</time>
      </trkpt>
      <trkpt lat="59.3478090112" lon="18.0933163585">
        <ele>145.2</ele>
        <time>2012-10-25T18:29:11Z</time>
      </trkpt>
      <trkpt lat="59.3478815146" lon="18.0933031151">
        <ele>144.2</ele>
        <time>2012-10-25T18:29:12Z</time>
      </trkpt>
      <trkpt lat="59.3481618053" lon="18.0932027">
        <ele>143.8</ele>
        <time>2012-10-25T18:29:16Z</time>
      </trkpt>
      <trkpt lat="59.3482333868" lon="18.0931579406">
        <ele>143.4</ele>
        <time>2012-10-25T18:29:17Z</time>
      </trkpt>
      <trkpt lat="59.3483051358" lon="18.0931028715">
        <ele>143</ele>
        <time>2012-10-25T18:29:18Z</time>
      </trkpt>
      <trkpt lat="59.3483743703" lon="18.0930395882">
        <ele>142.6</ele>
        <time>2012-10-25T18:29:19Z</time>
      </trkpt>
      <trkpt lat="59.3484267572" lon="18.0929623909">
        <ele>142</ele>
        <time>2012-10-25T18:29:20Z</time>
      </trkpt>
      <trkpt lat="59.3484716842" lon="18.092883601">
        <ele>142</ele>
        <time>2012-10-25T18:29:21Z</time>
      </trkpt>
      <trkpt lat="59.3485190419" lon="18.0928048112">
        <ele>141.6</ele>
        <time>2012-10-25T18:29:22Z</time>
      </trkpt>
      <trkpt lat="59.3485656453" lon="18.0927344032">
        <ele>141.2</ele>
        <time>2012-10-25T18:29:23Z</time>
      </trkpt>
      <trkpt lat="59.3486165234" lon="18.0926606425">
        <ele>140.8</ele>
        <time>2012-10-25T18:29:24Z</time>
      </trkpt>
      <trkpt lat="59.3486559183" lon="18.0926125304">
        <ele>140.4</ele>
        <time>2012-10-25T18:29:25Z</time>
      </trkpt>
      <trkpt lat="59.3486915414" lon="18.0925488279">
        <ele>139.8</ele>
        <time>2012-10-25T18:29:26Z</time>
      </trkpt>
      <trkpt lat="59.3487829041" lon="18.0924056651">
        <ele>139.8</ele>
        <time>2012-10-25T18:29:28Z</time>
      </trkpt>
      <trkpt lat="59.3488952216" lon="18.0922226882">
        <ele>139.8</ele>
        <time>2012-10-25T18:29:30Z</time>
      </trkpt>
      <trkpt lat="59.3491539708" lon="18.0918375399">
        <ele>139.4</ele>
        <time>2012-10-25T18:29:34Z</time>
      </trkpt>
      <trkpt lat="59.3492310843" lon="18.0917275694">
        <ele>139</ele>
        <time>2012-10-25T18:29:35Z</time>
      </trkpt>
      <trkpt lat="59.3493059347" lon="18.0916172636">
        <ele>138.6</ele>
        <time>2012-10-25T18:29:36Z</time>
      </trkpt>
      <trkpt lat="59.3493843893" lon="18.0915117355">
        <ele>137.8</ele>
        <time>2012-10-25T18:29:37Z</time>
      </trkpt>
      <trkpt lat="59.3495468305" lon="18.0912915429">
        <ele>137.2</ele>
        <time>2012-10-25T18:29:39Z</time>
      </trkpt>
      <trkpt lat="59.3496281349" lon="18.0911729391">
        <ele>136.6</ele>
        <time>2012-10-25T18:29:40Z</time>
      </trkpt>
      <trkpt lat="59.3497067572" lon="18.0910508986">
        <ele>136.2</ele>
        <time>2012-10-25T18:29:41Z</time>
      </trkpt>
      <trkpt lat="59.3497806017" lon="18.0909250863">
        <ele>135.4</ele>
        <time>2012-10-25T18:29:42Z</time>
      </trkpt>
      <trkpt lat="59.3498482436" lon="18.0907919817">
        <ele>134.6</ele>
        <time>2012-10-25T18:29:43Z</time>
      </trkpt>
      <trkpt lat="59.3499079228" lon="18.090665415">
        <ele>133.8</ele>
        <time>2012-10-25T18:29:44Z</time>
      </trkpt>
      <trkpt lat="59.349965674" lon="18.0905443804">
        <ele>133</ele>
        <time>2012-10-25T18:29:45Z</time>
      </trkpt>
      <trkpt lat="59.3500189829" lon="18.0904213341">
        <ele>132.2</ele>
        <time>2012-10-25T18:29:46Z</time>
      </trkpt>
      <trkpt lat="59.3501135308" lon="18.0901796001">
        <ele>131.8</ele>
        <time>2012-10-25T18:29:48Z</time>
      </trkpt>
      <trkpt lat="59.3501654985" lon="18.0900690428">
        <ele>131.2</ele>
        <time>2012-10-25T18:29:49Z</time>
      </trkpt>
      <trkpt lat="59.3502126048" lon="18.0899674542">
        <ele>130.4</ele>
        <time>2012-10-25T18:29:50Z</time>
      </trkpt>
      <trkpt lat="59.3502587891" lon="18.0898693022">
        <ele>129.6</ele>
        <time>2012-10-25T18:29:51Z</time>
      </trkpt>
      <trkpt lat="59.3503064821" lon="18.0897849802">
        <ele>129</ele>
        <time>2012-10-25T18:29:52Z</time>
      </trkpt>
      <trkpt lat="59.3503561868" lon="18.0897066933">
        <ele>128.2</ele>
        <time>2012-10-25T18:29:53Z</time>
      </trkpt>
      <trkpt lat="59.3504068973" lon="18.0896246345">
        <ele>127.4</ele>
        <time>2012-10-25T18:29:54Z</time>
      </trkpt>
      <trkpt lat="59.3504577754" lon="18.0895418213">
        <ele>127.8</ele>
        <time>2012-10-25T18:29:55Z</time>
      </trkpt>
      <trkpt lat="59.3505106652" lon="18.0894631991">
        <ele>128.2</ele>
        <time>2012-10-25T18:29:56Z</time>
      </trkpt>
      <trkpt lat="59.350568165" lon="18.0893860018">
        <ele>128.6</ele>
        <time>2012-10-25T18:29:57Z</time>
      </trkpt>
      <trkpt lat="59.3506273412" lon="18.0893025181">
        <ele>129</ele>
        <time>2012-10-25T18:29:58Z</time>
      </trkpt>
      <trkpt lat="59.3506837514" lon="18.0892251531">
        <ele>129.6</ele>
        <time>2012-10-25T18:29:59Z</time>
      </trkpt>
      <trkpt lat="59.3508641299" lon="18.0890166953">
        <ele>129.6</ele>
        <time>2012-10-25T18:30:02Z</time>
      </trkpt>
      <trkpt lat="59.3512558999" lon="18.0885458001">
        <ele>129.6</ele>
        <time>2012-10-25T18:30:08Z</time>
      </trkpt>
      <trkpt lat="59.3515330055" lon="18.0880368512">
        <ele>129</ele>
        <time>2012-10-25T18:30:13Z</time>
      </trkpt>
      <trkpt lat="59.3515773458" lon="18.0879331671">
        <ele>128.6</ele>
        <time>2012-10-25T18:30:14Z</time>
      </trkpt>
      <trkpt lat="59.3516181656" lon="18.0878329195">
        <ele>128.2</ele>
        <time>2012-10-25T18:30:15Z</time>
      </trkpt>
      <trkpt lat="59.3516510227" lon="18.0877300736">
        <ele>127.6</ele>
        <time>2012-10-25T18:30:16Z</time>
      </trkpt>
      <trkpt lat="59.3516884059" lon="18.0876293232">
        <ele>127.2</ele>
        <time>2012-10-25T18:30:17Z</time>
      </trkpt>
      <trkpt lat="59.3517267951" lon="18.0875595858">
        <ele>127.2</ele>
        <time>2012-10-25T18:30:18Z</time>
      </trkpt>
      <trkpt lat="59.3518046629" lon="18.0873921154">
        <ele>127.2</ele>
        <time>2012-10-25T18:30:20Z</time>
      </trkpt>
      <trkpt lat="59.3518717181" lon="18.087172342">
        <ele>127.2</ele>
        <time>2012-10-25T18:30:22Z</time>
      </trkpt>
      <trkpt lat="59.3519335765" lon="18.0869297698">
        <ele>127.2</ele>
        <time>2012-10-25T18:30:24Z</time>
      </trkpt>
      <trkpt lat="59.3520050741" lon="18.0865596251">
        <ele>127.2</ele>
        <time>2012-10-25T18:30:27Z</time>
      </trkpt>
      <trkpt lat="59.3520826905" lon="18.0860353373">
        <ele>127.2</ele>
        <time>2012-10-25T18:30:32Z</time>
      </trkpt>
      <trkpt lat="59.3521411962" lon="18.0857343432">
        <ele>127.2</ele>
        <time>2012-10-25T18:30:35Z</time>
      </trkpt>
      <trkpt lat="59.3521787471" lon="18.0855285676">
        <ele>127.6</ele>
        <time>2012-10-25T18:30:37Z</time>
      </trkpt>
      <trkpt lat="59.3521961815" lon="18.0854312537">
        <ele>128</ele>
        <time>2012-10-25T18:30:38Z</time>
      </trkpt>
      <trkpt lat="59.3522131967" lon="18.0853266476">
        <ele>128.6</ele>
        <time>2012-10-25T18:30:39Z</time>
      </trkpt>
      <trkpt lat="59.3522239255" lon="18.0852274059">
        <ele>129</ele>
        <time>2012-10-25T18:30:40Z</time>
      </trkpt>
      <trkpt lat="59.3522395997" lon="18.0851169325">
        <ele>129.4</ele>
        <time>2012-10-25T18:30:41Z</time>
      </trkpt>
      <trkpt lat="59.35226726" lon="18.0849057924">
        <ele>129.4</ele>
        <time>2012-10-25T18:30:43Z</time>
      </trkpt>
      <trkpt lat="59.3522818445" lon="18.0848021083">
        <ele>129.8</ele>
        <time>2012-10-25T18:30:44Z</time>
      </trkpt>
      <trkpt lat="59.3522911484" lon="18.084708231">
        <ele>130.4</ele>
        <time>2012-10-25T18:30:45Z</time>
      </trkpt>
      <trkpt lat="59.3523003685" lon="18.0846388289">
        <ele>130.8</ele>
        <time>2012-10-25T18:30:46Z</time>
      </trkpt>
      <trkpt lat="59.3523069902" lon="18.0845936505">
        <ele>131.2</ele>
        <time>2012-10-25T18:30:47Z</time>
      </trkpt>
      <trkpt lat="59.3523036374" lon="18.0845726957">
        <ele>131.8</ele>
        <time>2012-10-25T18:30:48Z</time>
      </trkpt>
      <trkpt lat="59.3523302919" lon="18.0844839314">
        <ele>131.8</ele>
        <time>2012-10-25T18:30:51Z</time>
      </trkpt>
      <trkpt lat="59.3523595447" lon="18.084490134">
        <ele>131.8</ele>
        <time>2012-10-25T18:30:52Z</time>
      </trkpt>
      <trkpt lat="59.3524903023" lon="18.0845585303">
        <ele>132.2</ele>
        <time>2012-10-25T18:30:55Z</time>
      </trkpt>
      <trkpt lat="59.3525393364" lon="18.0845848495">
        <ele>132.6</ele>
        <time>2012-10-25T18:30:56Z</time>
      </trkpt>
      <trkpt lat="59.3525926453" lon="18.0846253341">
        <ele>133</ele>
        <time>2012-10-25T18:30:57Z</time>
      </trkpt>
      <trkpt lat="59.3526505642" lon="18.0846924731">
        <ele>133.4</ele>
        <time>2012-10-25T18:30:58Z</time>
      </trkpt>
      <trkpt lat="59.352697" lon="18.0847969954">
        <ele>133.8</ele>
        <time>2012-10-25T18:30:59Z</time>
      </trkpt>
      <trkpt lat="59.3527394124" lon="18.0849009309">
        <ele>133.8</ele>
        <time>2012-10-25T18:31:00Z</time>
      </trkpt>
      <trkpt lat="59.3528094851" lon="18.0851350374">
        <ele>133.8</ele>
        <time>2012-10-25T18:31:02Z</time>
      </trkpt>
      <trkpt lat="59.3528783005" lon="18.0853947925">
        <ele>133.8</ele>
        <time>2012-10-25T18:31:04Z</time>
      </trkpt>
      <trkpt lat="59.3531357924" lon="18.0860106107">
        <ele>133.8</ele>
        <time>2012-10-25T18:31:09Z</time>
      </trkpt>
      <trkpt lat="59.3532850741" lon="18.0861837807">
        <ele>133.4</ele>
        <time>2012-10-25T18:31:11Z</time>
      </trkpt>
      <trkpt lat="59.3533681387" lon="18.0862438789">
        <ele>133</ele>
        <time>2012-10-25T18:31:12Z</time>
      </trkpt>
      <trkpt lat="59.3534545561" lon="18.0862799211">
        <ele>132.6</ele>
        <time>2012-10-25T18:31:13Z</time>
      </trkpt>
      <trkpt lat="59.3535446615" lon="18.0862997024">
        <ele>132.2</ele>
        <time>2012-10-25T18:31:14Z</time>
      </trkpt>
      <trkpt lat="59.3536299054" lon="18.0863047315">
        <ele>131.8</ele>
        <time>2012-10-25T18:31:15Z</time>
      </trkpt>
      <trkpt lat="59.3537119642" lon="18.0863133649">
        <ele>131.8</ele>
        <time>2012-10-25T18:31:16Z</time>
      </trkpt>
      <trkpt lat="59.3537920952" lon="18.0863261892">
        <ele>131</ele>
        <time>2012-10-25T18:31:17Z</time>
      </trkpt>
      <trkpt lat="59.3538694601" lon="18.0863460543">
        <ele>130.4</ele>
        <time>2012-10-25T18:31:18Z</time>
      </trkpt>
      <trkpt lat="59.3539451487" lon="18.0863708647">
        <ele>130</ele>
        <time>2012-10-25T18:31:19Z</time>
      </trkpt>
      <trkpt lat="59.3540200829" lon="18.0863972677">
        <ele>129.6</ele>
        <time>2012-10-25T18:31:20Z</time>
      </trkpt>
      <trkpt lat="59.3541381839" lon="18.0864510795">
        <ele>129.6</ele>
        <time>2012-10-25T18:31:22Z</time>
      </trkpt>
      <trkpt lat="59.3541858769" lon="18.0864722857">
        <ele>129.2</ele>
        <time>2012-10-25T18:31:23Z</time>
      </trkpt>
      <trkpt lat="59.3542248527" lon="18.0864877922">
        <ele>128.6</ele>
        <time>2012-10-25T18:31:24Z</time>
      </trkpt>
      <trkpt lat="59.3542575421" lon="18.0864998622">
        <ele>128.2</ele>
        <time>2012-10-25T18:31:25Z</time>
      </trkpt>
      <trkpt lat="59.3542935843" lon="18.0865079926">
        <ele>127.6</ele>
        <time>2012-10-25T18:31:26Z</time>
      </trkpt>
      <trkpt lat="59.3543298779" lon="18.0865028797">
        <ele>127.2</ele>
        <time>2012-10-25T18:31:27Z</time>
      </trkpt>
      <trkpt lat="59.354371033" lon="18.0864599643">
        <ele>127.2</ele>
        <time>2012-10-25T18:31:28Z</time>
      </trkpt>
      <trkpt lat="59.3544160438" lon="18.0863965972">
        <ele>127.2</ele>
        <time>2012-10-25T18:31:29Z</time>
      </trkpt>
      <trkpt lat="59.354541018" lon="18.0861284602">
        <ele>127.2</ele>
        <time>2012-10-25T18:31:32Z</time>
      </trkpt>
      <trkpt lat="59.3545830113" lon="18.0860433001">
        <ele>127.2</ele>
        <time>2012-10-25T18:31:33Z</time>
      </trkpt>
      <trkpt lat="59.3546420199" lon="18.0860086828">
        <ele>127.2</ele>
        <time>2012-10-25T18:31:34Z</time>
      </trkpt>
      <trkpt lat="59.354761881" lon="18.0859376043">
        <ele>127.2</ele>
        <time>2012-10-25T18:31:36Z</time>
      </trkpt>
      <trkpt lat="59.3549969095" lon="18.0858221856">
        <ele>127.2</ele>
        <time>2012-10-25T18:31:40Z</time>
      </trkpt>
      <trkpt lat="59.3550600252" lon="18.0857865625">
        <ele>128.2</ele>
        <time>2012-10-25T18:31:41Z</time>
      </trkpt>
      <trkpt lat="59.3551298465" lon="18.0857383666">
        <ele>128.8</ele>
        <time>2012-10-25T18:31:42Z</time>
      </trkpt>
      <trkpt lat="59.3551963987" lon="18.0856646897">
        <ele>129.2</ele>
        <time>2012-10-25T18:31:43Z</time>
      </trkpt>
      <trkpt lat="59.3552659685" lon="18.0855637716">
        <ele>129.8</ele>
        <time>2012-10-25T18:31:44Z</time>
      </trkpt>
      <trkpt lat="59.3553289166" lon="18.0854453353">
        <ele>129.8</ele>
        <time>2012-10-25T18:31:45Z</time>
      </trkpt>
      <trkpt lat="59.3554525496" lon="18.085182898">
        <ele>129.8</ele>
        <time>2012-10-25T18:31:47Z</time>
      </trkpt>
      <trkpt lat="59.3555998196" lon="18.0848200456">
        <ele>129.8</ele>
        <time>2012-10-25T18:31:50Z</time>
      </trkpt>
      <trkpt lat="59.3556289886" lon="18.0847338797">
        <ele>129.2</ele>
        <time>2012-10-25T18:31:51Z</time>
      </trkpt>
      <trkpt lat="59.3556594987" lon="18.084642936">
        <ele>128.8</ele>
        <time>2012-10-25T18:31:52Z</time>
      </trkpt>
      <trkpt lat="59.3556852311" lon="18.0845676666">
        <ele>128.4</ele>
        <time>2012-10-25T18:31:53Z</time>
      </trkpt>
      <trkpt lat="59.3557057668" lon="18.0844885414">
        <ele>127.8</ele>
        <time>2012-10-25T18:31:54Z</time>
      </trkpt>
      <trkpt lat="59.3557351034" lon="18.0844073208">
        <ele>127.4</ele>
        <time>2012-10-25T18:31:55Z</time>
      </trkpt>
      <trkpt lat="59.3557895858" lon="18.0842012937">
        <ele>127.4</ele>
        <time>2012-10-25T18:31:57Z</time>
      </trkpt>
      <trkpt lat="59.3558180843" lon="18.0840644173">
        <ele>127.4</ele>
        <time>2012-10-25T18:31:58Z</time>
      </trkpt>
      <trkpt lat="59.355894611" lon="18.0836293129">
        <ele>127</ele>
        <time>2012-10-25T18:32:01Z</time>
      </trkpt>
      <trkpt lat="59.3559249535" lon="18.0834797798">
        <ele>126.6</ele>
        <time>2012-10-25T18:32:02Z</time>
      </trkpt>
      <trkpt lat="59.3559449862" lon="18.0833165842">
        <ele>126.2</ele>
        <time>2012-10-25T18:32:03Z</time>
      </trkpt>
      <trkpt lat="59.3559729818" lon="18.0831707391">
        <ele>125.8</ele>
        <time>2012-10-25T18:32:04Z</time>
      </trkpt>
      <trkpt lat="59.3560003068" lon="18.0830247264">
        <ele>125.2</ele>
        <time>2012-10-25T18:32:05Z</time>
      </trkpt>
      <trkpt lat="59.3561410389" lon="18.0824664919">
        <ele>125.2</ele>
        <time>2012-10-25T18:32:09Z</time>
      </trkpt>
      <trkpt lat="59.3562348323" lon="18.0822395939">
        <ele>125.2</ele>
        <time>2012-10-25T18:32:11Z</time>
      </trkpt>
      <trkpt lat="59.3563572919" lon="18.0820629034">
        <ele>125.2</ele>
        <time>2012-10-25T18:32:13Z</time>
      </trkpt>
      <trkpt lat="59.3565241755" lon="18.0819541902">
        <ele>125.2</ele>
        <time>2012-10-25T18:32:16Z</time>
      </trkpt>
      <trkpt lat="59.3567254249" lon="18.082067262">
        <ele>125.2</ele>
        <time>2012-10-25T18:32:19Z</time>
      </trkpt>
      <trkpt lat="59.3569053005" lon="18.0824287733">
        <ele>125.2</ele>
        <time>2012-10-25T18:32:22Z</time>
      </trkpt>
      <trkpt lat="59.3570059671" lon="18.0827097346">
        <ele>125.2</ele>
        <time>2012-10-25T18:32:24Z</time>
      </trkpt>
      <trkpt lat="59.3571419215" lon="18.0830748502">
        <ele>125.2</ele>
        <time>2012-10-25T18:32:27Z</time>
      </trkpt>
      <trkpt lat="59.3572989984" lon="18.0833885847">
        <ele>125.2</ele>
        <time>2012-10-25T18:32:30Z</time>
      </trkpt>
      <trkpt lat="59.3574235534" lon="18.083547757">
        <ele>125.8</ele>
        <time>2012-10-25T18:32:32Z</time>
      </trkpt>
      <trkpt lat="59.3574928717" lon="18.0836007306">
        <ele>126.4</ele>
        <time>2012-10-25T18:32:33Z</time>
      </trkpt>
      <trkpt lat="59.3575688955" lon="18.0836542909">
        <ele>127</ele>
        <time>2012-10-25T18:32:34Z</time>
      </trkpt>
      <trkpt lat="59.3576454223" lon="18.0837058396">
        <ele>127.4</ele>
        <time>2012-10-25T18:32:35Z</time>
      </trkpt>
      <trkpt lat="59.3577201888" lon="18.0837504313">
        <ele>128</ele>
        <time>2012-10-25T18:32:36Z</time>
      </trkpt>
      <trkpt lat="59.357801158" lon="18.0838002198">
        <ele>128</ele>
        <time>2012-10-25T18:32:37Z</time>
      </trkpt>
      <trkpt lat="59.3582715502" lon="18.0840116952">
        <ele>128</ele>
        <time>2012-10-25T18:32:43Z</time>
      </trkpt>
      <trkpt lat="59.3586375878" lon="18.0841131161">
        <ele>127.6</ele>
        <time>2012-10-25T18:32:48Z</time>
      </trkpt>
      <trkpt lat="59.3587074928" lon="18.0840916585">
        <ele>127</ele>
        <time>2012-10-25T18:32:49Z</time>
      </trkpt>
      <trkpt lat="59.3587733746" lon="18.0840448875">
        <ele>126.6</ele>
        <time>2012-10-25T18:32:50Z</time>
      </trkpt>
      <trkpt lat="59.3588380828" lon="18.0839799278">
        <ele>126.2</ele>
        <time>2012-10-25T18:32:51Z</time>
      </trkpt>
      <trkpt lat="59.3589052218" lon="18.0838993777">
        <ele>125.8</ele>
        <time>2012-10-25T18:32:52Z</time>
      </trkpt>
      <trkpt lat="59.3589678346" lon="18.0838101105">
        <ele>125.8</ele>
        <time>2012-10-25T18:32:53Z</time>
      </trkpt>
      <trkpt lat="59.3591280966" lon="18.0834983876">
        <ele>125.8</ele>
        <time>2012-10-25T18:32:56Z</time>
      </trkpt>
      <trkpt lat="59.3592177829" lon="18.0832857388">
        <ele>125.8</ele>
        <time>2012-10-25T18:32:58Z</time>
      </trkpt>
      <trkpt lat="59.3593513904" lon="18.0829321903">
        <ele>125.8</ele>
        <time>2012-10-25T18:33:01Z</time>
      </trkpt>
      <trkpt lat="59.3596083794" lon="18.0819875501">
        <ele>125.8</ele>
        <time>2012-10-25T18:33:08Z</time>
      </trkpt>
      <trkpt lat="59.3598780252" lon="18.0810124837">
        <ele>125.8</ele>
        <time>2012-10-25T18:33:15Z</time>
      </trkpt>
      <trkpt lat="59.3599283166" lon="18.0808870067">
        <ele>125.4</ele>
        <time>2012-10-25T18:33:16Z</time>
      </trkpt>
      <trkpt lat="59.35997953" lon="18.0807662235">
        <ele>124.8</ele>
        <time>2012-10-25T18:33:17Z</time>
      </trkpt>
      <trkpt lat="59.3600382033" lon="18.0806541575">
        <ele>124.4</ele>
        <time>2012-10-25T18:33:18Z</time>
      </trkpt>
      <trkpt lat="59.360095284" lon="18.0805523174">
        <ele>124</ele>
        <time>2012-10-25T18:33:19Z</time>
      </trkpt>
      <trkpt lat="59.3601573939" lon="18.0804635531">
        <ele>123.6</ele>
        <time>2012-10-25T18:33:20Z</time>
      </trkpt>
      <trkpt lat="59.3604085156" lon="18.0802083242">
        <ele>123.6</ele>
        <time>2012-10-25T18:33:24Z</time>
      </trkpt>
      <trkpt lat="59.360478253" lon="18.0801997747">
        <ele>123.6</ele>
        <time>2012-10-25T18:33:25Z</time>
      </trkpt>
      <trkpt lat="59.3607732959" lon="18.0801442027">
        <ele>123.6</ele>
        <time>2012-10-25T18:33:29Z</time>
      </trkpt>
      <trkpt lat="59.3608385071" lon="18.0800712801">
        <ele>123.6</ele>
        <time>2012-10-25T18:33:30Z</time>
      </trkpt>
      <trkpt lat="59.3610010321" lon="18.0797677715">
        <ele>123.6</ele>
        <time>2012-10-25T18:33:33Z</time>
      </trkpt>
      <trkpt lat="59.361041852" lon="18.0796354213">
        <ele>123.6</ele>
        <time>2012-10-25T18:33:34Z</time>
      </trkpt>
      <trkpt lat="59.3611358969" lon="18.0792413044">
        <ele>123.6</ele>
        <time>2012-10-25T18:33:37Z</time>
      </trkpt>
      <trkpt lat="59.3611772197" lon="18.0789732512">
        <ele>123.6</ele>
        <time>2012-10-25T18:33:39Z</time>
      </trkpt>
      <trkpt lat="59.3612091547" lon="18.0785583472">
        <ele>123.6</ele>
        <time>2012-10-25T18:33:42Z</time>
      </trkpt>
      <trkpt lat="59.3612120884" lon="18.0777145413">
        <ele>123.6</ele>
        <time>2012-10-25T18:33:48Z</time>
      </trkpt>
      <trkpt lat="59.3612241583" lon="18.0772985476">
        <ele>123.6</ele>
        <time>2012-10-25T18:33:51Z</time>
      </trkpt>
      <trkpt lat="59.3612534111" lon="18.0769978051">
        <ele>123.6</ele>
        <time>2012-10-25T18:33:53Z</time>
      </trkpt>
      <trkpt lat="59.3612752041" lon="18.0768641976">
        <ele>123.6</ele>
        <time>2012-10-25T18:33:54Z</time>
      </trkpt>
      <trkpt lat="59.3613751163" lon="18.0763327013">
        <ele>123.6</ele>
        <time>2012-10-25T18:33:58Z</time>
      </trkpt>
      <trkpt lat="59.3616018467" lon="18.0754417891">
        <ele>123.6</ele>
        <time>2012-10-25T18:34:05Z</time>
      </trkpt>
      <trkpt lat="59.3616882641" lon="18.0752024021">
        <ele>123.6</ele>
        <time>2012-10-25T18:34:07Z</time>
      </trkpt>
      <trkpt lat="59.3618571594" lon="18.0747164195">
        <ele>123.6</ele>
        <time>2012-10-25T18:34:11Z</time>
      </trkpt>
      <trkpt lat="59.3620076983" lon="18.0741443548">
        <ele>123.6</ele>
        <time>2012-10-25T18:34:16Z</time>
      </trkpt>
      <trkpt lat="59.3621477599" lon="18.0733781654">
        <ele>123.6</ele>
        <time>2012-10-25T18:34:22Z</time>
      </trkpt>
      <trkpt lat="59.3622772602" lon="18.0726051865">
        <ele>123.6</ele>
        <time>2012-10-25T18:34:28Z</time>
      </trkpt>
      <trkpt lat="59.3623848" lon="18.071845954">
        <ele>123.6</ele>
        <time>2012-10-25T18:34:34Z</time>
      </trkpt>
      <trkpt lat="59.3624751569" lon="18.0712160543">
        <ele>123.6</ele>
        <time>2012-10-25T18:34:39Z</time>
      </trkpt>
      <trkpt lat="59.3624837902" lon="18.07098463">
        <ele>123.6</ele>
        <time>2012-10-25T18:34:41Z</time>
      </trkpt>
      <trkpt lat="59.3624882326" lon="18.0707549659">
        <ele>123.6</ele>
        <time>2012-10-25T18:34:43Z</time>
      </trkpt>
      <trkpt lat="59.3625185751" lon="18.0703894313">
        <ele>123.6</ele>
        <time>2012-10-25T18:34:46Z</time>
      </trkpt>
      <trkpt lat="59.3625772484" lon="18.0700187837">
        <ele>123.6</ele>
        <time>2012-10-25T18:34:49Z</time>
      </trkpt>
      <trkpt lat="59.3625924197" lon="18.0697654826">
        <ele>123.6</ele>
        <time>2012-10-25T18:34:51Z</time>
      </trkpt>
      <trkpt lat="59.3625914976" lon="18.0695043026">
        <ele>123.6</ele>
        <time>2012-10-25T18:34:53Z</time>
      </trkpt>
      <trkpt lat="59.362559395" lon="18.0686984668">
        <ele>123.6</ele>
        <time>2012-10-25T18:34:59Z</time>
      </trkpt>
      <trkpt lat="59.3625451457" lon="18.068568715">
        <ele>123.6</ele>
        <time>2012-10-25T18:35:00Z</time>
      </trkpt>
      <trkpt lat="59.3624129632" lon="18.0678203789">
        <ele>123.6</ele>
        <time>2012-10-25T18:35:06Z</time>
      </trkpt>
      <trkpt lat="59.3621838859" lon="18.0669995395">
        <ele>123.6</ele>
        <time>2012-10-25T18:35:13Z</time>
      </trkpt>
      <trkpt lat="59.3619039304" lon="18.0660887622">
        <ele>123.6</ele>
        <time>2012-10-25T18:35:21Z</time>
      </trkpt>
      <trkpt lat="59.3618693131" lon="18.0659711641">
        <ele>123.6</ele>
        <time>2012-10-25T18:35:22Z</time>
      </trkpt>
      <trkpt lat="59.3616045289" lon="18.0650407732">
        <ele>123.6</ele>
        <time>2012-10-25T18:35:30Z</time>
      </trkpt>
      <trkpt lat="59.3614901998" lon="18.0642844744">
        <ele>123.6</ele>
        <time>2012-10-25T18:35:36Z</time>
      </trkpt>
      <trkpt lat="59.3614410819" lon="18.0637554089">
        <ele>123.6</ele>
        <time>2012-10-25T18:35:40Z</time>
      </trkpt>
      <trkpt lat="59.3614542415" lon="18.0634868528">
        <ele>123.6</ele>
        <time>2012-10-25T18:35:42Z</time>
      </trkpt>
      <trkpt lat="59.361511406" lon="18.0626668515">
        <ele>123.6</ele>
        <time>2012-10-25T18:35:48Z</time>
      </trkpt>
      <trkpt lat="59.3615321093" lon="18.062275333">
        <ele>123.2</ele>
        <time>2012-10-25T18:35:51Z</time>
      </trkpt>
      <trkpt lat="59.361535965" lon="18.0621491854">
        <ele>122.8</ele>
        <time>2012-10-25T18:35:52Z</time>
      </trkpt>
      <trkpt lat="59.3615365517" lon="18.0620203556">
        <ele>122.2</ele>
        <time>2012-10-25T18:35:53Z</time>
      </trkpt>
      <trkpt lat="59.3615430058" lon="18.0618916096">
        <ele>121.8</ele>
        <time>2012-10-25T18:35:54Z</time>
      </trkpt>
      <trkpt lat="59.3615446822" lon="18.0617533082">
        <ele>121.4</ele>
        <time>2012-10-25T18:35:55Z</time>
      </trkpt>
      <trkpt lat="59.3615505495" lon="18.0616239755">
        <ele>121.4</ele>
        <time>2012-10-25T18:35:56Z</time>
      </trkpt>
      <trkpt lat="59.361570247" lon="18.0611221512">
        <ele>121.4</ele>
        <time>2012-10-25T18:36:00Z</time>
      </trkpt>
      <trkpt lat="59.3615721748" lon="18.0608685149">
        <ele>121.4</ele>
        <time>2012-10-25T18:36:02Z</time>
      </trkpt>
      <trkpt lat="59.3615949736" lon="18.0604152217">
        <ele>121.4</ele>
        <time>2012-10-25T18:36:06Z</time>
      </trkpt>
      <trkpt lat="59.3616037746" lon="18.0602402915">
        <ele>121.4</ele>
        <time>2012-10-25T18:36:08Z</time>
      </trkpt>
      <trkpt lat="59.3616131623" lon="18.0599337654">
        <ele>121.4</ele>
        <time>2012-10-25T18:36:11Z</time>
      </trkpt>
      <trkpt lat="59.3616321054" lon="18.0597518782">
        <ele>121.4</ele>
        <time>2012-10-25T18:36:13Z</time>
      </trkpt>
      <trkpt lat="59.3617303412" lon="18.0596096373">
        <ele>121.4</ele>
        <time>2012-10-25T18:36:16Z</time>
      </trkpt>
      <trkpt lat="59.3617880925" lon="18.059272182">
        <ele>121.4</ele>
        <time>2012-10-25T18:36:19Z</time>
      </trkpt>
      <trkpt lat="59.3618010007" lon="18.0590402549">
        <ele>121.4</ele>
        <time>2012-10-25T18:36:21Z</time>
      </trkpt>
      <trkpt lat="59.3618085444" lon="18.0588406818">
        <ele>121.4</ele>
        <time>2012-10-25T18:36:23Z</time>
      </trkpt>
      <trkpt lat="59.3618174292" lon="18.0587649094">
        <ele>121.4</ele>
        <time>2012-10-25T18:36:24Z</time>
      </trkpt>
      <trkpt lat="59.3618460953" lon="18.0586633208">
        <ele>121.4</ele>
        <time>2012-10-25T18:36:26Z</time>
      </trkpt>
      <trkpt lat="59.361932345" lon="18.0583519332">
        <ele>121.4</ele>
        <time>2012-10-25T18:36:30Z</time>
      </trkpt>
      <trkpt lat="59.3620463389" lon="18.0580977102">
        <ele>121.4</ele>
        <time>2012-10-25T18:36:33Z</time>
      </trkpt>
      <trkpt lat="59.3621008212" lon="18.057898221">
        <ele>121.4</ele>
        <time>2012-10-25T18:36:35Z</time>
      </trkpt>
      <trkpt lat="59.3621682955" lon="18.0577510348">
        <ele>121.4</ele>
        <time>2012-10-25T18:36:37Z</time>
      </trkpt>
      <trkpt lat="59.3623094467" lon="18.0576762683">
        <ele>121.4</ele>
        <time>2012-10-25T18:36:40Z</time>
      </trkpt>
      <trkpt lat="59.3623503504" lon="18.0576049383">
        <ele>121.4</ele>
        <time>2012-10-25T18:36:41Z</time>
      </trkpt>
      <trkpt lat="59.3624236082" lon="18.0574637033">
        <ele>121.4</ele>
        <time>2012-10-25T18:36:43Z</time>
      </trkpt>
      <trkpt lat="59.3624650148" lon="18.0573974863">
        <ele>121.8</ele>
        <time>2012-10-25T18:36:44Z</time>
      </trkpt>
      <trkpt lat="59.3625033201" lon="18.0573413275">
        <ele>122.2</ele>
        <time>2012-10-25T18:36:45Z</time>
      </trkpt>
      <trkpt lat="59.3625475765" lon="18.0572844983">
        <ele>122.8</ele>
        <time>2012-10-25T18:36:46Z</time>
      </trkpt>
      <trkpt lat="59.3625925873" lon="18.0572370567">
        <ele>123.2</ele>
        <time>2012-10-25T18:36:47Z</time>
      </trkpt>
      <trkpt lat="59.3626468182" lon="18.057204032">
        <ele>123.6</ele>
        <time>2012-10-25T18:36:48Z</time>
      </trkpt>
      <trkpt lat="59.3627002947" lon="18.057174863">
        <ele>124</ele>
        <time>2012-10-25T18:36:49Z</time>
      </trkpt>
      <trkpt lat="59.3627530169" lon="18.0571656429">
        <ele>124.4</ele>
        <time>2012-10-25T18:36:50Z</time>
      </trkpt>
      <trkpt lat="59.3627967704" lon="18.0571824067">
        <ele>124.8</ele>
        <time>2012-10-25T18:36:51Z</time>
      </trkpt>
      <trkpt lat="59.3628357462" lon="18.0572046188">
        <ele>125.2</ele>
        <time>2012-10-25T18:36:52Z</time>
      </trkpt>
      <trkpt lat="59.3628759793" lon="18.0572398227">
        <ele>125.6</ele>
        <time>2012-10-25T18:36:53Z</time>
      </trkpt>
      <trkpt lat="59.3629545177" lon="18.057345267">
        <ele>126.2</ele>
        <time>2012-10-25T18:36:55Z</time>
      </trkpt>
      <trkpt lat="59.3629943318" lon="18.0573998332">
        <ele>126.6</ele>
        <time>2012-10-25T18:36:56Z</time>
      </trkpt>
      <trkpt lat="59.3630204833" lon="18.0574504599">
        <ele>127</ele>
        <time>2012-10-25T18:36:57Z</time>
      </trkpt>
      <trkpt lat="59.3630323018" lon="18.0575169284">
        <ele>127.4</ele>
        <time>2012-10-25T18:36:58Z</time>
      </trkpt>
      <trkpt lat="59.3630225788" lon="18.057625474">
        <ele>127.8</ele>
        <time>2012-10-25T18:36:59Z</time>
      </trkpt>
      <trkpt lat="59.3629569485" lon="18.0579325868">
        <ele>127.8</ele>
        <time>2012-10-25T18:37:02Z</time>
      </trkpt>
      <trkpt lat="59.3629305455" lon="18.0580282243">
        <ele>127.8</ele>
        <time>2012-10-25T18:37:03Z</time>
      </trkpt>
      <trkpt lat="59.3628237601" lon="18.0582452316">
        <ele>127.8</ele>
        <time>2012-10-25T18:37:06Z</time>
      </trkpt>
      <trkpt lat="59.3627819344" lon="18.0582712155">
        <ele>127.8</ele>
        <time>2012-10-25T18:37:07Z</time>
      </trkpt>
      <trkpt lat="59.362618655" lon="18.0581162342">
        <ele>127.8</ele>
        <time>2012-10-25T18:37:10Z</time>
      </trkpt>
      <trkpt lat="59.3625133783" lon="18.0579189243">
        <ele>127.4</ele>
        <time>2012-10-25T18:37:12Z</time>
      </trkpt>
      <trkpt lat="59.3624629193" lon="18.0578348538">
        <ele>127</ele>
        <time>2012-10-25T18:37:13Z</time>
      </trkpt>
      <trkpt lat="59.362427883" lon="18.0577603387">
        <ele>126.6</ele>
        <time>2012-10-25T18:37:14Z</time>
      </trkpt>
      <trkpt lat="59.3624041622" lon="18.0576828062">
        <ele>126</ele>
        <time>2012-10-25T18:37:15Z</time>
      </trkpt>
      <trkpt lat="59.3623796032" lon="18.0576223727">
        <ele>125.6</ele>
        <time>2012-10-25T18:37:16Z</time>
      </trkpt>
      <trkpt lat="59.3623383643" lon="18.0576117276">
        <ele>125</ele>
        <time>2012-10-25T18:37:17Z</time>
      </trkpt>
      <trkpt lat="59.3623011486" lon="18.0576577443">
        <ele>124.6</ele>
        <time>2012-10-25T18:37:18Z</time>
      </trkpt>
      <trkpt lat="59.362259323" lon="18.0577082871">
        <ele>124</ele>
        <time>2012-10-25T18:37:19Z</time>
      </trkpt>
      <trkpt lat="59.3622089477" lon="18.0577273979">
        <ele>123.4</ele>
        <time>2012-10-25T18:37:20Z</time>
      </trkpt>
      <trkpt lat="59.3621567285" lon="18.0576854884">
        <ele>123.4</ele>
        <time>2012-10-25T18:37:21Z</time>
      </trkpt>
      <trkpt lat="59.3621200158" lon="18.0573956423">
        <ele>123.4</ele>
        <time>2012-10-25T18:37:24Z</time>
      </trkpt>
      <trkpt lat="59.3622102888" lon="18.05702994">
        <ele>123.4</ele>
        <time>2012-10-25T18:37:27Z</time>
      </trkpt>
      <trkpt lat="59.362315314" lon="18.0566936581">
        <ele>123.4</ele>
        <time>2012-10-25T18:37:30Z</time>
      </trkpt>
      <trkpt lat="59.3624376898" lon="18.0563646686">
        <ele>123.4</ele>
        <time>2012-10-25T18:37:33Z</time>
      </trkpt>
      <trkpt lat="59.3624889032" lon="18.0562727191">
        <ele>123.4</ele>
        <time>2012-10-25T18:37:34Z</time>
      </trkpt>
      <trkpt lat="59.3626489137" lon="18.0560231061">
        <ele>123.4</ele>
        <time>2012-10-25T18:37:37Z</time>
      </trkpt>
      <trkpt lat="59.3627008814" lon="18.0559426399">
        <ele>123.4</ele>
        <time>2012-10-25T18:37:38Z</time>
      </trkpt>
      <trkpt lat="59.3629202358" lon="18.0556701443">
        <ele>123.8</ele>
        <time>2012-10-25T18:37:42Z</time>
      </trkpt>
      <trkpt lat="59.3629712815" lon="18.0556058552">
        <ele>124.2</ele>
        <time>2012-10-25T18:37:43Z</time>
      </trkpt>
      <trkpt lat="59.3630214891" lon="18.0555420689">
        <ele>124.6</ele>
        <time>2012-10-25T18:37:44Z</time>
      </trkpt>
      <trkpt lat="59.3630696012" lon="18.0554835632">
        <ele>125.2</ele>
        <time>2012-10-25T18:37:45Z</time>
      </trkpt>
      <trkpt lat="59.3631147797" lon="18.0554248061">
        <ele>125.6</ele>
        <time>2012-10-25T18:37:46Z</time>
      </trkpt>
      <trkpt lat="59.3632945714" lon="18.0552046136">
        <ele>125.6</ele>
        <time>2012-10-25T18:37:50Z</time>
      </trkpt>
      <trkpt lat="59.3636230581" lon="18.0548810723">
        <ele>125.6</ele>
        <time>2012-10-25T18:37:57Z</time>
      </trkpt>
      <trkpt lat="59.3636653029" lon="18.0548400009">
        <ele>126</ele>
        <time>2012-10-25T18:37:58Z</time>
      </trkpt>
      <trkpt lat="59.3637096431" lon="18.0548021986">
        <ele>126.4</ele>
        <time>2012-10-25T18:37:59Z</time>
      </trkpt>
      <trkpt lat="59.3637539834" lon="18.05477655">
        <ele>126.8</ele>
        <time>2012-10-25T18:38:00Z</time>
      </trkpt>
      <trkpt lat="59.3638051968" lon="18.0547406754">
        <ele>127.2</ele>
        <time>2012-10-25T18:38:01Z</time>
      </trkpt>
      <trkpt lat="59.3638456813" lon="18.0546996879">
        <ele>127.6</ele>
        <time>2012-10-25T18:38:02Z</time>
      </trkpt>
      <trkpt lat="59.3638901892" lon="18.0546585328">
        <ele>127.6</ele>
        <time>2012-10-25T18:38:03Z</time>
      </trkpt>
      <trkpt lat="59.3641768502" lon="18.0544626478">
        <ele>128</ele>
        <time>2012-10-25T18:38:09Z</time>
      </trkpt>
      <trkpt lat="59.3642235374" lon="18.0544317186">
        <ele>128.4</ele>
        <time>2012-10-25T18:38:10Z</time>
      </trkpt>
      <trkpt lat="59.3642789418" lon="18.054397269">
        <ele>129</ele>
        <time>2012-10-25T18:38:11Z</time>
      </trkpt>
      <trkpt lat="59.3643307419" lon="18.0543601372">
        <ele>129.4</ele>
        <time>2012-10-25T18:38:12Z</time>
      </trkpt>
      <trkpt lat="59.3643799437" lon="18.0543303814">
        <ele>129.8</ele>
        <time>2012-10-25T18:38:13Z</time>
      </trkpt>
      <trkpt lat="59.3644671154" lon="18.0542717919">
        <ele>130.2</ele>
        <time>2012-10-25T18:38:15Z</time>
      </trkpt>
      <trkpt lat="59.3645148922" lon="18.0542476521">
        <ele>131.2</ele>
        <time>2012-10-25T18:38:16Z</time>
      </trkpt>
      <trkpt lat="59.3645626691" lon="18.0542187345">
        <ele>131.6</ele>
        <time>2012-10-25T18:38:17Z</time>
      </trkpt>
      <trkpt lat="59.3646122899" lon="18.0541969416">
        <ele>132</ele>
        <time>2012-10-25T18:38:18Z</time>
      </trkpt>
      <trkpt lat="59.364810941" lon="18.0541042378">
        <ele>132</ele>
        <time>2012-10-25T18:38:22Z</time>
      </trkpt>
      <trkpt lat="59.3652485599" lon="18.0539495079">
        <ele>132</ele>
        <time>2012-10-25T18:38:30Z</time>
      </trkpt>
      <trkpt lat="59.3656472869" lon="18.0538156489">
        <ele>132</ele>
        <time>2012-10-25T18:38:37Z</time>
      </trkpt>
      <trkpt lat="59.3660253106" lon="18.0536536268">
        <ele>132</ele>
        <time>2012-10-25T18:38:43Z</time>
      </trkpt>
      <trkpt lat="59.366416913" lon="18.0534698118">
        <ele>132</ele>
        <time>2012-10-25T18:38:49Z</time>
      </trkpt>
      <trkpt lat="59.3668577171" lon="18.0533080411">
        <ele>132</ele>
        <time>2012-10-25T18:38:55Z</time>
      </trkpt>
      <trkpt lat="59.3670242655" lon="18.0532752679">
        <ele>131.6</ele>
        <time>2012-10-25T18:38:57Z</time>
      </trkpt>
      <trkpt lat="59.3671082521" lon="18.0532675565">
        <ele>131.2</ele>
        <time>2012-10-25T18:38:58Z</time>
      </trkpt>
      <trkpt lat="59.3671930769" lon="18.0532371302">
        <ele>130.8</ele>
        <time>2012-10-25T18:38:59Z</time>
      </trkpt>
      <trkpt lat="59.3672774827" lon="18.0532007528">
        <ele>130.4</ele>
        <time>2012-10-25T18:39:00Z</time>
      </trkpt>
      <trkpt lat="59.3673568593" lon="18.0531505452">
        <ele>129.8</ele>
        <time>2012-10-25T18:39:01Z</time>
      </trkpt>
      <trkpt lat="59.3677187059" lon="18.0528648062">
        <ele>129.8</ele>
        <time>2012-10-25T18:39:06Z</time>
      </trkpt>
      <trkpt lat="59.3680457676" lon="18.0526464577">
        <ele>129.8</ele>
        <time>2012-10-25T18:39:11Z</time>
      </trkpt>
      <trkpt lat="59.3683071991" lon="18.0524927337">
        <ele>129.4</ele>
        <time>2012-10-25T18:39:15Z</time>
      </trkpt>
      <trkpt lat="59.3683703148" lon="18.0524520815">
        <ele>129</ele>
        <time>2012-10-25T18:39:16Z</time>
      </trkpt>
      <trkpt lat="59.3684337658" lon="18.0524145305">
        <ele>128.6</ele>
        <time>2012-10-25T18:39:17Z</time>
      </trkpt>
      <trkpt lat="59.3685001504" lon="18.0523781531">
        <ele>128.2</ele>
        <time>2012-10-25T18:39:18Z</time>
      </trkpt>
      <trkpt lat="59.368568882" lon="18.0523415242">
        <ele>127.8</ele>
        <time>2012-10-25T18:39:19Z</time>
      </trkpt>
      <trkpt lat="59.3690194929" lon="18.0521001255">
        <ele>127.8</ele>
        <time>2012-10-25T18:39:26Z</time>
      </trkpt>
      <trkpt lat="59.3693354068" lon="18.0519396959">
        <ele>127.8</ele>
        <time>2012-10-25T18:39:31Z</time>
      </trkpt>
      <trkpt lat="59.3694592912" lon="18.0519436354">
        <ele>127.8</ele>
        <time>2012-10-25T18:39:33Z</time>
      </trkpt>
      <trkpt lat="59.3695977602" lon="18.0519783365">
        <ele>127.2</ele>
        <time>2012-10-25T18:39:35Z</time>
      </trkpt>
      <trkpt lat="59.3696643963" lon="18.0520093495">
        <ele>126.8</ele>
        <time>2012-10-25T18:39:36Z</time>
      </trkpt>
      <trkpt lat="59.3697334632" lon="18.0520489121">
        <ele>126.4</ele>
        <time>2012-10-25T18:39:37Z</time>
      </trkpt>
      <trkpt lat="59.3697907116" lon="18.0521267799">
        <ele>126</ele>
        <time>2012-10-25T18:39:38Z</time>
      </trkpt>
      <trkpt lat="59.3698374826" lon="18.0522357446">
        <ele>125.4</ele>
        <time>2012-10-25T18:39:39Z</time>
      </trkpt>
      <trkpt lat="59.3698823257" lon="18.0523456313">
        <ele>124.8</ele>
        <time>2012-10-25T18:39:40Z</time>
      </trkpt>
      <trkpt lat="59.3699283424" lon="18.0524543446">
        <ele>124.2</ele>
        <time>2012-10-25T18:39:41Z</time>
      </trkpt>
      <trkpt lat="59.3699757001" lon="18.0525920592">
        <ele>123.6</ele>
        <time>2012-10-25T18:39:42Z</time>
      </trkpt>
      <trkpt lat="59.3700368041" lon="18.0526795662">
        <ele>123</ele>
        <time>2012-10-25T18:39:43Z</time>
      </trkpt>
      <trkpt lat="59.3701734291" lon="18.0527700069">
        <ele>123</ele>
        <time>2012-10-25T18:39:45Z</time>
      </trkpt>
      <trkpt lat="59.3703242195" lon="18.0528830788">
        <ele>122.6</ele>
        <time>2012-10-25T18:39:48Z</time>
      </trkpt>
      <trkpt lat="59.3703383011" lon="18.0529099008">
        <ele>122</ele>
        <time>2012-10-25T18:39:49Z</time>
      </trkpt>
      <trkpt lat="59.3703525503" lon="18.052921887">
        <ele>121.6</ele>
        <time>2012-10-25T18:39:50Z</time>
      </trkpt>
      <trkpt lat="59.3703626924" lon="18.0529140918">
        <ele>121</ele>
        <time>2012-10-25T18:39:51Z</time>
      </trkpt>
      <trkpt lat="59.3703736727" lon="18.0529278381">
        <ele>120.6</ele>
        <time>2012-10-25T18:39:52Z</time>
      </trkpt>
      <trkpt lat="59.3703857426" lon="18.0529256588">
        <ele>120.6</ele>
        <time>2012-10-25T18:39:53Z</time>
      </trkpt>
      <trkpt lat="59.3704774406" lon="18.0528326197">
        <ele>120.6</ele>
        <time>2012-10-25T18:39:56Z</time>
      </trkpt>
      <trkpt lat="59.3705593318" lon="18.052522238">
        <ele>120.6</ele>
        <time>2012-10-25T18:39:59Z</time>
      </trkpt>
      <trkpt lat="59.3705929432" lon="18.0522730441">
        <ele>120.6</ele>
        <time>2012-10-25T18:40:01Z</time>
      </trkpt>
      <trkpt lat="59.3706410553" lon="18.0519019774">
        <ele>120.6</ele>
        <time>2012-10-25T18:40:04Z</time>
      </trkpt>
      <trkpt lat="59.3707151513" lon="18.0513128974">
        <ele>120.6</ele>
        <time>2012-10-25T18:40:09Z</time>
      </trkpt>
      <trkpt lat="59.3707504391" lon="18.0512508714">
        <ele>120.6</ele>
        <time>2012-10-25T18:40:10Z</time>
      </trkpt>
      <trkpt lat="59.3707895826" lon="18.0511853249">
        <ele>120.2</ele>
        <time>2012-10-25T18:40:11Z</time>
      </trkpt>
      <trkpt lat="59.3708340905" lon="18.0511341115">
        <ele>119.6</ele>
        <time>2012-10-25T18:40:12Z</time>
      </trkpt>
      <trkpt lat="59.3708813644" lon="18.0510893522">
        <ele>119.2</ele>
        <time>2012-10-25T18:40:13Z</time>
      </trkpt>
      <trkpt lat="59.3709262914" lon="18.0510554055">
        <ele>118.8</ele>
        <time>2012-10-25T18:40:14Z</time>
      </trkpt>
      <trkpt lat="59.3709743197" lon="18.0510461015">
        <ele>118.4</ele>
        <time>2012-10-25T18:40:15Z</time>
      </trkpt>
      <trkpt lat="59.3710712144" lon="18.0510552378">
        <ele>118.4</ele>
        <time>2012-10-25T18:40:17Z</time>
      </trkpt>
      <trkpt lat="59.3711164767" lon="18.0510103108">
        <ele>118.4</ele>
        <time>2012-10-25T18:40:18Z</time>
      </trkpt>
      <trkpt lat="59.3712836118" lon="18.0509566667">
        <ele>118.4</ele>
        <time>2012-10-25T18:40:22Z</time>
      </trkpt>
      <trkpt lat="59.3714663372" lon="18.0509768671">
        <ele>118.4</ele>
        <time>2012-10-25T18:40:27Z</time>
      </trkpt>
      <trkpt lat="59.3717199735" lon="18.0509026872">
        <ele>118.4</ele>
        <time>2012-10-25T18:40:31Z</time>
      </trkpt>
      <trkpt lat="59.3719505596" lon="18.0508343748">
        <ele>118.8</ele>
        <time>2012-10-25T18:40:34Z</time>
      </trkpt>
      <trkpt lat="59.3720271701" lon="18.0508031941">
        <ele>119.2</ele>
        <time>2012-10-25T18:40:35Z</time>
      </trkpt>
      <trkpt lat="59.3720986677" lon="18.0507647212">
        <ele>119.8</ele>
        <time>2012-10-25T18:40:36Z</time>
      </trkpt>
      <trkpt lat="59.3721700815" lon="18.0507371447">
        <ele>120.2</ele>
        <time>2012-10-25T18:40:37Z</time>
      </trkpt>
      <trkpt lat="59.3722393998" lon="18.050707389">
        <ele>120.6</ele>
        <time>2012-10-25T18:40:38Z</time>
      </trkpt>
      <trkpt lat="59.3724460137" lon="18.0506358914">
        <ele>120.6</ele>
        <time>2012-10-25T18:40:41Z</time>
      </trkpt>
      <trkpt lat="59.3728097043" lon="18.0504965004">
        <ele>120.6</ele>
        <time>2012-10-25T18:40:46Z</time>
      </trkpt>
      <trkpt lat="59.3728791064" lon="18.050433217">
        <ele>120.6</ele>
        <time>2012-10-25T18:40:47Z</time>
      </trkpt>
      <trkpt lat="59.3731211757" lon="18.0501588774">
        <ele>120.6</ele>
        <time>2012-10-25T18:40:51Z</time>
      </trkpt>
      <trkpt lat="59.373168282" lon="18.0500630723">
        <ele>120.6</ele>
        <time>2012-10-25T18:40:52Z</time>
      </trkpt>
      <trkpt lat="59.3732733072" lon="18.0498997929">
        <ele>120.6</ele>
        <time>2012-10-25T18:40:54Z</time>
      </trkpt>
      <trkpt lat="59.3733187371" lon="18.0498189914">
        <ele>121</ele>
        <time>2012-10-25T18:40:55Z</time>
      </trkpt>
      <trkpt lat="59.3733627421" lon="18.049751098">
        <ele>121.4</ele>
        <time>2012-10-25T18:40:56Z</time>
      </trkpt>
      <trkpt lat="59.3734086749" lon="18.0496798519">
        <ele>121.8</ele>
        <time>2012-10-25T18:40:57Z</time>
      </trkpt>
      <trkpt lat="59.3734639116" lon="18.0496060911">
        <ele>122.2</ele>
        <time>2012-10-25T18:40:58Z</time>
      </trkpt>
      <trkpt lat="59.3735170528" lon="18.0495408799">
        <ele>122.8</ele>
        <time>2012-10-25T18:40:59Z</time>
      </trkpt>
      <trkpt lat="59.3735696074" lon="18.0494739086">
        <ele>123.2</ele>
        <time>2012-10-25T18:41:00Z</time>
      </trkpt>
      <trkpt lat="59.3736219942" lon="18.0494065181">
        <ele>123.8</ele>
        <time>2012-10-25T18:41:01Z</time>
      </trkpt>
      <trkpt lat="59.3736722856" lon="18.0493438215">
        <ele>124.2</ele>
        <time>2012-10-25T18:41:02Z</time>
      </trkpt>
      <trkpt lat="59.3737264327" lon="18.0492811249">
        <ele>124.8</ele>
        <time>2012-10-25T18:41:03Z</time>
      </trkpt>
      <trkpt lat="59.3740599485" lon="18.0487984112">
        <ele>124.8</ele>
        <time>2012-10-25T18:41:09Z</time>
      </trkpt>
      <trkpt lat="59.3743998346" lon="18.0483393346">
        <ele>124.8</ele>
        <time>2012-10-25T18:41:15Z</time>
      </trkpt>
      <trkpt lat="59.3747660398" lon="18.0478758993">
        <ele>124.8</ele>
        <time>2012-10-25T18:41:21Z</time>
      </trkpt>
      <trkpt lat="59.3751599891" lon="18.0474521943">
        <ele>124.8</ele>
        <time>2012-10-25T18:41:27Z</time>
      </trkpt>
      <trkpt lat="59.3755699478" lon="18.0471070276">
        <ele>124.8</ele>
        <time>2012-10-25T18:41:33Z</time>
      </trkpt>
      <trkpt lat="59.3759475524" lon="18.0468069556">
        <ele>124.8</ele>
        <time>2012-10-25T18:41:39Z</time>
      </trkpt>
      <trkpt lat="59.376006561" lon="18.0467423312">
        <ele>124.8</ele>
        <time>2012-10-25T18:41:40Z</time>
      </trkpt>
      <trkpt lat="59.3760778071" lon="18.0467088036">
        <ele>124.8</ele>
        <time>2012-10-25T18:41:41Z</time>
      </trkpt>
      <trkpt lat="59.3762656455" lon="18.0465844162">
        <ele>124.8</ele>
        <time>2012-10-25T18:41:44Z</time>
      </trkpt>
      <trkpt lat="59.3765172701" lon="18.0464221426">
        <ele>124.8</ele>
        <time>2012-10-25T18:41:49Z</time>
      </trkpt>
      <trkpt lat="59.3765476964" lon="18.0463947338">
        <ele>124.4</ele>
        <time>2012-10-25T18:41:50Z</time>
      </trkpt>
      <trkpt lat="59.3765800506" lon="18.0463629664">
        <ele>123.8</ele>
        <time>2012-10-25T18:41:51Z</time>
      </trkpt>
      <trkpt lat="59.3765884325" lon="18.0463183747">
        <ele>123.4</ele>
        <time>2012-10-25T18:41:52Z</time>
      </trkpt>
      <trkpt lat="59.3765795476" lon="18.0462814943">
        <ele>123</ele>
        <time>2012-10-25T18:41:53Z</time>
      </trkpt>
      <trkpt lat="59.3765647955" lon="18.0462674127">
        <ele>122.6</ele>
        <time>2012-10-25T18:41:54Z</time>
      </trkpt>
      <trkpt lat="59.3765759434" lon="18.0461913889">
        <ele>122.6</ele>
        <time>2012-10-25T18:41:56Z</time>
      </trkpt>
      <trkpt lat="59.3766007539" lon="18.0460046402">
        <ele>122.6</ele>
        <time>2012-10-25T18:42:00Z</time>
      </trkpt>
      <trkpt lat="59.3765957247" lon="18.0458447973">
        <ele>122.2</ele>
        <time>2012-10-25T18:42:02Z</time>
      </trkpt>
      <trkpt lat="59.3765927072" lon="18.0457667618">
        <ele>121.8</ele>
        <time>2012-10-25T18:42:03Z</time>
      </trkpt>
      <trkpt lat="59.3766065374" lon="18.0456180669">
        <ele>121.4</ele>
        <time>2012-10-25T18:42:04Z</time>
      </trkpt>
      <trkpt lat="59.3766119856" lon="18.0455357567">
        <ele>121</ele>
        <time>2012-10-25T18:42:05Z</time>
      </trkpt>
      <trkpt lat="59.3766227144" lon="18.0454086871">
        <ele>120.6</ele>
        <time>2012-10-25T18:42:06Z</time>
      </trkpt>
      <trkpt lat="59.3766854949" lon="18.045061844">
        <ele>120.6</ele>
        <time>2012-10-25T18:42:08Z</time>
      </trkpt>
      <trkpt lat="59.3767813" lon="18.0445836567">
        <ele>120.6</ele>
        <time>2012-10-25T18:42:13Z</time>
      </trkpt>
      <trkpt lat="59.3768556474" lon="18.04427185">
        <ele>120.6</ele>
        <time>2012-10-25T18:42:16Z</time>
      </trkpt>
      <trkpt lat="59.3768865766" lon="18.0440249192">
        <ele>120.6</ele>
        <time>2012-10-25T18:42:18Z</time>
      </trkpt>
      <trkpt lat="59.3769265583" lon="18.0436424531">
        <ele>120.6</ele>
        <time>2012-10-25T18:42:21Z</time>
      </trkpt>
      <trkpt lat="59.3769699765" lon="18.0434028146">
        <ele>121</ele>
        <time>2012-10-25T18:42:23Z</time>
      </trkpt>
      <trkpt lat="59.3769812083" lon="18.0432932631">
        <ele>122</ele>
        <time>2012-10-25T18:42:24Z</time>
      </trkpt>
      <trkpt lat="59.376993362" lon="18.0431778444">
        <ele>122.4</ele>
        <time>2012-10-25T18:42:25Z</time>
      </trkpt>
      <trkpt lat="59.3770011572" lon="18.0430655269">
        <ele>122.8</ele>
        <time>2012-10-25T18:42:26Z</time>
      </trkpt>
      <trkpt lat="59.3770289013" lon="18.042829325">
        <ele>123.2</ele>
        <time>2012-10-25T18:42:28Z</time>
      </trkpt>
      <trkpt lat="59.3770362774" lon="18.0427060272">
        <ele>123.6</ele>
        <time>2012-10-25T18:42:29Z</time>
      </trkpt>
      <trkpt lat="59.3770501913" lon="18.0425779518">
        <ele>124</ele>
        <time>2012-10-25T18:42:30Z</time>
      </trkpt>
      <trkpt lat="59.3770677095" lon="18.0424602699">
        <ele>124.4</ele>
        <time>2012-10-25T18:42:31Z</time>
      </trkpt>
      <trkpt lat="59.3770819587" lon="18.0423368045">
        <ele>125</ele>
        <time>2012-10-25T18:42:32Z</time>
      </trkpt>
      <trkpt lat="59.3771496007" lon="18.0419891233">
        <ele>125</ele>
        <time>2012-10-25T18:42:35Z</time>
      </trkpt>
      <trkpt lat="59.3772259598" lon="18.0417886283">
        <ele>125</ele>
        <time>2012-10-25T18:42:37Z</time>
      </trkpt>
      <trkpt lat="59.3775289655" lon="18.0413512607">
        <ele>125</ele>
        <time>2012-10-25T18:42:43Z</time>
      </trkpt>
      <trkpt lat="59.3778206556" lon="18.0411272964">
        <ele>125.4</ele>
        <time>2012-10-25T18:42:48Z</time>
      </trkpt>
      <trkpt lat="59.3778811729" lon="18.0410873147">
        <ele>126.2</ele>
        <time>2012-10-25T18:42:49Z</time>
      </trkpt>
      <trkpt lat="59.3779378345" lon="18.0410210139">
        <ele>126.6</ele>
        <time>2012-10-25T18:42:50Z</time>
      </trkpt>
      <trkpt lat="59.3779960887" lon="18.0409718121">
        <ele>127</ele>
        <time>2012-10-25T18:42:51Z</time>
      </trkpt>
      <trkpt lat="59.3782943167" lon="18.0407331794">
        <ele>127</ele>
        <time>2012-10-25T18:42:56Z</time>
      </trkpt>
      <trkpt lat="59.3783982523" lon="18.0405851551">
        <ele>127</ele>
        <time>2012-10-25T18:42:58Z</time>
      </trkpt>
      <trkpt lat="59.3786953068" lon="18.0399883638">
        <ele>127</ele>
        <time>2012-10-25T18:43:05Z</time>
      </trkpt>
      <trkpt lat="59.3786929599" lon="18.0397567719">
        <ele>127</ele>
        <time>2012-10-25T18:43:07Z</time>
      </trkpt>
      <trkpt lat="59.3785826541" lon="18.0395214081">
        <ele>127</ele>
        <time>2012-10-25T18:43:10Z</time>
      </trkpt>
      <trkpt lat="59.3783917982" lon="18.0390902432">
        <ele>127</ele>
        <time>2012-10-25T18:43:14Z</time>
      </trkpt>
      <trkpt lat="59.3783001841" lon="18.0388915922">
        <ele>126.6</ele>
        <time>2012-10-25T18:43:16Z</time>
      </trkpt>
      <trkpt lat="59.3782522396" lon="18.0388056777">
        <ele>126.2</ele>
        <time>2012-10-25T18:43:17Z</time>
      </trkpt>
      <trkpt lat="59.3782008586" lon="18.0387136444">
        <ele>125.6</ele>
        <time>2012-10-25T18:43:18Z</time>
      </trkpt>
      <trkpt lat="59.3781574403" lon="18.0386289034">
        <ele>125.2</ele>
        <time>2012-10-25T18:43:19Z</time>
      </trkpt>
      <trkpt lat="59.378117291" lon="18.0385521252">
        <ele>124.8</ele>
        <time>2012-10-25T18:43:20Z</time>
      </trkpt>
      <trkpt lat="59.3780907204" lon="18.0384331861">
        <ele>124.2</ele>
        <time>2012-10-25T18:43:21Z</time>
      </trkpt>
      <trkpt lat="59.3780737051" lon="18.0383092178">
        <ele>123.6</ele>
        <time>2012-10-25T18:43:22Z</time>
      </trkpt>
      <trkpt lat="59.3780731184" lon="18.0381722575">
        <ele>123.2</ele>
        <time>2012-10-25T18:43:23Z</time>
      </trkpt>
      <trkpt lat="59.3780877029" lon="18.038033118">
        <ele>122.6</ele>
        <time>2012-10-25T18:43:24Z</time>
      </trkpt>
      <trkpt lat="59.378099689" lon="18.037898337">
        <ele>122.6</ele>
        <time>2012-10-25T18:43:25Z</time>
      </trkpt>
      <trkpt lat="59.378177976" lon="18.0371910723">
        <ele>122.6</ele>
        <time>2012-10-25T18:43:30Z</time>
      </trkpt>
      <trkpt lat="59.3782474619" lon="18.0364584104">
        <ele>122.6</ele>
        <time>2012-10-25T18:43:36Z</time>
      </trkpt>
      <trkpt lat="59.378248803" lon="18.0362414869">
        <ele>122.6</ele>
        <time>2012-10-25T18:43:38Z</time>
      </trkpt>
      <trkpt lat="59.3782287703" lon="18.0360674786">
        <ele>122.6</ele>
        <time>2012-10-25T18:43:40Z</time>
      </trkpt>
      <trkpt lat="59.3782194664" lon="18.0360362979">
        <ele>122.6</ele>
        <time>2012-10-25T18:43:41Z</time>
      </trkpt>
      <trkpt lat="59.3782169518" lon="18.0360032733">
        <ele>122.6</ele>
        <time>2012-10-25T18:43:43Z</time>
      </trkpt>
      <trkpt lat="59.3782218971" lon="18.0359047859">
        <ele>122.6</ele>
        <time>2012-10-25T18:43:46Z</time>
      </trkpt>
      <trkpt lat="59.378225669" lon="18.0358333721">
        <ele>122.6</ele>
        <time>2012-10-25T18:43:47Z</time>
      </trkpt>
      <trkpt lat="59.3782672432" lon="18.0354237487">
        <ele>122.6</ele>
        <time>2012-10-25T18:43:52Z</time>
      </trkpt>
      <trkpt lat="59.3782981724" lon="18.035358789">
        <ele>122.6</ele>
        <time>2012-10-25T18:43:53Z</time>
      </trkpt>
      <trkpt lat="59.3783866853" lon="18.0352518359">
        <ele>122.6</ele>
        <time>2012-10-25T18:43:55Z</time>
      </trkpt>
      <trkpt lat="59.3785015173" lon="18.0350053242">
        <ele>122.6</ele>
        <time>2012-10-25T18:43:58Z</time>
      </trkpt>
      <trkpt lat="59.3785747751" lon="18.0348131273">
        <ele>122.6</ele>
        <time>2012-10-25T18:44:00Z</time>
      </trkpt>
      <trkpt lat="59.3786773696" lon="18.0345736564">
        <ele>122.6</ele>
        <time>2012-10-25T18:44:03Z</time>
      </trkpt>
      <trkpt lat="59.3787051975" lon="18.0344847244">
        <ele>122.6</ele>
        <time>2012-10-25T18:44:04Z</time>
      </trkpt>
      <trkpt lat="59.378710059" lon="18.0342701478">
        <ele>122.6</ele>
        <time>2012-10-25T18:44:06Z</time>
      </trkpt>
      <trkpt lat="59.3786996654" lon="18.0341576627">
        <ele>123</ele>
        <time>2012-10-25T18:44:07Z</time>
      </trkpt>
      <trkpt lat="59.3786883499" lon="18.0340445909">
        <ele>123.4</ele>
        <time>2012-10-25T18:44:08Z</time>
      </trkpt>
      <trkpt lat="59.3786734301" lon="18.0339404038">
        <ele>123.8</ele>
        <time>2012-10-25T18:44:09Z</time>
      </trkpt>
      <trkpt lat="59.3786533135" lon="18.0338419165">
        <ele>124.2</ele>
        <time>2012-10-25T18:44:10Z</time>
      </trkpt>
      <trkpt lat="59.37863085" lon="18.0337461114">
        <ele>124.6</ele>
        <time>2012-10-25T18:44:11Z</time>
      </trkpt>
      <trkpt lat="59.3785958137" lon="18.0335462031">
        <ele>124.6</ele>
        <time>2012-10-25T18:44:13Z</time>
      </trkpt>
      <trkpt lat="59.3785948917" lon="18.0333166229">
        <ele>124.6</ele>
        <time>2012-10-25T18:44:15Z</time>
      </trkpt>
      <trkpt lat="59.3786280002" lon="18.0330957598">
        <ele>124.6</ele>
        <time>2012-10-25T18:44:17Z</time>
      </trkpt>
      <trkpt lat="59.3786798841" lon="18.0327625793">
        <ele>124.6</ele>
        <time>2012-10-25T18:44:20Z</time>
      </trkpt>
      <trkpt lat="59.3787385574" lon="18.0321880838">
        <ele>124.6</ele>
        <time>2012-10-25T18:44:25Z</time>
      </trkpt>
      <trkpt lat="59.3787490348" lon="18.0320874172">
        <ele>125.2</ele>
        <time>2012-10-25T18:44:26Z</time>
      </trkpt>
      <trkpt lat="59.3787592607" lon="18.0319881755">
        <ele>126</ele>
        <time>2012-10-25T18:44:27Z</time>
      </trkpt>
      <trkpt lat="59.3787704925" lon="18.0318865031">
        <ele>126.4</ele>
        <time>2012-10-25T18:44:28Z</time>
      </trkpt>
      <trkpt lat="59.3787834006" lon="18.0317905303">
        <ele>126.8</ele>
        <time>2012-10-25T18:44:29Z</time>
      </trkpt>
      <trkpt lat="59.3788261483" lon="18.0314056335">
        <ele>126.8</ele>
        <time>2012-10-25T18:44:33Z</time>
      </trkpt>
      <trkpt lat="59.3788312613" lon="18.0313067271">
        <ele>127.4</ele>
        <time>2012-10-25T18:44:34Z</time>
      </trkpt>
      <trkpt lat="59.378831848" lon="18.0312078206">
        <ele>127.8</ele>
        <time>2012-10-25T18:44:35Z</time>
      </trkpt>
      <trkpt lat="59.3788269865" lon="18.0311000294">
        <ele>128.2</ele>
        <time>2012-10-25T18:44:36Z</time>
      </trkpt>
      <trkpt lat="59.3788257292" lon="18.0309939984">
        <ele>128.6</ele>
        <time>2012-10-25T18:44:37Z</time>
      </trkpt>
      <trkpt lat="59.3788278247" lon="18.0308892246">
        <ele>129</ele>
        <time>2012-10-25T18:44:38Z</time>
      </trkpt>
      <trkpt lat="59.3788525513" lon="18.0302145655">
        <ele>129</ele>
        <time>2012-10-25T18:44:45Z</time>
      </trkpt>
      <trkpt lat="59.3788551497" lon="18.0301329258">
        <ele>129</ele>
        <time>2012-10-25T18:44:46Z</time>
      </trkpt>
      <trkpt lat="59.3788736737" lon="18.0300589974">
        <ele>129.4</ele>
        <time>2012-10-25T18:44:47Z</time>
      </trkpt>
      <trkpt lat="59.3789130686" lon="18.0300045989">
        <ele>130.2</ele>
        <time>2012-10-25T18:44:48Z</time>
      </trkpt>
      <trkpt lat="59.3789556487" lon="18.0299931995">
        <ele>130.6</ele>
        <time>2012-10-25T18:44:49Z</time>
      </trkpt>
      <trkpt lat="59.3790549742" lon="18.0299893438">
        <ele>131</ele>
        <time>2012-10-25T18:44:51Z</time>
      </trkpt>
      <trkpt lat="59.3791738295" lon="18.0298812173">
        <ele>131</ele>
        <time>2012-10-25T18:44:54Z</time>
      </trkpt>
      <trkpt lat="59.3792005678" lon="18.0298105579">
        <ele>131.6</ele>
        <time>2012-10-25T18:44:55Z</time>
      </trkpt>
      <trkpt lat="59.3792213549" lon="18.0297269904">
        <ele>132</ele>
        <time>2012-10-25T18:44:56Z</time>
      </trkpt>
      <trkpt lat="59.379227809" lon="18.0296259885">
        <ele>132.4</ele>
        <time>2012-10-25T18:44:57Z</time>
      </trkpt>
      <trkpt lat="59.3792237856" lon="18.0295357154">
        <ele>132.8</ele>
        <time>2012-10-25T18:44:58Z</time>
      </trkpt>
      <trkpt lat="59.3792133921" lon="18.0294263316">
        <ele>133.2</ele>
        <time>2012-10-25T18:44:59Z</time>
      </trkpt>
      <trkpt lat="59.3792004001" lon="18.0293313647">
        <ele>133.2</ele>
        <time>2012-10-25T18:45:00Z</time>
      </trkpt>
      <trkpt lat="59.3791619272" lon="18.0290618866">
        <ele>133.2</ele>
        <time>2012-10-25T18:45:03Z</time>
      </trkpt>
      <trkpt lat="59.3790743364" lon="18.0286088449">
        <ele>133.8</ele>
        <time>2012-10-25T18:45:08Z</time>
      </trkpt>
      <trkpt lat="59.3790548065" lon="18.0285179851">
        <ele>134.4</ele>
        <time>2012-10-25T18:45:09Z</time>
      </trkpt>
      <trkpt lat="59.3790348576" lon="18.0284263709">
        <ele>135</ele>
        <time>2012-10-25T18:45:10Z</time>
      </trkpt>
      <trkpt lat="59.379012897" lon="18.0283355111">
        <ele>135.6</ele>
        <time>2012-10-25T18:45:11Z</time>
      </trkpt>
      <trkpt lat="59.3789906012" lon="18.0282453219">
        <ele>136.2</ele>
        <time>2012-10-25T18:45:12Z</time>
      </trkpt>
      <trkpt lat="59.3788701533" lon="18.0277035997">
        <ele>136.2</ele>
        <time>2012-10-25T18:45:18Z</time>
      </trkpt>
      <trkpt lat="59.3787558242" lon="18.0275086367">
        <ele>136.2</ele>
        <time>2012-10-25T18:45:21Z</time>
      </trkpt>
      <trkpt lat="59.3786518048" lon="18.0272931381">
        <ele>136.2</ele>
        <time>2012-10-25T18:45:24Z</time>
      </trkpt>
      <trkpt lat="59.3786184448" lon="18.0268076584">
        <ele>136.2</ele>
        <time>2012-10-25T18:45:29Z</time>
      </trkpt>
      <trkpt lat="59.3786388967" lon="18.0263669381">
        <ele>136.2</ele>
        <time>2012-10-25T18:45:33Z</time>
      </trkpt>
      <trkpt lat="59.3786068778" lon="18.0258189295">
        <ele>136.2</ele>
        <time>2012-10-25T18:45:37Z</time>
      </trkpt>
      <trkpt lat="59.3785974063" lon="18.0256667142">
        <ele>136.2</ele>
        <time>2012-10-25T18:45:38Z</time>
      </trkpt>
      <trkpt lat="59.3785883538" lon="18.0252043686">
        <ele>135.2</ele>
        <time>2012-10-25T18:45:41Z</time>
      </trkpt>
      <trkpt lat="59.3786099791" lon="18.0250611219">
        <ele>134.8</ele>
        <time>2012-10-25T18:45:42Z</time>
      </trkpt>
      <trkpt lat="59.3786349572" lon="18.0249238264">
        <ele>134.4</ele>
        <time>2012-10-25T18:45:43Z</time>
      </trkpt>
      <trkpt lat="59.3786604381" lon="18.0247972597">
        <ele>133.8</ele>
        <time>2012-10-25T18:45:44Z</time>
      </trkpt>
      <trkpt lat="59.3786910321" lon="18.0246746325">
        <ele>133.8</ele>
        <time>2012-10-25T18:45:45Z</time>
      </trkpt>
      <trkpt lat="59.3787757731" lon="18.0244901469">
        <ele>133.8</ele>
        <time>2012-10-25T18:45:47Z</time>
      </trkpt>
      <trkpt lat="59.3789620189" lon="18.024321503">
        <ele>133.4</ele>
        <time>2012-10-25T18:45:51Z</time>
      </trkpt>
      <trkpt lat="59.3789811296" lon="18.0242891489">
        <ele>133</ele>
        <time>2012-10-25T18:45:52Z</time>
      </trkpt>
      <trkpt lat="59.3789923614" lon="18.0242723013">
        <ele>132.6</ele>
        <time>2012-10-25T18:45:53Z</time>
      </trkpt>
      <trkpt lat="59.3789912717" lon="18.0242487482">
        <ele>132</ele>
        <time>2012-10-25T18:45:54Z</time>
      </trkpt>
      <trkpt lat="59.3789911041" lon="18.0242294698">
        <ele>131.6</ele>
        <time>2012-10-25T18:45:55Z</time>
      </trkpt>
      <trkpt lat="59.3789933672" lon="18.0242107781">
        <ele>131</ele>
        <time>2012-10-25T18:45:56Z</time>
      </trkpt>
      <trkpt lat="59.3789953789" lon="18.0241895719">
        <ele>130.6</ele>
        <time>2012-10-25T18:45:57Z</time>
      </trkpt>
      <trkpt lat="59.3789983963" lon="18.0241665217">
        <ele>130</ele>
        <time>2012-10-25T18:45:58Z</time>
      </trkpt>
      <trkpt lat="59.3790057724" lon="18.0241437229">
        <ele>129.6</ele>
        <time>2012-10-25T18:45:59Z</time>
      </trkpt>
      <trkpt lat="59.3790172556" lon="18.0241117879">
        <ele>129.6</ele>
        <time>2012-10-25T18:46:00Z</time>
      </trkpt>
      <trkpt lat="59.3790661221" lon="18.0238731552">
        <ele>129.6</ele>
        <time>2012-10-25T18:46:03Z</time>
      </trkpt>
      <trkpt lat="59.379066625" lon="18.0235982289">
        <ele>129.6</ele>
        <time>2012-10-25T18:46:05Z</time>
      </trkpt>
      <trkpt lat="59.379041647" lon="18.0231266632">
        <ele>129.6</ele>
        <time>2012-10-25T18:46:08Z</time>
      </trkpt>
      <trkpt lat="59.3790154116" lon="18.022978555">
        <ele>129</ele>
        <time>2012-10-25T18:46:09Z</time>
      </trkpt>
      <trkpt lat="59.3789838957" lon="18.0228388288">
        <ele>128.6</ele>
        <time>2012-10-25T18:46:10Z</time>
      </trkpt>
      <trkpt lat="59.3789570736" lon="18.0227004436">
        <ele>127.8</ele>
        <time>2012-10-25T18:46:11Z</time>
      </trkpt>
      <trkpt lat="59.3789387172" lon="18.0225670037">
        <ele>127.2</ele>
        <time>2012-10-25T18:46:12Z</time>
      </trkpt>
      <trkpt lat="59.3789306706" lon="18.0224305464">
        <ele>126.4</ele>
        <time>2012-10-25T18:46:13Z</time>
      </trkpt>
      <trkpt lat="59.3789443331" lon="18.0222833602">
        <ele>125.6</ele>
        <time>2012-10-25T18:46:14Z</time>
      </trkpt>
      <trkpt lat="59.3789706523" lon="18.0221256129">
        <ele>125</ele>
        <time>2012-10-25T18:46:15Z</time>
      </trkpt>
      <trkpt lat="59.3790037608" lon="18.0219572205">
        <ele>124.2</ele>
        <time>2012-10-25T18:46:16Z</time>
      </trkpt>
      <trkpt lat="59.379024045" lon="18.0217805301">
        <ele>123.6</ele>
        <time>2012-10-25T18:46:17Z</time>
      </trkpt>
      <trkpt lat="59.3790347738" lon="18.0215947872">
        <ele>122.8</ele>
        <time>2012-10-25T18:46:18Z</time>
      </trkpt>
      <trkpt lat="59.3790497774" lon="18.0210041985">
        <ele>122.2</ele>
        <time>2012-10-25T18:46:21Z</time>
      </trkpt>
      <trkpt lat="59.3790519567" lon="18.020796495">
        <ele>121.8</ele>
        <time>2012-10-25T18:46:22Z</time>
      </trkpt>
      <trkpt lat="59.3790575726" lon="18.0205762187">
        <ele>121.2</ele>
        <time>2012-10-25T18:46:23Z</time>
      </trkpt>
      <trkpt lat="59.3790646972" lon="18.0203697725">
        <ele>120.6</ele>
        <time>2012-10-25T18:46:24Z</time>
      </trkpt>
      <trkpt lat="59.3790776053" lon="18.0201735522">
        <ele>120</ele>
        <time>2012-10-25T18:46:25Z</time>
      </trkpt>
      <trkpt lat="59.3790894238" lon="18.0199879769">
        <ele>119.2</ele>
        <time>2012-10-25T18:46:26Z</time>
      </trkpt>
      <trkpt lat="59.3790987277" lon="18.0198008091">
        <ele>118.6</ele>
        <time>2012-10-25T18:46:27Z</time>
      </trkpt>
      <trkpt lat="59.3791052656" lon="18.0196367753">
        <ele>118</ele>
        <time>2012-10-25T18:46:28Z</time>
      </trkpt>
      <trkpt lat="59.3791140666" lon="18.0194709813">
        <ele>117.4</ele>
        <time>2012-10-25T18:46:29Z</time>
      </trkpt>
      <trkpt lat="59.3791227837" lon="18.0192976436">
        <ele>116.8</ele>
        <time>2012-10-25T18:46:30Z</time>
      </trkpt>
      <trkpt lat="59.3791271423" lon="18.019135873">
        <ele>115.8</ele>
        <time>2012-10-25T18:46:31Z</time>
      </trkpt>
      <trkpt lat="59.3791223646" lon="18.0186679953">
        <ele>115.8</ele>
        <time>2012-10-25T18:46:34Z</time>
      </trkpt>
      <trkpt lat="59.3791132284" lon="18.0185177917">
        <ele>115.4</ele>
        <time>2012-10-25T18:46:35Z</time>
      </trkpt>
      <trkpt lat="59.3791017452" lon="18.0183692644">
        <ele>115</ele>
        <time>2012-10-25T18:46:36Z</time>
      </trkpt>
      <trkpt lat="59.3790894238" lon="18.018223587">
        <ele>114.6</ele>
        <time>2012-10-25T18:46:37Z</time>
      </trkpt>
      <trkpt lat="59.3790795331" lon="18.0180657558">
        <ele>114</ele>
        <time>2012-10-25T18:46:38Z</time>
      </trkpt>
      <trkpt lat="59.3790715703" lon="18.0179243531">
        <ele>113.6</ele>
        <time>2012-10-25T18:46:39Z</time>
      </trkpt>
      <trkpt lat="59.3790600033" lon="18.0177824476">
        <ele>113.6</ele>
        <time>2012-10-25T18:46:40Z</time>
      </trkpt>
      <trkpt lat="59.3790021682" lon="18.0170673877">
        <ele>113.6</ele>
        <time>2012-10-25T18:46:45Z</time>
      </trkpt>
      <trkpt lat="59.3789075366" lon="18.0164446963">
        <ele>113.6</ele>
        <time>2012-10-25T18:46:50Z</time>
      </trkpt>
      <trkpt lat="59.3787278286" lon="18.0155915866">
        <ele>113.6</ele>
        <time>2012-10-25T18:46:58Z</time>
      </trkpt>
      <trkpt lat="59.3786591809" lon="18.015390421">
        <ele>113.6</ele>
        <time>2012-10-25T18:47:00Z</time>
      </trkpt>
      <trkpt lat="59.3785629566" lon="18.015204259">
        <ele>113.6</ele>
        <time>2012-10-25T18:47:02Z</time>
      </trkpt>
      <trkpt lat="59.3783694186" lon="18.0150325138">
        <ele>113.6</ele>
        <time>2012-10-25T18:47:05Z</time>
      </trkpt>
      <trkpt lat="59.3782995973" lon="18.0149941247">
        <ele>113.6</ele>
        <time>2012-10-25T18:47:06Z</time>
      </trkpt>
      <trkpt lat="59.3780926482" lon="18.014850459">
        <ele>113.6</ele>
        <time>2012-10-25T18:47:09Z</time>
      </trkpt>
      <trkpt lat="59.3780302869" lon="18.0147701604">
        <ele>113.6</ele>
        <time>2012-10-25T18:47:10Z</time>
      </trkpt>
      <trkpt lat="59.3778532612" lon="18.01434151">
        <ele>113.6</ele>
        <time>2012-10-25T18:47:14Z</time>
      </trkpt>
      <trkpt lat="59.377820907" lon="18.0142185475">
        <ele>113.6</ele>
        <time>2012-10-25T18:47:15Z</time>
      </trkpt>
      <trkpt lat="59.3774253652" lon="18.012680888">
        <ele>113.6</ele>
        <time>2012-10-25T18:47:28Z</time>
      </trkpt>
      <trkpt lat="59.3773320746" lon="18.012199264">
        <ele>113.6</ele>
        <time>2012-10-25T18:47:33Z</time>
      </trkpt>
      <trkpt lat="59.3772223556" lon="18.0117339009">
        <ele>113.6</ele>
        <time>2012-10-25T18:47:38Z</time>
      </trkpt>
      <trkpt lat="59.3770225311" lon="18.0110946972">
        <ele>113.6</ele>
        <time>2012-10-25T18:47:44Z</time>
      </trkpt>
      <trkpt lat="59.3768217846" lon="18.0104512187">
        <ele>113.6</ele>
        <time>2012-10-25T18:47:50Z</time>
      </trkpt>
      <trkpt lat="59.3766567449" lon="18.0098974266">
        <ele>113.6</ele>
        <time>2012-10-25T18:47:55Z</time>
      </trkpt>
      <trkpt lat="59.376548367" lon="18.009473051">
        <ele>113.6</ele>
        <time>2012-10-25T18:47:59Z</time>
      </trkpt>
      <trkpt lat="59.3765526417" lon="18.0093695346">
        <ele>113.6</ele>
        <time>2012-10-25T18:48:00Z</time>
      </trkpt>
      <trkpt lat="59.3766588404" lon="18.0091040798">
        <ele>113.2</ele>
        <time>2012-10-25T18:48:03Z</time>
      </trkpt>
      <trkpt lat="59.376706282" lon="18.0090271339">
        <ele>112.8</ele>
        <time>2012-10-25T18:48:04Z</time>
      </trkpt>
      <trkpt lat="59.3767631951" lon="18.0089610007">
        <ele>112.4</ele>
        <time>2012-10-25T18:48:05Z</time>
      </trkpt>
      <trkpt lat="59.3768245506" lon="18.0088917663">
        <ele>112</ele>
        <time>2012-10-25T18:48:06Z</time>
      </trkpt>
      <trkpt lat="59.3768862414" lon="18.0088272256">
        <ele>111.6</ele>
        <time>2012-10-25T18:48:07Z</time>
      </trkpt>
      <trkpt lat="59.3773202561" lon="18.0082875989">
        <ele>111.6</ele>
        <time>2012-10-25T18:48:14Z</time>
      </trkpt>
      <trkpt lat="59.3775693662" lon="18.0081285943">
        <ele>111.6</ele>
        <time>2012-10-25T18:48:18Z</time>
      </trkpt>
      <trkpt lat="59.3779146167" lon="18.0079078988">
        <ele>112</ele>
        <time>2012-10-25T18:48:24Z</time>
      </trkpt>
      <trkpt lat="59.3779585378" lon="18.0078928952">
        <ele>112.4</ele>
        <time>2012-10-25T18:48:25Z</time>
      </trkpt>
      <trkpt lat="59.3780043868" lon="18.0078947392">
        <ele>112.8</ele>
        <time>2012-10-25T18:48:26Z</time>
      </trkpt>
      <trkpt lat="59.3780432788" lon="18.0079182924">
        <ele>113.2</ele>
        <time>2012-10-25T18:48:27Z</time>
      </trkpt>
      <trkpt lat="59.3780859427" lon="18.0079174542">
        <ele>113.6</ele>
        <time>2012-10-25T18:48:28Z</time>
      </trkpt>
      <trkpt lat="59.3781863579" lon="18.0078518239">
        <ele>113.6</ele>
        <time>2012-10-25T18:48:30Z</time>
      </trkpt>
      <trkpt lat="59.3782949873" lon="18.0077384168">
        <ele>113.6</ele>
        <time>2012-10-25T18:48:32Z</time>
      </trkpt>
      <trkpt lat="59.3787487834" lon="18.0072458964">
        <ele>113.6</ele>
        <time>2012-10-25T18:48:40Z</time>
      </trkpt>
      <trkpt lat="59.3791418945" lon="18.0068246221">
        <ele>113.6</ele>
        <time>2012-10-25T18:48:47Z</time>
      </trkpt>
      <trkpt lat="59.3796138793" lon="18.0063776992">
        <ele>113.6</ele>
        <time>2012-10-25T18:48:55Z</time>
      </trkpt>
      <trkpt lat="59.3800286157" lon="18.0060039502">
        <ele>113.6</ele>
        <time>2012-10-25T18:49:02Z</time>
      </trkpt>
      <trkpt lat="59.3802050547" lon="18.0058486336">
        <ele>114</ele>
        <time>2012-10-25T18:49:05Z</time>
      </trkpt>
      <trkpt lat="59.3802633927" lon="18.0057995995">
        <ele>114.4</ele>
        <time>2012-10-25T18:49:06Z</time>
      </trkpt>
      <trkpt lat="59.3803192161" lon="18.0057478832">
        <ele>114.8</ele>
        <time>2012-10-25T18:49:07Z</time>
      </trkpt>
      <trkpt lat="59.3803732794" lon="18.0057022857">
        <ele>115.2</ele>
        <time>2012-10-25T18:49:08Z</time>
      </trkpt>
      <trkpt lat="59.3804227326" lon="18.0056625555">
        <ele>115.6</ele>
        <time>2012-10-25T18:49:09Z</time>
      </trkpt>
      <trkpt lat="59.3804648098" lon="18.0056300337">
        <ele>115.6</ele>
        <time>2012-10-25T18:49:10Z</time>
      </trkpt>
      <trkpt lat="59.3805801447" lon="18.0055866154">
        <ele>115.6</ele>
        <time>2012-10-25T18:49:14Z</time>
      </trkpt>
      <trkpt lat="59.3805907059" lon="18.0055955841">
        <ele>115.2</ele>
        <time>2012-10-25T18:49:15Z</time>
      </trkpt>
      <trkpt lat="59.3806010994" lon="18.0056152815">
        <ele>114.8</ele>
        <time>2012-10-25T18:49:16Z</time>
      </trkpt>
      <trkpt lat="59.3806090623" lon="18.0056379965">
        <ele>114.4</ele>
        <time>2012-10-25T18:49:17Z</time>
      </trkpt>
      <trkpt lat="59.3806152649" lon="18.0056704344">
        <ele>114</ele>
        <time>2012-10-25T18:49:18Z</time>
      </trkpt>
      <trkpt lat="59.380621216" lon="18.0057133498">
        <ele>113.4</ele>
        <time>2012-10-25T18:49:19Z</time>
      </trkpt>
      <trkpt lat="59.3806693281" lon="18.0059254118">
        <ele>113.4</ele>
        <time>2012-10-25T18:49:22Z</time>
      </trkpt>
      <trkpt lat="59.3807991637" lon="18.0060942233">
        <ele>113.4</ele>
        <time>2012-10-25T18:49:25Z</time>
      </trkpt>
      <trkpt lat="59.3809190249" lon="18.0061286729">
        <ele>113.4</ele>
        <time>2012-10-25T18:49:27Z</time>
      </trkpt>
      <trkpt lat="59.3810393052" lon="18.0061645474">
        <ele>113.4</ele>
        <time>2012-10-25T18:49:29Z</time>
      </trkpt>
      <trkpt lat="59.3812650297" lon="18.0063647072">
        <ele>113.8</ele>
        <time>2012-10-25T18:49:33Z</time>
      </trkpt>
      <trkpt lat="59.3813091185" lon="18.0064488615">
        <ele>114.4</ele>
        <time>2012-10-25T18:49:34Z</time>
      </trkpt>
      <trkpt lat="59.3813444063" lon="18.0065501987">
        <ele>114.8</ele>
        <time>2012-10-25T18:49:35Z</time>
      </trkpt>
      <trkpt lat="59.3813721504" lon="18.0066475125">
        <ele>115.2</ele>
        <time>2012-10-25T18:49:36Z</time>
      </trkpt>
      <trkpt lat="59.381396877" lon="18.0067672061">
        <ele>115.6</ele>
        <time>2012-10-25T18:49:37Z</time>
      </trkpt>
      <trkpt lat="59.3813726533" lon="18.0071405359">
        <ele>115.6</ele>
        <time>2012-10-25T18:49:40Z</time>
      </trkpt>
      <trkpt lat="59.3812870741" lon="18.0074953417">
        <ele>115.6</ele>
        <time>2012-10-25T18:49:43Z</time>
      </trkpt>
      <trkpt lat="59.3812489365" lon="18.0076054799">
        <ele>115.6</ele>
        <time>2012-10-25T18:49:44Z</time>
      </trkpt>
      <trkpt lat="59.3812077814" lon="18.0077048054">
        <ele>115.6</ele>
        <time>2012-10-25T18:49:45Z</time>
      </trkpt>
      <trkpt lat="59.3809868345" lon="18.0080482957">
        <ele>115.6</ele>
        <time>2012-10-25T18:49:49Z</time>
      </trkpt>
      <trkpt lat="59.3809256466" lon="18.0081026104">
        <ele>115.6</ele>
        <time>2012-10-25T18:49:50Z</time>
      </trkpt>
      <trkpt lat="59.3807313542" lon="18.0082489583">
        <ele>115.6</ele>
        <time>2012-10-25T18:49:53Z</time>
      </trkpt>
      <trkpt lat="59.3804241575" lon="18.008546432">
        <ele>115</ele>
        <time>2012-10-25T18:49:58Z</time>
      </trkpt>
      <trkpt lat="59.3803674121" lon="18.0085865813">
        <ele>114.6</ele>
        <time>2012-10-25T18:49:59Z</time>
      </trkpt>
      <trkpt lat="59.3803064757" lon="18.0086025069">
        <ele>114.2</ele>
        <time>2012-10-25T18:50:00Z</time>
      </trkpt>
      <trkpt lat="59.3802395043" lon="18.0086021716">
        <ele>113.6</ele>
        <time>2012-10-25T18:50:01Z</time>
      </trkpt>
      <trkpt lat="59.3801840161" lon="18.008639974">
        <ele>113.2</ele>
        <time>2012-10-25T18:50:02Z</time>
      </trkpt>
      <trkpt lat="59.3801336409" lon="18.0087674627">
        <ele>113.2</ele>
        <time>2012-10-25T18:50:04Z</time>
      </trkpt>
      <trkpt lat="59.3801889614" lon="18.0089397945">
        <ele>113.2</ele>
        <time>2012-10-25T18:50:06Z</time>
      </trkpt>
      <trkpt lat="59.3802321282" lon="18.0090381142">
        <ele>113.2</ele>
        <time>2012-10-25T18:50:07Z</time>
      </trkpt>
      <trkpt lat="59.3802685057" lon="18.0091335002">
        <ele>113.2</ele>
        <time>2012-10-25T18:50:08Z</time>
      </trkpt>
      <trkpt lat="59.3803318728" lon="18.0093658465">
        <ele>113.2</ele>
        <time>2012-10-25T18:50:10Z</time>
      </trkpt>
      <trkpt lat="59.3805932205" lon="18.0103295136">
        <ele>113.2</ele>
        <time>2012-10-25T18:50:18Z</time>
      </trkpt>
      <trkpt lat="59.380830093" lon="18.0109324236">
        <ele>113.2</ele>
        <time>2012-10-25T18:50:24Z</time>
      </trkpt>
      <trkpt lat="59.3808954718" lon="18.0109555577">
        <ele>113.2</ele>
        <time>2012-10-25T18:50:25Z</time>
      </trkpt>
      <trkpt lat="59.381077359" lon="18.010847515">
        <ele>113.2</ele>
        <time>2012-10-25T18:50:28Z</time>
      </trkpt>
      <trkpt lat="59.3812555582" lon="18.0106050266">
        <ele>113.2</ele>
        <time>2012-10-25T18:50:32Z</time>
      </trkpt>
      <trkpt lat="59.3812978868" lon="18.0105668051">
        <ele>113.2</ele>
        <time>2012-10-25T18:50:33Z</time>
      </trkpt>
      <trkpt lat="59.3814107072" lon="18.0104683178">
        <ele>113.6</ele>
        <time>2012-10-25T18:50:36Z</time>
      </trkpt>
      <trkpt lat="59.381448761" lon="18.0104523084">
        <ele>114.2</ele>
        <time>2012-10-25T18:50:37Z</time>
      </trkpt>
      <trkpt lat="59.3814842164" lon="18.0104409928">
        <ele>115</ele>
        <time>2012-10-25T18:50:38Z</time>
      </trkpt>
      <trkpt lat="59.3815176602" lon="18.0104314375">
        <ele>115.4</ele>
        <time>2012-10-25T18:50:39Z</time>
      </trkpt>
      <trkpt lat="59.3815512716" lon="18.0104250672">
        <ele>115.8</ele>
        <time>2012-10-25T18:50:40Z</time>
      </trkpt>
      <trkpt lat="59.3815883196" lon="18.0104172721">
        <ele>116.2</ele>
        <time>2012-10-25T18:50:41Z</time>
      </trkpt>
      <trkpt lat="59.3816238589" lon="18.0104176911">
        <ele>116.6</ele>
        <time>2012-10-25T18:50:42Z</time>
      </trkpt>
      <trkpt lat="59.3816583085" lon="18.0104227203">
        <ele>117</ele>
        <time>2012-10-25T18:50:43Z</time>
      </trkpt>
      <trkpt lat="59.3816896568" lon="18.0104239776">
        <ele>117.4</ele>
        <time>2012-10-25T18:50:44Z</time>
      </trkpt>
      <trkpt lat="59.3817201669" lon="18.0104270789">
        <ele>118</ele>
        <time>2012-10-25T18:50:45Z</time>
      </trkpt>
      <trkpt lat="59.3817493359" lon="18.0104328624">
        <ele>118.4</ele>
        <time>2012-10-25T18:50:46Z</time>
      </trkpt>
      <trkpt lat="59.3817808519" lon="18.0104393164">
        <ele>119</ele>
        <time>2012-10-25T18:50:47Z</time>
      </trkpt>
      <trkpt lat="59.3818134575" lon="18.0104451">
        <ele>119.4</ele>
        <time>2012-10-25T18:50:48Z</time>
      </trkpt>
      <trkpt lat="59.3818479071" lon="18.0104607741">
        <ele>119.8</ele>
        <time>2012-10-25T18:50:49Z</time>
      </trkpt>
      <trkpt lat="59.3818810994" lon="18.0104764483">
        <ele>120.4</ele>
        <time>2012-10-25T18:50:50Z</time>
      </trkpt>
      <trkpt lat="59.3819170577" lon="18.0104916195">
        <ele>120.8</ele>
        <time>2012-10-25T18:50:51Z</time>
      </trkpt>
      <trkpt lat="59.3819515074" lon="18.0105095568">
        <ele>121.2</ele>
        <time>2012-10-25T18:50:52Z</time>
      </trkpt>
      <trkpt lat="59.381984532" lon="18.0105310983">
        <ele>121.8</ele>
        <time>2012-10-25T18:50:53Z</time>
      </trkpt>
      <trkpt lat="59.3820165509" lon="18.0105538132">
        <ele>122.2</ele>
        <time>2012-10-25T18:50:54Z</time>
      </trkpt>
      <trkpt lat="59.3820478992" lon="18.0105759414">
        <ele>122.8</ele>
        <time>2012-10-25T18:50:55Z</time>
      </trkpt>
      <trkpt lat="59.3820823488" lon="18.0105955551">
        <ele>123.2</ele>
        <time>2012-10-25T18:50:56Z</time>
      </trkpt>
      <trkpt lat="59.3821102605" lon="18.0106070383">
        <ele>123.6</ele>
        <time>2012-10-25T18:50:57Z</time>
      </trkpt>
      <trkpt lat="59.3821385914" lon="18.0106177671">
        <ele>124</ele>
        <time>2012-10-25T18:50:58Z</time>
      </trkpt>
      <trkpt lat="59.3821682633" lon="18.0106227124">
        <ele>124.6</ele>
        <time>2012-10-25T18:50:59Z</time>
      </trkpt>
      <trkpt lat="59.3822011203" lon="18.0106250594">
        <ele>125</ele>
        <time>2012-10-25T18:51:00Z</time>
      </trkpt>
      <trkpt lat="59.3822354861" lon="18.0106247241">
        <ele>125.4</ele>
        <time>2012-10-25T18:51:01Z</time>
      </trkpt>
      <trkpt lat="59.3822701872" lon="18.010627071">
        <ele>126.2</ele>
        <time>2012-10-25T18:51:02Z</time>
      </trkpt>
      <trkpt lat="59.3823047206" lon="18.0106273225">
        <ele>126.6</ele>
        <time>2012-10-25T18:51:03Z</time>
      </trkpt>
      <trkpt lat="59.3823438641" lon="18.0106184377">
        <ele>126.6</ele>
        <time>2012-10-25T18:51:04Z</time>
      </trkpt>
      <trkpt lat="59.3824602887" lon="18.0105932081">
        <ele>127</ele>
        <time>2012-10-25T18:51:07Z</time>
      </trkpt>
      <trkpt lat="59.3824959118" lon="18.0105720857">
        <ele>127.4</ele>
        <time>2012-10-25T18:51:08Z</time>
      </trkpt>
      <trkpt lat="59.382527763" lon="18.0105430844">
        <ele>127.8</ele>
        <time>2012-10-25T18:51:09Z</time>
      </trkpt>
      <trkpt lat="59.3825612068" lon="18.0105111493">
        <ele>128.2</ele>
        <time>2012-10-25T18:51:10Z</time>
      </trkpt>
      <trkpt lat="59.3825963269" lon="18.0104785437">
        <ele>128.8</ele>
        <time>2012-10-25T18:51:11Z</time>
      </trkpt>
      <trkpt lat="59.3827014359" lon="18.0103811461">
        <ele>129.2</ele>
        <time>2012-10-25T18:51:14Z</time>
      </trkpt>
      <trkpt lat="59.3827363047" lon="18.0103404938">
        <ele>129.6</ele>
        <time>2012-10-25T18:51:15Z</time>
      </trkpt>
      <trkpt lat="59.3827696646" lon="18.0103044517">
        <ele>130</ele>
        <time>2012-10-25T18:51:16Z</time>
      </trkpt>
      <trkpt lat="59.3828031922" lon="18.0102710917">
        <ele>130.4</ele>
        <time>2012-10-25T18:51:17Z</time>
      </trkpt>
      <trkpt lat="59.3828373065" lon="18.0102390729">
        <ele>130.8</ele>
        <time>2012-10-25T18:51:18Z</time>
      </trkpt>
      <trkpt lat="59.3829463551" lon="18.0101500571">
        <ele>131.2</ele>
        <time>2012-10-25T18:51:21Z</time>
      </trkpt>
      <trkpt lat="59.3829808885" lon="18.0101120871">
        <ele>131.6</ele>
        <time>2012-10-25T18:51:22Z</time>
      </trkpt>
      <trkpt lat="59.3830152543" lon="18.0100770507">
        <ele>132</ele>
        <time>2012-10-25T18:51:23Z</time>
      </trkpt>
      <trkpt lat="59.3830525537" lon="18.0100433555">
        <ele>132.4</ele>
        <time>2012-10-25T18:51:24Z</time>
      </trkpt>
      <trkpt lat="59.3830887635" lon="18.0100057208">
        <ele>132.8</ele>
        <time>2012-10-25T18:51:25Z</time>
      </trkpt>
      <trkpt lat="59.3832346086" lon="18.0098396753">
        <ele>132.8</ele>
        <time>2012-10-25T18:51:29Z</time>
      </trkpt>
      <trkpt lat="59.3835268016" lon="18.0095283716">
        <ele>132.8</ele>
        <time>2012-10-25T18:51:36Z</time>
      </trkpt>
      <trkpt lat="59.3839497523" lon="18.0090718095">
        <ele>132.8</ele>
        <time>2012-10-25T18:51:45Z</time>
      </trkpt>
      <trkpt lat="59.3844430271" lon="18.0085680573">
        <ele>132.8</ele>
        <time>2012-10-25T18:51:54Z</time>
      </trkpt>
      <trkpt lat="59.3844999402" lon="18.0085082943">
        <ele>132.8</ele>
        <time>2012-10-25T18:51:55Z</time>
      </trkpt>
      <trkpt lat="59.3849023553" lon="18.008121302">
        <ele>132.8</ele>
        <time>2012-10-25T18:52:02Z</time>
      </trkpt>
      <trkpt lat="59.3851948836" lon="18.0077799072">
        <ele>132.8</ele>
        <time>2012-10-25T18:52:07Z</time>
      </trkpt>
      <trkpt lat="59.3856154873" lon="18.0071975328">
        <ele>132.8</ele>
        <time>2012-10-25T18:52:15Z</time>
      </trkpt>
      <trkpt lat="59.3856635156" lon="18.0071054995">
        <ele>132.8</ele>
        <time>2012-10-25T18:52:16Z</time>
      </trkpt>
      <trkpt lat="59.3857936027" lon="18.0067613387">
        <ele>132.8</ele>
        <time>2012-10-25T18:52:19Z</time>
      </trkpt>
      <trkpt lat="59.3858288905" lon="18.0066260549">
        <ele>132.8</ele>
        <time>2012-10-25T18:52:20Z</time>
      </trkpt>
      <trkpt lat="59.3860559561" lon="18.0058385754">
        <ele>132.8</ele>
        <time>2012-10-25T18:52:26Z</time>
      </trkpt>
      <trkpt lat="59.3863095924" lon="18.0052448854">
        <ele>132.8</ele>
        <time>2012-10-25T18:52:31Z</time>
      </trkpt>
      <trkpt lat="59.3863710318" lon="18.0051458951">
        <ele>132.8</ele>
        <time>2012-10-25T18:52:32Z</time>
      </trkpt>
      <trkpt lat="59.3864381708" lon="18.0050515988">
        <ele>132.4</ele>
        <time>2012-10-25T18:52:33Z</time>
      </trkpt>
      <trkpt lat="59.3865110095" lon="18.0049744853">
        <ele>132</ele>
        <time>2012-10-25T18:52:34Z</time>
      </trkpt>
      <trkpt lat="59.3865859437" lon="18.004918578">
        <ele>131.6</ele>
        <time>2012-10-25T18:52:35Z</time>
      </trkpt>
      <trkpt lat="59.386664063" lon="18.0048698792">
        <ele>131.2</ele>
        <time>2012-10-25T18:52:36Z</time>
      </trkpt>
      <trkpt lat="59.3867455351" lon="18.0048274668">
        <ele>130.8</ele>
        <time>2012-10-25T18:52:37Z</time>
      </trkpt>
      <trkpt lat="59.3869979141" lon="18.0046451604">
        <ele>130.4</ele>
        <time>2012-10-25T18:52:40Z</time>
      </trkpt>
      <trkpt lat="59.3870823198" lon="18.0045529595">
        <ele>129.4</ele>
        <time>2012-10-25T18:52:41Z</time>
      </trkpt>
      <trkpt lat="59.3871616126" lon="18.0044424861">
        <ele>128.8</ele>
        <time>2012-10-25T18:52:42Z</time>
      </trkpt>
      <trkpt lat="59.3872389775" lon="18.0043174281">
        <ele>128.4</ele>
        <time>2012-10-25T18:52:43Z</time>
      </trkpt>
      <trkpt lat="59.387314247" lon="18.004166973">
        <ele>127.8</ele>
        <time>2012-10-25T18:52:44Z</time>
      </trkpt>
      <trkpt lat="59.3873779494" lon="18.0039997541">
        <ele>127.4</ele>
        <time>2012-10-25T18:52:45Z</time>
      </trkpt>
      <trkpt lat="59.3874319289" lon="18.0038132569">
        <ele>126.8</ele>
        <time>2012-10-25T18:52:46Z</time>
      </trkpt>
      <trkpt lat="59.3874842319" lon="18.0036304476">
        <ele>126.4</ele>
        <time>2012-10-25T18:52:47Z</time>
      </trkpt>
      <trkpt lat="59.3875349424" lon="18.0034460458">
        <ele>125.8</ele>
        <time>2012-10-25T18:52:48Z</time>
      </trkpt>
      <trkpt lat="59.3875863234" lon="18.0032606382">
        <ele>125.2</ele>
        <time>2012-10-25T18:52:49Z</time>
      </trkpt>
      <trkpt lat="59.3876378721" lon="18.0030937546">
        <ele>124.6</ele>
        <time>2012-10-25T18:52:50Z</time>
      </trkpt>
      <trkpt lat="59.3876887503" lon="18.0029276253">
        <ele>124</ele>
        <time>2012-10-25T18:52:51Z</time>
      </trkpt>
      <trkpt lat="59.3877383711" lon="18.0027625019">
        <ele>123.4</ele>
        <time>2012-10-25T18:52:52Z</time>
      </trkpt>
      <trkpt lat="59.3877883272" lon="18.0025991386">
        <ele>122.8</ele>
        <time>2012-10-25T18:52:53Z</time>
      </trkpt>
      <trkpt lat="59.3878377804" lon="18.0024323388">
        <ele>122.4</ele>
        <time>2012-10-25T18:52:54Z</time>
      </trkpt>
      <trkpt lat="59.3878890777" lon="18.0022737533">
        <ele>122</ele>
        <time>2012-10-25T18:52:55Z</time>
      </trkpt>
      <trkpt lat="59.3879464937" lon="18.0021259804">
        <ele>121.6</ele>
        <time>2012-10-25T18:52:56Z</time>
      </trkpt>
      <trkpt lat="59.3880086036" lon="18.0019870923">
        <ele>121.2</ele>
        <time>2012-10-25T18:52:57Z</time>
      </trkpt>
      <trkpt lat="59.3880744015" lon="18.0018601065">
        <ele>121.2</ele>
        <time>2012-10-25T18:52:58Z</time>
      </trkpt>
      <trkpt lat="59.3882237669" lon="18.0016183725">
        <ele>121.2</ele>
        <time>2012-10-25T18:53:00Z</time>
      </trkpt>
      <trkpt lat="59.3884504135" lon="18.0012825936">
        <ele>121.2</ele>
        <time>2012-10-25T18:53:03Z</time>
      </trkpt>
      <trkpt lat="59.388525683" lon="18.0011725393">
        <ele>120.6</ele>
        <time>2012-10-25T18:53:04Z</time>
      </trkpt>
      <trkpt lat="59.3886053949" lon="18.0010740519">
        <ele>120.2</ele>
        <time>2012-10-25T18:53:05Z</time>
      </trkpt>
      <trkpt lat="59.3886927342" lon="18.0009805099">
        <ele>119.2</ele>
        <time>2012-10-25T18:53:06Z</time>
      </trkpt>
      <trkpt lat="59.388780828" lon="18.0009112754">
        <ele>118.6</ele>
        <time>2012-10-25T18:53:07Z</time>
      </trkpt>
      <trkpt lat="59.3888707658" lon="18.000873054">
        <ele>118.2</ele>
        <time>2012-10-25T18:53:08Z</time>
      </trkpt>
      <trkpt lat="59.3889590272" lon="18.0008700365">
        <ele>117.6</ele>
        <time>2012-10-25T18:53:09Z</time>
      </trkpt>
      <trkpt lat="59.3890458637" lon="18.000896188">
        <ele>117.2</ele>
        <time>2012-10-25T18:53:10Z</time>
      </trkpt>
      <trkpt lat="59.3891311914" lon="18.000950838">
        <ele>116.6</ele>
        <time>2012-10-25T18:53:11Z</time>
      </trkpt>
      <trkpt lat="59.3892141722" lon="18.0010204078">
        <ele>116.2</ele>
        <time>2012-10-25T18:53:12Z</time>
      </trkpt>
      <trkpt lat="59.3892963149" lon="18.0011014608">
        <ele>115.8</ele>
        <time>2012-10-25T18:53:13Z</time>
      </trkpt>
      <trkpt lat="59.3893707461" lon="18.0011779875">
        <ele>115.4</ele>
        <time>2012-10-25T18:53:14Z</time>
      </trkpt>
      <trkpt lat="59.389442579" lon="18.001240265">
        <ele>115</ele>
        <time>2012-10-25T18:53:15Z</time>
      </trkpt>
      <trkpt lat="59.3895128193" lon="18.0012794923">
        <ele>114.6</ele>
        <time>2012-10-25T18:53:16Z</time>
      </trkpt>
      <trkpt lat="59.3895803775" lon="18.0012749661">
        <ele>114.6</ele>
        <time>2012-10-25T18:53:17Z</time>
      </trkpt>
      <trkpt lat="59.389676434" lon="18.0011438732">
        <ele>114.6</ele>
        <time>2012-10-25T18:53:19Z</time>
      </trkpt>
      <trkpt lat="59.3897018312" lon="18.0010262751">
        <ele>114.2</ele>
        <time>2012-10-25T18:53:20Z</time>
      </trkpt>
      <trkpt lat="59.389726474" lon="18.0008899016">
        <ele>113.8</ele>
        <time>2012-10-25T18:53:21Z</time>
      </trkpt>
      <trkpt lat="59.3897530446" lon="18.000760988">
        <ele>113.2</ele>
        <time>2012-10-25T18:53:22Z</time>
      </trkpt>
      <trkpt lat="59.3897850635" lon="18.0006324934">
        <ele>112.8</ele>
        <time>2012-10-25T18:53:23Z</time>
      </trkpt>
      <trkpt lat="59.3898196807" lon="18.0005015682">
        <ele>112.4</ele>
        <time>2012-10-25T18:53:24Z</time>
      </trkpt>
      <trkpt lat="59.389922359" lon="18.0000914418">
        <ele>112.4</ele>
        <time>2012-10-25T18:53:27Z</time>
      </trkpt>
      <trkpt lat="59.3901039109" lon="17.9993834227">
        <ele>112.4</ele>
        <time>2012-10-25T18:53:32Z</time>
      </trkpt>
      <trkpt lat="59.39013769" lon="17.9992400922">
        <ele>112.8</ele>
        <time>2012-10-25T18:53:33Z</time>
      </trkpt>
      <trkpt lat="59.3901723072" lon="17.9990888827">
        <ele>113.4</ele>
        <time>2012-10-25T18:53:34Z</time>
      </trkpt>
      <trkpt lat="59.3902054157" lon="17.998941026">
        <ele>113.8</ele>
        <time>2012-10-25T18:53:35Z</time>
      </trkpt>
      <trkpt lat="59.3902405359" lon="17.9987955162">
        <ele>114.2</ele>
        <time>2012-10-25T18:53:36Z</time>
      </trkpt>
      <trkpt lat="59.3902814396" lon="17.9986498388">
        <ele>114.8</ele>
        <time>2012-10-25T18:53:37Z</time>
      </trkpt>
      <trkpt lat="59.390320583" lon="17.9985025688">
        <ele>114.8</ele>
        <time>2012-10-25T18:53:38Z</time>
      </trkpt>
      <trkpt lat="59.3903935056" lon="17.9982134771">
        <ele>115.2</ele>
        <time>2012-10-25T18:53:40Z</time>
      </trkpt>
      <trkpt lat="59.3904328167" lon="17.9980693084">
        <ele>115.8</ele>
        <time>2012-10-25T18:53:41Z</time>
      </trkpt>
      <trkpt lat="59.390472044" lon="17.9979248883">
        <ele>116.2</ele>
        <time>2012-10-25T18:53:42Z</time>
      </trkpt>
      <trkpt lat="59.3905107684" lon="17.9977714157">
        <ele>116.6</ele>
        <time>2012-10-25T18:53:43Z</time>
      </trkpt>
      <trkpt lat="59.3905490736" lon="17.9976232237">
        <ele>117.2</ele>
        <time>2012-10-25T18:53:44Z</time>
      </trkpt>
      <trkpt lat="59.3905876304" lon="17.9974699188">
        <ele>117.2</ele>
        <time>2012-10-25T18:53:45Z</time>
      </trkpt>
      <trkpt lat="59.3908509897" lon="17.9964214269">
        <ele>116.8</ele>
        <time>2012-10-25T18:53:52Z</time>
      </trkpt>
      <trkpt lat="59.3908835115" lon="17.9962751627">
        <ele>116.4</ele>
        <time>2012-10-25T18:53:53Z</time>
      </trkpt>
      <trkpt lat="59.3909162847" lon="17.9961271384">
        <ele>116</ele>
        <time>2012-10-25T18:53:54Z</time>
      </trkpt>
      <trkpt lat="59.3909450346" lon="17.9959795331">
        <ele>115.4</ele>
        <time>2012-10-25T18:53:55Z</time>
      </trkpt>
      <trkpt lat="59.3909675819" lon="17.9958303353">
        <ele>115</ele>
        <time>2012-10-25T18:53:56Z</time>
      </trkpt>
      <trkpt lat="59.3909992655" lon="17.9955187801">
        <ele>115</ele>
        <time>2012-10-25T18:53:58Z</time>
      </trkpt>
      <trkpt lat="59.3910927237" lon="17.9946201566">
        <ele>115</ele>
        <time>2012-10-25T18:54:04Z</time>
      </trkpt>
      <trkpt lat="59.391170843" lon="17.9942048334">
        <ele>115</ele>
        <time>2012-10-25T18:54:07Z</time>
      </trkpt>
      <trkpt lat="59.3912109923" lon="17.9940778476">
        <ele>115</ele>
        <time>2012-10-25T18:54:08Z</time>
      </trkpt>
      <trkpt lat="59.3914484515" lon="17.9933800545">
        <ele>115</ele>
        <time>2012-10-25T18:54:14Z</time>
      </trkpt>
      <trkpt lat="59.3916505391" lon="17.9928424394">
        <ele>114.6</ele>
        <time>2012-10-25T18:54:19Z</time>
      </trkpt>
      <trkpt lat="59.3916877548" lon="17.992725931">
        <ele>113.8</ele>
        <time>2012-10-25T18:54:20Z</time>
      </trkpt>
      <trkpt lat="59.3917290775" lon="17.9926147032">
        <ele>113.4</ele>
        <time>2012-10-25T18:54:21Z</time>
      </trkpt>
      <trkpt lat="59.3917745912" lon="17.9925034754">
        <ele>113</ele>
        <time>2012-10-25T18:54:22Z</time>
      </trkpt>
      <trkpt lat="59.3918605895" lon="17.9922774993">
        <ele>113</ele>
        <time>2012-10-25T18:54:24Z</time>
      </trkpt>
      <trkpt lat="59.3918993977" lon="17.9921751563">
        <ele>113.4</ele>
        <time>2012-10-25T18:54:25Z</time>
      </trkpt>
      <trkpt lat="59.3919382897" lon="17.9920764176">
        <ele>113.8</ele>
        <time>2012-10-25T18:54:26Z</time>
      </trkpt>
      <trkpt lat="59.3919769303" lon="17.9919769244">
        <ele>114.2</ele>
        <time>2012-10-25T18:54:27Z</time>
      </trkpt>
      <trkpt lat="59.3920182531" lon="17.9918704743">
        <ele>114.6</ele>
        <time>2012-10-25T18:54:28Z</time>
      </trkpt>
      <trkpt lat="59.3920571451" lon="17.9917749206">
        <ele>115</ele>
        <time>2012-10-25T18:54:29Z</time>
      </trkpt>
      <trkpt lat="59.3921413832" lon="17.9915927819">
        <ele>115</ele>
        <time>2012-10-25T18:54:31Z</time>
      </trkpt>
      <trkpt lat="59.3923362624" lon="17.9911639639">
        <ele>115</ele>
        <time>2012-10-25T18:54:36Z</time>
      </trkpt>
      <trkpt lat="59.3925530183" lon="17.9907990998">
        <ele>115</ele>
        <time>2012-10-25T18:54:41Z</time>
      </trkpt>
      <trkpt lat="59.3925958498" lon="17.9907338048">
        <ele>115</ele>
        <time>2012-10-25T18:54:42Z</time>
      </trkpt>
      <trkpt lat="59.392771283" lon="17.9904866226">
        <ele>115.4</ele>
        <time>2012-10-25T18:54:46Z</time>
      </trkpt>
      <trkpt lat="59.3928136116" lon="17.990431805">
        <ele>115.8</ele>
        <time>2012-10-25T18:54:47Z</time>
      </trkpt>
      <trkpt lat="59.3928628971" lon="17.9903821841">
        <ele>116.4</ele>
        <time>2012-10-25T18:54:48Z</time>
      </trkpt>
      <trkpt lat="59.3929155355" lon="17.9903358322">
        <ele>116.8</ele>
        <time>2012-10-25T18:54:49Z</time>
      </trkpt>
      <trkpt lat="59.3929686767" lon="17.9902809308">
        <ele>117.2</ele>
        <time>2012-10-25T18:54:50Z</time>
      </trkpt>
      <trkpt lat="59.3930145257" lon="17.9902206649">
        <ele>117.2</ele>
        <time>2012-10-25T18:54:51Z</time>
      </trkpt>
      <trkpt lat="59.3931414277" lon="17.9898637636">
        <ele>117.2</ele>
        <time>2012-10-25T18:54:55Z</time>
      </trkpt>
      <trkpt lat="59.3932311978" lon="17.9895693913">
        <ele>117.2</ele>
        <time>2012-10-25T18:54:58Z</time>
      </trkpt>
      <trkpt lat="59.3932969957" lon="17.989396808">
        <ele>117.2</ele>
        <time>2012-10-25T18:55:00Z</time>
      </trkpt>
      <trkpt lat="59.3933326188" lon="17.9893160903">
        <ele>117.2</ele>
        <time>2012-10-25T18:55:01Z</time>
      </trkpt>
      <trkpt lat="59.3934946409" lon="17.9889907049">
        <ele>117.2</ele>
        <time>2012-10-25T18:55:05Z</time>
      </trkpt>
      <trkpt lat="59.3935410767" lon="17.9889021082">
        <ele>117.2</ele>
        <time>2012-10-25T18:55:06Z</time>
      </trkpt>
      <trkpt lat="59.3937256461" lon="17.9885950792">
        <ele>117.6</ele>
        <time>2012-10-25T18:55:10Z</time>
      </trkpt>
      <trkpt lat="59.3937730877" lon="17.988534981">
        <ele>118.2</ele>
        <time>2012-10-25T18:55:11Z</time>
      </trkpt>
      <trkpt lat="59.3938205292" lon="17.9884778164">
        <ele>118.6</ele>
        <time>2012-10-25T18:55:12Z</time>
      </trkpt>
      <trkpt lat="59.3938688928" lon="17.9884190593">
        <ele>119</ele>
        <time>2012-10-25T18:55:13Z</time>
      </trkpt>
      <trkpt lat="59.3939144065" lon="17.9883672592">
        <ele>119.6</ele>
        <time>2012-10-25T18:55:14Z</time>
      </trkpt>
      <trkpt lat="59.3940512829" lon="17.9882247669">
        <ele>119.6</ele>
        <time>2012-10-25T18:55:17Z</time>
      </trkpt>
      <trkpt lat="59.3943466611" lon="17.9879028181">
        <ele>119.6</ele>
        <time>2012-10-25T18:55:24Z</time>
      </trkpt>
      <trkpt lat="59.3945124551" lon="17.987727804">
        <ele>120</ele>
        <time>2012-10-25T18:55:28Z</time>
      </trkpt>
      <trkpt lat="59.394552772" lon="17.9876802787">
        <ele>120.4</ele>
        <time>2012-10-25T18:55:29Z</time>
      </trkpt>
      <trkpt lat="59.3945926698" lon="17.9876338429">
        <ele>121</ele>
        <time>2012-10-25T18:55:30Z</time>
      </trkpt>
      <trkpt lat="59.3946313104" lon="17.9875873234">
        <ele>121.4</ele>
        <time>2012-10-25T18:55:31Z</time>
      </trkpt>
      <trkpt lat="59.3946722141" lon="17.9875470903">
        <ele>121.8</ele>
        <time>2012-10-25T18:55:32Z</time>
      </trkpt>
      <trkpt lat="59.3948747208" lon="17.9873186835">
        <ele>121.8</ele>
        <time>2012-10-25T18:55:37Z</time>
      </trkpt>
      <trkpt lat="59.3951685064" lon="17.9870120736">
        <ele>121.8</ele>
        <time>2012-10-25T18:55:44Z</time>
      </trkpt>
      <trkpt lat="59.3955247371" lon="17.9866517357">
        <ele>121.8</ele>
        <time>2012-10-25T18:55:52Z</time>
      </trkpt>
      <trkpt lat="59.3956130823" lon="17.9865472134">
        <ele>122.2</ele>
        <time>2012-10-25T18:55:54Z</time>
      </trkpt>
      <trkpt lat="59.3956582608" lon="17.9864989337">
        <ele>122.8</ele>
        <time>2012-10-25T18:55:55Z</time>
      </trkpt>
      <trkpt lat="59.3957032716" lon="17.986449229">
        <ele>123.2</ele>
        <time>2012-10-25T18:55:56Z</time>
      </trkpt>
      <trkpt lat="59.3957480309" lon="17.9863980994">
        <ele>123.6</ele>
        <time>2012-10-25T18:55:57Z</time>
      </trkpt>
      <trkpt lat="59.3957969812" lon="17.9863423598">
        <ele>124</ele>
        <time>2012-10-25T18:55:58Z</time>
      </trkpt>
      <trkpt lat="59.3958435846" lon="17.9862878774">
        <ele>124</ele>
        <time>2012-10-25T18:55:59Z</time>
      </trkpt>
      <trkpt lat="59.3959821374" lon="17.9861244304">
        <ele>124</ele>
        <time>2012-10-25T18:56:02Z</time>
      </trkpt>
      <trkpt lat="59.3961315867" lon="17.9859705387">
        <ele>124</ele>
        <time>2012-10-25T18:56:05Z</time>
      </trkpt>
      <trkpt lat="59.3962334268" lon="17.9858650106">
        <ele>124.4</ele>
        <time>2012-10-25T18:56:07Z</time>
      </trkpt>
      <trkpt lat="59.3962843049" lon="17.9858194969">
        <ele>124.8</ele>
        <time>2012-10-25T18:56:08Z</time>
      </trkpt>
      <trkpt lat="59.3963328361" lon="17.9857713009">
        <ele>125.2</ele>
        <time>2012-10-25T18:56:09Z</time>
      </trkpt>
      <trkpt lat="59.3963817026" lon="17.9857230212">
        <ele>125.6</ele>
        <time>2012-10-25T18:56:10Z</time>
      </trkpt>
      <trkpt lat="59.3964289765" lon="17.9856713887">
        <ele>126</ele>
        <time>2012-10-25T18:56:11Z</time>
      </trkpt>
      <trkpt lat="59.3967701198" lon="17.9853133139">
        <ele>126</ele>
        <time>2012-10-25T18:56:18Z</time>
      </trkpt>
      <trkpt lat="59.397062229" lon="17.9849931253">
        <ele>126</ele>
        <time>2012-10-25T18:56:24Z</time>
      </trkpt>
      <trkpt lat="59.3974603693" lon="17.9845508125">
        <ele>126</ele>
        <time>2012-10-25T18:56:33Z</time>
      </trkpt>
      <trkpt lat="59.3978605212" lon="17.9840511674">
        <ele>126</ele>
        <time>2012-10-25T18:56:42Z</time>
      </trkpt>
      <trkpt lat="59.3981543906" lon="17.9836464055">
        <ele>126</ele>
        <time>2012-10-25T18:56:49Z</time>
      </trkpt>
      <trkpt lat="59.3984277244" lon="17.9833019932">
        <ele>126</ele>
        <time>2012-10-25T18:56:55Z</time>
      </trkpt>
      <trkpt lat="59.3987370165" lon="17.9828983209">
        <ele>126</ele>
        <time>2012-10-25T18:57:01Z</time>
      </trkpt>
      <trkpt lat="59.3990784113" lon="17.9824905415">
        <ele>126</ele>
        <time>2012-10-25T18:57:08Z</time>
      </trkpt>
      <trkpt lat="59.3991292894" lon="17.9824586902">
        <ele>126.4</ele>
        <time>2012-10-25T18:57:09Z</time>
      </trkpt>
      <trkpt lat="59.3991810057" lon="17.9824456983">
        <ele>126.8</ele>
        <time>2012-10-25T18:57:10Z</time>
      </trkpt>
      <trkpt lat="59.3992320515" lon="17.9824482967">
        <ele>127.2</ele>
        <time>2012-10-25T18:57:11Z</time>
      </trkpt>
      <trkpt lat="59.3992856957" lon="17.9824691676">
        <ele>127.6</ele>
        <time>2012-10-25T18:57:12Z</time>
      </trkpt>
      <trkpt lat="59.3993380825" lon="17.982502779">
        <ele>128</ele>
        <time>2012-10-25T18:57:13Z</time>
      </trkpt>
      <trkpt lat="59.3994816645" lon="17.9826803915">
        <ele>128</ele>
        <time>2012-10-25T18:57:16Z</time>
      </trkpt>
      <trkpt lat="59.399555509" lon="17.9828421622">
        <ele>128</ele>
        <time>2012-10-25T18:57:18Z</time>
      </trkpt>
      <trkpt lat="59.3997061318" lon="17.9832211079">
        <ele>128</ele>
        <time>2012-10-25T18:57:22Z</time>
      </trkpt>
      <trkpt lat="59.3999464408" lon="17.9839407778">
        <ele>128</ele>
        <time>2012-10-25T18:57:29Z</time>
      </trkpt>
      <trkpt lat="59.4000130769" lon="17.9841328909">
        <ele>128</ele>
        <time>2012-10-25T18:57:31Z</time>
      </trkpt>
      <trkpt lat="59.4000906095" lon="17.9844703462">
        <ele>128</ele>
        <time>2012-10-25T18:57:34Z</time>
      </trkpt>
      <trkpt lat="59.4001089659" lon="17.9845925543">
        <ele>128</ele>
        <time>2012-10-25T18:57:35Z</time>
      </trkpt>
      <trkpt lat="59.4001231313" lon="17.9847213003">
        <ele>128</ele>
        <time>2012-10-25T18:57:36Z</time>
      </trkpt>
      <trkpt lat="59.4001329381" lon="17.9848475317">
        <ele>127.6</ele>
        <time>2012-10-25T18:57:37Z</time>
      </trkpt>
      <trkpt lat="59.4001400627" lon="17.9849780379">
        <ele>126.8</ele>
        <time>2012-10-25T18:57:38Z</time>
      </trkpt>
      <trkpt lat="59.4001429964" lon="17.9851097176">
        <ele>126.2</ele>
        <time>2012-10-25T18:57:39Z</time>
      </trkpt>
      <trkpt lat="59.4001419067" lon="17.9852413134">
        <ele>125.8</ele>
        <time>2012-10-25T18:57:40Z</time>
      </trkpt>
      <trkpt lat="59.4001115643" lon="17.9856236957">
        <ele>125.8</ele>
        <time>2012-10-25T18:57:43Z</time>
      </trkpt>
      <trkpt lat="59.4000924535" lon="17.9857558782">
        <ele>125.8</ele>
        <time>2012-10-25T18:57:44Z</time>
      </trkpt>
      <trkpt lat="59.4000077125" lon="17.9866237402">
        <ele>125.8</ele>
        <time>2012-10-25T18:57:51Z</time>
      </trkpt>
      <trkpt lat="59.4000285834" lon="17.98699707">
        <ele>126.2</ele>
        <time>2012-10-25T18:57:54Z</time>
      </trkpt>
      <trkpt lat="59.4000414078" lon="17.9871199486">
        <ele>126.6</ele>
        <time>2012-10-25T18:57:55Z</time>
      </trkpt>
      <trkpt lat="59.4000623625" lon="17.9872418215">
        <ele>127</ele>
        <time>2012-10-25T18:57:56Z</time>
      </trkpt>
      <trkpt lat="59.4000824791" lon="17.9873625208">
        <ele>127.4</ele>
        <time>2012-10-25T18:57:57Z</time>
      </trkpt>
      <trkpt lat="59.4001000811" lon="17.987480538">
        <ele>127.8</ele>
        <time>2012-10-25T18:57:58Z</time>
      </trkpt>
      <trkpt lat="59.4001113966" lon="17.9876052606">
        <ele>127.8</ele>
        <time>2012-10-25T18:57:59Z</time>
      </trkpt>
      <trkpt lat="59.4001129054" lon="17.9879319033">
        <ele>127.8</ele>
        <time>2012-10-25T18:58:02Z</time>
      </trkpt>
      <trkpt lat="59.4001396436" lon="17.9880116152">
        <ele>127.8</ele>
        <time>2012-10-25T18:58:03Z</time>
      </trkpt>
      <trkpt lat="59.4002921942" lon="17.9880703723">
        <ele>127.8</ele>
        <time>2012-10-25T18:58:06Z</time>
      </trkpt>
      <trkpt lat="59.4003588303" lon="17.9880616551">
        <ele>127.8</ele>
        <time>2012-10-25T18:58:07Z</time>
      </trkpt>
      <trkpt lat="59.4004242091" lon="17.9880743956">
        <ele>127.8</ele>
        <time>2012-10-25T18:58:08Z</time>
      </trkpt>
      <trkpt lat="59.400555805" lon="17.9881467314">
        <ele>127.8</ele>
        <time>2012-10-25T18:58:10Z</time>
      </trkpt>
      <trkpt lat="59.401035082" lon="17.9884858631">
        <ele>127.8</ele>
        <time>2012-10-25T18:58:17Z</time>
      </trkpt>
      <trkpt lat="59.4013723697" lon="17.9887153595">
        <ele>127.8</ele>
        <time>2012-10-25T18:58:23Z</time>
      </trkpt>
      <trkpt lat="59.4015075697" lon="17.9885977614">
        <ele>127.8</ele>
        <time>2012-10-25T18:58:26Z</time>
      </trkpt>
      <trkpt lat="59.401608404" lon="17.9884081628">
        <ele>127.8</ele>
        <time>2012-10-25T18:58:28Z</time>
      </trkpt>
      <trkpt lat="59.4017540814" lon="17.9881369246">
        <ele>127.8</ele>
        <time>2012-10-25T18:58:31Z</time>
      </trkpt>
      <trkpt lat="59.401994139" lon="17.9876855593">
        <ele>127.8</ele>
        <time>2012-10-25T18:58:36Z</time>
      </trkpt>
      <trkpt lat="59.4020417482" lon="17.9875829648">
        <ele>128.4</ele>
        <time>2012-10-25T18:58:37Z</time>
      </trkpt>
      <trkpt lat="59.4020894412" lon="17.9874931946">
        <ele>128.8</ele>
        <time>2012-10-25T18:58:38Z</time>
      </trkpt>
      <trkpt lat="59.4021419957" lon="17.9874066934">
        <ele>129.4</ele>
        <time>2012-10-25T18:58:39Z</time>
      </trkpt>
      <trkpt lat="59.4021904431" lon="17.9873273168">
        <ele>129.8</ele>
        <time>2012-10-25T18:58:40Z</time>
      </trkpt>
      <trkpt lat="59.4022406507" lon="17.9872418215">
        <ele>130.2</ele>
        <time>2012-10-25T18:58:41Z</time>
      </trkpt>
      <trkpt lat="59.402414156" lon="17.9868480398">
        <ele>130.2</ele>
        <time>2012-10-25T18:58:45Z</time>
      </trkpt>
      <trkpt lat="59.4024496114" lon="17.9867432661">
        <ele>130.2</ele>
        <time>2012-10-25T18:58:46Z</time>
      </trkpt>
      <trkpt lat="59.4024781937" lon="17.9866278473">
        <ele>130.2</ele>
        <time>2012-10-25T18:58:47Z</time>
      </trkpt>
      <trkpt lat="59.4025898406" lon="17.986151923">
        <ele>130.2</ele>
        <time>2012-10-25T18:58:51Z</time>
      </trkpt>
      <trkpt lat="59.4027637651" lon="17.9853555587">
        <ele>130.2</ele>
        <time>2012-10-25T18:58:58Z</time>
      </trkpt>
      <trkpt lat="59.4029069279" lon="17.9845683306">
        <ele>130.2</ele>
        <time>2012-10-25T18:59:05Z</time>
      </trkpt>
      <trkpt lat="59.4029371027" lon="17.9842175481">
        <ele>130.8</ele>
        <time>2012-10-25T18:59:08Z</time>
      </trkpt>
      <trkpt lat="59.4029469096" lon="17.9841043087">
        <ele>131.2</ele>
        <time>2012-10-25T18:59:09Z</time>
      </trkpt>
      <trkpt lat="59.4029560458" lon="17.9839916559">
        <ele>131.6</ele>
        <time>2012-10-25T18:59:10Z</time>
      </trkpt>
      <trkpt lat="59.4029640925" lon="17.9838778297">
        <ele>132.2</ele>
        <time>2012-10-25T18:59:11Z</time>
      </trkpt>
      <trkpt lat="59.4029705465" lon="17.9837636682">
        <ele>132.6</ele>
        <time>2012-10-25T18:59:12Z</time>
      </trkpt>
      <trkpt lat="59.4029913336" lon="17.983402576">
        <ele>132.6</ele>
        <time>2012-10-25T18:59:15Z</time>
      </trkpt>
      <trkpt lat="59.4029987097" lon="17.9832820443">
        <ele>132.2</ele>
        <time>2012-10-25T18:59:16Z</time>
      </trkpt>
      <trkpt lat="59.4030062534" lon="17.9831624346">
        <ele>131.2</ele>
        <time>2012-10-25T18:59:17Z</time>
      </trkpt>
      <trkpt lat="59.4030131266" lon="17.9830424057">
        <ele>130.8</ele>
        <time>2012-10-25T18:59:18Z</time>
      </trkpt>
      <trkpt lat="59.4030210894" lon="17.9829233828">
        <ele>130.4</ele>
        <time>2012-10-25T18:59:19Z</time>
      </trkpt>
      <trkpt lat="59.4030475762" lon="17.9825697504">
        <ele>130.4</ele>
        <time>2012-10-25T18:59:22Z</time>
      </trkpt>
      <trkpt lat="59.4030764937" lon="17.9821015375">
        <ele>130.4</ele>
        <time>2012-10-25T18:59:26Z</time>
      </trkpt>
      <trkpt lat="59.4030646753" lon="17.9818567022">
        <ele>130.4</ele>
        <time>2012-10-25T18:59:28Z</time>
      </trkpt>
      <trkpt lat="59.4030525215" lon="17.9817282915">
        <ele>130.8</ele>
        <time>2012-10-25T18:59:29Z</time>
      </trkpt>
      <trkpt lat="59.4030386076" lon="17.981608095">
        <ele>131.4</ele>
        <time>2012-10-25T18:59:30Z</time>
      </trkpt>
      <trkpt lat="59.4030210056" lon="17.9815000523">
        <ele>131.8</ele>
        <time>2012-10-25T18:59:31Z</time>
      </trkpt>
      <trkpt lat="59.4030130428" lon="17.9813971226">
        <ele>132.4</ele>
        <time>2012-10-25T18:59:32Z</time>
      </trkpt>
      <trkpt lat="59.403015725" lon="17.9812899181">
        <ele>132.8</ele>
        <time>2012-10-25T18:59:33Z</time>
      </trkpt>
      <trkpt lat="59.4030358415" lon="17.9810721563">
        <ele>132.4</ele>
        <time>2012-10-25T18:59:35Z</time>
      </trkpt>
      <trkpt lat="59.4030434691" lon="17.980958833">
        <ele>131.8</ele>
        <time>2012-10-25T18:59:36Z</time>
      </trkpt>
      <trkpt lat="59.4030604843" lon="17.980844923">
        <ele>131.4</ele>
        <time>2012-10-25T18:59:37Z</time>
      </trkpt>
      <trkpt lat="59.4030814391" lon="17.9807477768">
        <ele>131</ele>
        <time>2012-10-25T18:59:38Z</time>
      </trkpt>
      <trkpt lat="59.4031075906" lon="17.9806663047">
        <ele>130.6</ele>
        <time>2012-10-25T18:59:39Z</time>
      </trkpt>
      <trkpt lat="59.4031902361" lon="17.9805699967">
        <ele>130.6</ele>
        <time>2012-10-25T18:59:41Z</time>
      </trkpt>
      <trkpt lat="59.403313953" lon="17.9804542427">
        <ele>130.6</ele>
        <time>2012-10-25T18:59:44Z</time>
      </trkpt>
      <trkpt lat="59.4033459718" lon="17.980407304">
        <ele>130.6</ele>
        <time>2012-10-25T18:59:45Z</time>
      </trkpt>
      <trkpt lat="59.4033851991" lon="17.9803547495">
        <ele>130.6</ele>
        <time>2012-10-25T18:59:46Z</time>
      </trkpt>
      <trkpt lat="59.4036560183" lon="17.9799352354">
        <ele>130.6</ele>
        <time>2012-10-25T18:59:53Z</time>
      </trkpt>
      <trkpt lat="59.4037995164" lon="17.9797678489">
        <ele>131</ele>
        <time>2012-10-25T18:59:56Z</time>
      </trkpt>
      <trkpt lat="59.4038439405" lon="17.9797142047">
        <ele>131.4</ele>
        <time>2012-10-25T18:59:57Z</time>
      </trkpt>
      <trkpt lat="59.4038905439" lon="17.9796805933">
        <ele>132</ele>
        <time>2012-10-25T18:59:58Z</time>
      </trkpt>
      <trkpt lat="59.4039528214" lon="17.9796550285">
        <ele>132.4</ele>
        <time>2012-10-25T18:59:59Z</time>
      </trkpt>
      <trkpt lat="59.4040130873" lon="17.9796071679">
        <ele>132.8</ele>
        <time>2012-10-25T19:00:00Z</time>
      </trkpt>
      <trkpt lat="59.4043700724" lon="17.9792472491">
        <ele>132.8</ele>
        <time>2012-10-25T19:00:07Z</time>
      </trkpt>
      <trkpt lat="59.4048190069" lon="17.9786655452">
        <ele>132.8</ele>
        <time>2012-10-25T19:00:16Z</time>
      </trkpt>
      <trkpt lat="59.4051257845" lon="17.9781675765">
        <ele>132.8</ele>
        <time>2012-10-25T19:00:23Z</time>
      </trkpt>
      <trkpt lat="59.4051575519" lon="17.9780686701">
        <ele>132.4</ele>
        <time>2012-10-25T19:00:24Z</time>
      </trkpt>
      <trkpt lat="59.4051854636" lon="17.9779708533">
        <ele>131.8</ele>
        <time>2012-10-25T19:00:25Z</time>
      </trkpt>
      <trkpt lat="59.4052098549" lon="17.9778721984">
        <ele>131.4</ele>
        <time>2012-10-25T19:00:26Z</time>
      </trkpt>
      <trkpt lat="59.4052308097" lon="17.9777670055">
        <ele>130.8</ele>
        <time>2012-10-25T19:00:27Z</time>
      </trkpt>
      <trkpt lat="59.4052538599" lon="17.9776536822">
        <ele>130.4</ele>
        <time>2012-10-25T19:00:28Z</time>
      </trkpt>
      <trkpt lat="59.4053330689" lon="17.9773073421">
        <ele>130.4</ele>
        <time>2012-10-25T19:00:31Z</time>
      </trkpt>
      <trkpt lat="59.405376068" lon="17.9772267083">
        <ele>130.4</ele>
        <time>2012-10-25T19:00:32Z</time>
      </trkpt>
      <trkpt lat="59.4055352403" lon="17.9770958668">
        <ele>130.4</ele>
        <time>2012-10-25T19:00:35Z</time>
      </trkpt>
      <trkpt lat="59.4055952547" lon="17.9770760855">
        <ele>130.4</ele>
        <time>2012-10-25T19:00:36Z</time>
      </trkpt>
      <trkpt lat="59.4058259246" lon="17.9769128899">
        <ele>130.4</ele>
        <time>2012-10-25T19:00:40Z</time>
      </trkpt>
      <trkpt lat="59.405877138" lon="17.9768481816">
        <ele>130.4</ele>
        <time>2012-10-25T19:00:41Z</time>
      </trkpt>
      <trkpt lat="59.4059246634" lon="17.976781797">
        <ele>130.8</ele>
        <time>2012-10-25T19:00:42Z</time>
      </trkpt>
      <trkpt lat="59.4059678301" lon="17.9767126463">
        <ele>131.2</ele>
        <time>2012-10-25T19:00:43Z</time>
      </trkpt>
      <trkpt lat="59.4060167804" lon="17.9766428251">
        <ele>131.6</ele>
        <time>2012-10-25T19:00:44Z</time>
      </trkpt>
      <trkpt lat="59.4060590252" lon="17.9765775301">
        <ele>132</ele>
        <time>2012-10-25T19:00:45Z</time>
      </trkpt>
      <trkpt lat="59.4060980011" lon="17.9765105587">
        <ele>132.4</ele>
        <time>2012-10-25T19:00:46Z</time>
      </trkpt>
      <trkpt lat="59.4062463607" lon="17.9762395719">
        <ele>132.4</ele>
        <time>2012-10-25T19:00:50Z</time>
      </trkpt>
      <trkpt lat="59.4062788825" lon="17.9761717623">
        <ele>132.4</ele>
        <time>2012-10-25T19:00:51Z</time>
      </trkpt>
      <trkpt lat="59.4064664694" lon="17.9758514061">
        <ele>132.8</ele>
        <time>2012-10-25T19:00:56Z</time>
      </trkpt>
      <trkpt lat="59.4065005837" lon="17.9757923137">
        <ele>133.2</ele>
        <time>2012-10-25T19:00:57Z</time>
      </trkpt>
      <trkpt lat="59.4065349495" lon="17.975736155">
        <ele>133.6</ele>
        <time>2012-10-25T19:00:58Z</time>
      </trkpt>
      <trkpt lat="59.4065733386" lon="17.9756817564">
        <ele>134</ele>
        <time>2012-10-25T19:00:59Z</time>
      </trkpt>
      <trkpt lat="59.4066095484" lon="17.9756275255">
        <ele>134.4</ele>
        <time>2012-10-25T19:01:00Z</time>
      </trkpt>
      <trkpt lat="59.406647267" lon="17.9755820957">
        <ele>134.4</ele>
        <time>2012-10-25T19:01:01Z</time>
      </trkpt>
      <trkpt lat="59.4066858237" lon="17.9755375039">
        <ele>135</ele>
        <time>2012-10-25T19:01:02Z</time>
      </trkpt>
      <trkpt lat="59.4067232908" lon="17.9754966841">
        <ele>135.4</ele>
        <time>2012-10-25T19:01:03Z</time>
      </trkpt>
      <trkpt lat="59.4067605064" lon="17.9754588817">
        <ele>135.8</ele>
        <time>2012-10-25T19:01:04Z</time>
      </trkpt>
      <trkpt lat="59.406799147" lon="17.9754237616">
        <ele>136.2</ele>
        <time>2012-10-25T19:01:05Z</time>
      </trkpt>
      <trkpt lat="59.4068394639" lon="17.9753909045">
        <ele>136.8</ele>
        <time>2012-10-25T19:01:06Z</time>
      </trkpt>
      <trkpt lat="59.4070998057" lon="17.9752092687">
        <ele>136.8</ele>
        <time>2012-10-25T19:01:12Z</time>
      </trkpt>
      <trkpt lat="59.4074341597" lon="17.9751119549">
        <ele>136.8</ele>
        <time>2012-10-25T19:01:19Z</time>
      </trkpt>
      <trkpt lat="59.4074870495" lon="17.9750987115">
        <ele>137.2</ele>
        <time>2012-10-25T19:01:20Z</time>
      </trkpt>
      <trkpt lat="59.4075406099" lon="17.9750788464">
        <ele>137.6</ele>
        <time>2012-10-25T19:01:21Z</time>
      </trkpt>
      <trkpt lat="59.4075907336" lon="17.9750582269">
        <ele>138.2</ele>
        <time>2012-10-25T19:01:22Z</time>
      </trkpt>
      <trkpt lat="59.4076459703" lon="17.9750400382">
        <ele>138.6</ele>
        <time>2012-10-25T19:01:23Z</time>
      </trkpt>
      <trkpt lat="59.4076959265" lon="17.9750199216">
        <ele>139</ele>
        <time>2012-10-25T19:01:24Z</time>
      </trkpt>
      <trkpt lat="59.4077452959" lon="17.9749960332">
        <ele>139</ele>
        <time>2012-10-25T19:01:25Z</time>
      </trkpt>
      <trkpt lat="59.4081405024" lon="17.9747383736">
        <ele>139</ele>
        <time>2012-10-25T19:01:33Z</time>
      </trkpt>
      <trkpt lat="59.4083215515" lon="17.9745460928">
        <ele>139</ele>
        <time>2012-10-25T19:01:37Z</time>
      </trkpt>
      <trkpt lat="59.4084124951" lon="17.97442883">
        <ele>139</ele>
        <time>2012-10-25T19:01:39Z</time>
      </trkpt>
      <trkpt lat="59.4086242219" lon="17.9741346253">
        <ele>139</ele>
        <time>2012-10-25T19:01:44Z</time>
      </trkpt>
      <trkpt lat="59.4087462624" lon="17.9739415902">
        <ele>139</ele>
        <time>2012-10-25T19:01:48Z</time>
      </trkpt>
      <trkpt lat="59.4087809634" lon="17.9738762114">
        <ele>139.6</ele>
        <time>2012-10-25T19:01:49Z</time>
      </trkpt>
      <trkpt lat="59.4088263095" lon="17.9738182924">
        <ele>140</ele>
        <time>2012-10-25T19:01:50Z</time>
      </trkpt>
      <trkpt lat="59.4088711527" lon="17.9737557635">
        <ele>140.4</ele>
        <time>2012-10-25T19:01:51Z</time>
      </trkpt>
      <trkpt lat="59.4089082007" lon="17.9736806616">
        <ele>140.8</ele>
        <time>2012-10-25T19:01:52Z</time>
      </trkpt>
      <trkpt lat="59.4089475118" lon="17.9736033805">
        <ele>141.4</ele>
        <time>2012-10-25T19:01:53Z</time>
      </trkpt>
      <trkpt lat="59.409202573" lon="17.9730634185">
        <ele>141.4</ele>
        <time>2012-10-25T19:02:00Z</time>
      </trkpt>
      <trkpt lat="59.4092705502" lon="17.9729060903">
        <ele>141.4</ele>
        <time>2012-10-25T19:02:02Z</time>
      </trkpt>
      <trkpt lat="59.409429471" lon="17.9725135659">
        <ele>141.4</ele>
        <time>2012-10-25T19:02:07Z</time>
      </trkpt>
      <trkpt lat="59.4096151301" lon="17.9720735999">
        <ele>141.4</ele>
        <time>2012-10-25T19:02:13Z</time>
      </trkpt>
      <trkpt lat="59.4096618173" lon="17.9719104882">
        <ele>141.4</ele>
        <time>2012-10-25T19:02:17Z</time>
      </trkpt>
      <trkpt lat="59.4097348236" lon="17.9716966659">
        <ele>141.4</ele>
        <time>2012-10-25T19:02:20Z</time>
      </trkpt>
      <trkpt lat="59.4098018788" lon="17.9715108392">
        <ele>141.8</ele>
        <time>2012-10-25T19:02:22Z</time>
      </trkpt>
      <trkpt lat="59.4098317184" lon="17.9714157884">
        <ele>142.2</ele>
        <time>2012-10-25T19:02:23Z</time>
      </trkpt>
      <trkpt lat="59.4098628991" lon="17.9713207377">
        <ele>142.6</ele>
        <time>2012-10-25T19:02:24Z</time>
      </trkpt>
      <trkpt lat="59.4098944988" lon="17.9712237591">
        <ele>143</ele>
        <time>2012-10-25T19:02:25Z</time>
      </trkpt>
      <trkpt lat="59.4099265177" lon="17.9711344081">
        <ele>143.4</ele>
        <time>2012-10-25T19:02:26Z</time>
      </trkpt>
      <trkpt lat="59.4101079858" lon="17.9706156523">
        <ele>143.4</ele>
        <time>2012-10-25T19:02:32Z</time>
      </trkpt>
      <trkpt lat="59.4102446946" lon="17.9702010835">
        <ele>143.8</ele>
        <time>2012-10-25T19:02:37Z</time>
      </trkpt>
      <trkpt lat="59.4102534956" lon="17.9701060327">
        <ele>144.4</ele>
        <time>2012-10-25T19:02:38Z</time>
      </trkpt>
      <trkpt lat="59.4102471254" lon="17.9700086351">
        <ele>144.8</ele>
        <time>2012-10-25T19:02:39Z</time>
      </trkpt>
      <trkpt lat="59.4102291881" lon="17.9699116565">
        <ele>145.2</ele>
        <time>2012-10-25T19:02:40Z</time>
      </trkpt>
      <trkpt lat="59.410202366" lon="17.9698148455">
        <ele>145.6</ele>
        <time>2012-10-25T19:02:41Z</time>
      </trkpt>
      <trkpt lat="59.4101747058" lon="17.9697202977">
        <ele>145.6</ele>
        <time>2012-10-25T19:02:42Z</time>
      </trkpt>
      <trkpt lat="59.4101063933" lon="17.9693995224">
        <ele>145.6</ele>
        <time>2012-10-25T19:02:45Z</time>
      </trkpt>
      <trkpt lat="59.4101007774" lon="17.9692824272">
        <ele>145.6</ele>
        <time>2012-10-25T19:02:46Z</time>
      </trkpt>
      <trkpt lat="59.4101533319" lon="17.9689292978">
        <ele>145.6</ele>
        <time>2012-10-25T19:02:49Z</time>
      </trkpt>
      <trkpt lat="59.4103399968" lon="17.968593938">
        <ele>145.6</ele>
        <time>2012-10-25T19:02:53Z</time>
      </trkpt>
      <trkpt lat="59.4104396576" lon="17.9684195106">
        <ele>145.6</ele>
        <time>2012-10-25T19:02:55Z</time>
      </trkpt>
      <trkpt lat="59.4105292601" lon="17.9682227036">
        <ele>145.6</ele>
        <time>2012-10-25T19:02:57Z</time>
      </trkpt>
      <trkpt lat="59.4105586806" lon="17.9681081231">
        <ele>145.6</ele>
        <time>2012-10-25T19:02:58Z</time>
      </trkpt>
      <trkpt lat="59.41057469" lon="17.9675824103">
        <ele>145.6</ele>
        <time>2012-10-25T19:03:02Z</time>
      </trkpt>
      <trkpt lat="59.4105132507" lon="17.9671986031">
        <ele>145.6</ele>
        <time>2012-10-25T19:03:05Z</time>
      </trkpt>
      <trkpt lat="59.4104716765" lon="17.9669536002">
        <ele>145.6</ele>
        <time>2012-10-25T19:03:07Z</time>
      </trkpt>
      <trkpt lat="59.4104166912" lon="17.9666958567">
        <ele>145.6</ele>
        <time>2012-10-25T19:03:09Z</time>
      </trkpt>
      <trkpt lat="59.4103402483" lon="17.9663112952">
        <ele>145.2</ele>
        <time>2012-10-25T19:03:12Z</time>
      </trkpt>
      <trkpt lat="59.4103162761" lon="17.9661896738">
        <ele>144.8</ele>
        <time>2012-10-25T19:03:13Z</time>
      </trkpt>
      <trkpt lat="59.4102907951" lon="17.9660653702">
        <ele>144.2</ele>
        <time>2012-10-25T19:03:14Z</time>
      </trkpt>
      <trkpt lat="59.4102648112" lon="17.9659356184">
        <ele>143.8</ele>
        <time>2012-10-25T19:03:15Z</time>
      </trkpt>
      <trkpt lat="59.410240336" lon="17.965803352">
        <ele>143.4</ele>
        <time>2012-10-25T19:03:16Z</time>
      </trkpt>
      <trkpt lat="59.4101617138" lon="17.9653902082">
        <ele>143</ele>
        <time>2012-10-25T19:03:19Z</time>
      </trkpt>
      <trkpt lat="59.4101354785" lon="17.965255511">
        <ele>142.6</ele>
        <time>2012-10-25T19:03:20Z</time>
      </trkpt>
      <trkpt lat="59.4101084049" lon="17.9651165391">
        <ele>142.2</ele>
        <time>2012-10-25T19:03:21Z</time>
      </trkpt>
      <trkpt lat="59.4100823372" lon="17.9649830993">
        <ele>141.8</ele>
        <time>2012-10-25T19:03:22Z</time>
      </trkpt>
      <trkpt lat="59.4100595385" lon="17.9648450494">
        <ele>141.4</ele>
        <time>2012-10-25T19:03:23Z</time>
      </trkpt>
      <trkpt lat="59.4100067325" lon="17.9645835341">
        <ele>141</ele>
        <time>2012-10-25T19:03:25Z</time>
      </trkpt>
      <trkpt lat="59.4099781502" lon="17.9644489208">
        <ele>140.6</ele>
        <time>2012-10-25T19:03:26Z</time>
      </trkpt>
      <trkpt lat="59.4099542618" lon="17.9643158162">
        <ele>140.2</ele>
        <time>2012-10-25T19:03:27Z</time>
      </trkpt>
      <trkpt lat="59.4099304572" lon="17.9641830469">
        <ele>139.6</ele>
        <time>2012-10-25T19:03:28Z</time>
      </trkpt>
      <trkpt lat="59.4099062335" lon="17.9640503615">
        <ele>139.2</ele>
        <time>2012-10-25T19:03:29Z</time>
      </trkpt>
      <trkpt lat="59.4096913216" lon="17.963103542">
        <ele>138.8</ele>
        <time>2012-10-25T19:03:36Z</time>
      </trkpt>
      <trkpt lat="59.4096553632" lon="17.9629677552">
        <ele>138.4</ele>
        <time>2012-10-25T19:03:37Z</time>
      </trkpt>
      <trkpt lat="59.409616555" lon="17.9628370814">
        <ele>138</ele>
        <time>2012-10-25T19:03:38Z</time>
      </trkpt>
      <trkpt lat="59.4095765734" lon="17.962708084">
        <ele>137.4</ele>
        <time>2012-10-25T19:03:39Z</time>
      </trkpt>
      <trkpt lat="59.409533239" lon="17.9625743927">
        <ele>137</ele>
        <time>2012-10-25T19:03:40Z</time>
      </trkpt>
      <trkpt lat="59.4094535271" lon="17.9623032382">
        <ele>136.6</ele>
        <time>2012-10-25T19:03:42Z</time>
      </trkpt>
      <trkpt lat="59.4094158085" lon="17.9621744084">
        <ele>136.2</ele>
        <time>2012-10-25T19:03:43Z</time>
      </trkpt>
      <trkpt lat="59.4093795987" lon="17.9620339278">
        <ele>135.6</ele>
        <time>2012-10-25T19:03:44Z</time>
      </trkpt>
      <trkpt lat="59.4093468255" lon="17.9619007394">
        <ele>135</ele>
        <time>2012-10-25T19:03:45Z</time>
      </trkpt>
      <trkpt lat="59.4093138846" lon="17.9617643659">
        <ele>134.4</ele>
        <time>2012-10-25T19:03:46Z</time>
      </trkpt>
      <trkpt lat="59.4092682033" lon="17.9616449238">
        <ele>133.8</ele>
        <time>2012-10-25T19:03:47Z</time>
      </trkpt>
      <trkpt lat="59.4092045847" lon="17.9615533934">
        <ele>133.2</ele>
        <time>2012-10-25T19:03:48Z</time>
      </trkpt>
      <trkpt lat="59.409133087" lon="17.9615180218">
        <ele>132.6</ele>
        <time>2012-10-25T19:03:49Z</time>
      </trkpt>
      <trkpt lat="59.4090608351" lon="17.9615027668">
        <ele>132.6</ele>
        <time>2012-10-25T19:03:50Z</time>
      </trkpt>
      <trkpt lat="59.4089093741" lon="17.9614863382">
        <ele>132.6</ele>
        <time>2012-10-25T19:03:52Z</time>
      </trkpt>
      <trkpt lat="59.4087641996" lon="17.9614508828">
        <ele>132.6</ele>
        <time>2012-10-25T19:03:54Z</time>
      </trkpt>
      <trkpt lat="59.4087006648" lon="17.9613814807">
        <ele>132.6</ele>
        <time>2012-10-25T19:03:55Z</time>
      </trkpt>
      <trkpt lat="59.4086443385" lon="17.9612913752">
        <ele>133</ele>
        <time>2012-10-25T19:03:56Z</time>
      </trkpt>
      <trkpt lat="59.4085899399" lon="17.9611973303">
        <ele>133.4</ele>
        <time>2012-10-25T19:03:57Z</time>
      </trkpt>
      <trkpt lat="59.4085326077" lon="17.9610871083">
        <ele>133.8</ele>
        <time>2012-10-25T19:03:58Z</time>
      </trkpt>
      <trkpt lat="59.4084766166" lon="17.960971019">
        <ele>134.2</ele>
        <time>2012-10-25T19:03:59Z</time>
      </trkpt>
      <trkpt lat="59.4084240621" lon="17.9608532533">
        <ele>134.6</ele>
        <time>2012-10-25T19:04:00Z</time>
      </trkpt>
      <trkpt lat="59.4083710885" lon="17.9607456297">
        <ele>135</ele>
        <time>2012-10-25T19:04:01Z</time>
      </trkpt>
      <trkpt lat="59.4083196237" lon="17.9606462204">
        <ele>135.4</ele>
        <time>2012-10-25T19:04:02Z</time>
      </trkpt>
      <trkpt lat="59.4082663148" lon="17.9605476493">
        <ele>136</ele>
        <time>2012-10-25T19:04:03Z</time>
      </trkpt>
      <trkpt lat="59.408219879" lon="17.9604527662">
        <ele>136.4</ele>
        <time>2012-10-25T19:04:04Z</time>
      </trkpt>
      <trkpt lat="59.4081812385" lon="17.9603474895">
        <ele>136.8</ele>
        <time>2012-10-25T19:04:05Z</time>
      </trkpt>
      <trkpt lat="59.4081770475" lon="17.9600861418">
        <ele>136.8</ele>
        <time>2012-10-25T19:04:07Z</time>
      </trkpt>
      <trkpt lat="59.4082456953" lon="17.9597922724">
        <ele>136.8</ele>
        <time>2012-10-25T19:04:10Z</time>
      </trkpt>
      <trkpt lat="59.4083014349" lon="17.9596661248">
        <ele>136.4</ele>
        <time>2012-10-25T19:04:12Z</time>
      </trkpt>
      <trkpt lat="59.408327335" lon="17.9595974771">
        <ele>135.4</ele>
        <time>2012-10-25T19:04:13Z</time>
      </trkpt>
      <trkpt lat="59.408348625" lon="17.9595255604">
        <ele>135</ele>
        <time>2012-10-25T19:04:14Z</time>
      </trkpt>
      <trkpt lat="59.4083589348" lon="17.9594453456">
        <ele>134.6</ele>
        <time>2012-10-25T19:04:15Z</time>
      </trkpt>
      <trkpt lat="59.408368071" lon="17.9592430065">
        <ele>134.6</ele>
        <time>2012-10-25T19:04:19Z</time>
      </trkpt>
      <trkpt lat="59.4083984135" lon="17.9592456049">
        <ele>134.6</ele>
        <time>2012-10-25T19:04:21Z</time>
      </trkpt>
      <trkpt lat="59.4084143391" lon="17.9592596027">
        <ele>134.6</ele>
        <time>2012-10-25T19:04:22Z</time>
      </trkpt>
      <trkpt lat="59.4085087193" lon="17.9592327806">
        <ele>134.6</ele>
        <time>2012-10-25T19:04:25Z</time>
      </trkpt>
      <trkpt lat="59.4086129063" lon="17.9590008534">
        <ele>134.6</ele>
        <time>2012-10-25T19:04:28Z</time>
      </trkpt>
      <trkpt lat="59.4086540615" lon="17.9589005221">
        <ele>134.6</ele>
        <time>2012-10-25T19:04:29Z</time>
      </trkpt>
      <trkpt lat="59.408863609" lon="17.958386544">
        <ele>134.6</ele>
        <time>2012-10-25T19:04:34Z</time>
      </trkpt>
      <trkpt lat="59.4090181712" lon="17.957979938">
        <ele>134.6</ele>
        <time>2012-10-25T19:04:38Z</time>
      </trkpt>
      <trkpt lat="59.4091177482" lon="17.9576950372">
        <ele>134.6</ele>
        <time>2012-10-25T19:04:41Z</time>
      </trkpt>
      <trkpt lat="59.4093499268" lon="17.9572140838">
        <ele>134.6</ele>
        <time>2012-10-25T19:04:46Z</time>
      </trkpt>
      <trkpt lat="59.4094538624" lon="17.9570161033">
        <ele>134.6</ele>
        <time>2012-10-25T19:04:48Z</time>
      </trkpt>
      <trkpt lat="59.4095664313" lon="17.9568767123">
        <ele>134.6</ele>
        <time>2012-10-25T19:04:50Z</time>
      </trkpt>
      <trkpt lat="59.4097724584" lon="17.9568394129">
        <ele>134.6</ele>
        <time>2012-10-25T19:04:53Z</time>
      </trkpt>
      <trkpt lat="59.4099049762" lon="17.9568984215">
        <ele>134.6</ele>
        <time>2012-10-25T19:04:55Z</time>
      </trkpt>
      <trkpt lat="59.4101001068" lon="17.9569989204">
        <ele>134.6</ele>
        <time>2012-10-25T19:04:58Z</time>
      </trkpt>
      <trkpt lat="59.4104373107" lon="17.9572854976">
        <ele>134.6</ele>
        <time>2012-10-25T19:05:04Z</time>
      </trkpt>
      <trkpt lat="59.4104827406" lon="17.9575253876">
        <ele>134.6</ele>
        <time>2012-10-25T19:05:06Z</time>
      </trkpt>
      <trkpt lat="59.4105220517" lon="17.9578040019">
        <ele>134.6</ele>
        <time>2012-10-25T19:05:08Z</time>
      </trkpt>
      <trkpt lat="59.4105928788" lon="17.958049424">
        <ele>134.6</ele>
        <time>2012-10-25T19:05:10Z</time>
      </trkpt>
      <trkpt lat="59.4106473611" lon="17.9582796748">
        <ele>134.6</ele>
        <time>2012-10-25T19:05:12Z</time>
      </trkpt>
      <trkpt lat="59.410720116" lon="17.9586294514">
        <ele>134.6</ele>
        <time>2012-10-25T19:05:15Z</time>
      </trkpt>
      <trkpt lat="59.410779376" lon="17.9589469578">
        <ele>134.6</ele>
        <time>2012-10-25T19:05:18Z</time>
      </trkpt>
      <trkpt lat="59.4108538073" lon="17.9590579342">
        <ele>134.6</ele>
        <time>2012-10-25T19:05:20Z</time>
      </trkpt>
      <trkpt lat="59.4110320903" lon="17.9590869355">
        <ele>134.6</ele>
        <time>2012-10-25T19:05:24Z</time>
      </trkpt>
      <trkpt lat="59.4111621774" lon="17.959003368">
        <ele>134.6</ele>
        <time>2012-10-25T19:05:26Z</time>
      </trkpt>
      <trkpt lat="59.4112939409" lon="17.9589497238">
        <ele>134.6</ele>
        <time>2012-10-25T19:05:28Z</time>
      </trkpt>
      <trkpt lat="59.4114279674" lon="17.9588976722">
        <ele>134.6</ele>
        <time>2012-10-25T19:05:30Z</time>
      </trkpt>
      <trkpt lat="59.4116222599" lon="17.9587129352">
        <ele>134.6</ele>
        <time>2012-10-25T19:05:33Z</time>
      </trkpt>
      <trkpt lat="59.411764836" lon="17.9585781542">
        <ele>135.2</ele>
        <time>2012-10-25T19:05:35Z</time>
      </trkpt>
      <trkpt lat="59.4118307177" lon="17.9585054831">
        <ele>135.8</ele>
        <time>2012-10-25T19:05:36Z</time>
      </trkpt>
      <trkpt lat="59.4118876308" lon="17.9584253522">
        <ele>136.2</ele>
        <time>2012-10-25T19:05:37Z</time>
      </trkpt>
      <trkpt lat="59.4119438734" lon="17.958337929">
        <ele>136.8</ele>
        <time>2012-10-25T19:05:38Z</time>
      </trkpt>
      <trkpt lat="59.4120016247" lon="17.9582490808">
        <ele>137.4</ele>
        <time>2012-10-25T19:05:39Z</time>
      </trkpt>
      <trkpt lat="59.4123505632" lon="17.9576919359">
        <ele>137.4</ele>
        <time>2012-10-25T19:05:45Z</time>
      </trkpt>
      <trkpt lat="59.4126318597" lon="17.9571515548">
        <ele>137.4</ele>
        <time>2012-10-25T19:05:50Z</time>
      </trkpt>
      <trkpt lat="59.412866972" lon="17.9567084876">
        <ele>137</ele>
        <time>2012-10-25T19:05:54Z</time>
      </trkpt>
      <trkpt lat="59.4129280761" lon="17.9566069828">
        <ele>136.6</ele>
        <time>2012-10-25T19:05:55Z</time>
      </trkpt>
      <trkpt lat="59.4129874199" lon="17.9565057294">
        <ele>136.2</ele>
        <time>2012-10-25T19:05:56Z</time>
      </trkpt>
      <trkpt lat="59.4130475182" lon="17.956405901">
        <ele>135.8</ele>
        <time>2012-10-25T19:05:57Z</time>
      </trkpt>
      <trkpt lat="59.4131092089" lon="17.9563096768">
        <ele>135.2</ele>
        <time>2012-10-25T19:05:58Z</time>
      </trkpt>
      <trkpt lat="59.4133531222" lon="17.9559809387">
        <ele>135.2</ele>
        <time>2012-10-25T19:06:02Z</time>
      </trkpt>
      <trkpt lat="59.4137842872" lon="17.9554423178">
        <ele>134.8</ele>
        <time>2012-10-25T19:06:09Z</time>
      </trkpt>
      <trkpt lat="59.4138402783" lon="17.9553700658">
        <ele>134.4</ele>
        <time>2012-10-25T19:06:10Z</time>
      </trkpt>
      <trkpt lat="59.4138978619" lon="17.9553025915">
        <ele>133.8</ele>
        <time>2012-10-25T19:06:11Z</time>
      </trkpt>
      <trkpt lat="59.4139572896" lon="17.9552357878">
        <ele>133.4</ele>
        <time>2012-10-25T19:06:12Z</time>
      </trkpt>
      <trkpt lat="59.4140156276" lon="17.9551656313">
        <ele>133</ele>
        <time>2012-10-25T19:06:13Z</time>
      </trkpt>
      <trkpt lat="59.4141790747" lon="17.9549515575">
        <ele>133</ele>
        <time>2012-10-25T19:06:16Z</time>
      </trkpt>
      <trkpt lat="59.4142882908" lon="17.9547980011">
        <ele>132.6</ele>
        <time>2012-10-25T19:06:18Z</time>
      </trkpt>
      <trkpt lat="59.4143390851" lon="17.9547122543">
        <ele>132.2</ele>
        <time>2012-10-25T19:06:19Z</time>
      </trkpt>
      <trkpt lat="59.4143864429" lon="17.9546223165">
        <ele>131.6</ele>
        <time>2012-10-25T19:06:20Z</time>
      </trkpt>
      <trkpt lat="59.4144281847" lon="17.9545410121">
        <ele>131.2</ele>
        <time>2012-10-25T19:06:21Z</time>
      </trkpt>
      <trkpt lat="59.414460958" lon="17.9544893796">
        <ele>130.8</ele>
        <time>2012-10-25T19:06:22Z</time>
      </trkpt>
      <trkpt lat="59.4145273426" lon="17.9544320474">
        <ele>130.4</ele>
        <time>2012-10-25T19:06:24Z</time>
      </trkpt>
      <trkpt lat="59.4145643906" lon="17.9543903055">
        <ele>130</ele>
        <time>2012-10-25T19:06:25Z</time>
      </trkpt>
      <trkpt lat="59.4145937273" lon="17.9543167124">
        <ele>129.4</ele>
        <time>2012-10-25T19:06:26Z</time>
      </trkpt>
      <trkpt lat="59.4146233992" lon="17.9542338993">
        <ele>129</ele>
        <time>2012-10-25T19:06:27Z</time>
      </trkpt>
      <trkpt lat="59.4146565915" lon="17.9541449673">
        <ele>128.6</ele>
        <time>2012-10-25T19:06:28Z</time>
      </trkpt>
      <trkpt lat="59.4148212958" lon="17.9536879861">
        <ele>128.6</ele>
        <time>2012-10-25T19:06:33Z</time>
      </trkpt>
      <trkpt lat="59.4149756904" lon="17.953344412">
        <ele>129</ele>
        <time>2012-10-25T19:06:37Z</time>
      </trkpt>
      <trkpt lat="59.4150225453" lon="17.9532598387">
        <ele>129.4</ele>
        <time>2012-10-25T19:06:38Z</time>
      </trkpt>
      <trkpt lat="59.4150719147" lon="17.9531761035">
        <ele>130</ele>
        <time>2012-10-25T19:06:39Z</time>
      </trkpt>
      <trkpt lat="59.4151196915" lon="17.9531069528">
        <ele>130.4</ele>
        <time>2012-10-25T19:06:40Z</time>
      </trkpt>
      <trkpt lat="59.4151736709" lon="17.9530460164">
        <ele>130.8</ele>
        <time>2012-10-25T19:06:41Z</time>
      </trkpt>
      <trkpt lat="59.4152331824" lon="17.9529952221">
        <ele>130.8</ele>
        <time>2012-10-25T19:06:42Z</time>
      </trkpt>
      <trkpt lat="59.4152972201" lon="17.9529609401">
        <ele>131.2</ele>
        <time>2012-10-25T19:06:43Z</time>
      </trkpt>
      <trkpt lat="59.4153577374" lon="17.9529237245">
        <ele>131.6</ele>
        <time>2012-10-25T19:06:44Z</time>
      </trkpt>
      <trkpt lat="59.4154180871" lon="17.9528922085">
        <ele>132</ele>
        <time>2012-10-25T19:06:45Z</time>
      </trkpt>
      <trkpt lat="59.4154781853" lon="17.9528663923">
        <ele>132.4</ele>
        <time>2012-10-25T19:06:46Z</time>
      </trkpt>
      <trkpt lat="59.4155346794" lon="17.9528443479">
        <ele>132.8</ele>
        <time>2012-10-25T19:06:47Z</time>
      </trkpt>
      <trkpt lat="59.4156526127" lon="17.9527749458">
        <ele>132.8</ele>
        <time>2012-10-25T19:06:49Z</time>
      </trkpt>
      <trkpt lat="59.4159074224" lon="17.9526814876">
        <ele>132.8</ele>
        <time>2012-10-25T19:06:53Z</time>
      </trkpt>
      <trkpt lat="59.4159698676" lon="17.9526968264">
        <ele>132.8</ele>
        <time>2012-10-25T19:06:54Z</time>
      </trkpt>
      <trkpt lat="59.4163005336" lon="17.9527643846">
        <ele>132.8</ele>
        <time>2012-10-25T19:06:59Z</time>
      </trkpt>
      <trkpt lat="59.4163655771" lon="17.9527504706">
        <ele>133.2</ele>
        <time>2012-10-25T19:07:00Z</time>
      </trkpt>
      <trkpt lat="59.4164274355" lon="17.9527149313">
        <ele>133.6</ele>
        <time>2012-10-25T19:07:01Z</time>
      </trkpt>
      <trkpt lat="59.4164883719" lon="17.9526727704">
        <ele>134</ele>
        <time>2012-10-25T19:07:02Z</time>
      </trkpt>
      <trkpt lat="59.4165447821" lon="17.9526254127">
        <ele>134.4</ele>
        <time>2012-10-25T19:07:03Z</time>
      </trkpt>
      <trkpt lat="59.4166006056" lon="17.9525745345">
        <ele>135</ele>
        <time>2012-10-25T19:07:04Z</time>
      </trkpt>
      <trkpt lat="59.4166584407" lon="17.9524906317">
        <ele>135</ele>
        <time>2012-10-25T19:07:05Z</time>
      </trkpt>
      <trkpt lat="59.4167176169" lon="17.9524006939">
        <ele>134</ele>
        <time>2012-10-25T19:07:06Z</time>
      </trkpt>
      <trkpt lat="59.4167635497" lon="17.9523167073">
        <ele>133.6</ele>
        <time>2012-10-25T19:07:07Z</time>
      </trkpt>
      <trkpt lat="59.4168130029" lon="17.952228865">
        <ele>133.2</ele>
        <time>2012-10-25T19:07:08Z</time>
      </trkpt>
      <trkpt lat="59.4168573432" lon="17.952145046">
        <ele>132.8</ele>
        <time>2012-10-25T19:07:09Z</time>
      </trkpt>
      <trkpt lat="59.4168996718" lon="17.9520692736">
        <ele>133.2</ele>
        <time>2012-10-25T19:07:10Z</time>
      </trkpt>
      <trkpt lat="59.4169460237" lon="17.9519981113">
        <ele>133.6</ele>
        <time>2012-10-25T19:07:11Z</time>
      </trkpt>
      <trkpt lat="59.4169939681" lon="17.9519239314">
        <ele>134.2</ele>
        <time>2012-10-25T19:07:12Z</time>
      </trkpt>
      <trkpt lat="59.4170378893" lon="17.9518474885">
        <ele>134.6</ele>
        <time>2012-10-25T19:07:13Z</time>
      </trkpt>
      <trkpt lat="59.4170831516" lon="17.9517668546">
        <ele>135</ele>
        <time>2012-10-25T19:07:14Z</time>
      </trkpt>
      <trkpt lat="59.4173739197" lon="17.9512528765">
        <ele>135</ele>
        <time>2012-10-25T19:07:21Z</time>
      </trkpt>
      <trkpt lat="59.4176329204" lon="17.9506211327">
        <ele>135</ele>
        <time>2012-10-25T19:07:28Z</time>
      </trkpt>
      <trkpt lat="59.4179007221" lon="17.9501072384">
        <ele>135</ele>
        <time>2012-10-25T19:07:33Z</time>
      </trkpt>
      <trkpt lat="59.4180323179" lon="17.9499110182">
        <ele>134.6</ele>
        <time>2012-10-25T19:07:35Z</time>
      </trkpt>
      <trkpt lat="59.4181030612" lon="17.9498161351">
        <ele>134</ele>
        <time>2012-10-25T19:07:36Z</time>
      </trkpt>
      <trkpt lat="59.4181784983" lon="17.9497208328">
        <ele>133.4</ele>
        <time>2012-10-25T19:07:37Z</time>
      </trkpt>
      <trkpt lat="59.4182479842" lon="17.949630476">
        <ele>133</ele>
        <time>2012-10-25T19:07:38Z</time>
      </trkpt>
      <trkpt lat="59.41830364" lon="17.9495516023">
        <ele>132.4</ele>
        <time>2012-10-25T19:07:39Z</time>
      </trkpt>
      <trkpt lat="59.4183435379" lon="17.9494826193">
        <ele>131.8</ele>
        <time>2012-10-25T19:07:40Z</time>
      </trkpt>
      <trkpt lat="59.418367091" lon="17.9494125466">
        <ele>131.4</ele>
        <time>2012-10-25T19:07:41Z</time>
      </trkpt>
      <trkpt lat="59.4183834357" lon="17.9493128858">
        <ele>130.6</ele>
        <time>2012-10-25T19:07:42Z</time>
      </trkpt>
      <trkpt lat="59.4183858665" lon="17.9492004007">
        <ele>129.8</ele>
        <time>2012-10-25T19:07:43Z</time>
      </trkpt>
      <trkpt lat="59.4183849444" lon="17.9490856525">
        <ele>129</ele>
        <time>2012-10-25T19:07:44Z</time>
      </trkpt>
      <trkpt lat="59.4183807535" lon="17.9489627738">
        <ele>128</ele>
        <time>2012-10-25T19:07:45Z</time>
      </trkpt>
      <trkpt lat="59.4183682645" lon="17.9488180184">
        <ele>127.2</ele>
        <time>2012-10-25T19:07:46Z</time>
      </trkpt>
      <trkpt lat="59.4183569489" lon="17.9486841595">
        <ele>127.2</ele>
        <time>2012-10-25T19:07:47Z</time>
      </trkpt>
      <trkpt lat="59.4183367485" lon="17.9483964088">
        <ele>127.2</ele>
        <time>2012-10-25T19:07:49Z</time>
      </trkpt>
      <trkpt lat="59.4182599703" lon="17.9472675345">
        <ele>127.2</ele>
        <time>2012-10-25T19:07:56Z</time>
      </trkpt>
      <trkpt lat="59.4182444638" lon="17.947106183">
        <ele>126.4</ele>
        <time>2012-10-25T19:07:57Z</time>
      </trkpt>
      <trkpt lat="59.4182188152" lon="17.9469489385">
        <ele>126</ele>
        <time>2012-10-25T19:07:58Z</time>
      </trkpt>
      <trkpt lat="59.4181900653" lon="17.9467950468">
        <ele>125.6</ele>
        <time>2012-10-25T19:07:59Z</time>
      </trkpt>
      <trkpt lat="59.4181592199" lon="17.9466436697">
        <ele>125.2</ele>
        <time>2012-10-25T19:08:00Z</time>
      </trkpt>
      <trkpt lat="59.4181278716" lon="17.9464920411">
        <ele>125.2</ele>
        <time>2012-10-25T19:08:01Z</time>
      </trkpt>
      <trkpt lat="59.417956797" lon="17.9455881371">
        <ele>125.2</ele>
        <time>2012-10-25T19:08:07Z</time>
      </trkpt>
      <trkpt lat="59.4179441403" lon="17.9454339939">
        <ele>125.2</ele>
        <time>2012-10-25T19:08:08Z</time>
      </trkpt>
      <trkpt lat="59.4179359261" lon="17.9449677926">
        <ele>124.6</ele>
        <time>2012-10-25T19:08:11Z</time>
      </trkpt>
      <trkpt lat="59.417946152" lon="17.9448122246">
        <ele>124</ele>
        <time>2012-10-25T19:08:12Z</time>
      </trkpt>
      <trkpt lat="59.4179668553" lon="17.9446651222">
        <ele>123.6</ele>
        <time>2012-10-25T19:08:13Z</time>
      </trkpt>
      <trkpt lat="59.4179889835" lon="17.9445232167">
        <ele>123</ele>
        <time>2012-10-25T19:08:14Z</time>
      </trkpt>
      <trkpt lat="59.4180113632" lon="17.9443865917">
        <ele>122.4</ele>
        <time>2012-10-25T19:08:15Z</time>
      </trkpt>
      <trkpt lat="59.4181862934" lon="17.9436000342">
        <ele>122.4</ele>
        <time>2012-10-25T19:08:21Z</time>
      </trkpt>
      <trkpt lat="59.4182681008" lon="17.9432075098">
        <ele>122</ele>
        <time>2012-10-25T19:08:24Z</time>
      </trkpt>
      <trkpt lat="59.4182995329" lon="17.9430771713">
        <ele>121.4</ele>
        <time>2012-10-25T19:08:25Z</time>
      </trkpt>
      <trkpt lat="59.4183293725" lon="17.9429486767">
        <ele>121</ele>
        <time>2012-10-25T19:08:26Z</time>
      </trkpt>
      <trkpt lat="59.4183623133" lon="17.9428262172">
        <ele>120.4</ele>
        <time>2012-10-25T19:08:27Z</time>
      </trkpt>
      <trkpt lat="59.4183898898" lon="17.9426974712">
        <ele>120</ele>
        <time>2012-10-25T19:08:28Z</time>
      </trkpt>
      <trkpt lat="59.4184959208" lon="17.9422231395">
        <ele>120</ele>
        <time>2012-10-25T19:08:32Z</time>
      </trkpt>
      <trkpt lat="59.418631959" lon="17.9415947484">
        <ele>120</ele>
        <time>2012-10-25T19:08:37Z</time>
      </trkpt>
      <trkpt lat="59.418681999" lon="17.9413753103">
        <ele>120</ele>
        <time>2012-10-25T19:08:39Z</time>
      </trkpt>
      <trkpt lat="59.4186791491" lon="17.9412875518">
        <ele>120</ele>
        <time>2012-10-25T19:08:40Z</time>
      </trkpt>
      <trkpt lat="59.4186697614" lon="17.9409905811">
        <ele>120</ele>
        <time>2012-10-25T19:08:43Z</time>
      </trkpt>
      <trkpt lat="59.418654674" lon="17.9406190953">
        <ele>120</ele>
        <time>2012-10-25T19:08:47Z</time>
      </trkpt>
      <trkpt lat="59.4187123415" lon="17.9403696499">
        <ele>120</ele>
        <time>2012-10-25T19:08:50Z</time>
      </trkpt>
      <trkpt lat="59.4187819951" lon="17.9401920375">
        <ele>120</ele>
        <time>2012-10-25T19:08:52Z</time>
      </trkpt>
      <trkpt lat="59.4188460328" lon="17.9400082224">
        <ele>120</ele>
        <time>2012-10-25T19:08:54Z</time>
      </trkpt>
      <trkpt lat="59.4188937258" lon="17.9395864452">
        <ele>120</ele>
        <time>2012-10-25T19:08:58Z</time>
      </trkpt>
      <trkpt lat="59.4189678218" lon="17.9392826013">
        <ele>120</ele>
        <time>2012-10-25T19:09:01Z</time>
      </trkpt>
      <trkpt lat="59.4189653072" lon="17.9391797554">
        <ele>120</ele>
        <time>2012-10-25T19:09:02Z</time>
      </trkpt>
      <trkpt lat="59.4188904568" lon="17.9388995485">
        <ele>119.6</ele>
        <time>2012-10-25T19:09:05Z</time>
      </trkpt>
      <trkpt lat="59.4188513134" lon="17.9388088563">
        <ele>119</ele>
        <time>2012-10-25T19:09:06Z</time>
      </trkpt>
      <trkpt lat="59.4188164447" lon="17.9387187509">
        <ele>118.6</ele>
        <time>2012-10-25T19:09:07Z</time>
      </trkpt>
      <trkpt lat="59.4187893711" lon="17.9386251251">
        <ele>118.2</ele>
        <time>2012-10-25T19:09:08Z</time>
      </trkpt>
      <trkpt lat="59.4187672429" lon="17.9385164957">
        <ele>117.8</ele>
        <time>2012-10-25T19:09:09Z</time>
      </trkpt>
      <trkpt lat="59.4187293567" lon="17.9384131468">
        <ele>117.8</ele>
        <time>2012-10-25T19:09:10Z</time>
      </trkpt>
      <trkpt lat="59.4184613036" lon="17.9377973286">
        <ele>117.8</ele>
        <time>2012-10-25T19:09:16Z</time>
      </trkpt>
      <trkpt lat="59.4182079187" lon="17.9372010403">
        <ele>117.8</ele>
        <time>2012-10-25T19:09:22Z</time>
      </trkpt>
      <trkpt lat="59.418090153" lon="17.9369696998">
        <ele>117.8</ele>
        <time>2012-10-25T19:09:25Z</time>
      </trkpt>
      <trkpt lat="59.4180034004" lon="17.9368966097">
        <ele>118.2</ele>
        <time>2012-10-25T19:09:27Z</time>
      </trkpt>
      <trkpt lat="59.4179625805" lon="17.9368750682">
        <ele>118.6</ele>
        <time>2012-10-25T19:09:28Z</time>
      </trkpt>
      <trkpt lat="59.4179184917" lon="17.9368730565">
        <ele>119</ele>
        <time>2012-10-25T19:09:29Z</time>
      </trkpt>
      <trkpt lat="59.4178706311" lon="17.9368708772">
        <ele>119.4</ele>
        <time>2012-10-25T19:09:30Z</time>
      </trkpt>
      <trkpt lat="59.4178118739" lon="17.9368812708">
        <ele>119.8</ele>
        <time>2012-10-25T19:09:31Z</time>
      </trkpt>
      <trkpt lat="59.4176289809" lon="17.9368958553">
        <ele>120.2</ele>
        <time>2012-10-25T19:09:34Z</time>
      </trkpt>
      <trkpt lat="59.4175731574" lon="17.9368834501">
        <ele>121.2</ele>
        <time>2012-10-25T19:09:35Z</time>
      </trkpt>
      <trkpt lat="59.4175206867" lon="17.9368479108">
        <ele>121.6</ele>
        <time>2012-10-25T19:09:36Z</time>
      </trkpt>
      <trkpt lat="59.4174697248" lon="17.9368013075">
        <ele>122</ele>
        <time>2012-10-25T19:09:37Z</time>
      </trkpt>
      <trkpt lat="59.4173246341" lon="17.9365674525">
        <ele>122</ele>
        <time>2012-10-25T19:09:41Z</time>
      </trkpt>
      <trkpt lat="59.4172932858" lon="17.9365111261">
        <ele>122.4</ele>
        <time>2012-10-25T19:09:42Z</time>
      </trkpt>
      <trkpt lat="59.4172651226" lon="17.9364546321">
        <ele>122.8</ele>
        <time>2012-10-25T19:09:43Z</time>
      </trkpt>
      <trkpt lat="59.4172452575" lon="17.9363952882">
        <ele>123.2</ele>
        <time>2012-10-25T19:09:44Z</time>
      </trkpt>
      <trkpt lat="59.4172232131" lon="17.9363334298">
        <ele>123.6</ele>
        <time>2012-10-25T19:09:45Z</time>
      </trkpt>
      <trkpt lat="59.4172027613" lon="17.9362651173">
        <ele>124</ele>
        <time>2012-10-25T19:09:46Z</time>
      </trkpt>
      <trkpt lat="59.4171792081" lon="17.9361942903">
        <ele>124</ele>
        <time>2012-10-25T19:09:47Z</time>
      </trkpt>
      <trkpt lat="59.4170693214" lon="17.9358413285">
        <ele>124.4</ele>
        <time>2012-10-25T19:09:51Z</time>
      </trkpt>
      <trkpt lat="59.417041745" lon="17.9357448528">
        <ele>124.8</ele>
        <time>2012-10-25T19:09:52Z</time>
      </trkpt>
      <trkpt lat="59.417015342" lon="17.9356399114">
        <ele>125.4</ele>
        <time>2012-10-25T19:09:53Z</time>
      </trkpt>
      <trkpt lat="59.416987095" lon="17.9355492192">
        <ele>125.8</ele>
        <time>2012-10-25T19:09:54Z</time>
      </trkpt>
      <trkpt lat="59.4169613626" lon="17.9354618798">
        <ele>126.2</ele>
        <time>2012-10-25T19:09:55Z</time>
      </trkpt>
      <trkpt lat="59.4168855902" lon="17.9351942458">
        <ele>126.2</ele>
        <time>2012-10-25T19:09:58Z</time>
      </trkpt>
      <trkpt lat="59.4166599494" lon="17.9343885775">
        <ele>126.2</ele>
        <time>2012-10-25T19:10:05Z</time>
      </trkpt>
      <trkpt lat="59.4166151901" lon="17.9341471788">
        <ele>126.2</ele>
        <time>2012-10-25T19:10:07Z</time>
      </trkpt>
      <trkpt lat="59.4165748731" lon="17.9337782914">
        <ele>126.2</ele>
        <time>2012-10-25T19:10:10Z</time>
      </trkpt>
      <trkpt lat="59.4165714366" lon="17.9336515571">
        <ele>126.2</ele>
        <time>2012-10-25T19:10:11Z</time>
      </trkpt>
      <trkpt lat="59.4165956603" lon="17.9331665803">
        <ele>126.2</ele>
        <time>2012-10-25T19:10:15Z</time>
      </trkpt>
      <trkpt lat="59.4167419244" lon="17.9322838825">
        <ele>126.2</ele>
        <time>2012-10-25T19:10:23Z</time>
      </trkpt>
      <trkpt lat="59.4168384001" lon="17.9316893543">
        <ele>126.2</ele>
        <time>2012-10-25T19:10:28Z</time>
      </trkpt>
      <trkpt lat="59.4168473687" lon="17.9315391506">
        <ele>126.2</ele>
        <time>2012-10-25T19:10:29Z</time>
      </trkpt>
      <trkpt lat="59.4168290962" lon="17.9312410903">
        <ele>126.2</ele>
        <time>2012-10-25T19:10:31Z</time>
      </trkpt>
      <trkpt lat="59.416815266" lon="17.9307053192">
        <ele>126.2</ele>
        <time>2012-10-25T19:10:35Z</time>
      </trkpt>
      <trkpt lat="59.4168386515" lon="17.9306162196">
        <ele>126.2</ele>
        <time>2012-10-25T19:10:36Z</time>
      </trkpt>
      <trkpt lat="59.4169389829" lon="17.930410444">
        <ele>126.2</ele>
        <time>2012-10-25T19:10:39Z</time>
      </trkpt>
      <trkpt lat="59.4170167669" lon="17.9303325761">
        <ele>126.2</ele>
        <time>2012-10-25T19:10:41Z</time>
      </trkpt>
      <trkpt lat="59.4170936289" lon="17.9302463264">
        <ele>126.2</ele>
        <time>2012-10-25T19:10:43Z</time>
      </trkpt>
      <trkpt lat="59.4171274918" lon="17.9301916764">
        <ele>126.6</ele>
        <time>2012-10-25T19:10:44Z</time>
      </trkpt>
      <trkpt lat="59.4171599298" lon="17.9301314105">
        <ele>127</ele>
        <time>2012-10-25T19:10:45Z</time>
      </trkpt>
      <trkpt lat="59.417186668" lon="17.930066367">
        <ele>127.4</ele>
        <time>2012-10-25T19:10:46Z</time>
      </trkpt>
      <trkpt lat="59.4172194413" lon="17.9299991442">
        <ele>127.8</ele>
        <time>2012-10-25T19:10:47Z</time>
      </trkpt>
      <trkpt lat="59.4172553158" lon="17.9299358608">
        <ele>128.2</ele>
        <time>2012-10-25T19:10:48Z</time>
      </trkpt>
      <trkpt lat="59.4174403043" lon="17.9295443423">
        <ele>128.2</ele>
        <time>2012-10-25T19:10:53Z</time>
      </trkpt>
      <trkpt lat="59.417476095" lon="17.9294548236">
        <ele>128.2</ele>
        <time>2012-10-25T19:10:54Z</time>
      </trkpt>
      <trkpt lat="59.4175126401" lon="17.9293777101">
        <ele>128.6</ele>
        <time>2012-10-25T19:10:55Z</time>
      </trkpt>
      <trkpt lat="59.4175485146" lon="17.9293084756">
        <ele>129</ele>
        <time>2012-10-25T19:10:56Z</time>
      </trkpt>
      <trkpt lat="59.4175825452" lon="17.9292240699">
        <ele>129.4</ele>
        <time>2012-10-25T19:10:57Z</time>
      </trkpt>
      <trkpt lat="59.4176162404" lon="17.9291403347">
        <ele>130</ele>
        <time>2012-10-25T19:10:58Z</time>
      </trkpt>
      <trkpt lat="59.4176514444" lon="17.9290584435">
        <ele>130.6</ele>
        <time>2012-10-25T19:10:59Z</time>
      </trkpt>
      <trkpt lat="59.4176871513" lon="17.9289777258">
        <ele>131.2</ele>
        <time>2012-10-25T19:11:00Z</time>
      </trkpt>
      <trkpt lat="59.4177214332" lon="17.9288945774">
        <ele>131.8</ele>
        <time>2012-10-25T19:11:01Z</time>
      </trkpt>
      <trkpt lat="59.4177560505" lon="17.9288155361">
        <ele>132.4</ele>
        <time>2012-10-25T19:11:02Z</time>
      </trkpt>
      <trkpt lat="59.4178199206" lon="17.928651167">
        <ele>132.4</ele>
        <time>2012-10-25T19:11:04Z</time>
      </trkpt>
      <trkpt lat="59.4178509336" lon="17.9284630772">
        <ele>132.4</ele>
        <time>2012-10-25T19:11:06Z</time>
      </trkpt>
      <trkpt lat="59.417904913" lon="17.9280379472">
        <ele>132.4</ele>
        <time>2012-10-25T19:11:10Z</time>
      </trkpt>
      <trkpt lat="59.4180552843" lon="17.9278496059">
        <ele>132.4</ele>
        <time>2012-10-25T19:11:13Z</time>
      </trkpt>
      <trkpt lat="59.4181050728" lon="17.927808367">
        <ele>132.4</ele>
        <time>2012-10-25T19:11:14Z</time>
      </trkpt>
      <trkpt lat="59.4181539393" lon="17.9277545552">
        <ele>132.4</ele>
        <time>2012-10-25T19:11:15Z</time>
      </trkpt>
      <trkpt lat="59.4182277" lon="17.9275830615">
        <ele>132.4</ele>
        <time>2012-10-25T19:11:17Z</time>
      </trkpt>
      <trkpt lat="59.4183417777" lon="17.9272951432">
        <ele>132</ele>
        <time>2012-10-25T19:11:20Z</time>
      </trkpt>
      <trkpt lat="59.4183809211" lon="17.9271948119">
        <ele>131.6</ele>
        <time>2012-10-25T19:11:21Z</time>
      </trkpt>
      <trkpt lat="59.4184195617" lon="17.9270983362">
        <ele>131.2</ele>
        <time>2012-10-25T19:11:22Z</time>
      </trkpt>
      <trkpt lat="59.4184554362" lon="17.9270034531">
        <ele>130.8</ele>
        <time>2012-10-25T19:11:23Z</time>
      </trkpt>
      <trkpt lat="59.4184901373" lon="17.9269068936">
        <ele>130.2</ele>
        <time>2012-10-25T19:11:24Z</time>
      </trkpt>
      <trkpt lat="59.4185153668" lon="17.9268012817">
        <ele>130.6</ele>
        <time>2012-10-25T19:11:25Z</time>
      </trkpt>
      <trkpt lat="59.4185434462" lon="17.9266947477">
        <ele>131</ele>
        <time>2012-10-25T19:11:26Z</time>
      </trkpt>
      <trkpt lat="59.4185839308" lon="17.9266038041">
        <ele>131.4</ele>
        <time>2012-10-25T19:11:27Z</time>
      </trkpt>
      <trkpt lat="59.4186257564" lon="17.9265076637">
        <ele>131.8</ele>
        <time>2012-10-25T19:11:28Z</time>
      </trkpt>
      <trkpt lat="59.4186675821" lon="17.9264161334">
        <ele>132.4</ele>
        <time>2012-10-25T19:11:29Z</time>
      </trkpt>
      <trkpt lat="59.4187460367" lon="17.9262293008">
        <ele>132.4</ele>
        <time>2012-10-25T19:11:31Z</time>
      </trkpt>
      <trkpt lat="59.4188046262" lon="17.9260358466">
        <ele>132.4</ele>
        <time>2012-10-25T19:11:33Z</time>
      </trkpt>
      <trkpt lat="59.4187999323" lon="17.925902742">
        <ele>132.4</ele>
        <time>2012-10-25T19:11:34Z</time>
      </trkpt>
      <trkpt lat="59.4187818274" lon="17.9257719005">
        <ele>132.4</ele>
        <time>2012-10-25T19:11:35Z</time>
      </trkpt>
      <trkpt lat="59.4187280994" lon="17.9253776998">
        <ele>131.8</ele>
        <time>2012-10-25T19:11:38Z</time>
      </trkpt>
      <trkpt lat="59.4187134311" lon="17.9252496243">
        <ele>131</ele>
        <time>2012-10-25T19:11:39Z</time>
      </trkpt>
      <trkpt lat="59.4186991819" lon="17.9251262428">
        <ele>130.6</ele>
        <time>2012-10-25T19:11:40Z</time>
      </trkpt>
      <trkpt lat="59.4186869443" lon="17.924995066">
        <ele>130.2</ele>
        <time>2012-10-25T19:11:41Z</time>
      </trkpt>
      <trkpt lat="59.418616704" lon="17.9241931697">
        <ele>130.2</ele>
        <time>2012-10-25T19:11:47Z</time>
      </trkpt>
      <trkpt lat="59.4184992736" lon="17.9233350307">
        <ele>130.2</ele>
        <time>2012-10-25T19:11:54Z</time>
      </trkpt>
      <trkpt lat="59.4184051448" lon="17.9226142712">
        <ele>130.2</ele>
        <time>2012-10-25T19:12:00Z</time>
      </trkpt>
      <trkpt lat="59.4183899736" lon="17.9224918954">
        <ele>129.6</ele>
        <time>2012-10-25T19:12:01Z</time>
      </trkpt>
      <trkpt lat="59.4183696894" lon="17.9223715313">
        <ele>129.2</ele>
        <time>2012-10-25T19:12:02Z</time>
      </trkpt>
      <trkpt lat="59.4183572842" lon="17.9222463058">
        <ele>127.8</ele>
        <time>2012-10-25T19:12:03Z</time>
      </trkpt>
      <trkpt lat="59.4183264388" lon="17.9221334854">
        <ele>127</ele>
        <time>2012-10-25T19:12:04Z</time>
      </trkpt>
      <trkpt lat="59.4182669273" lon="17.9220478224">
        <ele>126.2</ele>
        <time>2012-10-25T19:12:05Z</time>
      </trkpt>
      <trkpt lat="59.4181959326" lon="17.9219762409">
        <ele>125.6</ele>
        <time>2012-10-25T19:12:06Z</time>
      </trkpt>
      <trkpt lat="59.4181209984" lon="17.9219174">
        <ele>125</ele>
        <time>2012-10-25T19:12:07Z</time>
      </trkpt>
      <trkpt lat="59.4180460642" lon="17.9218491713">
        <ele>124.6</ele>
        <time>2012-10-25T19:12:08Z</time>
      </trkpt>
      <trkpt lat="59.4179687831" lon="17.921763173">
        <ele>124.2</ele>
        <time>2012-10-25T19:12:09Z</time>
      </trkpt>
      <trkpt lat="59.4178988781" lon="17.9216827068">
        <ele>123.6</ele>
        <time>2012-10-25T19:12:10Z</time>
      </trkpt>
      <trkpt lat="59.4178364329" lon="17.9216056771">
        <ele>123.2</ele>
        <time>2012-10-25T19:12:11Z</time>
      </trkpt>
      <trkpt lat="59.4177726467" lon="17.9215372808">
        <ele>123.2</ele>
        <time>2012-10-25T19:12:12Z</time>
      </trkpt>
      <trkpt lat="59.4174568167" lon="17.9211688125">
        <ele>123.2</ele>
        <time>2012-10-25T19:12:17Z</time>
      </trkpt>
      <trkpt lat="59.4170689023" lon="17.9206926368">
        <ele>123.2</ele>
        <time>2012-10-25T19:12:24Z</time>
      </trkpt>
      <trkpt lat="59.4167574309" lon="17.920322995">
        <ele>122.8</ele>
        <time>2012-10-25T19:12:29Z</time>
      </trkpt>
      <trkpt lat="59.416709235" lon="17.9202680097">
        <ele>122.2</ele>
        <time>2012-10-25T19:12:30Z</time>
      </trkpt>
      <trkpt lat="59.416669421" lon="17.9202264355">
        <ele>121.8</ele>
        <time>2012-10-25T19:12:31Z</time>
      </trkpt>
      <trkpt lat="59.41663933" lon="17.9201825982">
        <ele>121</ele>
        <time>2012-10-25T19:12:32Z</time>
      </trkpt>
      <trkpt lat="59.4166353066" lon="17.9201019643">
        <ele>120.4</ele>
        <time>2012-10-25T19:12:33Z</time>
      </trkpt>
      <trkpt lat="59.416649053" lon="17.920015044">
        <ele>119.6</ele>
        <time>2012-10-25T19:12:34Z</time>
      </trkpt>
      <trkpt lat="59.4166716003" lon="17.9199296324">
        <ele>118.8</ele>
        <time>2012-10-25T19:12:35Z</time>
      </trkpt>
      <trkpt lat="59.4166955725" lon="17.9198480765">
        <ele>118.2</ele>
        <time>2012-10-25T19:12:36Z</time>
      </trkpt>
      <trkpt lat="59.4167628792" lon="17.9196536164">
        <ele>118.2</ele>
        <time>2012-10-25T19:12:38Z</time>
      </trkpt>
      <trkpt lat="59.4168339577" lon="17.919431999">
        <ele>118.2</ele>
        <time>2012-10-25T19:12:40Z</time>
      </trkpt>
      <trkpt lat="59.4169739354" lon="17.9189695696">
        <ele>118.2</ele>
        <time>2012-10-25T19:12:45Z</time>
      </trkpt>
      <trkpt lat="59.4170935451" lon="17.9186351318">
        <ele>118.2</ele>
        <time>2012-10-25T19:12:50Z</time>
      </trkpt>
      <trkpt lat="59.4172045215" lon="17.9186798073">
        <ele>118.2</ele>
        <time>2012-10-25T19:12:53Z</time>
      </trkpt>
      <trkpt lat="59.4172434135" lon="17.9187222197">
        <ele>117.8</ele>
        <time>2012-10-25T19:12:54Z</time>
      </trkpt>
      <trkpt lat="59.4172832275" lon="17.9187585133">
        <ele>117.4</ele>
        <time>2012-10-25T19:12:55Z</time>
      </trkpt>
      <trkpt lat="59.4173124803" lon="17.9187864251">
        <ele>116.8</ele>
        <time>2012-10-25T19:12:56Z</time>
      </trkpt>
      <trkpt lat="59.4173460079" lon="17.9188134148">
        <ele>116.4</ele>
        <time>2012-10-25T19:12:57Z</time>
      </trkpt>
      <trkpt lat="59.4173853191" lon="17.9188183601">
        <ele>116</ele>
        <time>2012-10-25T19:12:58Z</time>
      </trkpt>
      <trkpt lat="59.4174223671" lon="17.9187725949">
        <ele>116</ele>
        <time>2012-10-25T19:12:59Z</time>
      </trkpt>
      <trkpt lat="59.4174838064" lon="17.9184843414">
        <ele>116</ele>
        <time>2012-10-25T19:13:02Z</time>
      </trkpt>
      <trkpt lat="59.4174572358" lon="17.9181684276">
        <ele>116</ele>
        <time>2012-10-25T19:13:05Z</time>
      </trkpt>
      <trkpt lat="59.4173187668" lon="17.9179842772">
        <ele>116</ele>
        <time>2012-10-25T19:13:08Z</time>
      </trkpt>
      <trkpt lat="59.4171839858" lon="17.9178213331">
        <ele>116</ele>
        <time>2012-10-25T19:13:11Z</time>
      </trkpt>
      <trkpt lat="59.4171523022" lon="17.9177386038">
        <ele>116.4</ele>
        <time>2012-10-25T19:13:12Z</time>
      </trkpt>
      <trkpt lat="59.4171316828" lon="17.9176528569">
        <ele>117</ele>
        <time>2012-10-25T19:13:13Z</time>
      </trkpt>
      <trkpt lat="59.4171254802" lon="17.9175488375">
        <ele>117.4</ele>
        <time>2012-10-25T19:13:14Z</time>
      </trkpt>
      <trkpt lat="59.4171352032" lon="17.9174366877">
        <ele>117.8</ele>
        <time>2012-10-25T19:13:15Z</time>
      </trkpt>
      <trkpt lat="59.4171559065" lon="17.9173270525">
        <ele>118.2</ele>
        <time>2012-10-25T19:13:16Z</time>
      </trkpt>
      <trkpt lat="59.4171878415" lon="17.9172176687">
        <ele>118.6</ele>
        <time>2012-10-25T19:13:17Z</time>
      </trkpt>
      <trkpt lat="59.417207958" lon="17.9171232047">
        <ele>119.2</ele>
        <time>2012-10-25T19:13:18Z</time>
      </trkpt>
      <trkpt lat="59.4172322656" lon="17.9170266452">
        <ele>119.6</ele>
        <time>2012-10-25T19:13:19Z</time>
      </trkpt>
      <trkpt lat="59.4172569922" lon="17.9169252242">
        <ele>120</ele>
        <time>2012-10-25T19:13:20Z</time>
      </trkpt>
      <trkpt lat="59.4172826408" lon="17.9168202828">
        <ele>120.4</ele>
        <time>2012-10-25T19:13:21Z</time>
      </trkpt>
      <trkpt lat="59.4173491092" lon="17.9165093143">
        <ele>120.8</ele>
        <time>2012-10-25T19:13:24Z</time>
      </trkpt>
      <trkpt lat="59.4173710698" lon="17.9164074742">
        <ele>121.2</ele>
        <time>2012-10-25T19:13:25Z</time>
      </trkpt>
      <trkpt lat="59.4173972214" lon="17.9163063885">
        <ele>121.6</ele>
        <time>2012-10-25T19:13:26Z</time>
      </trkpt>
      <trkpt lat="59.4174059385" lon="17.9161996869">
        <ele>122</ele>
        <time>2012-10-25T19:13:27Z</time>
      </trkpt>
      <trkpt lat="59.4174227023" lon="17.9160957514">
        <ele>122.6</ele>
        <time>2012-10-25T19:13:28Z</time>
      </trkpt>
      <trkpt lat="59.4174445791" lon="17.9159890498">
        <ele>122.6</ele>
        <time>2012-10-25T19:13:29Z</time>
      </trkpt>
      <trkpt lat="59.4176054277" lon="17.9153392849">
        <ele>122.6</ele>
        <time>2012-10-25T19:13:36Z</time>
      </trkpt>
      <trkpt lat="59.4176101216" lon="17.9151459144">
        <ele>122.6</ele>
        <time>2012-10-25T19:13:38Z</time>
      </trkpt>
      <trkpt lat="59.4175850597" lon="17.9150509475">
        <ele>122.6</ele>
        <time>2012-10-25T19:13:39Z</time>
      </trkpt>
      <trkpt lat="59.4175448266" lon="17.9149653683">
        <ele>122.2</ele>
        <time>2012-10-25T19:13:40Z</time>
      </trkpt>
      <trkpt lat="59.4174959601" lon="17.9148797053">
        <ele>121.2</ele>
        <time>2012-10-25T19:13:41Z</time>
      </trkpt>
      <trkpt lat="59.4174434056" lon="17.9148253906">
        <ele>120.8</ele>
        <time>2012-10-25T19:13:42Z</time>
      </trkpt>
      <trkpt lat="59.4173899291" lon="17.9147686451">
        <ele>120.4</ele>
        <time>2012-10-25T19:13:43Z</time>
      </trkpt>
      <trkpt lat="59.4173331836" lon="17.91472288">
        <ele>120.4</ele>
        <time>2012-10-25T19:13:44Z</time>
      </trkpt>
      <trkpt lat="59.4171580857" lon="17.9145735145">
        <ele>120.4</ele>
        <time>2012-10-25T19:13:47Z</time>
      </trkpt>
      <trkpt lat="59.4169904477" lon="17.9144266636">
        <ele>121</ele>
        <time>2012-10-25T19:13:50Z</time>
      </trkpt>
      <trkpt lat="59.4169302657" lon="17.9143672359">
        <ele>121.4</ele>
        <time>2012-10-25T19:13:51Z</time>
      </trkpt>
      <trkpt lat="59.4168818183" lon="17.9143119154">
        <ele>121.8</ele>
        <time>2012-10-25T19:13:52Z</time>
      </trkpt>
      <trkpt lat="59.4168181159" lon="17.9142476262">
        <ele>122.2</ele>
        <time>2012-10-25T19:13:53Z</time>
      </trkpt>
      <trkpt lat="59.4167662319" lon="17.9142041242">
        <ele>122.6</ele>
        <time>2012-10-25T19:13:54Z</time>
      </trkpt>
      <trkpt lat="59.4167158567" lon="17.9141498933">
        <ele>123.2</ele>
        <time>2012-10-25T19:13:55Z</time>
      </trkpt>
      <trkpt lat="59.416664308" lon="17.9140923934">
        <ele>123.6</ele>
        <time>2012-10-25T19:13:56Z</time>
      </trkpt>
      <trkpt lat="59.4166153577" lon="17.9140334687">
        <ele>124</ele>
        <time>2012-10-25T19:13:57Z</time>
      </trkpt>
      <trkpt lat="59.4165633061" lon="17.9139738734">
        <ele>124.4</ele>
        <time>2012-10-25T19:13:58Z</time>
      </trkpt>
      <trkpt lat="59.4165141044" lon="17.9139270185">
        <ele>124.8</ele>
        <time>2012-10-25T19:13:59Z</time>
      </trkpt>
      <trkpt lat="59.4162142" lon="17.91368277">
        <ele>125.2</ele>
        <time>2012-10-25T19:14:05Z</time>
      </trkpt>
      <trkpt lat="59.4161664232" lon="17.9136259407">
        <ele>126</ele>
        <time>2012-10-25T19:14:06Z</time>
      </trkpt>
      <trkpt lat="59.4161166347" lon="17.9135614001">
        <ele>126.4</ele>
        <time>2012-10-25T19:14:07Z</time>
      </trkpt>
      <trkpt lat="59.4160658404" lon="17.9135064148">
        <ele>126.8</ele>
        <time>2012-10-25T19:14:08Z</time>
      </trkpt>
      <trkpt lat="59.415889569" lon="17.9133675267">
        <ele>126.8</ele>
        <time>2012-10-25T19:14:11Z</time>
      </trkpt>
      <trkpt lat="59.4157081847" lon="17.9134712946">
        <ele>126.8</ele>
        <time>2012-10-25T19:14:14Z</time>
      </trkpt>
      <trkpt lat="59.4155794387" lon="17.9135186524">
        <ele>126.8</ele>
        <time>2012-10-25T19:14:16Z</time>
      </trkpt>
      <trkpt lat="59.4153819611" lon="17.9135870487">
        <ele>126.8</ele>
        <time>2012-10-25T19:14:19Z</time>
      </trkpt>
      <trkpt lat="59.4147218027" lon="17.9119523267">
        <ele>124.8</ele>
        <time>2012-10-25T19:14:38Z</time>
      </trkpt>
      <trkpt lat="59.4147250716" lon="17.9118103373">
        <ele>124.8</ele>
        <time>2012-10-25T19:14:39Z</time>
      </trkpt>
      <trkpt lat="59.4147376445" lon="17.9116717007">
        <ele>124.8</ele>
        <time>2012-10-25T19:14:40Z</time>
      </trkpt>
      <trkpt lat="59.4147629578" lon="17.911570615">
        <ele>125.2</ele>
        <time>2012-10-25T19:14:41Z</time>
      </trkpt>
      <trkpt lat="59.4147876844" lon="17.9114533522">
        <ele>125.6</ele>
        <time>2012-10-25T19:14:42Z</time>
      </trkpt>
      <trkpt lat="59.4148129978" lon="17.911331647">
        <ele>126.2</ele>
        <time>2012-10-25T19:14:43Z</time>
      </trkpt>
      <trkpt lat="59.4148419991" lon="17.9112127079">
        <ele>126.6</ele>
        <time>2012-10-25T19:14:44Z</time>
      </trkpt>
      <trkpt lat="59.4148647979" lon="17.9111030726">
        <ele>127</ele>
        <time>2012-10-25T19:14:45Z</time>
      </trkpt>
      <trkpt lat="59.4148886863" lon="17.9109907552">
        <ele>127.4</ele>
        <time>2012-10-25T19:14:46Z</time>
      </trkpt>
      <trkpt lat="59.4149115689" lon="17.910876426">
        <ele>128</ele>
        <time>2012-10-25T19:14:47Z</time>
      </trkpt>
      <trkpt lat="59.4149390615" lon="17.910770395">
        <ele>128.4</ele>
        <time>2012-10-25T19:14:48Z</time>
      </trkpt>
      <trkpt lat="59.4149784565" lon="17.9106641963">
        <ele>128.8</ele>
        <time>2012-10-25T19:14:49Z</time>
      </trkpt>
      <trkpt lat="59.4150099724" lon="17.9105554831">
        <ele>129.4</ele>
        <time>2012-10-25T19:14:50Z</time>
      </trkpt>
      <trkpt lat="59.4150656282" lon="17.9103367993">
        <ele>129.4</ele>
        <time>2012-10-25T19:14:52Z</time>
      </trkpt>
      <trkpt lat="59.4150915283" lon="17.9102320256">
        <ele>129.4</ele>
        <time>2012-10-25T19:14:53Z</time>
      </trkpt>
      <trkpt lat="59.415218095" lon="17.9095751361">
        <ele>129.4</ele>
        <time>2012-10-25T19:14:59Z</time>
      </trkpt>
      <trkpt lat="59.415449184" lon="17.9086715672">
        <ele>129.4</ele>
        <time>2012-10-25T19:15:07Z</time>
      </trkpt>
      <trkpt lat="59.4156290595" lon="17.9079271707">
        <ele>128.8</ele>
        <time>2012-10-25T19:15:13Z</time>
      </trkpt>
      <trkpt lat="59.4156573065" lon="17.9078073934">
        <ele>128.4</ele>
        <time>2012-10-25T19:15:14Z</time>
      </trkpt>
      <trkpt lat="59.4156901636" lon="17.9076932319">
        <ele>128</ele>
        <time>2012-10-25T19:15:15Z</time>
      </trkpt>
      <trkpt lat="59.4157194164" lon="17.9075780646">
        <ele>127.4</ele>
        <time>2012-10-25T19:15:16Z</time>
      </trkpt>
      <trkpt lat="59.4157469091" lon="17.9074559403">
        <ele>127</ele>
        <time>2012-10-25T19:15:17Z</time>
      </trkpt>
      <trkpt lat="59.4158227653" lon="17.9071197423">
        <ele>127</ele>
        <time>2012-10-25T19:15:20Z</time>
      </trkpt>
      <trkpt lat="59.4159007169" lon="17.9067743242">
        <ele>127</ele>
        <time>2012-10-25T19:15:23Z</time>
      </trkpt>
      <trkpt lat="59.4158402834" lon="17.906565112">
        <ele>126.4</ele>
        <time>2012-10-25T19:15:25Z</time>
      </trkpt>
      <trkpt lat="59.4157828674" lon="17.9065036726">
        <ele>126</ele>
        <time>2012-10-25T19:15:26Z</time>
      </trkpt>
      <trkpt lat="59.4157281336" lon="17.9064570693">
        <ele>125.6</ele>
        <time>2012-10-25T19:15:27Z</time>
      </trkpt>
      <trkpt lat="59.4156743218" lon="17.9064168361">
        <ele>125</ele>
        <time>2012-10-25T19:15:28Z</time>
      </trkpt>
      <trkpt lat="59.4156185822" lon="17.9063588334">
        <ele>124.6</ele>
        <time>2012-10-25T19:15:29Z</time>
      </trkpt>
      <trkpt lat="59.4155591545" lon="17.9063021718">
        <ele>124.6</ele>
        <time>2012-10-25T19:15:30Z</time>
      </trkpt>
      <trkpt lat="59.4153792789" lon="17.9060672271">
        <ele>124.6</ele>
        <time>2012-10-25T19:15:33Z</time>
      </trkpt>
      <trkpt lat="59.4153286523" lon="17.9059658061">
        <ele>124.6</ele>
        <time>2012-10-25T19:15:34Z</time>
      </trkpt>
      <trkpt lat="59.4151200268" lon="17.9055689231">
        <ele>124.6</ele>
        <time>2012-10-25T19:15:38Z</time>
      </trkpt>
      <trkpt lat="59.4148117405" lon="17.9049488302">
        <ele>124.6</ele>
        <time>2012-10-25T19:15:44Z</time>
      </trkpt>
      <trkpt lat="59.4144291067" lon="17.9041758514">
        <ele>124.6</ele>
        <time>2012-10-25T19:15:51Z</time>
      </trkpt>
      <trkpt lat="59.4143716069" lon="17.9040646235">
        <ele>124.6</ele>
        <time>2012-10-25T19:15:52Z</time>
      </trkpt>
      <trkpt lat="59.4143128498" lon="17.9039485342">
        <ele>124.2</ele>
        <time>2012-10-25T19:15:53Z</time>
      </trkpt>
      <trkpt lat="59.4142508237" lon="17.9038241468">
        <ele>123.6</ele>
        <time>2012-10-25T19:15:54Z</time>
      </trkpt>
      <trkpt lat="59.4141933239" lon="17.903702274">
        <ele>123.2</ele>
        <time>2012-10-25T19:15:55Z</time>
      </trkpt>
      <trkpt lat="59.4141320522" lon="17.9035838378">
        <ele>122.6</ele>
        <time>2012-10-25T19:15:56Z</time>
      </trkpt>
      <trkpt lat="59.4140733789" lon="17.9034639766">
        <ele>122.2</ele>
        <time>2012-10-25T19:15:57Z</time>
      </trkpt>
      <trkpt lat="59.4140098441" lon="17.9033419361">
        <ele>121.6</ele>
        <time>2012-10-25T19:15:58Z</time>
      </trkpt>
      <trkpt lat="59.4139443815" lon="17.9032212368">
        <ele>121</ele>
        <time>2012-10-25T19:15:59Z</time>
      </trkpt>
      <trkpt lat="59.4138809305" lon="17.903097939">
        <ele>120.6</ele>
        <time>2012-10-25T19:16:00Z</time>
      </trkpt>
      <trkpt lat="59.413815384" lon="17.9029629904">
        <ele>120</ele>
        <time>2012-10-25T19:16:01Z</time>
      </trkpt>
      <trkpt lat="59.4134998893" lon="17.9023377007">
        <ele>119.6</ele>
        <time>2012-10-25T19:16:06Z</time>
      </trkpt>
      <trkpt lat="59.4134364383" lon="17.9022258861">
        <ele>119.2</ele>
        <time>2012-10-25T19:16:07Z</time>
      </trkpt>
      <trkpt lat="59.4133792738" lon="17.9021111379">
        <ele>118.8</ele>
        <time>2012-10-25T19:16:08Z</time>
      </trkpt>
      <trkpt lat="59.4133217739" lon="17.9019912768">
        <ele>117.6</ele>
        <time>2012-10-25T19:16:09Z</time>
      </trkpt>
      <trkpt lat="59.4132739133" lon="17.9019016743">
        <ele>117</ele>
        <time>2012-10-25T19:16:10Z</time>
      </trkpt>
      <trkpt lat="59.413246253" lon="17.9018420789">
        <ele>116.4</ele>
        <time>2012-10-25T19:16:11Z</time>
      </trkpt>
      <trkpt lat="59.4132317523" lon="17.9017633729">
        <ele>115.6</ele>
        <time>2012-10-25T19:16:12Z</time>
      </trkpt>
      <trkpt lat="59.4132476779" lon="17.9016819847">
        <ele>115.2</ele>
        <time>2012-10-25T19:16:13Z</time>
      </trkpt>
      <trkpt lat="59.4132807864" lon="17.9015938909">
        <ele>114.8</ele>
        <time>2012-10-25T19:16:14Z</time>
      </trkpt>
      <trkpt lat="59.413316661" lon="17.9014917155">
        <ele>114.4</ele>
        <time>2012-10-25T19:16:15Z</time>
      </trkpt>
      <trkpt lat="59.4133596601" lon="17.9013717705">
        <ele>114</ele>
        <time>2012-10-25T19:16:16Z</time>
      </trkpt>
      <trkpt lat="59.4134045033" lon="17.9012550945">
        <ele>113.4</ele>
        <time>2012-10-25T19:16:17Z</time>
      </trkpt>
      <trkpt lat="59.4134533698" lon="17.901144621">
        <ele>113.4</ele>
        <time>2012-10-25T19:16:18Z</time>
      </trkpt>
      <trkpt lat="59.4136826985" lon="17.9006047429">
        <ele>113.4</ele>
        <time>2012-10-25T19:16:23Z</time>
      </trkpt>
      <trkpt lat="59.4136388612" lon="17.9002430639">
        <ele>113.4</ele>
        <time>2012-10-25T19:16:26Z</time>
      </trkpt>
      <trkpt lat="59.413491675" lon="17.8999767709">
        <ele>113.4</ele>
        <time>2012-10-25T19:16:29Z</time>
      </trkpt>
      <trkpt lat="59.4131973865" lon="17.8994948117">
        <ele>113.4</ele>
        <time>2012-10-25T19:16:34Z</time>
      </trkpt>
      <trkpt lat="59.4128678102" lon="17.898781512">
        <ele>113.4</ele>
        <time>2012-10-25T19:16:40Z</time>
      </trkpt>
      <trkpt lat="59.4125811492" lon="17.898071565">
        <ele>113.4</ele>
        <time>2012-10-25T19:16:46Z</time>
      </trkpt>
      <trkpt lat="59.4125466996" lon="17.8979496084">
        <ele>113.4</ele>
        <time>2012-10-25T19:16:47Z</time>
      </trkpt>
      <trkpt lat="59.4123717694" lon="17.8975069603">
        <ele>113.4</ele>
        <time>2012-10-25T19:16:51Z</time>
      </trkpt>
      <trkpt lat="59.4123078155" lon="17.8974267455">
        <ele>113.4</ele>
        <time>2012-10-25T19:16:52Z</time>
      </trkpt>
      <trkpt lat="59.4120415225" lon="17.8971384081">
        <ele>113</ele>
        <time>2012-10-25T19:16:56Z</time>
      </trkpt>
      <trkpt lat="59.4120030496" lon="17.8970228217">
        <ele>112.6</ele>
        <time>2012-10-25T19:16:57Z</time>
      </trkpt>
      <trkpt lat="59.4119721204" lon="17.8969122645">
        <ele>112.2</ele>
        <time>2012-10-25T19:16:58Z</time>
      </trkpt>
      <trkpt lat="59.4119334798" lon="17.8967821774">
        <ele>111.4</ele>
        <time>2012-10-25T19:16:59Z</time>
      </trkpt>
      <trkpt lat="59.4117636625" lon="17.896091425">
        <ele>111.4</ele>
        <time>2012-10-25T19:17:04Z</time>
      </trkpt>
      <trkpt lat="59.4116992057" lon="17.8956875012">
        <ele>111.4</ele>
        <time>2012-10-25T19:17:07Z</time>
      </trkpt>
      <trkpt lat="59.4116728866" lon="17.8954046959">
        <ele>111.4</ele>
        <time>2012-10-25T19:17:09Z</time>
      </trkpt>
      <trkpt lat="59.411551349" lon="17.8947107584">
        <ele>111.4</ele>
        <time>2012-10-25T19:17:14Z</time>
      </trkpt>
      <trkpt lat="59.4115201683" lon="17.8945786597">
        <ele>111.4</ele>
        <time>2012-10-25T19:17:15Z</time>
      </trkpt>
      <trkpt lat="59.4113262112" lon="17.8936682177">
        <ele>111.4</ele>
        <time>2012-10-25T19:17:22Z</time>
      </trkpt>
      <trkpt lat="59.4111232854" lon="17.8926237491">
        <ele>111.4</ele>
        <time>2012-10-25T19:17:30Z</time>
      </trkpt>
      <trkpt lat="59.4109917734" lon="17.8918709707">
        <ele>110.8</ele>
        <time>2012-10-25T19:17:36Z</time>
      </trkpt>
      <trkpt lat="59.4109682202" lon="17.8917602458">
        <ele>110.4</ele>
        <time>2012-10-25T19:17:37Z</time>
      </trkpt>
      <trkpt lat="59.4109458406" lon="17.8916445756">
        <ele>110</ele>
        <time>2012-10-25T19:17:38Z</time>
      </trkpt>
      <trkpt lat="59.4109286577" lon="17.8915280672">
        <ele>109.6</ele>
        <time>2012-10-25T19:17:39Z</time>
      </trkpt>
      <trkpt lat="59.4109096308" lon="17.8914196892">
        <ele>109</ele>
        <time>2012-10-25T19:17:40Z</time>
      </trkpt>
      <trkpt lat="59.4108700682" lon="17.8912072919">
        <ele>109.6</ele>
        <time>2012-10-25T19:17:42Z</time>
      </trkpt>
      <trkpt lat="59.4108492811" lon="17.8911064576">
        <ele>110</ele>
        <time>2012-10-25T19:17:43Z</time>
      </trkpt>
      <trkpt lat="59.4108269852" lon="17.8910129994">
        <ele>110.4</ele>
        <time>2012-10-25T19:17:44Z</time>
      </trkpt>
      <trkpt lat="59.4108120654" lon="17.8909065493">
        <ele>110.8</ele>
        <time>2012-10-25T19:17:45Z</time>
      </trkpt>
      <trkpt lat="59.4107932062" lon="17.8907984228">
        <ele>111.2</ele>
        <time>2012-10-25T19:17:46Z</time>
      </trkpt>
      <trkpt lat="59.4107455131" lon="17.8906030407">
        <ele>111.2</ele>
        <time>2012-10-25T19:17:48Z</time>
      </trkpt>
      <trkpt lat="59.4107272406" lon="17.8905084929">
        <ele>111.2</ele>
        <time>2012-10-25T19:17:49Z</time>
      </trkpt>
      <trkpt lat="59.4107040227" lon="17.890394499">
        <ele>111.8</ele>
        <time>2012-10-25T19:17:50Z</time>
      </trkpt>
      <trkpt lat="59.4106689026" lon="17.8902876298">
        <ele>112.2</ele>
        <time>2012-10-25T19:17:51Z</time>
      </trkpt>
      <trkpt lat="59.4106349559" lon="17.8901795033">
        <ele>112.8</ele>
        <time>2012-10-25T19:17:52Z</time>
      </trkpt>
      <trkpt lat="59.4106039429" lon="17.8900695328">
        <ele>113.2</ele>
        <time>2012-10-25T19:17:53Z</time>
      </trkpt>
      <trkpt lat="59.4105734327" lon="17.889949923">
        <ele>113.6</ele>
        <time>2012-10-25T19:17:54Z</time>
      </trkpt>
      <trkpt lat="59.4104778791" lon="17.8894394653">
        <ele>113.6</ele>
        <time>2012-10-25T19:17:58Z</time>
      </trkpt>
      <trkpt lat="59.4103205508" lon="17.8886472081">
        <ele>113.6</ele>
        <time>2012-10-25T19:18:05Z</time>
      </trkpt>
      <trkpt lat="59.4102213929" lon="17.8880784962">
        <ele>113.6</ele>
        <time>2012-10-25T19:18:10Z</time>
      </trkpt>
      <trkpt lat="59.4101655695" lon="17.8877228522">
        <ele>114.6</ele>
        <time>2012-10-25T19:18:13Z</time>
      </trkpt>
      <trkpt lat="59.4101450338" lon="17.8876081878">
        <ele>115</ele>
        <time>2012-10-25T19:18:14Z</time>
      </trkpt>
      <trkpt lat="59.4101209778" lon="17.8874975467">
        <ele>115.4</ele>
        <time>2012-10-25T19:18:15Z</time>
      </trkpt>
      <trkpt lat="59.4100996039" lon="17.8873871571">
        <ele>115.8</ele>
        <time>2012-10-25T19:18:16Z</time>
      </trkpt>
      <trkpt lat="59.4099079937" lon="17.8863655711">
        <ele>115.8</ele>
        <time>2012-10-25T19:18:25Z</time>
      </trkpt>
      <trkpt lat="59.4097896413" lon="17.8857263675">
        <ele>115.8</ele>
        <time>2012-10-25T19:18:31Z</time>
      </trkpt>
      <trkpt lat="59.4097421997" lon="17.8855113717">
        <ele>115.8</ele>
        <time>2012-10-25T19:18:33Z</time>
      </trkpt>
      <trkpt lat="59.4096854543" lon="17.8852173347">
        <ele>115.8</ele>
        <time>2012-10-25T19:18:36Z</time>
      </trkpt>
      <trkpt lat="59.4096399405" lon="17.8850054402">
        <ele>115.8</ele>
        <time>2012-10-25T19:18:38Z</time>
      </trkpt>
      <trkpt lat="59.4095583847" lon="17.8846764507">
        <ele>115.8</ele>
        <time>2012-10-25T19:18:41Z</time>
      </trkpt>
      <trkpt lat="59.409398458" lon="17.8839054835">
        <ele>115.8</ele>
        <time>2012-10-25T19:18:48Z</time>
      </trkpt>
      <trkpt lat="59.4092176604" lon="17.882969812">
        <ele>115.8</ele>
        <time>2012-10-25T19:18:56Z</time>
      </trkpt>
      <trkpt lat="59.4090159919" lon="17.8819264331">
        <ele>115.8</ele>
        <time>2012-10-25T19:19:04Z</time>
      </trkpt>
      <trkpt lat="59.4088722423" lon="17.8811103713">
        <ele>115.4</ele>
        <time>2012-10-25T19:19:10Z</time>
      </trkpt>
      <trkpt lat="59.4088410617" lon="17.880972489">
        <ele>115</ele>
        <time>2012-10-25T19:19:11Z</time>
      </trkpt>
      <trkpt lat="59.4088128146" lon="17.8808350259">
        <ele>114.4</ele>
        <time>2012-10-25T19:19:12Z</time>
      </trkpt>
      <trkpt lat="59.4087837295" lon="17.8807055255">
        <ele>114</ele>
        <time>2012-10-25T19:19:13Z</time>
      </trkpt>
      <trkpt lat="59.4087578294" lon="17.8805796294">
        <ele>113.4</ele>
        <time>2012-10-25T19:19:14Z</time>
      </trkpt>
      <trkpt lat="59.4086819732" lon="17.8802286792">
        <ele>113.4</ele>
        <time>2012-10-25T19:19:17Z</time>
      </trkpt>
      <trkpt lat="59.4086632816" lon="17.8800990951">
        <ele>113.4</ele>
        <time>2012-10-25T19:19:18Z</time>
      </trkpt>
      <trkpt lat="59.4085667221" lon="17.879602719">
        <ele>113.4</ele>
        <time>2012-10-25T19:19:22Z</time>
      </trkpt>
      <trkpt lat="59.408445436" lon="17.8789838833">
        <ele>113.4</ele>
        <time>2012-10-25T19:19:27Z</time>
      </trkpt>
      <trkpt lat="59.4083450208" lon="17.8784176021">
        <ele>113.4</ele>
        <time>2012-10-25T19:19:32Z</time>
      </trkpt>
      <trkpt lat="59.4083363036" lon="17.8783054523">
        <ele>113.4</ele>
        <time>2012-10-25T19:19:33Z</time>
      </trkpt>
      <trkpt lat="59.4083237308" lon="17.87820093">
        <ele>114</ele>
        <time>2012-10-25T19:19:34Z</time>
      </trkpt>
      <trkpt lat="59.4083111579" lon="17.8780909595">
        <ele>114.4</ele>
        <time>2012-10-25T19:19:35Z</time>
      </trkpt>
      <trkpt lat="59.4082997585" lon="17.8779819948">
        <ele>114.8</ele>
        <time>2012-10-25T19:19:36Z</time>
      </trkpt>
      <trkpt lat="59.4082858446" lon="17.8778785621">
        <ele>115.4</ele>
        <time>2012-10-25T19:19:37Z</time>
      </trkpt>
      <trkpt lat="59.4082741099" lon="17.8777763029">
        <ele>115.8</ele>
        <time>2012-10-25T19:19:38Z</time>
      </trkpt>
      <trkpt lat="59.4082158557" lon="17.8772193257">
        <ele>115.8</ele>
        <time>2012-10-25T19:19:43Z</time>
      </trkpt>
      <trkpt lat="59.4081881116" lon="17.8764937046">
        <ele>115.8</ele>
        <time>2012-10-25T19:19:49Z</time>
      </trkpt>
      <trkpt lat="59.4080871936" lon="17.8761092268">
        <ele>115.8</ele>
        <time>2012-10-25T19:19:52Z</time>
      </trkpt>
      <trkpt lat="59.408083757" lon="17.8759876893">
        <ele>115.8</ele>
        <time>2012-10-25T19:19:53Z</time>
      </trkpt>
      <trkpt lat="59.4080851819" lon="17.875284867">
        <ele>115.8</ele>
        <time>2012-10-25T19:19:58Z</time>
      </trkpt>
      <trkpt lat="59.4080875288" lon="17.8750200828">
        <ele>115.4</ele>
        <time>2012-10-25T19:20:00Z</time>
      </trkpt>
      <trkpt lat="59.4080868583" lon="17.8748924264">
        <ele>114.8</ele>
        <time>2012-10-25T19:20:01Z</time>
      </trkpt>
      <trkpt lat="59.4080876127" lon="17.8747793546">
        <ele>114.4</ele>
        <time>2012-10-25T19:20:02Z</time>
      </trkpt>
      <trkpt lat="59.4080964137" lon="17.8746742456">
        <ele>114</ele>
        <time>2012-10-25T19:20:03Z</time>
      </trkpt>
      <trkpt lat="59.4080955755" lon="17.8745824638">
        <ele>113.4</ele>
        <time>2012-10-25T19:20:04Z</time>
      </trkpt>
      <trkpt lat="59.408067077" lon="17.8745125587">
        <ele>112.8</ele>
        <time>2012-10-25T19:20:05Z</time>
      </trkpt>
      <trkpt lat="59.4080229882" lon="17.8744838088">
        <ele>112.4</ele>
        <time>2012-10-25T19:20:06Z</time>
      </trkpt>
      <trkpt lat="59.4079833418" lon="17.8744431566">
        <ele>111.8</ele>
        <time>2012-10-25T19:20:07Z</time>
      </trkpt>
      <trkpt lat="59.4079573579" lon="17.8743562363">
        <ele>111.2</ele>
        <time>2012-10-25T19:20:08Z</time>
      </trkpt>
      <trkpt lat="59.4079320446" lon="17.8741089702">
        <ele>111.2</ele>
        <time>2012-10-25T19:20:10Z</time>
      </trkpt>
      <trkpt lat="59.4079088267" lon="17.8738183698">
        <ele>111.2</ele>
        <time>2012-10-25T19:20:12Z</time>
      </trkpt>
      <trkpt lat="59.4078434479" lon="17.8728603186">
        <ele>111.2</ele>
        <time>2012-10-25T19:20:19Z</time>
      </trkpt>
      <trkpt lat="59.4078161229" lon="17.8725949476">
        <ele>111.2</ele>
        <time>2012-10-25T19:20:21Z</time>
      </trkpt>
      <trkpt lat="59.4077866186" lon="17.872328487">
        <ele>111.2</ele>
        <time>2012-10-25T19:20:23Z</time>
      </trkpt>
      <trkpt lat="59.4077779853" lon="17.8721898504">
        <ele>111.2</ele>
        <time>2012-10-25T19:20:24Z</time>
      </trkpt>
      <trkpt lat="59.4077655801" lon="17.8717442686">
        <ele>111.2</ele>
        <time>2012-10-25T19:20:28Z</time>
      </trkpt>
      <trkpt lat="59.4077720341" lon="17.8716840027">
        <ele>110.8</ele>
        <time>2012-10-25T19:20:29Z</time>
      </trkpt>
      <trkpt lat="59.4077678432" lon="17.8716228987">
        <ele>110.4</ele>
        <time>2012-10-25T19:20:30Z</time>
      </trkpt>
      <trkpt lat="59.4077561085" lon="17.8715501438">
        <ele>110</ele>
        <time>2012-10-25T19:20:31Z</time>
      </trkpt>
      <trkpt lat="59.4077339803" lon="17.8714709348">
        <ele>109.6</ele>
        <time>2012-10-25T19:20:32Z</time>
      </trkpt>
      <trkpt lat="59.4077010394" lon="17.8713906362">
        <ele>109.2</ele>
        <time>2012-10-25T19:20:33Z</time>
      </trkpt>
      <trkpt lat="59.4076680147" lon="17.8712940768">
        <ele>109.2</ele>
        <time>2012-10-25T19:20:34Z</time>
      </trkpt>
      <trkpt lat="59.4076171366" lon="17.871075393">
        <ele>109.2</ele>
        <time>2012-10-25T19:20:36Z</time>
      </trkpt>
      <trkpt lat="59.4075303839" lon="17.8707114509">
        <ele>109.2</ele>
        <time>2012-10-25T19:20:39Z</time>
      </trkpt>
      <trkpt lat="59.4074931683" lon="17.8705987982">
        <ele>109.2</ele>
        <time>2012-10-25T19:20:40Z</time>
      </trkpt>
      <trkpt lat="59.4074056613" lon="17.8703895021">
        <ele>108.6</ele>
        <time>2012-10-25T19:20:42Z</time>
      </trkpt>
      <trkpt lat="59.4073575492" lon="17.8702948705">
        <ele>108.2</ele>
        <time>2012-10-25T19:20:43Z</time>
      </trkpt>
      <trkpt lat="59.4073103591" lon="17.8702053518">
        <ele>107.6</ele>
        <time>2012-10-25T19:20:44Z</time>
      </trkpt>
      <trkpt lat="59.4072636719" lon="17.8701153302">
        <ele>107</ele>
        <time>2012-10-25T19:20:45Z</time>
      </trkpt>
      <trkpt lat="59.4072159789" lon="17.8700245542">
        <ele>106.6</ele>
        <time>2012-10-25T19:20:46Z</time>
      </trkpt>
      <trkpt lat="59.4070054256" lon="17.869686596">
        <ele>106.6</ele>
        <time>2012-10-25T19:20:50Z</time>
      </trkpt>
      <trkpt lat="59.4067452514" lon="17.8693736996">
        <ele>106.6</ele>
        <time>2012-10-25T19:20:54Z</time>
      </trkpt>
      <trkpt lat="59.4066774418" lon="17.869271189">
        <ele>106.2</ele>
        <time>2012-10-25T19:20:55Z</time>
      </trkpt>
      <trkpt lat="59.4066044355" lon="17.869151244">
        <ele>105.8</ele>
        <time>2012-10-25T19:20:56Z</time>
      </trkpt>
      <trkpt lat="59.4065343628" lon="17.8690334783">
        <ele>105.4</ele>
        <time>2012-10-25T19:20:57Z</time>
      </trkpt>
      <trkpt lat="59.4064639548" lon="17.8689107673">
        <ele>105</ele>
        <time>2012-10-25T19:20:58Z</time>
      </trkpt>
      <trkpt lat="59.4063917867" lon="17.8687885592">
        <ele>104.6</ele>
        <time>2012-10-25T19:20:59Z</time>
      </trkpt>
      <trkpt lat="59.4060931396" lon="17.8683009841">
        <ele>105</ele>
        <time>2012-10-25T19:21:03Z</time>
      </trkpt>
      <trkpt lat="59.4060139306" lon="17.8681754232">
        <ele>105.4</ele>
        <time>2012-10-25T19:21:04Z</time>
      </trkpt>
      <trkpt lat="59.4059413433" lon="17.8680595854">
        <ele>105.8</ele>
        <time>2012-10-25T19:21:05Z</time>
      </trkpt>
      <trkpt lat="59.4058731147" lon="17.8679506207">
        <ele>106.2</ele>
        <time>2012-10-25T19:21:06Z</time>
      </trkpt>
      <trkpt lat="59.4058074006" lon="17.8678439191">
        <ele>106.8</ele>
        <time>2012-10-25T19:21:07Z</time>
      </trkpt>
      <trkpt lat="59.4057161217" lon="17.8676867585">
        <ele>106.8</ele>
        <time>2012-10-25T19:21:09Z</time>
      </trkpt>
      <trkpt lat="59.4056679258" lon="17.8676031909">
        <ele>106.2</ele>
        <time>2012-10-25T19:21:11Z</time>
      </trkpt>
      <trkpt lat="59.4056545147" lon="17.8675874329">
        <ele>105.8</ele>
        <time>2012-10-25T19:21:12Z</time>
      </trkpt>
      <trkpt lat="59.4056452946" lon="17.8675726808">
        <ele>105.4</ele>
        <time>2012-10-25T19:21:13Z</time>
      </trkpt>
      <trkpt lat="59.4056342305" lon="17.8675606947">
        <ele>105</ele>
        <time>2012-10-25T19:21:14Z</time>
      </trkpt>
      <trkpt lat="59.4056203166" lon="17.8675445176">
        <ele>104.6</ele>
        <time>2012-10-25T19:21:15Z</time>
      </trkpt>
      <trkpt lat="59.4056167124" lon="17.8675389017">
        <ele>104.6</ele>
        <time>2012-10-25T19:21:16Z</time>
      </trkpt>
      <trkpt lat="59.4056164609" lon="17.8675395723">
        <ele>104.6</ele>
        <time>2012-10-25T19:21:17Z</time>
      </trkpt>
      <trkpt lat="59.4056165447" lon="17.8675393208">
        <ele>104.6</ele>
        <time>2012-10-25T19:21:18Z</time>
      </trkpt>
      <trkpt lat="59.4053780797" lon="17.8672209763">
        <ele>105.6</ele>
        <time>2012-10-25T19:22:25Z</time>
      </trkpt>
      <trkpt lat="59.4053370922" lon="17.8671612971">
        <ele>106</ele>
        <time>2012-10-25T19:22:26Z</time>
      </trkpt>
      <trkpt lat="59.4052911594" lon="17.867084938">
        <ele>106.4</ele>
        <time>2012-10-25T19:22:27Z</time>
      </trkpt>
      <trkpt lat="59.4052417062" lon="17.8670050585">
        <ele>107</ele>
        <time>2012-10-25T19:22:28Z</time>
      </trkpt>
      <trkpt lat="59.4051892355" lon="17.8669261848">
        <ele>107.4</ele>
        <time>2012-10-25T19:22:29Z</time>
      </trkpt>
      <trkpt lat="59.4051359266" lon="17.8668414438">
        <ele>108</ele>
        <time>2012-10-25T19:22:30Z</time>
      </trkpt>
      <trkpt lat="59.4050816957" lon="17.8667535177">
        <ele>108.6</ele>
        <time>2012-10-25T19:22:31Z</time>
      </trkpt>
      <trkpt lat="59.4050226033" lon="17.8666600595">
        <ele>109</ele>
        <time>2012-10-25T19:22:32Z</time>
      </trkpt>
      <trkpt lat="59.4048982997" lon="17.8664601512">
        <ele>109.6</ele>
        <time>2012-10-25T19:22:34Z</time>
      </trkpt>
      <trkpt lat="59.4048359384" lon="17.866362083">
        <ele>110</ele>
        <time>2012-10-25T19:22:35Z</time>
      </trkpt>
      <trkpt lat="59.4047808693" lon="17.8662656073">
        <ele>110.6</ele>
        <time>2012-10-25T19:22:36Z</time>
      </trkpt>
      <trkpt lat="59.4047275604" lon="17.8661741608">
        <ele>111</ele>
        <time>2012-10-25T19:22:37Z</time>
      </trkpt>
      <trkpt lat="59.4046723237" lon="17.8660827981">
        <ele>112.2</ele>
        <time>2012-10-25T19:22:38Z</time>
      </trkpt>
      <trkpt lat="59.4046159973" lon="17.8659924412">
        <ele>112.8</ele>
        <time>2012-10-25T19:22:39Z</time>
      </trkpt>
      <trkpt lat="59.4045597548" lon="17.8659066105">
        <ele>113.4</ele>
        <time>2012-10-25T19:22:40Z</time>
      </trkpt>
      <trkpt lat="59.4045019197" lon="17.8658158346">
        <ele>114.2</ele>
        <time>2012-10-25T19:22:41Z</time>
      </trkpt>
      <trkpt lat="59.4042422484" lon="17.8654056244">
        <ele>114.2</ele>
        <time>2012-10-25T19:22:46Z</time>
      </trkpt>
      <trkpt lat="59.4039285139" lon="17.8648912272">
        <ele>114.2</ele>
        <time>2012-10-25T19:22:51Z</time>
      </trkpt>
      <trkpt lat="59.4038604529" lon="17.8648038039">
        <ele>114.2</ele>
        <time>2012-10-25T19:22:52Z</time>
      </trkpt>
      <trkpt lat="59.4035103409" lon="17.8644779157">
        <ele>114.2</ele>
        <time>2012-10-25T19:22:57Z</time>
      </trkpt>
      <trkpt lat="59.4029960275" lon="17.8640098704">
        <ele>114.2</ele>
        <time>2012-10-25T19:23:04Z</time>
      </trkpt>
      <trkpt lat="59.4029227697" lon="17.8639449107">
        <ele>114.2</ele>
        <time>2012-10-25T19:23:05Z</time>
      </trkpt>
      <trkpt lat="59.4027090312" lon="17.8637682202">
        <ele>113.6</ele>
        <time>2012-10-25T19:23:08Z</time>
      </trkpt>
      <trkpt lat="59.4026418922" lon="17.8637158333">
        <ele>113.2</ele>
        <time>2012-10-25T19:23:09Z</time>
      </trkpt>
      <trkpt lat="59.4025753399" lon="17.8636662125">
        <ele>112.6</ele>
        <time>2012-10-25T19:23:10Z</time>
      </trkpt>
      <trkpt lat="59.4025096258" lon="17.8636129874">
        <ele>112.2</ele>
        <time>2012-10-25T19:23:11Z</time>
      </trkpt>
      <trkpt lat="59.4024434088" lon="17.8635530568">
        <ele>111.6</ele>
        <time>2012-10-25T19:23:12Z</time>
      </trkpt>
      <trkpt lat="59.4020785447" lon="17.8632540745">
        <ele>111.6</ele>
        <time>2012-10-25T19:23:18Z</time>
      </trkpt>
      <trkpt lat="59.4019626231" lon="17.8631622927">
        <ele>111.6</ele>
        <time>2012-10-25T19:23:20Z</time>
      </trkpt>
      <trkpt lat="59.4018917122" lon="17.8629755439">
        <ele>111.6</ele>
        <time>2012-10-25T19:23:22Z</time>
      </trkpt>
      <trkpt lat="59.4018618726" lon="17.8628706025">
        <ele>112.2</ele>
        <time>2012-10-25T19:23:23Z</time>
      </trkpt>
      <trkpt lat="59.4018296861" lon="17.8627718638">
        <ele>112.6</ele>
        <time>2012-10-25T19:23:24Z</time>
      </trkpt>
      <trkpt lat="59.4018021097" lon="17.8626709457">
        <ele>113</ele>
        <time>2012-10-25T19:23:25Z</time>
      </trkpt>
      <trkpt lat="59.4017788918" lon="17.8625759787">
        <ele>113.4</ele>
        <time>2012-10-25T19:23:26Z</time>
      </trkpt>
      <trkpt lat="59.4017554225" lon="17.8624890584">
        <ele>113.8</ele>
        <time>2012-10-25T19:23:27Z</time>
      </trkpt>
      <trkpt lat="59.4017374852" lon="17.8624018029">
        <ele>113.8</ele>
        <time>2012-10-25T19:23:28Z</time>
      </trkpt>
      <trkpt lat="59.4017078133" lon="17.8621195005">
        <ele>113.8</ele>
        <time>2012-10-25T19:23:31Z</time>
      </trkpt>
      <trkpt lat="59.4016946537" lon="17.8619192569">
        <ele>114.2</ele>
        <time>2012-10-25T19:23:33Z</time>
      </trkpt>
      <trkpt lat="59.4016892055" lon="17.8618125553">
        <ele>114.6</ele>
        <time>2012-10-25T19:23:34Z</time>
      </trkpt>
      <trkpt lat="59.4016845954" lon="17.8617041773">
        <ele>115.2</ele>
        <time>2012-10-25T19:23:35Z</time>
      </trkpt>
      <trkpt lat="59.401680153" lon="17.8615897644">
        <ele>115.6</ele>
        <time>2012-10-25T19:23:36Z</time>
      </trkpt>
      <trkpt lat="59.4016782252" lon="17.8614710767">
        <ele>116</ele>
        <time>2012-10-25T19:23:37Z</time>
      </trkpt>
      <trkpt lat="59.401683422" lon="17.8607837609">
        <ele>116</ele>
        <time>2012-10-25T19:23:42Z</time>
      </trkpt>
      <trkpt lat="59.4017095735" lon="17.8603066631">
        <ele>116</ele>
        <time>2012-10-25T19:23:45Z</time>
      </trkpt>
      <trkpt lat="59.4017027842" lon="17.8601507598">
        <ele>116</ele>
        <time>2012-10-25T19:23:46Z</time>
      </trkpt>
      <trkpt lat="59.4016844278" lon="17.859998293">
        <ele>115.6</ele>
        <time>2012-10-25T19:23:47Z</time>
      </trkpt>
      <trkpt lat="59.4016643112" lon="17.8598699662">
        <ele>115</ele>
        <time>2012-10-25T19:23:48Z</time>
      </trkpt>
      <trkpt lat="59.4016571028" lon="17.8597630969">
        <ele>114.6</ele>
        <time>2012-10-25T19:23:49Z</time>
      </trkpt>
      <trkpt lat="59.4016641436" lon="17.859671818">
        <ele>114.2</ele>
        <time>2012-10-25T19:23:50Z</time>
      </trkpt>
      <trkpt lat="59.4016824161" lon="17.8595996499">
        <ele>113.4</ele>
        <time>2012-10-25T19:23:51Z</time>
      </trkpt>
      <trkpt lat="59.4017039576" lon="17.8595291581">
        <ele>112.8</ele>
        <time>2012-10-25T19:23:52Z</time>
      </trkpt>
      <trkpt lat="59.4017152732" lon="17.8594532181">
        <ele>111.6</ele>
        <time>2012-10-25T19:23:53Z</time>
      </trkpt>
      <trkpt lat="59.4017091544" lon="17.859378703">
        <ele>110.8</ele>
        <time>2012-10-25T19:23:54Z</time>
      </trkpt>
      <trkpt lat="59.4016837572" lon="17.85930972">
        <ele>110.8</ele>
        <time>2012-10-25T19:23:55Z</time>
      </trkpt>
      <trkpt lat="59.4016043806" lon="17.8591676468">
        <ele>110.8</ele>
        <time>2012-10-25T19:23:57Z</time>
      </trkpt>
      <trkpt lat="59.4015561847" lon="17.8590945566">
        <ele>110.8</ele>
        <time>2012-10-25T19:23:58Z</time>
      </trkpt>
      <trkpt lat="59.4015103357" lon="17.8590314409">
        <ele>110.8</ele>
        <time>2012-10-25T19:23:59Z</time>
      </trkpt>
      <trkpt lat="59.4014188054" lon="17.858897079">
        <ele>110.8</ele>
        <time>2012-10-25T19:24:01Z</time>
      </trkpt>
      <trkpt lat="59.4012516703" lon="17.8586451191">
        <ele>110.8</ele>
        <time>2012-10-25T19:24:05Z</time>
      </trkpt>
      <trkpt lat="59.4011804241" lon="17.8585576959">
        <ele>110.8</ele>
        <time>2012-10-25T19:24:07Z</time>
      </trkpt>
      <trkpt lat="59.4011468965" lon="17.8585191391">
        <ele>111.2</ele>
        <time>2012-10-25T19:24:08Z</time>
      </trkpt>
      <trkpt lat="59.4011155482" lon="17.8584778164">
        <ele>111.6</ele>
        <time>2012-10-25T19:24:09Z</time>
      </trkpt>
      <trkpt lat="59.4010854572" lon="17.8584320512">
        <ele>112.2</ele>
        <time>2012-10-25T19:24:10Z</time>
      </trkpt>
      <trkpt lat="59.4010543604" lon="17.8583885491">
        <ele>112.6</ele>
        <time>2012-10-25T19:24:11Z</time>
      </trkpt>
      <trkpt lat="59.4010210842" lon="17.8583468911">
        <ele>113.2</ele>
        <time>2012-10-25T19:24:12Z</time>
      </trkpt>
      <trkpt lat="59.4009847906" lon="17.8583104298">
        <ele>113.6</ele>
        <time>2012-10-25T19:24:13Z</time>
      </trkpt>
      <trkpt lat="59.4009474073" lon="17.8582687718">
        <ele>114.2</ele>
        <time>2012-10-25T19:24:14Z</time>
      </trkpt>
      <trkpt lat="59.4009087668" lon="17.8582215817">
        <ele>114.8</ele>
        <time>2012-10-25T19:24:15Z</time>
      </trkpt>
      <trkpt lat="59.4008666058" lon="17.8581802589">
        <ele>115.4</ele>
        <time>2012-10-25T19:24:16Z</time>
      </trkpt>
      <trkpt lat="59.4008226008" lon="17.8581378465">
        <ele>115.8</ele>
        <time>2012-10-25T19:24:17Z</time>
      </trkpt>
      <trkpt lat="59.4007724771" lon="17.8581042351">
        <ele>117</ele>
        <time>2012-10-25T19:24:18Z</time>
      </trkpt>
      <trkpt lat="59.4007221019" lon="17.8580812687">
        <ele>117.6</ele>
        <time>2012-10-25T19:24:19Z</time>
      </trkpt>
      <trkpt lat="59.4006734868" lon="17.8580500042">
        <ele>118</ele>
        <time>2012-10-25T19:24:20Z</time>
      </trkpt>
      <trkpt lat="59.4006268835" lon="17.8580163928">
        <ele>118.6</ele>
        <time>2012-10-25T19:24:21Z</time>
      </trkpt>
      <trkpt lat="59.4005801125" lon="17.8579912471">
        <ele>119.2</ele>
        <time>2012-10-25T19:24:22Z</time>
      </trkpt>
      <trkpt lat="59.4005315813" lon="17.857966269">
        <ele>119.6</ele>
        <time>2012-10-25T19:24:23Z</time>
      </trkpt>
      <trkpt lat="59.400482631" lon="17.8579376029">
        <ele>119.6</ele>
        <time>2012-10-25T19:24:24Z</time>
      </trkpt>
      <trkpt lat="59.4002397235" lon="17.8578065938">
        <ele>119.6</ele>
        <time>2012-10-25T19:24:28Z</time>
      </trkpt>
      <trkpt lat="59.3998413318" lon="17.8576037518">
        <ele>119.6</ele>
        <time>2012-10-25T19:24:33Z</time>
      </trkpt>
      <trkpt lat="59.3995354763" lon="17.8574097109">
        <ele>119.2</ele>
        <time>2012-10-25T19:24:37Z</time>
      </trkpt>
      <trkpt lat="59.3994716062" lon="17.857344332">
        <ele>118.8</ele>
        <time>2012-10-25T19:24:38Z</time>
      </trkpt>
      <trkpt lat="59.3994117594" lon="17.8572738403">
        <ele>118.4</ele>
        <time>2012-10-25T19:24:39Z</time>
      </trkpt>
      <trkpt lat="59.3993529185" lon="17.8572046058">
        <ele>118</ele>
        <time>2012-10-25T19:24:40Z</time>
      </trkpt>
      <trkpt lat="59.3992960892" lon="17.8571365447">
        <ele>117.6</ele>
        <time>2012-10-25T19:24:41Z</time>
      </trkpt>
      <trkpt lat="59.3992413554" lon="17.8570843255">
        <ele>117.6</ele>
        <time>2012-10-25T19:24:42Z</time>
      </trkpt>
      <trkpt lat="59.3991851967" lon="17.857034537">
        <ele>117.6</ele>
        <time>2012-10-25T19:24:43Z</time>
      </trkpt>
      <trkpt lat="59.399069275" lon="17.8569420008">
        <ele>117.6</ele>
        <time>2012-10-25T19:24:45Z</time>
      </trkpt>
      <trkpt lat="59.3988865496" lon="17.8568350478">
        <ele>117.6</ele>
        <time>2012-10-25T19:24:48Z</time>
      </trkpt>
      <trkpt lat="59.3987050814" lon="17.8567232333">
        <ele>118</ele>
        <time>2012-10-25T19:24:51Z</time>
      </trkpt>
      <trkpt lat="59.3986445641" lon="17.856684928">
        <ele>118.4</ele>
        <time>2012-10-25T19:24:52Z</time>
      </trkpt>
      <trkpt lat="59.3985833762" lon="17.8566472094">
        <ele>118.8</ele>
        <time>2012-10-25T19:24:53Z</time>
      </trkpt>
      <trkpt lat="59.3985222722" lon="17.8566085689">
        <ele>119.2</ele>
        <time>2012-10-25T19:24:54Z</time>
      </trkpt>
      <trkpt lat="59.3984615034" lon="17.8565685034">
        <ele>119.6</ele>
        <time>2012-10-25T19:24:55Z</time>
      </trkpt>
      <trkpt lat="59.3984014052" lon="17.8565167032">
        <ele>119.6</ele>
        <time>2012-10-25T19:24:56Z</time>
      </trkpt>
      <trkpt lat="59.3983195979" lon="17.8563365762">
        <ele>119.6</ele>
        <time>2012-10-25T19:24:58Z</time>
      </trkpt>
      <trkpt lat="59.3980626088" lon="17.8555780143">
        <ele>119.6</ele>
        <time>2012-10-25T19:25:05Z</time>
      </trkpt>
      <trkpt lat="59.3979313482" lon="17.8552375415">
        <ele>119.2</ele>
        <time>2012-10-25T19:25:08Z</time>
      </trkpt>
      <trkpt lat="59.3978825656" lon="17.8551017547">
        <ele>118.8</ele>
        <time>2012-10-25T19:25:09Z</time>
      </trkpt>
      <trkpt lat="59.397835627" lon="17.8549699912">
        <ele>118.4</ele>
        <time>2012-10-25T19:25:10Z</time>
      </trkpt>
      <trkpt lat="59.397784665" lon="17.854826996">
        <ele>117.8</ele>
        <time>2012-10-25T19:25:11Z</time>
      </trkpt>
      <trkpt lat="59.3977353794" lon="17.8546828273">
        <ele>117.2</ele>
        <time>2012-10-25T19:25:12Z</time>
      </trkpt>
      <trkpt lat="59.3976827411" lon="17.8545340486">
        <ele>116.6</ele>
        <time>2012-10-25T19:25:13Z</time>
      </trkpt>
      <trkpt lat="59.3976272529" lon="17.8543844317">
        <ele>115.6</ele>
        <time>2012-10-25T19:25:14Z</time>
      </trkpt>
      <trkpt lat="59.3975675738" lon="17.8542364073">
        <ele>114.8</ele>
        <time>2012-10-25T19:25:15Z</time>
      </trkpt>
      <trkpt lat="59.3975079785" lon="17.8540935798">
        <ele>113.8</ele>
        <time>2012-10-25T19:25:16Z</time>
      </trkpt>
      <trkpt lat="59.3974518197" lon="17.8539499978">
        <ele>112.8</ele>
        <time>2012-10-25T19:25:17Z</time>
      </trkpt>
      <trkpt lat="59.3973997682" lon="17.8538116965">
        <ele>112</ele>
        <time>2012-10-25T19:25:18Z</time>
      </trkpt>
      <trkpt lat="59.3973519075" lon="17.8536874767">
        <ele>111.4</ele>
        <time>2012-10-25T19:25:19Z</time>
      </trkpt>
      <trkpt lat="59.3973198048" lon="17.8536002211">
        <ele>111</ele>
        <time>2012-10-25T19:25:20Z</time>
      </trkpt>
      <trkpt lat="59.3973003588" lon="17.8535291426">
        <ele>110.6</ele>
        <time>2012-10-25T19:25:21Z</time>
      </trkpt>
      <trkpt lat="59.3972876183" lon="17.8534589023">
        <ele>109.8</ele>
        <time>2012-10-25T19:25:22Z</time>
      </trkpt>
      <trkpt lat="59.3972867801" lon="17.853376592">
        <ele>109.2</ele>
        <time>2012-10-25T19:25:23Z</time>
      </trkpt>
      <trkpt lat="59.3973015323" lon="17.8532912643">
        <ele>108.4</ele>
        <time>2012-10-25T19:25:24Z</time>
      </trkpt>
      <trkpt lat="59.3973366524" lon="17.8532220298">
        <ele>107.8</ele>
        <time>2012-10-25T19:25:25Z</time>
      </trkpt>
      <trkpt lat="59.3973882849" lon="17.8531542202">
        <ele>107</ele>
        <time>2012-10-25T19:25:26Z</time>
      </trkpt>
      <trkpt lat="59.3974422644" lon="17.8530837285">
        <ele>107</ele>
        <time>2012-10-25T19:25:27Z</time>
      </trkpt>
      <trkpt lat="59.3977382293" lon="17.8526499651">
        <ele>107</ele>
        <time>2012-10-25T19:25:33Z</time>
      </trkpt>
      <trkpt lat="59.397820791" lon="17.8523229872">
        <ele>107</ele>
        <time>2012-10-25T19:25:36Z</time>
      </trkpt>
      <trkpt lat="59.3979845733" lon="17.8520852765">
        <ele>107</ele>
        <time>2012-10-25T19:25:39Z</time>
      </trkpt>
      <trkpt lat="59.3980411511" lon="17.8520075763">
        <ele>107</ele>
        <time>2012-10-25T19:25:40Z</time>
      </trkpt>
      <trkpt lat="59.3984345975" lon="17.8514737331">
        <ele>107</ele>
        <time>2012-10-25T19:25:47Z</time>
      </trkpt>
      <trkpt lat="59.3988067539" lon="17.850938465">
        <ele>107</ele>
        <time>2012-10-25T19:25:54Z</time>
      </trkpt>
      <trkpt lat="59.3991152916" lon="17.8504692462">
        <ele>107</ele>
        <time>2012-10-25T19:26:00Z</time>
      </trkpt>
      <trkpt lat="59.3994769706" lon="17.8497807569">
        <ele>107</ele>
        <time>2012-10-25T19:26:08Z</time>
      </trkpt>
      <trkpt lat="59.3997571775" lon="17.8491442355">
        <ele>107</ele>
        <time>2012-10-25T19:26:15Z</time>
      </trkpt>
      <trkpt lat="59.4000091374" lon="17.8484516391">
        <ele>107</ele>
        <time>2012-10-25T19:26:22Z</time>
      </trkpt>
      <trkpt lat="59.4000433356" lon="17.8483464462">
        <ele>107</ele>
        <time>2012-10-25T19:26:23Z</time>
      </trkpt>
      <trkpt lat="59.4000808027" lon="17.8482446061">
        <ele>107</ele>
        <time>2012-10-25T19:26:24Z</time>
      </trkpt>
      <trkpt lat="59.4002331856" lon="17.8478442866">
        <ele>107</ele>
        <time>2012-10-25T19:26:28Z</time>
      </trkpt>
      <trkpt lat="59.4003457545" lon="17.8475382634">
        <ele>107.4</ele>
        <time>2012-10-25T19:26:31Z</time>
      </trkpt>
      <trkpt lat="59.4003843951" lon="17.8474318971">
        <ele>108</ele>
        <time>2012-10-25T19:26:32Z</time>
      </trkpt>
      <trkpt lat="59.4004256341" lon="17.8473284645">
        <ele>108.4</ele>
        <time>2012-10-25T19:26:33Z</time>
      </trkpt>
      <trkpt lat="59.4004647775" lon="17.8472257862">
        <ele>108.8</ele>
        <time>2012-10-25T19:26:34Z</time>
      </trkpt>
      <trkpt lat="59.4005022446" lon="17.847121683">
        <ele>109.2</ele>
        <time>2012-10-25T19:26:35Z</time>
      </trkpt>
      <trkpt lat="59.4005406337" lon="17.8470144785">
        <ele>109.2</ele>
        <time>2012-10-25T19:26:36Z</time>
      </trkpt>
      <trkpt lat="59.4008730599" lon="17.8460803157">
        <ele>109.2</ele>
        <time>2012-10-25T19:26:45Z</time>
      </trkpt>
      <trkpt lat="59.401197607" lon="17.8453218376">
        <ele>109.2</ele>
        <time>2012-10-25T19:26:53Z</time>
      </trkpt>
      <trkpt lat="59.4015317934" lon="17.8445915226">
        <ele>109.2</ele>
        <time>2012-10-25T19:27:01Z</time>
      </trkpt>
      <trkpt lat="59.4017475435" lon="17.8441549933">
        <ele>109.2</ele>
        <time>2012-10-25T19:27:06Z</time>
      </trkpt>
      <trkpt lat="59.4019909539" lon="17.8437810767">
        <ele>109.2</ele>
        <time>2012-10-25T19:27:11Z</time>
      </trkpt>
      <trkpt lat="59.4021115694" lon="17.8434756403">
        <ele>109.2</ele>
        <time>2012-10-25T19:27:14Z</time>
      </trkpt>
      <trkpt lat="59.4021357931" lon="17.8433679329">
        <ele>109.2</ele>
        <time>2012-10-25T19:27:15Z</time>
      </trkpt>
      <trkpt lat="59.402258085" lon="17.8429113708">
        <ele>109.2</ele>
        <time>2012-10-25T19:27:20Z</time>
      </trkpt>
      <trkpt lat="59.4022916126" lon="17.8428366881">
        <ele>109.2</ele>
        <time>2012-10-25T19:27:21Z</time>
      </trkpt>
      <trkpt lat="59.4024620167" lon="17.8426010729">
        <ele>109.2</ele>
        <time>2012-10-25T19:27:25Z</time>
      </trkpt>
      <trkpt lat="59.4025180077" lon="17.8425506976">
        <ele>109.2</ele>
        <time>2012-10-25T19:27:26Z</time>
      </trkpt>
      <trkpt lat="59.4027056785" lon="17.8425197684">
        <ele>109.2</ele>
        <time>2012-10-25T19:27:29Z</time>
      </trkpt>
      <trkpt lat="59.402763346" lon="17.8425391306">
        <ele>109.8</ele>
        <time>2012-10-25T19:27:30Z</time>
      </trkpt>
      <trkpt lat="59.4028209296" lon="17.8425563135">
        <ele>110.2</ele>
        <time>2012-10-25T19:27:31Z</time>
      </trkpt>
      <trkpt lat="59.4028795191" lon="17.8425672938">
        <ele>110.6</ele>
        <time>2012-10-25T19:27:32Z</time>
      </trkpt>
      <trkpt lat="59.40293836" lon="17.84257182">
        <ele>111</ele>
        <time>2012-10-25T19:27:33Z</time>
      </trkpt>
      <trkpt lat="59.4029982906" lon="17.8425739155">
        <ele>111.4</ele>
        <time>2012-10-25T19:27:34Z</time>
      </trkpt>
      <trkpt lat="59.4031214207" lon="17.8425558106">
        <ele>111.4</ele>
        <time>2012-10-25T19:27:36Z</time>
      </trkpt>
      <trkpt lat="59.4031794235" lon="17.8425423996">
        <ele>111.8</ele>
        <time>2012-10-25T19:27:37Z</time>
      </trkpt>
      <trkpt lat="59.4032395217" lon="17.8425229535">
        <ele>112.2</ele>
        <time>2012-10-25T19:27:38Z</time>
      </trkpt>
      <trkpt lat="59.4032994523" lon="17.8425014121">
        <ele>112.6</ele>
        <time>2012-10-25T19:27:39Z</time>
      </trkpt>
      <trkpt lat="59.4033594667" lon="17.8424789486">
        <ele>113</ele>
        <time>2012-10-25T19:27:40Z</time>
      </trkpt>
      <trkpt lat="59.4034189782" lon="17.8424539705">
        <ele>113.4</ele>
        <time>2012-10-25T19:27:41Z</time>
      </trkpt>
      <trkpt lat="59.4037152783" lon="17.8422826445">
        <ele>113.4</ele>
        <time>2012-10-25T19:27:46Z</time>
      </trkpt>
      <trkpt lat="59.4039134265" lon="17.8421159285">
        <ele>113.4</ele>
        <time>2012-10-25T19:27:50Z</time>
      </trkpt>
      <trkpt lat="59.4040125843" lon="17.8420088916">
        <ele>113.4</ele>
        <time>2012-10-25T19:27:52Z</time>
      </trkpt>
      <trkpt lat="59.4043095551" lon="17.8417363122">
        <ele>113.4</ele>
        <time>2012-10-25T19:27:58Z</time>
      </trkpt>
      <trkpt lat="59.4043569128" lon="17.8416927264">
        <ele>113.8</ele>
        <time>2012-10-25T19:27:59Z</time>
      </trkpt>
      <trkpt lat="59.4044020912" lon="17.8416503139">
        <ele>114.8</ele>
        <time>2012-10-25T19:28:00Z</time>
      </trkpt>
      <trkpt lat="59.4044448389" lon="17.8416069795">
        <ele>115.2</ele>
        <time>2012-10-25T19:28:01Z</time>
      </trkpt>
      <trkpt lat="59.4044894306" lon="17.8415625554">
        <ele>115.6</ele>
        <time>2012-10-25T19:28:02Z</time>
      </trkpt>
      <trkpt lat="59.4047151552" lon="17.8413404351">
        <ele>115.6</ele>
        <time>2012-10-25T19:28:07Z</time>
      </trkpt>
      <trkpt lat="59.4047587411" lon="17.8412919039">
        <ele>115.6</ele>
        <time>2012-10-25T19:28:08Z</time>
      </trkpt>
      <trkpt lat="59.404929648" lon="17.841141365">
        <ele>115.6</ele>
        <time>2012-10-25T19:28:12Z</time>
      </trkpt>
      <trkpt lat="59.4051345017" lon="17.840935757">
        <ele>116</ele>
        <time>2012-10-25T19:28:16Z</time>
      </trkpt>
      <trkpt lat="59.4051864694" lon="17.8408802688">
        <ele>116.4</ele>
        <time>2012-10-25T19:28:17Z</time>
      </trkpt>
      <trkpt lat="59.4052416223" lon="17.8408254512">
        <ele>117</ele>
        <time>2012-10-25T19:28:18Z</time>
      </trkpt>
      <trkpt lat="59.4052961885" lon="17.8407772552">
        <ele>117.4</ele>
        <time>2012-10-25T19:28:19Z</time>
      </trkpt>
      <trkpt lat="59.4053533531" lon="17.8407235273">
        <ele>117.8</ele>
        <time>2012-10-25T19:28:20Z</time>
      </trkpt>
      <trkpt lat="59.4055644931" lon="17.8404979703">
        <ele>117.8</ele>
        <time>2012-10-25T19:28:24Z</time>
      </trkpt>
      <trkpt lat="59.4058660739" lon="17.8401867504">
        <ele>117.8</ele>
        <time>2012-10-25T19:28:30Z</time>
      </trkpt>
      <trkpt lat="59.4060566783" lon="17.8399792984">
        <ele>118.2</ele>
        <time>2012-10-25T19:28:34Z</time>
      </trkpt>
      <trkpt lat="59.4061057962" lon="17.8399239778">
        <ele>118.6</ele>
        <time>2012-10-25T19:28:35Z</time>
      </trkpt>
      <trkpt lat="59.4061524834" lon="17.8398704175">
        <ele>119.2</ele>
        <time>2012-10-25T19:28:36Z</time>
      </trkpt>
      <trkpt lat="59.4061986677" lon="17.8398182821">
        <ele>119.6</ele>
        <time>2012-10-25T19:28:37Z</time>
      </trkpt>
      <trkpt lat="59.4062423374" lon="17.8397623748">
        <ele>120</ele>
        <time>2012-10-25T19:28:38Z</time>
      </trkpt>
      <trkpt lat="59.406449035" lon="17.8394522445">
        <ele>120</ele>
        <time>2012-10-25T19:28:43Z</time>
      </trkpt>
      <trkpt lat="59.4067265597" lon="17.8390507515">
        <ele>120</ele>
        <time>2012-10-25T19:28:48Z</time>
      </trkpt>
      <trkpt lat="59.406964019" lon="17.838767108">
        <ele>119.4</ele>
        <time>2012-10-25T19:28:52Z</time>
      </trkpt>
      <trkpt lat="59.4070120473" lon="17.8387646772">
        <ele>119</ele>
        <time>2012-10-25T19:28:53Z</time>
      </trkpt>
      <trkpt lat="59.4070522804" lon="17.8388472389">
        <ele>118.6</ele>
        <time>2012-10-25T19:28:54Z</time>
      </trkpt>
      <trkpt lat="59.4070891607" lon="17.8389157191">
        <ele>118.2</ele>
        <time>2012-10-25T19:28:55Z</time>
      </trkpt>
      <trkpt lat="59.4071297291" lon="17.838950504">
        <ele>117.6</ele>
        <time>2012-10-25T19:28:56Z</time>
      </trkpt>
      <trkpt lat="59.4073159749" lon="17.8389399428">
        <ele>117.6</ele>
        <time>2012-10-25T19:29:00Z</time>
      </trkpt>
      <trkpt lat="59.4074797573" lon="17.8388386894">
        <ele>118.2</ele>
        <time>2012-10-25T19:29:03Z</time>
      </trkpt>
      <trkpt lat="59.4075329823" lon="17.8388003003">
        <ele>118.6</ele>
        <time>2012-10-25T19:29:04Z</time>
      </trkpt>
      <trkpt lat="59.4075870456" lon="17.8387588937">
        <ele>119</ele>
        <time>2012-10-25T19:29:05Z</time>
      </trkpt>
      <trkpt lat="59.4076437072" lon="17.838699047">
        <ele>119.4</ele>
        <time>2012-10-25T19:29:06Z</time>
      </trkpt>
      <trkpt lat="59.4076964294" lon="17.83864205">
        <ele>120</ele>
        <time>2012-10-25T19:29:07Z</time>
      </trkpt>
      <trkpt lat="59.4078485609" lon="17.8384627612">
        <ele>120</ele>
        <time>2012-10-25T19:29:10Z</time>
      </trkpt>
      <trkpt lat="59.408160619" lon="17.8381594202">
        <ele>120</ele>
        <time>2012-10-25T19:29:16Z</time>
      </trkpt>
      <trkpt lat="59.4085390618" lon="17.8378495414">
        <ele>120</ele>
        <time>2012-10-25T19:29:23Z</time>
      </trkpt>
      <trkpt lat="59.4089519542" lon="17.837388034">
        <ele>120</ele>
        <time>2012-10-25T19:29:31Z</time>
      </trkpt>
      <trkpt lat="59.4091353502" lon="17.8371240041">
        <ele>120</ele>
        <time>2012-10-25T19:29:35Z</time>
      </trkpt>
      <trkpt lat="59.4092136371" lon="17.8369766503">
        <ele>120</ele>
        <time>2012-10-25T19:29:37Z</time>
      </trkpt>
      <trkpt lat="59.4094766611" lon="17.8364517757">
        <ele>120</ele>
        <time>2012-10-25T19:29:43Z</time>
      </trkpt>
      <trkpt lat="59.4096927465" lon="17.8358261507">
        <ele>120</ele>
        <time>2012-10-25T19:29:49Z</time>
      </trkpt>
      <trkpt lat="59.4098957561" lon="17.835024422">
        <ele>120</ele>
        <time>2012-10-25T19:29:56Z</time>
      </trkpt>
      <trkpt lat="59.4100068163" lon="17.8344371861">
        <ele>120</ele>
        <time>2012-10-25T19:30:01Z</time>
      </trkpt>
      <trkpt lat="59.4100753802" lon="17.8340884152">
        <ele>119.6</ele>
        <time>2012-10-25T19:30:04Z</time>
      </trkpt>
      <trkpt lat="59.4100996039" lon="17.8339675482">
        <ele>119</ele>
        <time>2012-10-25T19:30:05Z</time>
      </trkpt>
      <trkpt lat="59.4101209778" lon="17.8338447534">
        <ele>118.6</ele>
        <time>2012-10-25T19:30:06Z</time>
      </trkpt>
      <trkpt lat="59.4101411782" lon="17.8337308434">
        <ele>118.2</ele>
        <time>2012-10-25T19:30:07Z</time>
      </trkpt>
      <trkpt lat="59.4101622167" lon="17.83362498">
        <ele>117.8</ele>
        <time>2012-10-25T19:30:08Z</time>
      </trkpt>
      <trkpt lat="59.4102415095" lon="17.8332130096">
        <ele>117.8</ele>
        <time>2012-10-25T19:30:12Z</time>
      </trkpt>
      <trkpt lat="59.4103497198" lon="17.8326585469">
        <ele>117.8</ele>
        <time>2012-10-25T19:30:17Z</time>
      </trkpt>
      <trkpt lat="59.4104571758" lon="17.8321093648">
        <ele>117.8</ele>
        <time>2012-10-25T19:30:22Z</time>
      </trkpt>
      <trkpt lat="59.4104777114" lon="17.8320081115">
        <ele>118.2</ele>
        <time>2012-10-25T19:30:23Z</time>
      </trkpt>
      <trkpt lat="59.4105017675" lon="17.8319061037">
        <ele>118.6</ele>
        <time>2012-10-25T19:30:24Z</time>
      </trkpt>
      <trkpt lat="59.4105228899" lon="17.8318062753">
        <ele>119</ele>
        <time>2012-10-25T19:30:25Z</time>
      </trkpt>
      <trkpt lat="59.410545521" lon="17.8317073689">
        <ele>119.4</ele>
        <time>2012-10-25T19:30:26Z</time>
      </trkpt>
      <trkpt lat="59.4105694094" lon="17.831604523">
        <ele>120</ele>
        <time>2012-10-25T19:30:27Z</time>
      </trkpt>
      <trkpt lat="59.4107493688" lon="17.8309635591">
        <ele>120</ele>
        <time>2012-10-25T19:30:33Z</time>
      </trkpt>
      <trkpt lat="59.4109879177" lon="17.8303681089">
        <ele>120</ele>
        <time>2012-10-25T19:30:39Z</time>
      </trkpt>
      <trkpt lat="59.4112731538" lon="17.8298309968">
        <ele>119.6</ele>
        <time>2012-10-25T19:30:45Z</time>
      </trkpt>
      <trkpt lat="59.4113320785" lon="17.8297431544">
        <ele>119.2</ele>
        <time>2012-10-25T19:30:46Z</time>
      </trkpt>
      <trkpt lat="59.4113931826" lon="17.8296524623">
        <ele>118.8</ele>
        <time>2012-10-25T19:30:47Z</time>
      </trkpt>
      <trkpt lat="59.4114566335" lon="17.8295616025">
        <ele>118.4</ele>
        <time>2012-10-25T19:30:48Z</time>
      </trkpt>
      <trkpt lat="59.4115201683" lon="17.8294735925">
        <ele>118</ele>
        <time>2012-10-25T19:30:49Z</time>
      </trkpt>
      <trkpt lat="59.4117739723" lon="17.8291474528">
        <ele>117.6</ele>
        <time>2012-10-25T19:30:53Z</time>
      </trkpt>
      <trkpt lat="59.4118371718" lon="17.8290711775">
        <ele>116.8</ele>
        <time>2012-10-25T19:30:54Z</time>
      </trkpt>
      <trkpt lat="59.4119012095" lon="17.8289993446">
        <ele>116.4</ele>
        <time>2012-10-25T19:30:55Z</time>
      </trkpt>
      <trkpt lat="59.4119663369" lon="17.8289286014">
        <ele>115.8</ele>
        <time>2012-10-25T19:30:56Z</time>
      </trkpt>
      <trkpt lat="59.4121729507" lon="17.8287533359">
        <ele>115.4</ele>
        <time>2012-10-25T19:30:59Z</time>
      </trkpt>
      <trkpt lat="59.4122470467" lon="17.8287017872">
        <ele>115</ele>
        <time>2012-10-25T19:31:00Z</time>
      </trkpt>
      <trkpt lat="59.4123179576" lon="17.8286545133">
        <ele>114.6</ele>
        <time>2012-10-25T19:31:01Z</time>
      </trkpt>
      <trkpt lat="59.412389539" lon="17.8286107597">
        <ele>114</ele>
        <time>2012-10-25T19:31:02Z</time>
      </trkpt>
      <trkpt lat="59.4124627968" lon="17.8285736279">
        <ele>113.6</ele>
        <time>2012-10-25T19:31:03Z</time>
      </trkpt>
      <trkpt lat="59.41269288" lon="17.8284813432">
        <ele>113</ele>
        <time>2012-10-25T19:31:06Z</time>
      </trkpt>
      <trkpt lat="59.4127768666" lon="17.8284532638">
        <ele>112.6</ele>
        <time>2012-10-25T19:31:07Z</time>
      </trkpt>
      <trkpt lat="59.4128564947" lon="17.8284253521">
        <ele>112.2</ele>
        <time>2012-10-25T19:31:08Z</time>
      </trkpt>
      <trkpt lat="59.4129341111" lon="17.8284025534">
        <ele>111.6</ele>
        <time>2012-10-25T19:31:09Z</time>
      </trkpt>
      <trkpt lat="59.4130121465" lon="17.8283856219">
        <ele>111.2</ele>
        <time>2012-10-25T19:31:10Z</time>
      </trkpt>
      <trkpt lat="59.4132418106" lon="17.8283482386">
        <ele>110.8</ele>
        <time>2012-10-25T19:31:13Z</time>
      </trkpt>
      <trkpt lat="59.4133171639" lon="17.8283359172">
        <ele>110.4</ele>
        <time>2012-10-25T19:31:14Z</time>
      </trkpt>
      <trkpt lat="59.4133970434" lon="17.8283191534">
        <ele>110</ele>
        <time>2012-10-25T19:31:15Z</time>
      </trkpt>
      <trkpt lat="59.413471307" lon="17.8283098495">
        <ele>109.6</ele>
        <time>2012-10-25T19:31:16Z</time>
      </trkpt>
      <trkpt lat="59.4135458221" lon="17.8283074188">
        <ele>109.2</ele>
        <time>2012-10-25T19:31:17Z</time>
      </trkpt>
      <trkpt lat="59.4136940141" lon="17.8282901521">
        <ele>108.6</ele>
        <time>2012-10-25T19:31:19Z</time>
      </trkpt>
      <trkpt lat="59.4137707923" lon="17.8282766572">
        <ele>108.2</ele>
        <time>2012-10-25T19:31:20Z</time>
      </trkpt>
      <trkpt lat="59.4138484087" lon="17.8282662637">
        <ele>107.8</ele>
        <time>2012-10-25T19:31:21Z</time>
      </trkpt>
      <trkpt lat="59.4139253546" lon="17.8282458956">
        <ele>107.2</ele>
        <time>2012-10-25T19:31:22Z</time>
      </trkpt>
      <trkpt lat="59.4139962654" lon="17.8282292157">
        <ele>106.8</ele>
        <time>2012-10-25T19:31:23Z</time>
      </trkpt>
      <trkpt lat="59.4141929886" lon="17.8281863003">
        <ele>106.8</ele>
        <time>2012-10-25T19:31:26Z</time>
      </trkpt>
      <trkpt lat="59.4143815814" lon="17.8281548682">
        <ele>106.4</ele>
        <time>2012-10-25T19:31:29Z</time>
      </trkpt>
      <trkpt lat="59.4144377401" lon="17.8281421277">
        <ele>105.8</ele>
        <time>2012-10-25T19:31:30Z</time>
      </trkpt>
      <trkpt lat="59.4144918034" lon="17.8281303092">
        <ele>105.4</ele>
        <time>2012-10-25T19:31:31Z</time>
      </trkpt>
      <trkpt lat="59.4145432682" lon="17.8281301416">
        <ele>104.8</ele>
        <time>2012-10-25T19:31:32Z</time>
      </trkpt>
      <trkpt lat="59.4145881114" lon="17.828135506">
        <ele>104.4</ele>
        <time>2012-10-25T19:31:33Z</time>
      </trkpt>
      <trkpt lat="59.4146997583" lon="17.8281712967">
        <ele>104.4</ele>
        <time>2012-10-25T19:31:36Z</time>
      </trkpt>
      <trkpt lat="59.4147197072" lon="17.8281682792">
        <ele>104.4</ele>
        <time>2012-10-25T19:31:39Z</time>
      </trkpt>
      <trkpt lat="59.4147197072" lon="17.8281682792">
        <ele>104.4</ele>
        <time>2012-10-25T19:31:41Z</time>
      </trkpt>
      <trkpt lat="59.4147384827" lon="17.8281806006">
        <ele>104.4</ele>
        <time>2012-10-25T19:32:07Z</time>
      </trkpt>
      <trkpt lat="59.4147595212" lon="17.8281780861">
        <ele>104</ele>
        <time>2012-10-25T19:32:08Z</time>
      </trkpt>
      <trkpt lat="59.4147974912" lon="17.8281606517">
        <ele>103</ele>
        <time>2012-10-25T19:32:09Z</time>
      </trkpt>
      <trkpt lat="59.4148394007" lon="17.8281469892">
        <ele>103.2</ele>
        <time>2012-10-25T19:32:10Z</time>
      </trkpt>
      <trkpt lat="59.4148876805" lon="17.8281520184">
        <ele>103.6</ele>
        <time>2012-10-25T19:32:11Z</time>
      </trkpt>
      <trkpt lat="59.4149392292" lon="17.8281519345">
        <ele>103.8</ele>
        <time>2012-10-25T19:32:12Z</time>
      </trkpt>
      <trkpt lat="59.4149918675" lon="17.8281392779">
        <ele>104.2</ele>
        <time>2012-10-25T19:32:13Z</time>
      </trkpt>
      <trkpt lat="59.4150440867" lon="17.8281177364">
        <ele>104.4</ele>
        <time>2012-10-25T19:32:14Z</time>
      </trkpt>
      <trkpt lat="59.4152075338" lon="17.8280367672">
        <ele>104.4</ele>
        <time>2012-10-25T19:32:17Z</time>
      </trkpt>
      <trkpt lat="59.4152649498" lon="17.828041042">
        <ele>104.4</ele>
        <time>2012-10-25T19:32:18Z</time>
      </trkpt>
      <trkpt lat="59.415421859" lon="17.8281127911">
        <ele>104.4</ele>
        <time>2012-10-25T19:32:21Z</time>
      </trkpt>
      <trkpt lat="59.4157607392" lon="17.8282130386">
        <ele>104.4</ele>
        <time>2012-10-25T19:32:27Z</time>
      </trkpt>
      <trkpt lat="59.4161892219" lon="17.8283414493">
        <ele>104.4</ele>
        <time>2012-10-25T19:32:35Z</time>
      </trkpt>
      <trkpt lat="59.4163198119" lon="17.8284159644">
        <ele>104.4</ele>
        <time>2012-10-25T19:32:38Z</time>
      </trkpt>
      <trkpt lat="59.4164608793" lon="17.8284986099">
        <ele>104.4</ele>
        <time>2012-10-25T19:32:41Z</time>
      </trkpt>
      <trkpt lat="59.4168105722" lon="17.8287061458">
        <ele>104.4</ele>
        <time>2012-10-25T19:32:47Z</time>
      </trkpt>
      <trkpt lat="59.4170015957" lon="17.8288059742">
        <ele>104.8</ele>
        <time>2012-10-25T19:32:50Z</time>
      </trkpt>
      <trkpt lat="59.4170609395" lon="17.8288357299">
        <ele>105.4</ele>
        <time>2012-10-25T19:32:51Z</time>
      </trkpt>
      <trkpt lat="59.4171197805" lon="17.8288680841">
        <ele>105.8</ele>
        <time>2012-10-25T19:32:52Z</time>
      </trkpt>
      <trkpt lat="59.4171789567" lon="17.8288971693">
        <ele>106.2</ele>
        <time>2012-10-25T19:32:53Z</time>
      </trkpt>
      <trkpt lat="59.4172364565" lon="17.8289244104">
        <ele>106.6</ele>
        <time>2012-10-25T19:32:54Z</time>
      </trkpt>
      <trkpt lat="59.4175071919" lon="17.8290700879">
        <ele>106.6</ele>
        <time>2012-10-25T19:32:59Z</time>
      </trkpt>
      <trkpt lat="59.4178531967" lon="17.8292776237">
        <ele>106.6</ele>
        <time>2012-10-25T19:33:05Z</time>
      </trkpt>
      <trkpt lat="59.4180119499" lon="17.8293228022">
        <ele>106.6</ele>
        <time>2012-10-25T19:33:08Z</time>
      </trkpt>
      <trkpt lat="59.4181212499" lon="17.8292493767">
        <ele>106.6</ele>
        <time>2012-10-25T19:33:10Z</time>
      </trkpt>
      <trkpt lat="59.4183432864" lon="17.8291741072">
        <ele>106.6</ele>
        <time>2012-10-25T19:33:14Z</time>
      </trkpt>
      <trkpt lat="59.4185759679" lon="17.8293262387">
        <ele>106.6</ele>
        <time>2012-10-25T19:33:18Z</time>
      </trkpt>
      <trkpt lat="59.4186674983" lon="17.8294725029">
        <ele>106.6</ele>
        <time>2012-10-25T19:33:20Z</time>
      </trkpt>
      <trkpt lat="59.4187476293" lon="17.8296137379">
        <ele>106.6</ele>
        <time>2012-10-25T19:33:22Z</time>
      </trkpt>
      <trkpt lat="59.4187943164" lon="17.8296667953">
        <ele>107.2</ele>
        <time>2012-10-25T19:33:23Z</time>
      </trkpt>
      <trkpt lat="59.4188450269" lon="17.8297170867">
        <ele>107.6</ele>
        <time>2012-10-25T19:33:24Z</time>
      </trkpt>
      <trkpt lat="59.4189063824" lon="17.8297653665">
        <ele>108</ele>
        <time>2012-10-25T19:33:25Z</time>
      </trkpt>
      <trkpt lat="59.4189654748" lon="17.8298076951">
        <ele>108.4</ele>
        <time>2012-10-25T19:33:26Z</time>
      </trkpt>
      <trkpt lat="59.419021885" lon="17.8298544661">
        <ele>108.8</ele>
        <time>2012-10-25T19:33:27Z</time>
      </trkpt>
      <trkpt lat="59.419357161" lon="17.8300742395">
        <ele>108.8</ele>
        <time>2012-10-25T19:33:33Z</time>
      </trkpt>
      <trkpt lat="59.4197317481" lon="17.8302997964">
        <ele>108.8</ele>
        <time>2012-10-25T19:33:40Z</time>
      </trkpt>
      <trkpt lat="59.4199641782" lon="17.8304286262">
        <ele>109.4</ele>
        <time>2012-10-25T19:33:44Z</time>
      </trkpt>
      <trkpt lat="59.4200220133" lon="17.8304577114">
        <ele>109.8</ele>
        <time>2012-10-25T19:33:45Z</time>
      </trkpt>
      <trkpt lat="59.420081441" lon="17.830488473">
        <ele>110.2</ele>
        <time>2012-10-25T19:33:46Z</time>
      </trkpt>
      <trkpt lat="59.4201411201" lon="17.8305256048">
        <ele>111</ele>
        <time>2012-10-25T19:33:47Z</time>
      </trkpt>
      <trkpt lat="59.4204706126" lon="17.8307568614">
        <ele>111</ele>
        <time>2012-10-25T19:33:53Z</time>
      </trkpt>
      <trkpt lat="59.4208076488" lon="17.8310319554">
        <ele>111</ele>
        <time>2012-10-25T19:33:59Z</time>
      </trkpt>
      <trkpt lat="59.421103949" lon="17.8312896988">
        <ele>111</ele>
        <time>2012-10-25T19:34:04Z</time>
      </trkpt>
      <trkpt lat="59.4212166855" lon="17.8313878509">
        <ele>111</ele>
        <time>2012-10-25T19:34:07Z</time>
      </trkpt>
      <trkpt lat="59.4213892689" lon="17.8315124897">
        <ele>111</ele>
        <time>2012-10-25T19:34:10Z</time>
      </trkpt>
      <trkpt lat="59.4215585832" lon="17.8315792935">
        <ele>111</ele>
        <time>2012-10-25T19:34:13Z</time>
      </trkpt>
      <trkpt lat="59.4216560647" lon="17.8315907767">
        <ele>111</ele>
        <time>2012-10-25T19:34:15Z</time>
      </trkpt>
      <trkpt lat="59.4218470044" lon="17.8316205324">
        <ele>111</ele>
        <time>2012-10-25T19:34:19Z</time>
      </trkpt>
      <trkpt lat="59.4218951165" lon="17.8316058641">
        <ele>111</ele>
        <time>2012-10-25T19:34:20Z</time>
      </trkpt>
      <trkpt lat="59.422023192" lon="17.8315861666">
        <ele>111</ele>
        <time>2012-10-25T19:34:23Z</time>
      </trkpt>
      <trkpt lat="59.4221015627" lon="17.8316020922">
        <ele>111</ele>
        <time>2012-10-25T19:34:25Z</time>
      </trkpt>
      <trkpt lat="59.4223256109" lon="17.8316008349">
        <ele>111</ele>
        <time>2012-10-25T19:34:29Z</time>
      </trkpt>
      <trkpt lat="59.4223896486" lon="17.8315974822">
        <ele>111</ele>
        <time>2012-10-25T19:34:30Z</time>
      </trkpt>
      <trkpt lat="59.4226442069" lon="17.831581808">
        <ele>111</ele>
        <time>2012-10-25T19:34:34Z</time>
      </trkpt>
      <trkpt lat="59.4227732044" lon="17.8315774494">
        <ele>111</ele>
        <time>2012-10-25T19:34:36Z</time>
      </trkpt>
      <trkpt lat="59.423166064" lon="17.831573007">
        <ele>111</ele>
        <time>2012-10-25T19:34:42Z</time>
      </trkpt>
      <trkpt lat="59.4234921199" lon="17.8315832329">
        <ele>111</ele>
        <time>2012-10-25T19:34:47Z</time>
      </trkpt>
      <trkpt lat="59.4235544813" lon="17.8315804669">
        <ele>111</ele>
        <time>2012-10-25T19:34:48Z</time>
      </trkpt>
      <trkpt lat="59.423840807" lon="17.8315467717">
        <ele>111</ele>
        <time>2012-10-25T19:34:53Z</time>
      </trkpt>
      <trkpt lat="59.4238907631" lon="17.8315363781">
        <ele>111</ele>
        <time>2012-10-25T19:34:54Z</time>
      </trkpt>
      <trkpt lat="59.4239798627" lon="17.8315055327">
        <ele>111</ele>
        <time>2012-10-25T19:34:56Z</time>
      </trkpt>
      <trkpt lat="59.4240611671" lon="17.8314476976">
        <ele>111</ele>
        <time>2012-10-25T19:34:58Z</time>
      </trkpt>
      <trkpt lat="59.4241555473" lon="17.8314331131">
        <ele>111</ele>
        <time>2012-10-25T19:35:00Z</time>
      </trkpt>
      <trkpt lat="59.4242669428" lon="17.8314426685">
        <ele>111</ele>
        <time>2012-10-25T19:35:02Z</time>
      </trkpt>
      <trkpt lat="59.4244526857" lon="17.8315395632">
        <ele>111</ele>
        <time>2012-10-25T19:35:05Z</time>
      </trkpt>
      <trkpt lat="59.4247023825" lon="17.8315166807">
        <ele>111</ele>
        <time>2012-10-25T19:35:09Z</time>
      </trkpt>
      <trkpt lat="59.4247673422" lon="17.8314972347">
        <ele>111</ele>
        <time>2012-10-25T19:35:10Z</time>
      </trkpt>
      <trkpt lat="59.4248352356" lon="17.8314947201">
        <ele>111</ele>
        <time>2012-10-25T19:35:11Z</time>
      </trkpt>
      <trkpt lat="59.4249738722" lon="17.8315425807">
        <ele>111</ele>
        <time>2012-10-25T19:35:13Z</time>
      </trkpt>
      <trkpt lat="59.4251143529" lon="17.8315566623">
        <ele>111</ele>
        <time>2012-10-25T19:35:15Z</time>
      </trkpt>
      <trkpt lat="59.4253257444" lon="17.8315284153">
        <ele>111</ele>
        <time>2012-10-25T19:35:18Z</time>
      </trkpt>
      <trkpt lat="59.4257326018" lon="17.8313946402">
        <ele>111</ele>
        <time>2012-10-25T19:35:24Z</time>
      </trkpt>
      <trkpt lat="59.4257974777" lon="17.8313663932">
        <ele>111</ele>
        <time>2012-10-25T19:35:25Z</time>
      </trkpt>
      <trkpt lat="59.4261304906" lon="17.8312778803">
        <ele>111</ele>
        <time>2012-10-25T19:35:30Z</time>
      </trkpt>
      <trkpt lat="59.4262018206" lon="17.8312684088">
        <ele>111</ele>
        <time>2012-10-25T19:35:31Z</time>
      </trkpt>
      <trkpt lat="59.4264047464" lon="17.8312309417">
        <ele>111</ele>
        <time>2012-10-25T19:35:34Z</time>
      </trkpt>
      <trkpt lat="59.4265396111" lon="17.8311682451">
        <ele>111</ele>
        <time>2012-10-25T19:35:36Z</time>
      </trkpt>
      <trkpt lat="59.426979158" lon="17.8308682569">
        <ele>111</ele>
        <time>2012-10-25T19:35:43Z</time>
      </trkpt>
      <trkpt lat="59.4273586066" lon="17.8306035565">
        <ele>111</ele>
        <time>2012-10-25T19:35:49Z</time>
      </trkpt>
      <trkpt lat="59.4276171044" lon="17.8303075916">
        <ele>111</ele>
        <time>2012-10-25T19:35:54Z</time>
      </trkpt>
      <trkpt lat="59.4277672242" lon="17.83010366">
        <ele>111</ele>
        <time>2012-10-25T19:35:58Z</time>
      </trkpt>
      <trkpt lat="59.4278672203" lon="17.8300080225">
        <ele>111</ele>
        <time>2012-10-25T19:36:00Z</time>
      </trkpt>
      <trkpt lat="59.4279901828" lon="17.8299474213">
        <ele>111</ele>
        <time>2012-10-25T19:36:02Z</time>
      </trkpt>
      <trkpt lat="59.4281635204" lon="17.8297187631">
        <ele>111</ele>
        <time>2012-10-25T19:36:05Z</time>
      </trkpt>
      <trkpt lat="59.42839989" lon="17.8292762826">
        <ele>111</ele>
        <time>2012-10-25T19:36:10Z</time>
      </trkpt>
      <trkpt lat="59.4286478266" lon="17.8287768052">
        <ele>111</ele>
        <time>2012-10-25T19:36:16Z</time>
      </trkpt>
      <trkpt lat="59.428839353" lon="17.8284246816">
        <ele>111</ele>
        <time>2012-10-25T19:36:21Z</time>
      </trkpt>
      <trkpt lat="59.4288823522" lon="17.8284419483">
        <ele>111</ele>
        <time>2012-10-25T19:36:22Z</time>
      </trkpt>
      <trkpt lat="59.4290136127" lon="17.8286802457">
        <ele>111</ele>
        <time>2012-10-25T19:36:25Z</time>
      </trkpt>
      <trkpt lat="59.4290459669" lon="17.8287793198">
        <ele>111</ele>
        <time>2012-10-25T19:36:26Z</time>
      </trkpt>
      <trkpt lat="59.429237158" lon="17.8292995843">
        <ele>111</ele>
        <time>2012-10-25T19:36:31Z</time>
      </trkpt>
      <trkpt lat="59.4294613738" lon="17.82990174">
        <ele>110.6</ele>
        <time>2012-10-25T19:36:36Z</time>
      </trkpt>
      <trkpt lat="59.4295085639" lon="17.8300433103">
        <ele>110.2</ele>
        <time>2012-10-25T19:36:37Z</time>
      </trkpt>
      <trkpt lat="59.4295526527" lon="17.8301554601">
        <ele>109.8</ele>
        <time>2012-10-25T19:36:38Z</time>
      </trkpt>
      <trkpt lat="59.4295772955" lon="17.8302557914">
        <ele>109.4</ele>
        <time>2012-10-25T19:36:39Z</time>
      </trkpt>
      <trkpt lat="59.4296060454" lon="17.8303574639">
        <ele>109</ele>
        <time>2012-10-25T19:36:40Z</time>
      </trkpt>
      <trkpt lat="59.4296363879" lon="17.8304422049">
        <ele>109</ele>
        <time>2012-10-25T19:36:41Z</time>
      </trkpt>
      <trkpt lat="59.4297486216" lon="17.8306194821">
        <ele>109</ele>
        <time>2012-10-25T19:36:44Z</time>
      </trkpt>
      <trkpt lat="59.4297875974" lon="17.8307046422">
        <ele>109</ele>
        <time>2012-10-25T19:36:45Z</time>
      </trkpt>
      <trkpt lat="59.4298473603" lon="17.8309012816">
        <ele>109</ele>
        <time>2012-10-25T19:36:47Z</time>
      </trkpt>
      <trkpt lat="59.42989103" lon="17.8310814086">
        <ele>109</ele>
        <time>2012-10-25T19:36:49Z</time>
      </trkpt>
      <trkpt lat="59.429940148" lon="17.8312684088">
        <ele>109</ele>
        <time>2012-10-25T19:36:51Z</time>
      </trkpt>
      <trkpt lat="59.4299666348" lon="17.8313657226">
        <ele>109</ele>
        <time>2012-10-25T19:36:52Z</time>
      </trkpt>
      <trkpt lat="59.4301036788" lon="17.831807365">
        <ele>109</ele>
        <time>2012-10-25T19:36:58Z</time>
      </trkpt>
      <trkpt lat="59.4302417287" lon="17.8318389647">
        <ele>109</ele>
        <time>2012-10-25T19:37:01Z</time>
      </trkpt>
      <trkpt lat="59.4303958719" lon="17.8317672995">
        <ele>109</ele>
        <time>2012-10-25T19:37:04Z</time>
      </trkpt>
      <trkpt lat="59.430453707" lon="17.8317375437">
        <ele>109</ele>
        <time>2012-10-25T19:37:05Z</time>
      </trkpt>
      <trkpt lat="59.4305138052" lon="17.8317076203">
        <ele>109.4</ele>
        <time>2012-10-25T19:37:06Z</time>
      </trkpt>
      <trkpt lat="59.4305755798" lon="17.8316754338">
        <ele>109.8</ele>
        <time>2012-10-25T19:37:07Z</time>
      </trkpt>
      <trkpt lat="59.4306324091" lon="17.8316388888">
        <ele>110.2</ele>
        <time>2012-10-25T19:37:08Z</time>
      </trkpt>
      <trkpt lat="59.430694519" lon="17.8316033495">
        <ele>110.6</ele>
        <time>2012-10-25T19:37:09Z</time>
      </trkpt>
      <trkpt lat="59.4307554554" lon="17.8315632002">
        <ele>111</ele>
        <time>2012-10-25T19:37:10Z</time>
      </trkpt>
      <trkpt lat="59.4308801781" lon="17.8314724242">
        <ele>111</ele>
        <time>2012-10-25T19:37:12Z</time>
      </trkpt>
      <trkpt lat="59.431223836" lon="17.8311050456">
        <ele>111</ele>
        <time>2012-10-25T19:37:18Z</time>
      </trkpt>
      <trkpt lat="59.4314970021" lon="17.8307264351">
        <ele>111</ele>
        <time>2012-10-25T19:37:23Z</time>
      </trkpt>
      <trkpt lat="59.4318569209" lon="17.8301896583">
        <ele>111</ele>
        <time>2012-10-25T19:37:30Z</time>
      </trkpt>
      <trkpt lat="59.43224911" lon="17.8297092916">
        <ele>111</ele>
        <time>2012-10-25T19:37:37Z</time>
      </trkpt>
      <trkpt lat="59.4325632636" lon="17.8293572518">
        <ele>111</ele>
        <time>2012-10-25T19:37:43Z</time>
      </trkpt>
      <trkpt lat="59.4328821949" lon="17.829037147">
        <ele>111</ele>
        <time>2012-10-25T19:37:49Z</time>
      </trkpt>
      <trkpt lat="59.4331972705" lon="17.828774123">
        <ele>111.8</ele>
        <time>2012-10-25T19:37:55Z</time>
      </trkpt>
      <trkpt lat="59.4332504956" lon="17.8287457922">
        <ele>112.4</ele>
        <time>2012-10-25T19:37:56Z</time>
      </trkpt>
      <trkpt lat="59.4332991944" lon="17.8287147791">
        <ele>112.8</ele>
        <time>2012-10-25T19:37:57Z</time>
      </trkpt>
      <trkpt lat="59.4333443728" lon="17.8286866159">
        <ele>113.2</ele>
        <time>2012-10-25T19:37:58Z</time>
      </trkpt>
      <trkpt lat="59.4334452909" lon="17.8286421919">
        <ele>113.2</ele>
        <time>2012-10-25T19:38:00Z</time>
      </trkpt>
      <trkpt lat="59.4334941574" lon="17.8286293676">
        <ele>113.2</ele>
        <time>2012-10-25T19:38:01Z</time>
      </trkpt>
      <trkpt lat="59.4335455384" lon="17.8286252604">
        <ele>113.2</ele>
        <time>2012-10-25T19:38:02Z</time>
      </trkpt>
      <trkpt lat="59.4337591092" lon="17.8286002824">
        <ele>113.2</ele>
        <time>2012-10-25T19:38:06Z</time>
      </trkpt>
      <trkpt lat="59.434143587" lon="17.8285529246">
        <ele>113.6</ele>
        <time>2012-10-25T19:38:13Z</time>
      </trkpt>
      <trkpt lat="59.434195471" lon="17.8285523379">
        <ele>114</ele>
        <time>2012-10-25T19:38:14Z</time>
      </trkpt>
      <trkpt lat="59.43424593" lon="17.8285504101">
        <ele>114.4</ele>
        <time>2012-10-25T19:38:15Z</time>
      </trkpt>
      <trkpt lat="59.4342950479" lon="17.828542112">
        <ele>114.8</ele>
        <time>2012-10-25T19:38:16Z</time>
      </trkpt>
      <trkpt lat="59.4343455908" lon="17.8285281142">
        <ele>115.2</ele>
        <time>2012-10-25T19:38:17Z</time>
      </trkpt>
      <trkpt lat="59.4345017456" lon="17.8285019627">
        <ele>115.2</ele>
        <time>2012-10-25T19:38:20Z</time>
      </trkpt>
      <trkpt lat="59.4348605747" lon="17.8284843607">
        <ele>115.6</ele>
        <time>2012-10-25T19:38:27Z</time>
      </trkpt>
      <trkpt lat="59.4349110338" lon="17.8284908986">
        <ele>116.2</ele>
        <time>2012-10-25T19:38:28Z</time>
      </trkpt>
      <trkpt lat="59.4349556255" lon="17.8285483984">
        <ele>116.6</ele>
        <time>2012-10-25T19:38:29Z</time>
      </trkpt>
      <trkpt lat="59.4349999657" lon="17.8286197284">
        <ele>117</ele>
        <time>2012-10-25T19:38:30Z</time>
      </trkpt>
      <trkpt lat="59.4350375166" lon="17.828689382">
        <ele>117.4</ele>
        <time>2012-10-25T19:38:31Z</time>
      </trkpt>
      <trkpt lat="59.4351139596" lon="17.828815781">
        <ele>117.4</ele>
        <time>2012-10-25T19:38:33Z</time>
      </trkpt>
      <trkpt lat="59.4352051546" lon="17.828833383">
        <ele>117.4</ele>
        <time>2012-10-25T19:38:35Z</time>
      </trkpt>
      <trkpt lat="59.4353017979" lon="17.8287956645">
        <ele>117.4</ele>
        <time>2012-10-25T19:38:37Z</time>
      </trkpt>
      <trkpt lat="59.4354059011" lon="17.8287283578">
        <ele>117.8</ele>
        <time>2012-10-25T19:38:39Z</time>
      </trkpt>
      <trkpt lat="59.4354579527" lon="17.8286929024">
        <ele>118.2</ele>
        <time>2012-10-25T19:38:40Z</time>
      </trkpt>
      <trkpt lat="59.435511094" lon="17.828663901">
        <ele>118.6</ele>
        <time>2012-10-25T19:38:41Z</time>
      </trkpt>
      <trkpt lat="59.4355616368" lon="17.8286354864">
        <ele>119</ele>
        <time>2012-10-25T19:38:42Z</time>
      </trkpt>
      <trkpt lat="59.4356097489" lon="17.828603216">
        <ele>119.4</ele>
        <time>2012-10-25T19:38:43Z</time>
      </trkpt>
      <trkpt lat="59.4356556818" lon="17.82855787">
        <ele>119.4</ele>
        <time>2012-10-25T19:38:44Z</time>
      </trkpt>
      <trkpt lat="59.4357488047" lon="17.8284657529">
        <ele>119.4</ele>
        <time>2012-10-25T19:38:46Z</time>
      </trkpt>
      <trkpt lat="59.4360697476" lon="17.8281305607">
        <ele>119.8</ele>
        <time>2012-10-25T19:38:53Z</time>
      </trkpt>
      <trkpt lat="59.4361153452" lon="17.8280824486">
        <ele>120.2</ele>
        <time>2012-10-25T19:38:54Z</time>
      </trkpt>
      <trkpt lat="59.4361630382" lon="17.8280303132">
        <ele>120.8</ele>
        <time>2012-10-25T19:38:55Z</time>
      </trkpt>
      <trkpt lat="59.4362105635" lon="17.8279735677">
        <ele>121.2</ele>
        <time>2012-10-25T19:38:56Z</time>
      </trkpt>
      <trkpt lat="59.4362575022" lon="17.8279217676">
        <ele>121.6</ele>
        <time>2012-10-25T19:38:57Z</time>
      </trkpt>
      <trkpt lat="59.4363972285" lon="17.8277564765">
        <ele>121.6</ele>
        <time>2012-10-25T19:39:00Z</time>
      </trkpt>
      <trkpt lat="59.4367562252" lon="17.8275051033">
        <ele>121.6</ele>
        <time>2012-10-25T19:39:07Z</time>
      </trkpt>
      <trkpt lat="59.4369187503" lon="17.8274646187">
        <ele>122</ele>
        <time>2012-10-25T19:39:10Z</time>
      </trkpt>
      <trkpt lat="59.4369713048" lon="17.8274654569">
        <ele>122.4</ele>
        <time>2012-10-25T19:39:11Z</time>
      </trkpt>
      <trkpt lat="59.4370221829" lon="17.827477024">
        <ele>122.8</ele>
        <time>2012-10-25T19:39:12Z</time>
      </trkpt>
      <trkpt lat="59.437070295" lon="17.8274917761">
        <ele>123.2</ele>
        <time>2012-10-25T19:39:13Z</time>
      </trkpt>
      <trkpt lat="59.4371189939" lon="17.827521448">
        <ele>123.6</ele>
        <time>2012-10-25T19:39:14Z</time>
      </trkpt>
      <trkpt lat="59.4373992008" lon="17.8276816261">
        <ele>123.6</ele>
        <time>2012-10-25T19:39:19Z</time>
      </trkpt>
      <trkpt lat="59.4375907272" lon="17.8278041695">
        <ele>123.6</ele>
        <time>2012-10-25T19:39:22Z</time>
      </trkpt>
      <trkpt lat="59.4376480594" lon="17.8278429777">
        <ele>123.6</ele>
        <time>2012-10-25T19:39:23Z</time>
      </trkpt>
      <trkpt lat="59.437943689" lon="17.8280057542">
        <ele>123.6</ele>
        <time>2012-10-25T19:39:28Z</time>
      </trkpt>
      <trkpt lat="59.4381804777" lon="17.828087813">
        <ele>123.6</ele>
        <time>2012-10-25T19:39:32Z</time>
      </trkpt>
      <trkpt lat="59.4382371393" lon="17.828042886">
        <ele>123.6</ele>
        <time>2012-10-25T19:39:33Z</time>
      </trkpt>
      <trkpt lat="59.4383790449" lon="17.8277718992">
        <ele>123.6</ele>
        <time>2012-10-25T19:39:36Z</time>
      </trkpt>
      <trkpt lat="59.438444759" lon="17.827379291">
        <ele>123.6</ele>
        <time>2012-10-25T19:39:39Z</time>
      </trkpt>
      <trkpt lat="59.4384585891" lon="17.8272654648">
        <ele>123.6</ele>
        <time>2012-10-25T19:39:40Z</time>
      </trkpt>
      <trkpt lat="59.4384995766" lon="17.8270399079">
        <ele>123.6</ele>
        <time>2012-10-25T19:39:42Z</time>
      </trkpt>
      <trkpt lat="59.4385504547" lon="17.8268192124">
        <ele>123.6</ele>
        <time>2012-10-25T19:39:44Z</time>
      </trkpt>
      <trkpt lat="59.4385970581" lon="17.8267334656">
        <ele>123.6</ele>
        <time>2012-10-25T19:39:45Z</time>
      </trkpt>
      <trkpt lat="59.4386601738" lon="17.8267027879">
        <ele>123.6</ele>
        <time>2012-10-25T19:39:46Z</time>
      </trkpt>
      <trkpt lat="59.4388461682" lon="17.8267431886">
        <ele>123.6</ele>
        <time>2012-10-25T19:39:49Z</time>
      </trkpt>
      <trkpt lat="59.4389077751" lon="17.8267690887">
        <ele>123.6</ele>
        <time>2012-10-25T19:39:50Z</time>
      </trkpt>
      <trkpt lat="59.4392799315" lon="17.8268446096">
        <ele>123.6</ele>
        <time>2012-10-25T19:39:56Z</time>
      </trkpt>
      <trkpt lat="59.4397652435" lon="17.8268255827">
        <ele>123.6</ele>
        <time>2012-10-25T19:40:04Z</time>
      </trkpt>
      <trkpt lat="59.4401189597" lon="17.8267148578">
        <ele>123.6</ele>
        <time>2012-10-25T19:40:10Z</time>
      </trkpt>
      <trkpt lat="59.4404725082" lon="17.8265590383">
        <ele>123.6</ele>
        <time>2012-10-25T19:40:16Z</time>
      </trkpt>
      <trkpt lat="59.4408207762" lon="17.8263537655">
        <ele>123.6</ele>
        <time>2012-10-25T19:40:21Z</time>
      </trkpt>
      <trkpt lat="59.4412276336" lon="17.8260750674">
        <ele>123.6</ele>
        <time>2012-10-25T19:40:27Z</time>
      </trkpt>
      <trkpt lat="59.4417068268" lon="17.825772816">
        <ele>123.6</ele>
        <time>2012-10-25T19:40:34Z</time>
      </trkpt>
      <trkpt lat="59.4421032907" lon="17.8255666213">
        <ele>123.6</ele>
        <time>2012-10-25T19:40:40Z</time>
      </trkpt>
      <trkpt lat="59.4422306118" lon="17.8255092053">
        <ele>123.6</ele>
        <time>2012-10-25T19:40:42Z</time>
      </trkpt>
      <trkpt lat="59.4426342841" lon="17.8253314252">
        <ele>123.6</ele>
        <time>2012-10-25T19:40:48Z</time>
      </trkpt>
      <trkpt lat="59.4430229528" lon="17.8252391405">
        <ele>123.6</ele>
        <time>2012-10-25T19:40:54Z</time>
      </trkpt>
      <trkpt lat="59.4435807682" lon="17.825219443">
        <ele>123.6</ele>
        <time>2012-10-25T19:41:02Z</time>
      </trkpt>
      <trkpt lat="59.4439317184" lon="17.8252594247">
        <ele>124</ele>
        <time>2012-10-25T19:41:06Z</time>
      </trkpt>
      <trkpt lat="59.4440141124" lon="17.8252651244">
        <ele>124.6</ele>
        <time>2012-10-25T19:41:07Z</time>
      </trkpt>
      <trkpt lat="59.4440937405" lon="17.8252704888">
        <ele>125</ele>
        <time>2012-10-25T19:41:08Z</time>
      </trkpt>
      <trkpt lat="59.4441707702" lon="17.8252871688">
        <ele>125.4</ele>
        <time>2012-10-25T19:41:09Z</time>
      </trkpt>
      <trkpt lat="59.4442524099" lon="17.8253051898">
        <ele>125.8</ele>
        <time>2012-10-25T19:41:10Z</time>
      </trkpt>
      <trkpt lat="59.444411666" lon="17.8253352809">
        <ele>125.8</ele>
        <time>2012-10-25T19:41:12Z</time>
      </trkpt>
      <trkpt lat="59.4448642047" lon="17.8254370371">
        <ele>125.8</ele>
        <time>2012-10-25T19:41:18Z</time>
      </trkpt>
      <trkpt lat="59.4453215212" lon="17.8255366979">
        <ele>125.8</ele>
        <time>2012-10-25T19:41:24Z</time>
      </trkpt>
      <trkpt lat="59.4459008781" lon="17.8256113807">
        <ele>125.8</ele>
        <time>2012-10-25T19:41:32Z</time>
      </trkpt>
      <trkpt lat="59.446447378" lon="17.8255802">
        <ele>125.8</ele>
        <time>2012-10-25T19:41:40Z</time>
      </trkpt>
      <trkpt lat="59.4468596837" lon="17.8255259691">
        <ele>125.8</ele>
        <time>2012-10-25T19:41:46Z</time>
      </trkpt>
      <trkpt lat="59.4471236297" lon="17.8254348578">
        <ele>125.8</ele>
        <time>2012-10-25T19:41:50Z</time>
      </trkpt>
      <trkpt lat="59.4472552255" lon="17.8253657072">
        <ele>125.8</ele>
        <time>2012-10-25T19:41:52Z</time>
      </trkpt>
      <trkpt lat="59.4477065908" lon="17.8250560798">
        <ele>125.8</ele>
        <time>2012-10-25T19:41:59Z</time>
      </trkpt>
      <trkpt lat="59.4477702933" lon="17.825010147">
        <ele>125.4</ele>
        <time>2012-10-25T19:42:00Z</time>
      </trkpt>
      <trkpt lat="59.4478383543" lon="17.8249474504">
        <ele>125</ele>
        <time>2012-10-25T19:42:01Z</time>
      </trkpt>
      <trkpt lat="59.447899626" lon="17.8248822392">
        <ele>124.2</ele>
        <time>2012-10-25T19:42:02Z</time>
      </trkpt>
      <trkpt lat="59.4479644181" lon="17.8248254937">
        <ele>123.8</ele>
        <time>2012-10-25T19:42:03Z</time>
      </trkpt>
      <trkpt lat="59.4480934155" lon="17.8247198818">
        <ele>123.8</ele>
        <time>2012-10-25T19:42:05Z</time>
      </trkpt>
      <trkpt lat="59.4484999377" lon="17.8244374956">
        <ele>123.8</ele>
        <time>2012-10-25T19:42:12Z</time>
      </trkpt>
      <trkpt lat="59.4485931444" lon="17.8243587895">
        <ele>123.8</ele>
        <time>2012-10-25T19:42:14Z</time>
      </trkpt>
      <trkpt lat="59.4486749518" lon="17.8241754774">
        <ele>123.8</ele>
        <time>2012-10-25T19:42:16Z</time>
      </trkpt>
      <trkpt lat="59.4487004327" lon="17.8237852161">
        <ele>123.8</ele>
        <time>2012-10-25T19:42:19Z</time>
      </trkpt>
      <trkpt lat="59.4486714314" lon="17.8235320827">
        <ele>123.8</ele>
        <time>2012-10-25T19:42:21Z</time>
      </trkpt>
      <trkpt lat="59.44864704" lon="17.8232697292">
        <ele>123.8</ele>
        <time>2012-10-25T19:42:23Z</time>
      </trkpt>
      <trkpt lat="59.4486254985" lon="17.8224658212">
        <ele>123.8</ele>
        <time>2012-10-25T19:42:29Z</time>
      </trkpt>
      <trkpt lat="59.4486171166" lon="17.8216787608">
        <ele>123.8</ele>
        <time>2012-10-25T19:42:35Z</time>
      </trkpt>
      <trkpt lat="59.4486483811" lon="17.8207658881">
        <ele>123.8</ele>
        <time>2012-10-25T19:42:42Z</time>
      </trkpt>
      <trkpt lat="59.4487191244" lon="17.8197264487">
        <ele>123.8</ele>
        <time>2012-10-25T19:42:50Z</time>
      </trkpt>
      <trkpt lat="59.4488477027" lon="17.818682483">
        <ele>123.8</ele>
        <time>2012-10-25T19:42:58Z</time>
      </trkpt>
      <trkpt lat="59.4489667257" lon="17.8178923213">
        <ele>123.4</ele>
        <time>2012-10-25T19:43:04Z</time>
      </trkpt>
      <trkpt lat="59.4489871775" lon="17.8177629886">
        <ele>123</ele>
        <time>2012-10-25T19:43:05Z</time>
      </trkpt>
      <trkpt lat="59.4490071265" lon="17.8176308898">
        <ele>122.6</ele>
        <time>2012-10-25T19:43:06Z</time>
      </trkpt>
      <trkpt lat="59.4490256504" lon="17.8175054128">
        <ele>122.2</ele>
        <time>2012-10-25T19:43:07Z</time>
      </trkpt>
      <trkpt lat="59.4490441744" lon="17.8173767506">
        <ele>121.8</ele>
        <time>2012-10-25T19:43:08Z</time>
      </trkpt>
      <trkpt lat="59.4490725891" lon="17.8172464121">
        <ele>121.8</ele>
        <time>2012-10-25T19:43:09Z</time>
      </trkpt>
      <trkpt lat="59.4491065358" lon="17.8171152354">
        <ele>121.2</ele>
        <time>2012-10-25T19:43:10Z</time>
      </trkpt>
      <trkpt lat="59.4491429132" lon="17.8169776884">
        <ele>120.8</ele>
        <time>2012-10-25T19:43:11Z</time>
      </trkpt>
      <trkpt lat="59.4491794583" lon="17.8168455896">
        <ele>120.4</ele>
        <time>2012-10-25T19:43:12Z</time>
      </trkpt>
      <trkpt lat="59.4492102199" lon="17.8167063663">
        <ele>120</ele>
        <time>2012-10-25T19:43:13Z</time>
      </trkpt>
      <trkpt lat="59.449243496" lon="17.81656664">
        <ele>119.6</ele>
        <time>2012-10-25T19:43:14Z</time>
      </trkpt>
      <trkpt lat="59.4493556459" lon="17.8161519874">
        <ele>119.6</ele>
        <time>2012-10-25T19:43:17Z</time>
      </trkpt>
      <trkpt lat="59.4494367826" lon="17.8158790727">
        <ele>119</ele>
        <time>2012-10-25T19:43:19Z</time>
      </trkpt>
      <trkpt lat="59.4494734954" lon="17.8157395141">
        <ele>118.6</ele>
        <time>2012-10-25T19:43:20Z</time>
      </trkpt>
      <trkpt lat="59.4495128065" lon="17.815601548">
        <ele>118.2</ele>
        <time>2012-10-25T19:43:21Z</time>
      </trkpt>
      <trkpt lat="59.4495494354" lon="17.8154605645">
        <ele>117.8</ele>
        <time>2012-10-25T19:43:22Z</time>
      </trkpt>
      <trkpt lat="59.4495904229" lon="17.8153272923">
        <ele>117.4</ele>
        <time>2012-10-25T19:43:23Z</time>
      </trkpt>
      <trkpt lat="59.449628812" lon="17.8151900806">
        <ele>117.4</ele>
        <time>2012-10-25T19:43:24Z</time>
      </trkpt>
      <trkpt lat="59.4499272076" lon="17.8142408304">
        <ele>117.4</ele>
        <time>2012-10-25T19:43:31Z</time>
      </trkpt>
      <trkpt lat="59.4502409421" lon="17.8133574619">
        <ele>117.4</ele>
        <time>2012-10-25T19:43:38Z</time>
      </trkpt>
      <trkpt lat="59.4502848633" lon="17.8132339966">
        <ele>116.8</ele>
        <time>2012-10-25T19:43:39Z</time>
      </trkpt>
      <trkpt lat="59.4503279463" lon="17.8131072622">
        <ele>116.4</ele>
        <time>2012-10-25T19:43:40Z</time>
      </trkpt>
      <trkpt lat="59.4503744658" lon="17.8129811146">
        <ele>115.6</ele>
        <time>2012-10-25T19:43:41Z</time>
      </trkpt>
      <trkpt lat="59.450419309" lon="17.8128614211">
        <ele>115.2</ele>
        <time>2012-10-25T19:43:42Z</time>
      </trkpt>
      <trkpt lat="59.4506493921" lon="17.8122808907">
        <ele>115.2</ele>
        <time>2012-10-25T19:43:47Z</time>
      </trkpt>
      <trkpt lat="59.4510170223" lon="17.8113819319">
        <ele>115.2</ele>
        <time>2012-10-25T19:43:55Z</time>
      </trkpt>
      <trkpt lat="59.4510636256" lon="17.8112786669">
        <ele>115.2</ele>
        <time>2012-10-25T19:43:56Z</time>
      </trkpt>
      <trkpt lat="59.4513491969" lon="17.8106811213">
        <ele>115.2</ele>
        <time>2012-10-25T19:44:02Z</time>
      </trkpt>
      <trkpt lat="59.4514395538" lon="17.8104868288">
        <ele>114.8</ele>
        <time>2012-10-25T19:44:04Z</time>
      </trkpt>
      <trkpt lat="59.4514817986" lon="17.8103912752">
        <ele>113.8</ele>
        <time>2012-10-25T19:44:05Z</time>
      </trkpt>
      <trkpt lat="59.4515271447" lon="17.8102918658">
        <ele>113.4</ele>
        <time>2012-10-25T19:44:06Z</time>
      </trkpt>
      <trkpt lat="59.4515740833" lon="17.810187595">
        <ele>112.8</ele>
        <time>2012-10-25T19:44:07Z</time>
      </trkpt>
      <trkpt lat="59.4516202676" lon="17.8100818992">
        <ele>112.2</ele>
        <time>2012-10-25T19:44:08Z</time>
      </trkpt>
      <trkpt lat="59.4516682959" lon="17.8099762873">
        <ele>111.8</ele>
        <time>2012-10-25T19:44:09Z</time>
      </trkpt>
      <trkpt lat="59.4517135581" lon="17.809871765">
        <ele>111.2</ele>
        <time>2012-10-25T19:44:10Z</time>
      </trkpt>
      <trkpt lat="59.4517597424" lon="17.8097664045">
        <ele>110.8</ele>
        <time>2012-10-25T19:44:11Z</time>
      </trkpt>
      <trkpt lat="59.4519339183" lon="17.8093858663">
        <ele>110.8</ele>
        <time>2012-10-25T19:44:15Z</time>
      </trkpt>
      <trkpt lat="59.4521776639" lon="17.8089091876">
        <ele>110.8</ele>
        <time>2012-10-25T19:44:20Z</time>
      </trkpt>
      <trkpt lat="59.4523655023" lon="17.8085490174">
        <ele>111.2</ele>
        <time>2012-10-25T19:44:24Z</time>
      </trkpt>
      <trkpt lat="59.4524125248" lon="17.808463522">
        <ele>111.6</ele>
        <time>2012-10-25T19:44:25Z</time>
      </trkpt>
      <trkpt lat="59.4524615589" lon="17.8083748415">
        <ele>112</ele>
        <time>2012-10-25T19:44:26Z</time>
      </trkpt>
      <trkpt lat="59.4525093357" lon="17.8082849037">
        <ele>112.4</ele>
        <time>2012-10-25T19:44:27Z</time>
      </trkpt>
      <trkpt lat="59.4525554362" lon="17.8082041022">
        <ele>112.8</ele>
        <time>2012-10-25T19:44:28Z</time>
      </trkpt>
      <trkpt lat="59.4527790653" lon="17.8078033636">
        <ele>112.8</ele>
        <time>2012-10-25T19:44:33Z</time>
      </trkpt>
      <trkpt lat="59.4528234893" lon="17.8077286808">
        <ele>112.4</ele>
        <time>2012-10-25T19:44:34Z</time>
      </trkpt>
      <trkpt lat="59.4528677458" lon="17.8076439398">
        <ele>111.8</ele>
        <time>2012-10-25T19:44:35Z</time>
      </trkpt>
      <trkpt lat="59.4529099067" lon="17.8075670778">
        <ele>111.4</ele>
        <time>2012-10-25T19:44:36Z</time>
      </trkpt>
      <trkpt lat="59.45294729" lon="17.8074845999">
        <ele>111</ele>
        <time>2012-10-25T19:44:37Z</time>
      </trkpt>
      <trkpt lat="59.4529906244" lon="17.8074141919">
        <ele>110.4</ele>
        <time>2012-10-25T19:44:38Z</time>
      </trkpt>
      <trkpt lat="59.4530315281" lon="17.8073407665">
        <ele>110.4</ele>
        <time>2012-10-25T19:44:39Z</time>
      </trkpt>
      <trkpt lat="59.4533120703" lon="17.8068633335">
        <ele>110.4</ele>
        <time>2012-10-25T19:44:46Z</time>
      </trkpt>
      <trkpt lat="59.4535178459" lon="17.806503247">
        <ele>110.4</ele>
        <time>2012-10-25T19:44:51Z</time>
      </trkpt>
      <trkpt lat="59.4535598393" lon="17.8064382035">
        <ele>110.4</ele>
        <time>2012-10-25T19:44:52Z</time>
      </trkpt>
      <trkpt lat="59.4537278125" lon="17.806119356">
        <ele>111</ele>
        <time>2012-10-25T19:44:56Z</time>
      </trkpt>
      <trkpt lat="59.4537705602" lon="17.8060454277">
        <ele>111.6</ele>
        <time>2012-10-25T19:44:57Z</time>
      </trkpt>
      <trkpt lat="59.4538040878" lon="17.8059696553">
        <ele>112.2</ele>
        <time>2012-10-25T19:44:58Z</time>
      </trkpt>
      <trkpt lat="59.4538464164" lon="17.8059018457">
        <ele>112.6</ele>
        <time>2012-10-25T19:44:59Z</time>
      </trkpt>
      <trkpt lat="59.4538858113" lon="17.8058349582">
        <ele>113.2</ele>
        <time>2012-10-25T19:45:00Z</time>
      </trkpt>
      <trkpt lat="59.453967954" lon="17.8057157675">
        <ele>113.2</ele>
        <time>2012-10-25T19:45:02Z</time>
      </trkpt>
      <trkpt lat="59.4541460693" lon="17.8054869417">
        <ele>113.2</ele>
        <time>2012-10-25T19:45:06Z</time>
      </trkpt>
      <trkpt lat="59.4543251905" lon="17.8052179665">
        <ele>113.2</ele>
        <time>2012-10-25T19:45:10Z</time>
      </trkpt>
      <trkpt lat="59.4543706204" lon="17.8051599637">
        <ele>113.2</ele>
        <time>2012-10-25T19:45:11Z</time>
      </trkpt>
      <trkpt lat="59.4544951755" lon="17.8049701975">
        <ele>113.2</ele>
        <time>2012-10-25T19:45:14Z</time>
      </trkpt>
      <trkpt lat="59.454580587" lon="17.8048447205">
        <ele>113.2</ele>
        <time>2012-10-25T19:45:16Z</time>
      </trkpt>
      <trkpt lat="59.4546702734" lon="17.8047335765">
        <ele>113.2</ele>
        <time>2012-10-25T19:45:18Z</time>
      </trkpt>
      <trkpt lat="59.4547820041" lon="17.8046746517">
        <ele>112.2</ele>
        <time>2012-10-25T19:45:20Z</time>
      </trkpt>
      <trkpt lat="59.4548411803" lon="17.8046285513">
        <ele>111.8</ele>
        <time>2012-10-25T19:45:21Z</time>
      </trkpt>
      <trkpt lat="59.4549011109" lon="17.8045721411">
        <ele>111.2</ele>
        <time>2012-10-25T19:45:22Z</time>
      </trkpt>
      <trkpt lat="59.4549533301" lon="17.804498548">
        <ele>110.8</ele>
        <time>2012-10-25T19:45:23Z</time>
      </trkpt>
      <trkpt lat="59.4549993468" lon="17.8044181656">
        <ele>110.8</ele>
        <time>2012-10-25T19:45:24Z</time>
      </trkpt>
      <trkpt lat="59.4551765401" lon="17.8043366935">
        <ele>110.8</ele>
        <time>2012-10-25T19:45:27Z</time>
      </trkpt>
      <trkpt lat="59.4552981615" lon="17.804380028">
        <ele>110.8</ele>
        <time>2012-10-25T19:45:29Z</time>
      </trkpt>
      <trkpt lat="59.4553557451" lon="17.8044058442">
        <ele>110.8</ele>
        <time>2012-10-25T19:45:30Z</time>
      </trkpt>
      <trkpt lat="59.4554155919" lon="17.8044500168">
        <ele>110.8</ele>
        <time>2012-10-25T19:45:31Z</time>
      </trkpt>
      <trkpt lat="59.4554766121" lon="17.8044924292">
        <ele>111.2</ele>
        <time>2012-10-25T19:45:32Z</time>
      </trkpt>
      <trkpt lat="59.455536878" lon="17.8045371048">
        <ele>111.6</ele>
        <time>2012-10-25T19:45:33Z</time>
      </trkpt>
      <trkpt lat="59.4555973115" lon="17.8046007234">
        <ele>112</ele>
        <time>2012-10-25T19:45:34Z</time>
      </trkpt>
      <trkpt lat="59.4556575774" lon="17.8046609892">
        <ele>112.6</ele>
        <time>2012-10-25T19:45:35Z</time>
      </trkpt>
      <trkpt lat="59.4557243811" lon="17.804725027">
        <ele>113</ele>
        <time>2012-10-25T19:45:36Z</time>
      </trkpt>
      <trkpt lat="59.4559118842" lon="17.8048883064">
        <ele>113.4</ele>
        <time>2012-10-25T19:45:39Z</time>
      </trkpt>
      <trkpt lat="59.4559660313" lon="17.8049382625">
        <ele>113.8</ele>
        <time>2012-10-25T19:45:40Z</time>
      </trkpt>
      <trkpt lat="59.4560222738" lon="17.8049892244">
        <ele>114.2</ele>
        <time>2012-10-25T19:45:41Z</time>
      </trkpt>
      <trkpt lat="59.4560703859" lon="17.8050551062">
        <ele>114.6</ele>
        <time>2012-10-25T19:45:42Z</time>
      </trkpt>
      <trkpt lat="59.4561198392" lon="17.8051053976">
        <ele>115</ele>
        <time>2012-10-25T19:45:43Z</time>
      </trkpt>
      <trkpt lat="59.4562300611" lon="17.8051869535">
        <ele>115</ele>
        <time>2012-10-25T19:45:45Z</time>
      </trkpt>
      <trkpt lat="59.4562845435" lon="17.8052277733">
        <ele>115</ele>
        <time>2012-10-25T19:45:46Z</time>
      </trkpt>
      <trkpt lat="59.4566002058" lon="17.8054799009">
        <ele>115</ele>
        <time>2012-10-25T19:45:52Z</time>
      </trkpt>
      <trkpt lat="59.4568846875" lon="17.8056898675">
        <ele>115</ele>
        <time>2012-10-25T19:45:58Z</time>
      </trkpt>
      <trkpt lat="59.457080824" lon="17.8055524043">
        <ele>115</ele>
        <time>2012-10-25T19:46:02Z</time>
      </trkpt>
      <trkpt lat="59.4571585242" lon="17.805411756">
        <ele>115</ele>
        <time>2012-10-25T19:46:04Z</time>
      </trkpt>
      <trkpt lat="59.4572806485" lon="17.8052005321">
        <ele>115</ele>
        <time>2012-10-25T19:46:07Z</time>
      </trkpt>
      <trkpt lat="59.4573573429" lon="17.8050517534">
        <ele>115.4</ele>
        <time>2012-10-25T19:46:09Z</time>
      </trkpt>
      <trkpt lat="59.4573979951" lon="17.8049972711">
        <ele>115.8</ele>
        <time>2012-10-25T19:46:10Z</time>
      </trkpt>
      <trkpt lat="59.4574388988" lon="17.8049473149">
        <ele>116.2</ele>
        <time>2012-10-25T19:46:11Z</time>
      </trkpt>
      <trkpt lat="59.457480473" lon="17.8048819361">
        <ele>116.6</ele>
        <time>2012-10-25T19:46:12Z</time>
      </trkpt>
      <trkpt lat="59.4575274116" lon="17.8048187366">
        <ele>117.2</ele>
        <time>2012-10-25T19:46:13Z</time>
      </trkpt>
      <trkpt lat="59.4577664634" lon="17.8045731469">
        <ele>117.2</ele>
        <time>2012-10-25T19:46:18Z</time>
      </trkpt>
      <trkpt lat="59.4578715724" lon="17.8044988833">
        <ele>117.2</ele>
        <time>2012-10-25T19:46:20Z</time>
      </trkpt>
      <trkpt lat="59.4579881647" lon="17.8044465802">
        <ele>117.2</ele>
        <time>2012-10-25T19:46:22Z</time>
      </trkpt>
      <trkpt lat="59.4581575629" lon="17.8044113763">
        <ele>117.2</ele>
        <time>2012-10-25T19:46:25Z</time>
      </trkpt>
      <trkpt lat="59.4582613308" lon="17.8044146452">
        <ele>116.6</ele>
        <time>2012-10-25T19:46:27Z</time>
      </trkpt>
      <trkpt lat="59.4583103649" lon="17.8044200934">
        <ele>116.2</ele>
        <time>2012-10-25T19:46:28Z</time>
      </trkpt>
      <trkpt lat="59.4583583094" lon="17.8044267151">
        <ele>115.8</ele>
        <time>2012-10-25T19:46:29Z</time>
      </trkpt>
      <trkpt lat="59.458404326" lon="17.8044247035">
        <ele>115.2</ele>
        <time>2012-10-25T19:46:30Z</time>
      </trkpt>
      <trkpt lat="59.4584451458" lon="17.8044213507">
        <ele>114.8</ele>
        <time>2012-10-25T19:46:31Z</time>
      </trkpt>
      <trkpt lat="59.4586459762" lon="17.8044381145">
        <ele>114.8</ele>
        <time>2012-10-25T19:46:37Z</time>
      </trkpt>
      <trkpt lat="59.4587415298" lon="17.8044422216">
        <ele>114.8</ele>
        <time>2012-10-25T19:46:40Z</time>
      </trkpt>
      <trkpt lat="59.4587547732" lon="17.804428643">
        <ele>114.8</ele>
        <time>2012-10-25T19:46:41Z</time>
      </trkpt>
    </trkseg>
  </trk>
</gpx>